<?xml version="1.0" encoding="UTF-8" standalone="no" ?>
<gpx xmlns="http://www.topografix.com/GPX/1/1" xmlns:xsi="http://www.w3.org/2001/XMLSchema-instance" xsi:schemaLocation="http://www.topografix.com/GPX/1/1 http://www.topografix.com/GPX/1/1/gpx.xsd" version="1.1" creator="VisuGPX - https://www.visugpx.com">
  <metadata>
    <name>ballade autour de gascougnolles</name>
    <desc><![CDATA[ballade du 12 décembre 2010]]></desc>
  </metadata>
  <trk>
    <name><![CDATA[Entraînement libre]]></name>
    <trkseg>
      <trkpt lat="46.30719" lon="-0.34242">
        <ele>58.0225</ele>
        <time>2010-12-12T12:45:28Z</time>
      </trkpt>
      <trkpt lat="46.30724" lon="-0.34233">
        <ele>59.3136</ele>
        <time>2010-12-12T12:45:34Z</time>
      </trkpt>
      <trkpt lat="46.30727" lon="-0.34224">
        <ele>63.2586</ele>
        <time>2010-12-12T12:45:50Z</time>
      </trkpt>
      <trkpt lat="46.30727" lon="-0.34222">
        <ele>63.3759</ele>
        <time>2010-12-12T12:45:51Z</time>
      </trkpt>
      <trkpt lat="46.30727" lon="-0.34221">
        <ele>63.5191</ele>
        <time>2010-12-12T12:45:52Z</time>
      </trkpt>
      <trkpt lat="46.30727" lon="-0.34219">
        <ele>63.4999</ele>
        <time>2010-12-12T12:45:53Z</time>
      </trkpt>
      <trkpt lat="46.30727" lon="-0.34218">
        <ele>63.7572</ele>
        <time>2010-12-12T12:45:54Z</time>
      </trkpt>
      <trkpt lat="46.30727" lon="-0.34216">
        <ele>63.7731</ele>
        <time>2010-12-12T12:45:55Z</time>
      </trkpt>
      <trkpt lat="46.30727" lon="-0.34215">
        <ele>63.7926</ele>
        <time>2010-12-12T12:45:56Z</time>
      </trkpt>
      <trkpt lat="46.30727" lon="-0.34214">
        <ele>63.8155</ele>
        <time>2010-12-12T12:45:57Z</time>
      </trkpt>
      <trkpt lat="46.30727" lon="-0.34212">
        <ele>63.841</ele>
        <time>2010-12-12T12:45:58Z</time>
      </trkpt>
      <trkpt lat="46.30727" lon="-0.34211">
        <ele>63.8696</ele>
        <time>2010-12-12T12:45:59Z</time>
      </trkpt>
      <trkpt lat="46.30727" lon="-0.3421">
        <ele>63.8928</ele>
        <time>2010-12-12T12:46:00Z</time>
      </trkpt>
      <trkpt lat="46.30727" lon="-0.34209">
        <ele>63.9092</ele>
        <time>2010-12-12T12:46:01Z</time>
      </trkpt>
      <trkpt lat="46.30727" lon="-0.34208">
        <ele>63.9091</ele>
        <time>2010-12-12T12:46:07Z</time>
      </trkpt>
      <trkpt lat="46.30727" lon="-0.34207">
        <ele>63.906</ele>
        <time>2010-12-12T12:46:08Z</time>
      </trkpt>
      <trkpt lat="46.30727" lon="-0.34205">
        <ele>63.8988</ele>
        <time>2010-12-12T12:46:09Z</time>
      </trkpt>
      <trkpt lat="46.30727" lon="-0.34204">
        <ele>63.8904</ele>
        <time>2010-12-12T12:46:10Z</time>
      </trkpt>
      <trkpt lat="46.30727" lon="-0.34202">
        <ele>63.8805</ele>
        <time>2010-12-12T12:46:11Z</time>
      </trkpt>
      <trkpt lat="46.30727" lon="-0.34201">
        <ele>63.872</ele>
        <time>2010-12-12T12:46:12Z</time>
      </trkpt>
      <trkpt lat="46.30727" lon="-0.342">
        <ele>63.869</ele>
        <time>2010-12-12T12:46:13Z</time>
      </trkpt>
      <trkpt lat="46.30727" lon="-0.34199">
        <ele>63.8729</ele>
        <time>2010-12-12T12:46:14Z</time>
      </trkpt>
      <trkpt lat="46.30727" lon="-0.34197">
        <ele>63.8825</ele>
        <time>2010-12-12T12:46:15Z</time>
      </trkpt>
      <trkpt lat="46.30728" lon="-0.34196">
        <ele>63.8919</ele>
        <time>2010-12-12T12:46:16Z</time>
      </trkpt>
      <trkpt lat="46.30728" lon="-0.34195">
        <ele>63.9004</ele>
        <time>2010-12-12T12:46:17Z</time>
      </trkpt>
      <trkpt lat="46.30728" lon="-0.34194">
        <ele>63.9085</ele>
        <time>2010-12-12T12:46:18Z</time>
      </trkpt>
      <trkpt lat="46.30728" lon="-0.34192">
        <ele>63.9166</ele>
        <time>2010-12-12T12:46:19Z</time>
      </trkpt>
      <trkpt lat="46.30728" lon="-0.34191">
        <ele>63.9244</ele>
        <time>2010-12-12T12:46:20Z</time>
      </trkpt>
      <trkpt lat="46.30728" lon="-0.3419">
        <ele>63.9303</ele>
        <time>2010-12-12T12:46:21Z</time>
      </trkpt>
      <trkpt lat="46.30728" lon="-0.34189">
        <ele>63.9356</ele>
        <time>2010-12-12T12:46:22Z</time>
      </trkpt>
      <trkpt lat="46.30728" lon="-0.34187">
        <ele>63.9441</ele>
        <time>2010-12-12T12:46:23Z</time>
      </trkpt>
      <trkpt lat="46.30728" lon="-0.34186">
        <ele>63.9544</ele>
        <time>2010-12-12T12:46:24Z</time>
      </trkpt>
      <trkpt lat="46.30728" lon="-0.34185">
        <ele>63.9659</ele>
        <time>2010-12-12T12:46:25Z</time>
      </trkpt>
      <trkpt lat="46.30728" lon="-0.34183">
        <ele>63.9782</ele>
        <time>2010-12-12T12:46:26Z</time>
      </trkpt>
      <trkpt lat="46.30729" lon="-0.34182">
        <ele>63.9887</ele>
        <time>2010-12-12T12:46:27Z</time>
      </trkpt>
      <trkpt lat="46.30729" lon="-0.34181">
        <ele>63.9972</ele>
        <time>2010-12-12T12:46:28Z</time>
      </trkpt>
      <trkpt lat="46.30729" lon="-0.34179">
        <ele>64.0064</ele>
        <time>2010-12-12T12:46:29Z</time>
      </trkpt>
      <trkpt lat="46.30729" lon="-0.34178">
        <ele>64.0165</ele>
        <time>2010-12-12T12:46:30Z</time>
      </trkpt>
      <trkpt lat="46.30729" lon="-0.34176">
        <ele>64.0282</ele>
        <time>2010-12-12T12:46:31Z</time>
      </trkpt>
      <trkpt lat="46.30729" lon="-0.34175">
        <ele>64.0371</ele>
        <time>2010-12-12T12:46:32Z</time>
      </trkpt>
      <trkpt lat="46.30729" lon="-0.34174">
        <ele>64.0458</ele>
        <time>2010-12-12T12:46:33Z</time>
      </trkpt>
      <trkpt lat="46.30729" lon="-0.34172">
        <ele>64.0542</ele>
        <time>2010-12-12T12:46:34Z</time>
      </trkpt>
      <trkpt lat="46.30729" lon="-0.34171">
        <ele>64.0618</ele>
        <time>2010-12-12T12:46:35Z</time>
      </trkpt>
      <trkpt lat="46.3073" lon="-0.34169">
        <ele>64.068</ele>
        <time>2010-12-12T12:46:36Z</time>
      </trkpt>
      <trkpt lat="46.3073" lon="-0.34168">
        <ele>64.0738</ele>
        <time>2010-12-12T12:46:37Z</time>
      </trkpt>
      <trkpt lat="46.3073" lon="-0.34167">
        <ele>64.0771</ele>
        <time>2010-12-12T12:46:38Z</time>
      </trkpt>
      <trkpt lat="46.3073" lon="-0.34166">
        <ele>64.0794</ele>
        <time>2010-12-12T12:46:39Z</time>
      </trkpt>
      <trkpt lat="46.30729" lon="-0.34165">
        <ele>64.081</ele>
        <time>2010-12-12T12:46:40Z</time>
      </trkpt>
      <trkpt lat="46.3073" lon="-0.34163">
        <ele>64.0829</ele>
        <time>2010-12-12T12:43:22Z</time>
      </trkpt>
      <trkpt lat="46.3073" lon="-0.34162">
        <ele>64.0846</ele>
        <time>2010-12-12T12:43:23Z</time>
      </trkpt>
      <trkpt lat="46.3073" lon="-0.34162">
        <ele>64.0866</ele>
        <time>2010-12-12T12:43:24Z</time>
      </trkpt>
      <trkpt lat="46.30729" lon="-0.34162">
        <ele>64.0906</ele>
        <time>2010-12-12T12:43:25Z</time>
      </trkpt>
      <trkpt lat="46.30729" lon="-0.34162">
        <ele>64.0951</ele>
        <time>2010-12-12T12:43:26Z</time>
      </trkpt>
      <trkpt lat="46.30729" lon="-0.34161">
        <ele>64.0993</ele>
        <time>2010-12-12T12:43:27Z</time>
      </trkpt>
      <trkpt lat="46.30728" lon="-0.34161">
        <ele>64.1026</ele>
        <time>2010-12-12T12:43:28Z</time>
      </trkpt>
      <trkpt lat="46.30727" lon="-0.3416">
        <ele>64.1058</ele>
        <time>2010-12-12T12:43:29Z</time>
      </trkpt>
      <trkpt lat="46.30726" lon="-0.34159">
        <ele>64.1098</ele>
        <time>2010-12-12T12:43:30Z</time>
      </trkpt>
      <trkpt lat="46.30726" lon="-0.34159">
        <ele>64.1159</ele>
        <time>2010-12-12T12:43:31Z</time>
      </trkpt>
      <trkpt lat="46.30725" lon="-0.34158">
        <ele>64.123</ele>
        <time>2010-12-12T12:43:32Z</time>
      </trkpt>
      <trkpt lat="46.30724" lon="-0.34158">
        <ele>64.1316</ele>
        <time>2010-12-12T12:43:33Z</time>
      </trkpt>
      <trkpt lat="46.30724" lon="-0.34158">
        <ele>64.1402</ele>
        <time>2010-12-12T12:43:34Z</time>
      </trkpt>
      <trkpt lat="46.30722" lon="-0.34158">
        <ele>64.1506</ele>
        <time>2010-12-12T12:43:35Z</time>
      </trkpt>
      <trkpt lat="46.30722" lon="-0.34158">
        <ele>64.1618</ele>
        <time>2010-12-12T12:43:36Z</time>
      </trkpt>
      <trkpt lat="46.30721" lon="-0.34158">
        <ele>64.1769</ele>
        <time>2010-12-12T12:43:37Z</time>
      </trkpt>
      <trkpt lat="46.3072" lon="-0.34158">
        <ele>64.1873</ele>
        <time>2010-12-12T12:43:38Z</time>
      </trkpt>
      <trkpt lat="46.30719" lon="-0.34157">
        <ele>64.1937</ele>
        <time>2010-12-12T12:43:39Z</time>
      </trkpt>
      <trkpt lat="46.30718" lon="-0.34157">
        <ele>64.2038</ele>
        <time>2010-12-12T12:43:40Z</time>
      </trkpt>
      <trkpt lat="46.30717" lon="-0.34157">
        <ele>64.2206</ele>
        <time>2010-12-12T12:43:41Z</time>
      </trkpt>
      <trkpt lat="46.30715" lon="-0.34157">
        <ele>64.2631</ele>
        <time>2010-12-12T12:43:42Z</time>
      </trkpt>
      <trkpt lat="46.30714" lon="-0.34157">
        <ele>64.3259</ele>
        <time>2010-12-12T12:43:43Z</time>
      </trkpt>
      <trkpt lat="46.30712" lon="-0.34157">
        <ele>64.3908</ele>
        <time>2010-12-12T12:43:44Z</time>
      </trkpt>
      <trkpt lat="46.30711" lon="-0.34157">
        <ele>64.4566</ele>
        <time>2010-12-12T12:43:45Z</time>
      </trkpt>
      <trkpt lat="46.3071" lon="-0.34157">
        <ele>64.5223</ele>
        <time>2010-12-12T12:43:46Z</time>
      </trkpt>
      <trkpt lat="46.30709" lon="-0.34157">
        <ele>64.5882</ele>
        <time>2010-12-12T12:43:48Z</time>
      </trkpt>
      <trkpt lat="46.30707" lon="-0.34157">
        <ele>64.6599</ele>
        <time>2010-12-12T12:43:49Z</time>
      </trkpt>
      <trkpt lat="46.30706" lon="-0.34157">
        <ele>64.7335</ele>
        <time>2010-12-12T12:43:49Z</time>
      </trkpt>
      <trkpt lat="46.30705" lon="-0.34157">
        <ele>64.8073</ele>
        <time>2010-12-12T12:43:51Z</time>
      </trkpt>
      <trkpt lat="46.30703" lon="-0.34157">
        <ele>64.8789</ele>
        <time>2010-12-12T12:43:52Z</time>
      </trkpt>
      <trkpt lat="46.30702" lon="-0.34156">
        <ele>64.9496</ele>
        <time>2010-12-12T12:43:53Z</time>
      </trkpt>
      <trkpt lat="46.30701" lon="-0.34155">
        <ele>65.0265</ele>
        <time>2010-12-12T12:43:54Z</time>
      </trkpt>
      <trkpt lat="46.307" lon="-0.34155">
        <ele>65.1008</ele>
        <time>2010-12-12T12:43:54Z</time>
      </trkpt>
      <trkpt lat="46.30699" lon="-0.34155">
        <ele>65.1721</ele>
        <time>2010-12-12T12:43:55Z</time>
      </trkpt>
      <trkpt lat="46.30698" lon="-0.34154">
        <ele>65.2412</ele>
        <time>2010-12-12T12:43:57Z</time>
      </trkpt>
      <trkpt lat="46.30697" lon="-0.34154">
        <ele>65.3206</ele>
        <time>2010-12-12T12:43:57Z</time>
      </trkpt>
      <trkpt lat="46.30697" lon="-0.34154">
        <ele>65.4086</ele>
        <time>2010-12-12T12:43:58Z</time>
      </trkpt>
      <trkpt lat="46.30695" lon="-0.34154">
        <ele>65.4972</ele>
        <time>2010-12-12T12:43:59Z</time>
      </trkpt>
      <trkpt lat="46.30695" lon="-0.34154">
        <ele>65.6012</ele>
        <time>2010-12-12T12:44:00Z</time>
      </trkpt>
      <trkpt lat="46.30694" lon="-0.34155">
        <ele>65.7171</ele>
        <time>2010-12-12T12:44:01Z</time>
      </trkpt>
      <trkpt lat="46.30694" lon="-0.34156">
        <ele>65.8424</ele>
        <time>2010-12-12T12:44:02Z</time>
      </trkpt>
      <trkpt lat="46.30693" lon="-0.34156">
        <ele>65.9836</ele>
        <time>2010-12-12T12:44:03Z</time>
      </trkpt>
      <trkpt lat="46.30693" lon="-0.34156">
        <ele>66.1473</ele>
        <time>2010-12-12T12:44:04Z</time>
      </trkpt>
      <trkpt lat="46.30693" lon="-0.34156">
        <ele>66.322</ele>
        <time>2010-12-12T12:44:05Z</time>
      </trkpt>
      <trkpt lat="46.30692" lon="-0.34156">
        <ele>66.5056</ele>
        <time>2010-12-12T12:44:06Z</time>
      </trkpt>
      <trkpt lat="46.30692" lon="-0.34156">
        <ele>66.6999</ele>
        <time>2010-12-12T12:44:07Z</time>
      </trkpt>
      <trkpt lat="46.30691" lon="-0.34156">
        <ele>66.9018</ele>
        <time>2010-12-12T12:44:08Z</time>
      </trkpt>
      <trkpt lat="46.3069" lon="-0.34156">
        <ele>67.1023</ele>
        <time>2010-12-12T12:44:09Z</time>
      </trkpt>
      <trkpt lat="46.3069" lon="-0.34156">
        <ele>67.3083</ele>
        <time>2010-12-12T12:44:10Z</time>
      </trkpt>
      <trkpt lat="46.30689" lon="-0.34156">
        <ele>67.5216</ele>
        <time>2010-12-12T12:44:11Z</time>
      </trkpt>
      <trkpt lat="46.30688" lon="-0.34157">
        <ele>67.7185</ele>
        <time>2010-12-12T12:44:12Z</time>
      </trkpt>
      <trkpt lat="46.30687" lon="-0.34157">
        <ele>67.9032</ele>
        <time>2010-12-12T12:44:14Z</time>
      </trkpt>
      <trkpt lat="46.30686" lon="-0.34157">
        <ele>68.0803</ele>
        <time>2010-12-12T12:44:15Z</time>
      </trkpt>
      <trkpt lat="46.30685" lon="-0.34157">
        <ele>68.2559</ele>
        <time>2010-12-12T12:44:16Z</time>
      </trkpt>
      <trkpt lat="46.30685" lon="-0.34158">
        <ele>68.4245</ele>
        <time>2010-12-12T12:44:17Z</time>
      </trkpt>
      <trkpt lat="46.30684" lon="-0.34158">
        <ele>68.5898</ele>
        <time>2010-12-12T12:44:18Z</time>
      </trkpt>
      <trkpt lat="46.30684" lon="-0.34159">
        <ele>68.752</ele>
        <time>2010-12-12T12:44:19Z</time>
      </trkpt>
      <trkpt lat="46.30683" lon="-0.3416">
        <ele>68.9085</ele>
        <time>2010-12-12T12:44:20Z</time>
      </trkpt>
      <trkpt lat="46.30682" lon="-0.3416">
        <ele>69.0585</ele>
        <time>2010-12-12T12:44:20Z</time>
      </trkpt>
      <trkpt lat="46.30682" lon="-0.34161">
        <ele>69.1693</ele>
        <time>2010-12-12T12:44:21Z</time>
      </trkpt>
      <trkpt lat="46.30681" lon="-0.34161">
        <ele>69.2749</ele>
        <time>2010-12-12T12:44:22Z</time>
      </trkpt>
      <trkpt lat="46.30679" lon="-0.34161">
        <ele>69.3821</ele>
        <time>2010-12-12T12:44:23Z</time>
      </trkpt>
      <trkpt lat="46.30678" lon="-0.34162">
        <ele>69.4833</ele>
        <time>2010-12-12T12:44:24Z</time>
      </trkpt>
      <trkpt lat="46.30677" lon="-0.34162">
        <ele>69.5313</ele>
        <time>2010-12-12T12:44:25Z</time>
      </trkpt>
      <trkpt lat="46.30676" lon="-0.34162">
        <ele>69.5791</ele>
        <time>2010-12-12T12:44:26Z</time>
      </trkpt>
      <trkpt lat="46.30675" lon="-0.34162">
        <ele>69.6212</ele>
        <time>2010-12-12T12:44:27Z</time>
      </trkpt>
      <trkpt lat="46.30673" lon="-0.34162">
        <ele>69.652</ele>
        <time>2010-12-12T12:44:28Z</time>
      </trkpt>
      <trkpt lat="46.30671" lon="-0.34161">
        <ele>69.5247</ele>
        <time>2010-12-12T12:44:31Z</time>
      </trkpt>
      <trkpt lat="46.30669" lon="-0.3416">
        <ele>69.4333</ele>
        <time>2010-12-12T12:44:32Z</time>
      </trkpt>
      <trkpt lat="46.30668" lon="-0.34159">
        <ele>69.3456</ele>
        <time>2010-12-12T12:44:33Z</time>
      </trkpt>
      <trkpt lat="46.30667" lon="-0.34159">
        <ele>69.265</ele>
        <time>2010-12-12T12:44:34Z</time>
      </trkpt>
      <trkpt lat="46.30666" lon="-0.34158">
        <ele>69.1914</ele>
        <time>2010-12-12T12:44:35Z</time>
      </trkpt>
      <trkpt lat="46.30665" lon="-0.34158">
        <ele>69.1227</ele>
        <time>2010-12-12T12:44:36Z</time>
      </trkpt>
      <trkpt lat="46.30664" lon="-0.34158">
        <ele>69.0555</ele>
        <time>2010-12-12T12:44:37Z</time>
      </trkpt>
      <trkpt lat="46.30663" lon="-0.34158">
        <ele>68.9895</ele>
        <time>2010-12-12T12:44:38Z</time>
      </trkpt>
      <trkpt lat="46.30661" lon="-0.34158">
        <ele>68.9244</ele>
        <time>2010-12-12T12:44:39Z</time>
      </trkpt>
      <trkpt lat="46.3066" lon="-0.34158">
        <ele>68.8626</ele>
        <time>2010-12-12T12:44:40Z</time>
      </trkpt>
      <trkpt lat="46.30659" lon="-0.34158">
        <ele>68.8035</ele>
        <time>2010-12-12T12:44:41Z</time>
      </trkpt>
      <trkpt lat="46.30658" lon="-0.34158">
        <ele>68.7461</ele>
        <time>2010-12-12T12:44:42Z</time>
      </trkpt>
      <trkpt lat="46.30657" lon="-0.34157">
        <ele>68.6795</ele>
        <time>2010-12-12T12:44:43Z</time>
      </trkpt>
      <trkpt lat="46.30656" lon="-0.34156">
        <ele>68.6085</ele>
        <time>2010-12-12T12:44:44Z</time>
      </trkpt>
      <trkpt lat="46.30654" lon="-0.34155">
        <ele>68.5242</ele>
        <time>2010-12-12T12:44:45Z</time>
      </trkpt>
      <trkpt lat="46.30653" lon="-0.34154">
        <ele>68.4421</ele>
        <time>2010-12-12T12:44:47Z</time>
      </trkpt>
      <trkpt lat="46.3065" lon="-0.34152">
        <ele>68.2762</ele>
        <time>2010-12-12T12:44:49Z</time>
      </trkpt>
      <trkpt lat="46.30649" lon="-0.34151">
        <ele>68.1958</ele>
        <time>2010-12-12T12:44:49Z</time>
      </trkpt>
      <trkpt lat="46.30648" lon="-0.3415">
        <ele>68.1189</ele>
        <time>2010-12-12T12:44:51Z</time>
      </trkpt>
      <trkpt lat="46.30647" lon="-0.3415">
        <ele>68.0501</ele>
        <time>2010-12-12T12:44:52Z</time>
      </trkpt>
      <trkpt lat="46.30645" lon="-0.34149">
        <ele>67.9889</ele>
        <time>2010-12-12T12:44:52Z</time>
      </trkpt>
      <trkpt lat="46.30644" lon="-0.34149">
        <ele>67.9323</ele>
        <time>2010-12-12T12:44:53Z</time>
      </trkpt>
      <trkpt lat="46.30643" lon="-0.34149">
        <ele>67.8742</ele>
        <time>2010-12-12T12:44:54Z</time>
      </trkpt>
      <trkpt lat="46.30642" lon="-0.34148">
        <ele>67.8126</ele>
        <time>2010-12-12T12:44:55Z</time>
      </trkpt>
      <trkpt lat="46.3064" lon="-0.34148">
        <ele>67.7433</ele>
        <time>2010-12-12T12:44:56Z</time>
      </trkpt>
      <trkpt lat="46.30639" lon="-0.34148">
        <ele>67.6732</ele>
        <time>2010-12-12T12:44:57Z</time>
      </trkpt>
      <trkpt lat="46.30638" lon="-0.34148">
        <ele>67.5961</ele>
        <time>2010-12-12T12:44:58Z</time>
      </trkpt>
      <trkpt lat="46.30636" lon="-0.34147">
        <ele>67.5142</ele>
        <time>2010-12-12T12:44:59Z</time>
      </trkpt>
      <trkpt lat="46.30635" lon="-0.34147">
        <ele>67.431</ele>
        <time>2010-12-12T12:45:00Z</time>
      </trkpt>
      <trkpt lat="46.30633" lon="-0.34146">
        <ele>67.3463</ele>
        <time>2010-12-12T12:45:01Z</time>
      </trkpt>
      <trkpt lat="46.30632" lon="-0.34146">
        <ele>67.2623</ele>
        <time>2010-12-12T12:45:03Z</time>
      </trkpt>
      <trkpt lat="46.30631" lon="-0.34146">
        <ele>67.1755</ele>
        <time>2010-12-12T12:45:03Z</time>
      </trkpt>
      <trkpt lat="46.30629" lon="-0.34146">
        <ele>67.0936</ele>
        <time>2010-12-12T12:45:04Z</time>
      </trkpt>
      <trkpt lat="46.30627" lon="-0.34146">
        <ele>67.0136</ele>
        <time>2010-12-12T12:45:06Z</time>
      </trkpt>
      <trkpt lat="46.30626" lon="-0.34146">
        <ele>66.9369</ele>
        <time>2010-12-12T12:45:07Z</time>
      </trkpt>
      <trkpt lat="46.30625" lon="-0.34146">
        <ele>66.8582</ele>
        <time>2010-12-12T12:45:08Z</time>
      </trkpt>
      <trkpt lat="46.30623" lon="-0.34149">
        <ele>66.5411</ele>
        <time>2010-12-12T12:45:12Z</time>
      </trkpt>
      <trkpt lat="46.30622" lon="-0.34149">
        <ele>66.4638</ele>
        <time>2010-12-12T12:45:13Z</time>
      </trkpt>
      <trkpt lat="46.30621" lon="-0.34149">
        <ele>66.3913</ele>
        <time>2010-12-12T12:45:14Z</time>
      </trkpt>
      <trkpt lat="46.3062" lon="-0.34149">
        <ele>66.3319</ele>
        <time>2010-12-12T12:45:15Z</time>
      </trkpt>
      <trkpt lat="46.30619" lon="-0.3415">
        <ele>66.2771</ele>
        <time>2010-12-12T12:45:16Z</time>
      </trkpt>
      <trkpt lat="46.30618" lon="-0.3415">
        <ele>66.2269</ele>
        <time>2010-12-12T12:45:17Z</time>
      </trkpt>
      <trkpt lat="46.30616" lon="-0.3415">
        <ele>66.1788</ele>
        <time>2010-12-12T12:45:18Z</time>
      </trkpt>
      <trkpt lat="46.30615" lon="-0.3415">
        <ele>66.1304</ele>
        <time>2010-12-12T12:45:19Z</time>
      </trkpt>
      <trkpt lat="46.30614" lon="-0.3415">
        <ele>66.084</ele>
        <time>2010-12-12T12:45:19Z</time>
      </trkpt>
      <trkpt lat="46.30612" lon="-0.34151">
        <ele>66.0375</ele>
        <time>2010-12-12T12:45:21Z</time>
      </trkpt>
      <trkpt lat="46.30611" lon="-0.34151">
        <ele>65.9912</ele>
        <time>2010-12-12T12:45:22Z</time>
      </trkpt>
      <trkpt lat="46.3061" lon="-0.34151">
        <ele>65.9455</ele>
        <time>2010-12-12T12:45:23Z</time>
      </trkpt>
      <trkpt lat="46.30608" lon="-0.34152">
        <ele>65.8964</ele>
        <time>2010-12-12T12:45:24Z</time>
      </trkpt>
      <trkpt lat="46.30607" lon="-0.34152">
        <ele>65.8415</ele>
        <time>2010-12-12T12:45:25Z</time>
      </trkpt>
      <trkpt lat="46.30605" lon="-0.34152">
        <ele>65.7887</ele>
        <time>2010-12-12T12:45:26Z</time>
      </trkpt>
      <trkpt lat="46.30603" lon="-0.34151">
        <ele>65.738</ele>
        <time>2010-12-12T12:45:27Z</time>
      </trkpt>
      <trkpt lat="46.30602" lon="-0.34151">
        <ele>65.6866</ele>
        <time>2010-12-12T12:45:28Z</time>
      </trkpt>
      <trkpt lat="46.306" lon="-0.34151">
        <ele>65.6384</ele>
        <time>2010-12-12T12:45:29Z</time>
      </trkpt>
      <trkpt lat="46.30599" lon="-0.34151">
        <ele>65.5929</ele>
        <time>2010-12-12T12:45:30Z</time>
      </trkpt>
      <trkpt lat="46.30598" lon="-0.34151">
        <ele>65.5499</ele>
        <time>2010-12-12T12:45:30Z</time>
      </trkpt>
      <trkpt lat="46.30596" lon="-0.34151">
        <ele>65.5069</ele>
        <time>2010-12-12T12:45:31Z</time>
      </trkpt>
      <trkpt lat="46.30593" lon="-0.34151">
        <ele>65.3376</ele>
        <time>2010-12-12T12:45:36Z</time>
      </trkpt>
      <trkpt lat="46.30592" lon="-0.3415">
        <ele>65.2926</ele>
        <time>2010-12-12T12:45:37Z</time>
      </trkpt>
      <trkpt lat="46.30591" lon="-0.3415">
        <ele>65.2487</ele>
        <time>2010-12-12T12:45:38Z</time>
      </trkpt>
      <trkpt lat="46.3059" lon="-0.34149">
        <ele>65.2019</ele>
        <time>2010-12-12T12:45:39Z</time>
      </trkpt>
      <trkpt lat="46.30589" lon="-0.34149">
        <ele>65.1525</ele>
        <time>2010-12-12T12:45:40Z</time>
      </trkpt>
      <trkpt lat="46.30588" lon="-0.34148">
        <ele>65.1042</ele>
        <time>2010-12-12T12:45:41Z</time>
      </trkpt>
      <trkpt lat="46.30587" lon="-0.34148">
        <ele>65.0564</ele>
        <time>2010-12-12T12:45:42Z</time>
      </trkpt>
      <trkpt lat="46.30586" lon="-0.34147">
        <ele>65.0098</ele>
        <time>2010-12-12T12:45:43Z</time>
      </trkpt>
      <trkpt lat="46.30585" lon="-0.34147">
        <ele>64.9616</ele>
        <time>2010-12-12T12:45:44Z</time>
      </trkpt>
      <trkpt lat="46.30584" lon="-0.34147">
        <ele>64.9158</ele>
        <time>2010-12-12T12:45:45Z</time>
      </trkpt>
      <trkpt lat="46.30582" lon="-0.34147">
        <ele>64.871</ele>
        <time>2010-12-12T12:45:46Z</time>
      </trkpt>
      <trkpt lat="46.30581" lon="-0.34146">
        <ele>64.8264</ele>
        <time>2010-12-12T12:45:47Z</time>
      </trkpt>
      <trkpt lat="46.30579" lon="-0.34145">
        <ele>64.7823</ele>
        <time>2010-12-12T12:45:48Z</time>
      </trkpt>
      <trkpt lat="46.30578" lon="-0.34145">
        <ele>64.737</ele>
        <time>2010-12-12T12:45:49Z</time>
      </trkpt>
      <trkpt lat="46.30577" lon="-0.34144">
        <ele>64.6918</ele>
        <time>2010-12-12T12:45:50Z</time>
      </trkpt>
      <trkpt lat="46.30576" lon="-0.34143">
        <ele>64.6409</ele>
        <time>2010-12-12T12:45:52Z</time>
      </trkpt>
      <trkpt lat="46.30575" lon="-0.34143">
        <ele>64.5918</ele>
        <time>2010-12-12T12:45:52Z</time>
      </trkpt>
      <trkpt lat="46.30574" lon="-0.34142">
        <ele>64.5435</ele>
        <time>2010-12-12T12:45:53Z</time>
      </trkpt>
      <trkpt lat="46.30573" lon="-0.34141">
        <ele>64.4933</ele>
        <time>2010-12-12T12:45:54Z</time>
      </trkpt>
      <trkpt lat="46.30571" lon="-0.34141">
        <ele>64.4408</ele>
        <time>2010-12-12T12:45:55Z</time>
      </trkpt>
      <trkpt lat="46.30571" lon="-0.34141">
        <ele>64.3869</ele>
        <time>2010-12-12T12:45:56Z</time>
      </trkpt>
      <trkpt lat="46.3057" lon="-0.3414">
        <ele>64.3311</ele>
        <time>2010-12-12T12:45:57Z</time>
      </trkpt>
      <trkpt lat="46.30568" lon="-0.3414">
        <ele>64.2745</ele>
        <time>2010-12-12T12:45:58Z</time>
      </trkpt>
      <trkpt lat="46.30567" lon="-0.34139">
        <ele>64.2185</ele>
        <time>2010-12-12T12:45:59Z</time>
      </trkpt>
      <trkpt lat="46.30566" lon="-0.34138">
        <ele>64.1662</ele>
        <time>2010-12-12T12:46:00Z</time>
      </trkpt>
      <trkpt lat="46.30565" lon="-0.34138">
        <ele>64.115</ele>
        <time>2010-12-12T12:46:01Z</time>
      </trkpt>
      <trkpt lat="46.30563" lon="-0.34137">
        <ele>64.0642</ele>
        <time>2010-12-12T12:46:02Z</time>
      </trkpt>
      <trkpt lat="46.30562" lon="-0.34137">
        <ele>64.0157</ele>
        <time>2010-12-12T12:46:03Z</time>
      </trkpt>
      <trkpt lat="46.30562" lon="-0.34136">
        <ele>63.9699</ele>
        <time>2010-12-12T12:46:04Z</time>
      </trkpt>
      <trkpt lat="46.30561" lon="-0.34136">
        <ele>63.9225</ele>
        <time>2010-12-12T12:46:05Z</time>
      </trkpt>
      <trkpt lat="46.3056" lon="-0.34135">
        <ele>63.8784</ele>
        <time>2010-12-12T12:46:06Z</time>
      </trkpt>
      <trkpt lat="46.30559" lon="-0.34134">
        <ele>63.8395</ele>
        <time>2010-12-12T12:46:07Z</time>
      </trkpt>
      <trkpt lat="46.30558" lon="-0.34133">
        <ele>63.8077</ele>
        <time>2010-12-12T12:46:08Z</time>
      </trkpt>
      <trkpt lat="46.30557" lon="-0.34132">
        <ele>63.7784</ele>
        <time>2010-12-12T12:46:09Z</time>
      </trkpt>
      <trkpt lat="46.30556" lon="-0.34132">
        <ele>63.7504</ele>
        <time>2010-12-12T12:46:10Z</time>
      </trkpt>
      <trkpt lat="46.30555" lon="-0.34131">
        <ele>63.7211</ele>
        <time>2010-12-12T12:46:11Z</time>
      </trkpt>
      <trkpt lat="46.30553" lon="-0.34131">
        <ele>63.6936</ele>
        <time>2010-12-12T12:46:13Z</time>
      </trkpt>
      <trkpt lat="46.30552" lon="-0.3413">
        <ele>63.6707</ele>
        <time>2010-12-12T12:46:14Z</time>
      </trkpt>
      <trkpt lat="46.30551" lon="-0.3413">
        <ele>63.6477</ele>
        <time>2010-12-12T12:46:15Z</time>
      </trkpt>
      <trkpt lat="46.3055" lon="-0.34129">
        <ele>63.6259</ele>
        <time>2010-12-12T12:46:16Z</time>
      </trkpt>
      <trkpt lat="46.30549" lon="-0.34129">
        <ele>63.6043</ele>
        <time>2010-12-12T12:46:17Z</time>
      </trkpt>
      <trkpt lat="46.30548" lon="-0.34128">
        <ele>63.5833</ele>
        <time>2010-12-12T12:46:18Z</time>
      </trkpt>
      <trkpt lat="46.30547" lon="-0.34128">
        <ele>63.5635</ele>
        <time>2010-12-12T12:46:19Z</time>
      </trkpt>
      <trkpt lat="46.30544" lon="-0.34125">
        <ele>63.4341</ele>
        <time>2010-12-12T12:46:23Z</time>
      </trkpt>
      <trkpt lat="46.30544" lon="-0.34124">
        <ele>63.402</ele>
        <time>2010-12-12T12:46:24Z</time>
      </trkpt>
      <trkpt lat="46.30542" lon="-0.34123">
        <ele>63.3695</ele>
        <time>2010-12-12T12:46:25Z</time>
      </trkpt>
      <trkpt lat="46.30541" lon="-0.34122">
        <ele>63.3326</ele>
        <time>2010-12-12T12:46:26Z</time>
      </trkpt>
      <trkpt lat="46.3054" lon="-0.34121">
        <ele>63.2945</ele>
        <time>2010-12-12T12:46:27Z</time>
      </trkpt>
      <trkpt lat="46.30539" lon="-0.3412">
        <ele>63.2515</ele>
        <time>2010-12-12T12:46:28Z</time>
      </trkpt>
      <trkpt lat="46.30538" lon="-0.34119">
        <ele>63.2099</ele>
        <time>2010-12-12T12:46:29Z</time>
      </trkpt>
      <trkpt lat="46.30537" lon="-0.34118">
        <ele>63.1696</ele>
        <time>2010-12-12T12:46:31Z</time>
      </trkpt>
      <trkpt lat="46.30536" lon="-0.34117">
        <ele>63.1262</ele>
        <time>2010-12-12T12:46:31Z</time>
      </trkpt>
      <trkpt lat="46.30535" lon="-0.34116">
        <ele>63.0834</ele>
        <time>2010-12-12T12:46:32Z</time>
      </trkpt>
      <trkpt lat="46.30534" lon="-0.34115">
        <ele>63.0408</ele>
        <time>2010-12-12T12:46:34Z</time>
      </trkpt>
      <trkpt lat="46.30533" lon="-0.34114">
        <ele>62.9976</ele>
        <time>2010-12-12T12:46:35Z</time>
      </trkpt>
      <trkpt lat="46.30532" lon="-0.34113">
        <ele>62.9514</ele>
        <time>2010-12-12T12:46:36Z</time>
      </trkpt>
      <trkpt lat="46.30531" lon="-0.34111">
        <ele>62.9041</ele>
        <time>2010-12-12T12:46:37Z</time>
      </trkpt>
      <trkpt lat="46.3053" lon="-0.3411">
        <ele>62.8582</ele>
        <time>2010-12-12T12:46:37Z</time>
      </trkpt>
      <trkpt lat="46.30529" lon="-0.34109">
        <ele>62.8152</ele>
        <time>2010-12-12T12:46:38Z</time>
      </trkpt>
      <trkpt lat="46.30529" lon="-0.34107">
        <ele>62.7679</ele>
        <time>2010-12-12T12:46:39Z</time>
      </trkpt>
      <trkpt lat="46.30528" lon="-0.34105">
        <ele>62.7202</ele>
        <time>2010-12-12T12:46:41Z</time>
      </trkpt>
      <trkpt lat="46.30527" lon="-0.34104">
        <ele>62.6729</ele>
        <time>2010-12-12T12:46:42Z</time>
      </trkpt>
      <trkpt lat="46.30526" lon="-0.34103">
        <ele>62.6262</ele>
        <time>2010-12-12T12:46:43Z</time>
      </trkpt>
      <trkpt lat="46.30525" lon="-0.34102">
        <ele>62.5801</ele>
        <time>2010-12-12T12:46:43Z</time>
      </trkpt>
      <trkpt lat="46.30524" lon="-0.34101">
        <ele>62.5347</ele>
        <time>2010-12-12T12:46:45Z</time>
      </trkpt>
      <trkpt lat="46.30523" lon="-0.341">
        <ele>62.4904</ele>
        <time>2010-12-12T12:46:46Z</time>
      </trkpt>
      <trkpt lat="46.30522" lon="-0.34099">
        <ele>62.4462</ele>
        <time>2010-12-12T12:46:47Z</time>
      </trkpt>
      <trkpt lat="46.30521" lon="-0.34098">
        <ele>62.4031</ele>
        <time>2010-12-12T12:46:48Z</time>
      </trkpt>
      <trkpt lat="46.3052" lon="-0.34098">
        <ele>62.3609</ele>
        <time>2010-12-12T12:46:49Z</time>
      </trkpt>
      <trkpt lat="46.3052" lon="-0.34097">
        <ele>62.3189</ele>
        <time>2010-12-12T12:46:50Z</time>
      </trkpt>
      <trkpt lat="46.30518" lon="-0.34096">
        <ele>62.2782</ele>
        <time>2010-12-12T12:46:51Z</time>
      </trkpt>
      <trkpt lat="46.30518" lon="-0.34096">
        <ele>62.2383</ele>
        <time>2010-12-12T12:46:51Z</time>
      </trkpt>
      <trkpt lat="46.30516" lon="-0.34095">
        <ele>62.2</ele>
        <time>2010-12-12T12:46:53Z</time>
      </trkpt>
      <trkpt lat="46.30516" lon="-0.34095">
        <ele>62.1625</ele>
        <time>2010-12-12T12:46:54Z</time>
      </trkpt>
      <trkpt lat="46.30515" lon="-0.34095">
        <ele>62.123</ele>
        <time>2010-12-12T12:46:55Z</time>
      </trkpt>
      <trkpt lat="46.30513" lon="-0.34094">
        <ele>62.0851</ele>
        <time>2010-12-12T12:46:56Z</time>
      </trkpt>
      <trkpt lat="46.30512" lon="-0.34094">
        <ele>62.0477</ele>
        <time>2010-12-12T12:46:57Z</time>
      </trkpt>
      <trkpt lat="46.30511" lon="-0.34094">
        <ele>62.0139</ele>
        <time>2010-12-12T12:46:58Z</time>
      </trkpt>
      <trkpt lat="46.3051" lon="-0.34093">
        <ele>61.9796</ele>
        <time>2010-12-12T12:46:59Z</time>
      </trkpt>
      <trkpt lat="46.30509" lon="-0.34093">
        <ele>61.9433</ele>
        <time>2010-12-12T12:47:00Z</time>
      </trkpt>
      <trkpt lat="46.30508" lon="-0.34093">
        <ele>61.9072</ele>
        <time>2010-12-12T12:47:00Z</time>
      </trkpt>
      <trkpt lat="46.30507" lon="-0.34093">
        <ele>61.8708</ele>
        <time>2010-12-12T12:47:01Z</time>
      </trkpt>
      <trkpt lat="46.30506" lon="-0.34092">
        <ele>61.8386</ele>
        <time>2010-12-12T12:47:02Z</time>
      </trkpt>
      <trkpt lat="46.30505" lon="-0.34092">
        <ele>61.8045</ele>
        <time>2010-12-12T12:47:03Z</time>
      </trkpt>
      <trkpt lat="46.30501" lon="-0.34091">
        <ele>61.6122</ele>
        <time>2010-12-12T12:47:09Z</time>
      </trkpt>
      <trkpt lat="46.30501" lon="-0.34091">
        <ele>61.5903</ele>
        <time>2010-12-12T12:47:10Z</time>
      </trkpt>
      <trkpt lat="46.305" lon="-0.34091">
        <ele>61.5689</ele>
        <time>2010-12-12T12:47:11Z</time>
      </trkpt>
      <trkpt lat="46.30499" lon="-0.34091">
        <ele>61.5489</ele>
        <time>2010-12-12T12:47:12Z</time>
      </trkpt>
      <trkpt lat="46.30498" lon="-0.34091">
        <ele>61.5292</ele>
        <time>2010-12-12T12:47:13Z</time>
      </trkpt>
      <trkpt lat="46.30497" lon="-0.34091">
        <ele>61.5109</ele>
        <time>2010-12-12T12:47:14Z</time>
      </trkpt>
      <trkpt lat="46.30496" lon="-0.34091">
        <ele>61.4882</ele>
        <time>2010-12-12T12:47:15Z</time>
      </trkpt>
      <trkpt lat="46.30495" lon="-0.3409">
        <ele>61.465</ele>
        <time>2010-12-12T12:47:16Z</time>
      </trkpt>
      <trkpt lat="46.30494" lon="-0.3409">
        <ele>61.4426</ele>
        <time>2010-12-12T12:47:17Z</time>
      </trkpt>
      <trkpt lat="46.30493" lon="-0.3409">
        <ele>61.4201</ele>
        <time>2010-12-12T12:47:18Z</time>
      </trkpt>
      <trkpt lat="46.30492" lon="-0.3409">
        <ele>61.3992</ele>
        <time>2010-12-12T12:47:19Z</time>
      </trkpt>
      <trkpt lat="46.30491" lon="-0.3409">
        <ele>61.3788</ele>
        <time>2010-12-12T12:47:20Z</time>
      </trkpt>
      <trkpt lat="46.3049" lon="-0.3409">
        <ele>61.3593</ele>
        <time>2010-12-12T12:47:21Z</time>
      </trkpt>
      <trkpt lat="46.30489" lon="-0.34089">
        <ele>61.3404</ele>
        <time>2010-12-12T12:47:22Z</time>
      </trkpt>
      <trkpt lat="46.30488" lon="-0.34089">
        <ele>61.3202</ele>
        <time>2010-12-12T12:47:23Z</time>
      </trkpt>
      <trkpt lat="46.30487" lon="-0.34089">
        <ele>61.3002</ele>
        <time>2010-12-12T12:47:24Z</time>
      </trkpt>
      <trkpt lat="46.30486" lon="-0.34089">
        <ele>61.2848</ele>
        <time>2010-12-12T12:47:25Z</time>
      </trkpt>
      <trkpt lat="46.30484" lon="-0.34089">
        <ele>61.2702</ele>
        <time>2010-12-12T12:47:26Z</time>
      </trkpt>
      <trkpt lat="46.30483" lon="-0.34089">
        <ele>61.2561</ele>
        <time>2010-12-12T12:47:27Z</time>
      </trkpt>
      <trkpt lat="46.30482" lon="-0.34089">
        <ele>61.2452</ele>
        <time>2010-12-12T12:47:28Z</time>
      </trkpt>
      <trkpt lat="46.30481" lon="-0.34089">
        <ele>61.2335</ele>
        <time>2010-12-12T12:47:29Z</time>
      </trkpt>
      <trkpt lat="46.3048" lon="-0.34089">
        <ele>61.2242</ele>
        <time>2010-12-12T12:47:30Z</time>
      </trkpt>
      <trkpt lat="46.30479" lon="-0.34089">
        <ele>61.2207</ele>
        <time>2010-12-12T12:47:31Z</time>
      </trkpt>
      <trkpt lat="46.30474" lon="-0.34088">
        <ele>61.2135</ele>
        <time>2010-12-12T12:47:37Z</time>
      </trkpt>
      <trkpt lat="46.30473" lon="-0.34088">
        <ele>61.2103</ele>
        <time>2010-12-12T12:47:38Z</time>
      </trkpt>
      <trkpt lat="46.30472" lon="-0.34088">
        <ele>61.2036</ele>
        <time>2010-12-12T12:47:39Z</time>
      </trkpt>
      <trkpt lat="46.30471" lon="-0.34088">
        <ele>61.1977</ele>
        <time>2010-12-12T12:47:40Z</time>
      </trkpt>
      <trkpt lat="46.3047" lon="-0.34088">
        <ele>61.1905</ele>
        <time>2010-12-12T12:47:41Z</time>
      </trkpt>
      <trkpt lat="46.30468" lon="-0.34088">
        <ele>61.1829</ele>
        <time>2010-12-12T12:47:42Z</time>
      </trkpt>
      <trkpt lat="46.30467" lon="-0.34088">
        <ele>61.1749</ele>
        <time>2010-12-12T12:47:43Z</time>
      </trkpt>
      <trkpt lat="46.30466" lon="-0.34088">
        <ele>61.169</ele>
        <time>2010-12-12T12:47:44Z</time>
      </trkpt>
      <trkpt lat="46.30463" lon="-0.34086">
        <ele>61.1633</ele>
        <time>2010-12-12T12:47:48Z</time>
      </trkpt>
      <trkpt lat="46.30462" lon="-0.34086">
        <ele>61.1644</ele>
        <time>2010-12-12T12:47:49Z</time>
      </trkpt>
      <trkpt lat="46.30461" lon="-0.34086">
        <ele>61.1656</ele>
        <time>2010-12-12T12:47:50Z</time>
      </trkpt>
      <trkpt lat="46.3046" lon="-0.34086">
        <ele>61.1675</ele>
        <time>2010-12-12T12:47:51Z</time>
      </trkpt>
      <trkpt lat="46.30459" lon="-0.34086">
        <ele>61.1697</ele>
        <time>2010-12-12T12:47:52Z</time>
      </trkpt>
      <trkpt lat="46.30458" lon="-0.34086">
        <ele>61.1715</ele>
        <time>2010-12-12T12:47:53Z</time>
      </trkpt>
      <trkpt lat="46.30457" lon="-0.34085">
        <ele>61.1741</ele>
        <time>2010-12-12T12:47:54Z</time>
      </trkpt>
      <trkpt lat="46.30455" lon="-0.34085">
        <ele>61.1758</ele>
        <time>2010-12-12T12:47:55Z</time>
      </trkpt>
      <trkpt lat="46.30454" lon="-0.34084">
        <ele>61.1785</ele>
        <time>2010-12-12T12:47:56Z</time>
      </trkpt>
      <trkpt lat="46.30453" lon="-0.34084">
        <ele>61.1821</ele>
        <time>2010-12-12T12:47:57Z</time>
      </trkpt>
      <trkpt lat="46.30452" lon="-0.34083">
        <ele>61.1903</ele>
        <time>2010-12-12T12:47:58Z</time>
      </trkpt>
      <trkpt lat="46.30451" lon="-0.34083">
        <ele>61.1994</ele>
        <time>2010-12-12T12:47:59Z</time>
      </trkpt>
      <trkpt lat="46.30447" lon="-0.3408">
        <ele>61.2352</ele>
        <time>2010-12-12T12:48:03Z</time>
      </trkpt>
      <trkpt lat="46.30447" lon="-0.34078">
        <ele>61.2457</ele>
        <time>2010-12-12T12:48:04Z</time>
      </trkpt>
      <trkpt lat="46.30446" lon="-0.34077">
        <ele>61.2552</ele>
        <time>2010-12-12T12:48:05Z</time>
      </trkpt>
      <trkpt lat="46.30445" lon="-0.34076">
        <ele>61.2641</ele>
        <time>2010-12-12T12:48:06Z</time>
      </trkpt>
      <trkpt lat="46.30444" lon="-0.34075">
        <ele>61.2731</ele>
        <time>2010-12-12T12:48:07Z</time>
      </trkpt>
      <trkpt lat="46.30444" lon="-0.34074">
        <ele>61.2867</ele>
        <time>2010-12-12T12:48:08Z</time>
      </trkpt>
      <trkpt lat="46.30443" lon="-0.34073">
        <ele>61.3008</ele>
        <time>2010-12-12T12:48:09Z</time>
      </trkpt>
      <trkpt lat="46.30442" lon="-0.34072">
        <ele>61.3149</ele>
        <time>2010-12-12T12:48:10Z</time>
      </trkpt>
      <trkpt lat="46.30441" lon="-0.34071">
        <ele>61.3275</ele>
        <time>2010-12-12T12:48:11Z</time>
      </trkpt>
      <trkpt lat="46.3044" lon="-0.3407">
        <ele>61.3422</ele>
        <time>2010-12-12T12:48:12Z</time>
      </trkpt>
      <trkpt lat="46.30439" lon="-0.34069">
        <ele>61.3588</ele>
        <time>2010-12-12T12:48:13Z</time>
      </trkpt>
      <trkpt lat="46.30439" lon="-0.34068">
        <ele>61.3743</ele>
        <time>2010-12-12T12:48:14Z</time>
      </trkpt>
      <trkpt lat="46.30438" lon="-0.34067">
        <ele>61.3888</ele>
        <time>2010-12-12T12:48:15Z</time>
      </trkpt>
      <trkpt lat="46.30437" lon="-0.34066">
        <ele>61.4036</ele>
        <time>2010-12-12T12:48:16Z</time>
      </trkpt>
      <trkpt lat="46.30436" lon="-0.34065">
        <ele>61.4185</ele>
        <time>2010-12-12T12:48:17Z</time>
      </trkpt>
      <trkpt lat="46.30435" lon="-0.34064">
        <ele>61.4304</ele>
        <time>2010-12-12T12:48:18Z</time>
      </trkpt>
      <trkpt lat="46.30434" lon="-0.34064">
        <ele>61.4396</ele>
        <time>2010-12-12T12:48:19Z</time>
      </trkpt>
      <trkpt lat="46.30433" lon="-0.34064">
        <ele>61.4462</ele>
        <time>2010-12-12T12:48:20Z</time>
      </trkpt>
      <trkpt lat="46.30433" lon="-0.34064">
        <ele>61.4501</ele>
        <time>2010-12-12T12:48:21Z</time>
      </trkpt>
      <trkpt lat="46.30431" lon="-0.34064">
        <ele>61.4547</ele>
        <time>2010-12-12T12:48:22Z</time>
      </trkpt>
      <trkpt lat="46.30429" lon="-0.34064">
        <ele>61.4639</ele>
        <time>2010-12-12T12:48:25Z</time>
      </trkpt>
      <trkpt lat="46.30428" lon="-0.34064">
        <ele>61.4678</ele>
        <time>2010-12-12T12:48:26Z</time>
      </trkpt>
      <trkpt lat="46.30426" lon="-0.34065">
        <ele>61.4727</ele>
        <time>2010-12-12T12:48:27Z</time>
      </trkpt>
      <trkpt lat="46.30425" lon="-0.34065">
        <ele>61.4812</ele>
        <time>2010-12-12T12:48:28Z</time>
      </trkpt>
      <trkpt lat="46.30423" lon="-0.34066">
        <ele>61.4913</ele>
        <time>2010-12-12T12:48:29Z</time>
      </trkpt>
      <trkpt lat="46.30422" lon="-0.34067">
        <ele>61.5034</ele>
        <time>2010-12-12T12:48:30Z</time>
      </trkpt>
      <trkpt lat="46.3042" lon="-0.34067">
        <ele>61.5161</ele>
        <time>2010-12-12T12:48:31Z</time>
      </trkpt>
      <trkpt lat="46.30419" lon="-0.34068">
        <ele>61.5285</ele>
        <time>2010-12-12T12:48:32Z</time>
      </trkpt>
      <trkpt lat="46.30418" lon="-0.34068">
        <ele>61.539</ele>
        <time>2010-12-12T12:48:33Z</time>
      </trkpt>
      <trkpt lat="46.30416" lon="-0.34069">
        <ele>61.5489</ele>
        <time>2010-12-12T12:48:34Z</time>
      </trkpt>
      <trkpt lat="46.30415" lon="-0.34069">
        <ele>61.5597</ele>
        <time>2010-12-12T12:48:35Z</time>
      </trkpt>
      <trkpt lat="46.30413" lon="-0.34068">
        <ele>61.5703</ele>
        <time>2010-12-12T12:48:36Z</time>
      </trkpt>
      <trkpt lat="46.30413" lon="-0.34068">
        <ele>61.579</ele>
        <time>2010-12-12T12:48:37Z</time>
      </trkpt>
      <trkpt lat="46.30412" lon="-0.34067">
        <ele>61.5845</ele>
        <time>2010-12-12T12:48:38Z</time>
      </trkpt>
      <trkpt lat="46.30411" lon="-0.34067">
        <ele>61.5876</ele>
        <time>2010-12-12T12:48:39Z</time>
      </trkpt>
      <trkpt lat="46.3041" lon="-0.34066">
        <ele>61.5888</ele>
        <time>2010-12-12T12:48:40Z</time>
      </trkpt>
      <trkpt lat="46.3041" lon="-0.34065">
        <ele>61.5846</ele>
        <time>2010-12-12T12:48:41Z</time>
      </trkpt>
      <trkpt lat="46.30409" lon="-0.34064">
        <ele>61.5465</ele>
        <time>2010-12-12T12:48:44Z</time>
      </trkpt>
      <trkpt lat="46.30408" lon="-0.34064">
        <ele>61.5263</ele>
        <time>2010-12-12T12:48:45Z</time>
      </trkpt>
      <trkpt lat="46.30407" lon="-0.34063">
        <ele>61.5043</ele>
        <time>2010-12-12T12:48:46Z</time>
      </trkpt>
      <trkpt lat="46.30407" lon="-0.34062">
        <ele>61.4818</ele>
        <time>2010-12-12T12:48:47Z</time>
      </trkpt>
      <trkpt lat="46.30406" lon="-0.34061">
        <ele>61.4569</ele>
        <time>2010-12-12T12:48:48Z</time>
      </trkpt>
      <trkpt lat="46.30405" lon="-0.3406">
        <ele>61.4313</ele>
        <time>2010-12-12T12:48:49Z</time>
      </trkpt>
      <trkpt lat="46.30404" lon="-0.34059">
        <ele>61.4059</ele>
        <time>2010-12-12T12:48:50Z</time>
      </trkpt>
      <trkpt lat="46.30403" lon="-0.34058">
        <ele>61.3814</ele>
        <time>2010-12-12T12:48:51Z</time>
      </trkpt>
      <trkpt lat="46.30402" lon="-0.34057">
        <ele>61.3579</ele>
        <time>2010-12-12T12:48:52Z</time>
      </trkpt>
      <trkpt lat="46.30402" lon="-0.34057">
        <ele>61.334</ele>
        <time>2010-12-12T12:48:53Z</time>
      </trkpt>
      <trkpt lat="46.30401" lon="-0.34056">
        <ele>61.309</ele>
        <time>2010-12-12T12:48:54Z</time>
      </trkpt>
      <trkpt lat="46.30401" lon="-0.34055">
        <ele>61.281</ele>
        <time>2010-12-12T12:48:55Z</time>
      </trkpt>
      <trkpt lat="46.304" lon="-0.34054">
        <ele>61.2525</ele>
        <time>2010-12-12T12:48:56Z</time>
      </trkpt>
      <trkpt lat="46.30399" lon="-0.34053">
        <ele>61.2216</ele>
        <time>2010-12-12T12:48:57Z</time>
      </trkpt>
      <trkpt lat="46.30398" lon="-0.34052">
        <ele>61.1891</ele>
        <time>2010-12-12T12:48:58Z</time>
      </trkpt>
      <trkpt lat="46.30397" lon="-0.3405">
        <ele>61.1573</ele>
        <time>2010-12-12T12:48:59Z</time>
      </trkpt>
      <trkpt lat="46.30396" lon="-0.34049">
        <ele>61.1241</ele>
        <time>2010-12-12T12:49:00Z</time>
      </trkpt>
      <trkpt lat="46.30395" lon="-0.34048">
        <ele>61.0904</ele>
        <time>2010-12-12T12:49:01Z</time>
      </trkpt>
      <trkpt lat="46.30394" lon="-0.34047">
        <ele>61.0602</ele>
        <time>2010-12-12T12:49:02Z</time>
      </trkpt>
      <trkpt lat="46.30394" lon="-0.34046">
        <ele>61.0335</ele>
        <time>2010-12-12T12:49:03Z</time>
      </trkpt>
      <trkpt lat="46.30393" lon="-0.34045">
        <ele>61.0105</ele>
        <time>2010-12-12T12:49:04Z</time>
      </trkpt>
      <trkpt lat="46.30392" lon="-0.34044">
        <ele>60.9914</ele>
        <time>2010-12-12T12:49:05Z</time>
      </trkpt>
      <trkpt lat="46.30391" lon="-0.34043">
        <ele>60.9752</ele>
        <time>2010-12-12T12:49:06Z</time>
      </trkpt>
      <trkpt lat="46.3039" lon="-0.34042">
        <ele>60.9619</ele>
        <time>2010-12-12T12:49:07Z</time>
      </trkpt>
      <trkpt lat="46.30389" lon="-0.34041">
        <ele>60.9514</ele>
        <time>2010-12-12T12:49:08Z</time>
      </trkpt>
      <trkpt lat="46.30388" lon="-0.3404">
        <ele>60.9408</ele>
        <time>2010-12-12T12:49:09Z</time>
      </trkpt>
      <trkpt lat="46.30387" lon="-0.34039">
        <ele>60.9282</ele>
        <time>2010-12-12T12:49:10Z</time>
      </trkpt>
      <trkpt lat="46.30386" lon="-0.34038">
        <ele>60.9039</ele>
        <time>2010-12-12T12:49:12Z</time>
      </trkpt>
      <trkpt lat="46.30385" lon="-0.34038">
        <ele>60.892</ele>
        <time>2010-12-12T12:49:13Z</time>
      </trkpt>
      <trkpt lat="46.30384" lon="-0.34037">
        <ele>60.8817</ele>
        <time>2010-12-12T12:49:14Z</time>
      </trkpt>
      <trkpt lat="46.30383" lon="-0.34037">
        <ele>60.8723</ele>
        <time>2010-12-12T12:49:15Z</time>
      </trkpt>
      <trkpt lat="46.30383" lon="-0.34036">
        <ele>60.8641</ele>
        <time>2010-12-12T12:49:16Z</time>
      </trkpt>
      <trkpt lat="46.30381" lon="-0.34035">
        <ele>60.8576</ele>
        <time>2010-12-12T12:49:17Z</time>
      </trkpt>
      <trkpt lat="46.3038" lon="-0.34034">
        <ele>60.8512</ele>
        <time>2010-12-12T12:49:19Z</time>
      </trkpt>
      <trkpt lat="46.30379" lon="-0.34033">
        <ele>60.8444</ele>
        <time>2010-12-12T12:49:19Z</time>
      </trkpt>
      <trkpt lat="46.30378" lon="-0.34032">
        <ele>60.8375</ele>
        <time>2010-12-12T12:49:20Z</time>
      </trkpt>
      <trkpt lat="46.30377" lon="-0.34031">
        <ele>60.8306</ele>
        <time>2010-12-12T12:49:21Z</time>
      </trkpt>
      <trkpt lat="46.30376" lon="-0.3403">
        <ele>60.8251</ele>
        <time>2010-12-12T12:49:22Z</time>
      </trkpt>
      <trkpt lat="46.30375" lon="-0.34028">
        <ele>60.8207</ele>
        <time>2010-12-12T12:49:23Z</time>
      </trkpt>
      <trkpt lat="46.30374" lon="-0.34027">
        <ele>60.8147</ele>
        <time>2010-12-12T12:49:24Z</time>
      </trkpt>
      <trkpt lat="46.30373" lon="-0.34026">
        <ele>60.8098</ele>
        <time>2010-12-12T12:49:25Z</time>
      </trkpt>
      <trkpt lat="46.30372" lon="-0.34025">
        <ele>60.8055</ele>
        <time>2010-12-12T12:49:26Z</time>
      </trkpt>
      <trkpt lat="46.30372" lon="-0.34023">
        <ele>60.8018</ele>
        <time>2010-12-12T12:49:27Z</time>
      </trkpt>
      <trkpt lat="46.3037" lon="-0.34022">
        <ele>60.798</ele>
        <time>2010-12-12T12:49:28Z</time>
      </trkpt>
      <trkpt lat="46.30367" lon="-0.34018">
        <ele>60.7493</ele>
        <time>2010-12-12T12:49:34Z</time>
      </trkpt>
      <trkpt lat="46.30367" lon="-0.34017">
        <ele>60.7301</ele>
        <time>2010-12-12T12:49:35Z</time>
      </trkpt>
      <trkpt lat="46.30365" lon="-0.34015">
        <ele>60.698</ele>
        <time>2010-12-12T12:49:36Z</time>
      </trkpt>
      <trkpt lat="46.30364" lon="-0.34015">
        <ele>60.6613</ele>
        <time>2010-12-12T12:49:37Z</time>
      </trkpt>
      <trkpt lat="46.30363" lon="-0.34015">
        <ele>60.6248</ele>
        <time>2010-12-12T12:49:37Z</time>
      </trkpt>
      <trkpt lat="46.30362" lon="-0.34014">
        <ele>60.5828</ele>
        <time>2010-12-12T12:49:39Z</time>
      </trkpt>
      <trkpt lat="46.30361" lon="-0.34013">
        <ele>60.5396</ele>
        <time>2010-12-12T12:49:40Z</time>
      </trkpt>
      <trkpt lat="46.3036" lon="-0.34012">
        <ele>60.4977</ele>
        <time>2010-12-12T12:49:41Z</time>
      </trkpt>
      <trkpt lat="46.30359" lon="-0.34011">
        <ele>60.4582</ele>
        <time>2010-12-12T12:49:42Z</time>
      </trkpt>
      <trkpt lat="46.30358" lon="-0.3401">
        <ele>60.42</ele>
        <time>2010-12-12T12:49:43Z</time>
      </trkpt>
      <trkpt lat="46.30357" lon="-0.34009">
        <ele>60.3825</ele>
        <time>2010-12-12T12:49:44Z</time>
      </trkpt>
      <trkpt lat="46.30356" lon="-0.34008">
        <ele>60.3463</ele>
        <time>2010-12-12T12:49:45Z</time>
      </trkpt>
      <trkpt lat="46.30355" lon="-0.34007">
        <ele>60.31</ele>
        <time>2010-12-12T12:49:46Z</time>
      </trkpt>
      <trkpt lat="46.30354" lon="-0.34006">
        <ele>60.2719</ele>
        <time>2010-12-12T12:49:47Z</time>
      </trkpt>
      <trkpt lat="46.30353" lon="-0.34004">
        <ele>60.2331</ele>
        <time>2010-12-12T12:49:48Z</time>
      </trkpt>
      <trkpt lat="46.30352" lon="-0.34003">
        <ele>60.1938</ele>
        <time>2010-12-12T12:49:49Z</time>
      </trkpt>
      <trkpt lat="46.30351" lon="-0.34002">
        <ele>60.1536</ele>
        <time>2010-12-12T12:49:50Z</time>
      </trkpt>
      <trkpt lat="46.30351" lon="-0.34001">
        <ele>60.1078</ele>
        <time>2010-12-12T12:49:51Z</time>
      </trkpt>
      <trkpt lat="46.3035" lon="-0.34">
        <ele>60.0629</ele>
        <time>2010-12-12T12:49:52Z</time>
      </trkpt>
      <trkpt lat="46.30349" lon="-0.33999">
        <ele>60.0188</ele>
        <time>2010-12-12T12:49:53Z</time>
      </trkpt>
      <trkpt lat="46.30348" lon="-0.33998">
        <ele>59.9759</ele>
        <time>2010-12-12T12:49:54Z</time>
      </trkpt>
      <trkpt lat="46.30347" lon="-0.33997">
        <ele>59.9343</ele>
        <time>2010-12-12T12:49:55Z</time>
      </trkpt>
      <trkpt lat="46.30346" lon="-0.33996">
        <ele>59.8938</ele>
        <time>2010-12-12T12:49:56Z</time>
      </trkpt>
      <trkpt lat="46.30345" lon="-0.33995">
        <ele>59.8539</ele>
        <time>2010-12-12T12:49:57Z</time>
      </trkpt>
      <trkpt lat="46.30344" lon="-0.33994">
        <ele>59.8148</ele>
        <time>2010-12-12T12:49:58Z</time>
      </trkpt>
      <trkpt lat="46.30343" lon="-0.33994">
        <ele>59.7813</ele>
        <time>2010-12-12T12:49:59Z</time>
      </trkpt>
      <trkpt lat="46.30342" lon="-0.33993">
        <ele>59.7491</ele>
        <time>2010-12-12T12:50:00Z</time>
      </trkpt>
      <trkpt lat="46.30341" lon="-0.33992">
        <ele>59.7194</ele>
        <time>2010-12-12T12:50:01Z</time>
      </trkpt>
      <trkpt lat="46.30339" lon="-0.33992">
        <ele>59.69</ele>
        <time>2010-12-12T12:50:02Z</time>
      </trkpt>
      <trkpt lat="46.30338" lon="-0.33991">
        <ele>59.6627</ele>
        <time>2010-12-12T12:50:03Z</time>
      </trkpt>
      <trkpt lat="46.30338" lon="-0.3399">
        <ele>59.6431</ele>
        <time>2010-12-12T12:50:04Z</time>
      </trkpt>
      <trkpt lat="46.30336" lon="-0.33989">
        <ele>59.6226</ele>
        <time>2010-12-12T12:50:05Z</time>
      </trkpt>
      <trkpt lat="46.30336" lon="-0.33989">
        <ele>59.6012</ele>
        <time>2010-12-12T12:50:06Z</time>
      </trkpt>
      <trkpt lat="46.30335" lon="-0.33988">
        <ele>59.5805</ele>
        <time>2010-12-12T12:50:07Z</time>
      </trkpt>
      <trkpt lat="46.30333" lon="-0.33987">
        <ele>59.5597</ele>
        <time>2010-12-12T12:50:08Z</time>
      </trkpt>
      <trkpt lat="46.30332" lon="-0.33986">
        <ele>59.5382</ele>
        <time>2010-12-12T12:50:09Z</time>
      </trkpt>
      <trkpt lat="46.30331" lon="-0.33985">
        <ele>59.5138</ele>
        <time>2010-12-12T12:50:10Z</time>
      </trkpt>
      <trkpt lat="46.3033" lon="-0.33984">
        <ele>59.4842</ele>
        <time>2010-12-12T12:50:11Z</time>
      </trkpt>
      <trkpt lat="46.30329" lon="-0.33983">
        <ele>59.4576</ele>
        <time>2010-12-12T12:50:12Z</time>
      </trkpt>
      <trkpt lat="46.30328" lon="-0.33982">
        <ele>59.4327</ele>
        <time>2010-12-12T12:50:13Z</time>
      </trkpt>
      <trkpt lat="46.30327" lon="-0.33982">
        <ele>59.4126</ele>
        <time>2010-12-12T12:50:14Z</time>
      </trkpt>
      <trkpt lat="46.30325" lon="-0.33981">
        <ele>59.3885</ele>
        <time>2010-12-12T12:50:15Z</time>
      </trkpt>
      <trkpt lat="46.30324" lon="-0.33979">
        <ele>59.3623</ele>
        <time>2010-12-12T12:50:16Z</time>
      </trkpt>
      <trkpt lat="46.30323" lon="-0.33978">
        <ele>59.3371</ele>
        <time>2010-12-12T12:50:17Z</time>
      </trkpt>
      <trkpt lat="46.30322" lon="-0.33978">
        <ele>59.3122</ele>
        <time>2010-12-12T12:50:18Z</time>
      </trkpt>
      <trkpt lat="46.3032" lon="-0.33977">
        <ele>59.2896</ele>
        <time>2010-12-12T12:50:19Z</time>
      </trkpt>
      <trkpt lat="46.3032" lon="-0.33976">
        <ele>59.269</ele>
        <time>2010-12-12T12:50:20Z</time>
      </trkpt>
      <trkpt lat="46.30319" lon="-0.33976">
        <ele>59.253</ele>
        <time>2010-12-12T12:50:21Z</time>
      </trkpt>
      <trkpt lat="46.30318" lon="-0.33976">
        <ele>59.2448</ele>
        <time>2010-12-12T12:50:22Z</time>
      </trkpt>
      <trkpt lat="46.30317" lon="-0.33975">
        <ele>59.2449</ele>
        <time>2010-12-12T12:50:23Z</time>
      </trkpt>
      <trkpt lat="46.30316" lon="-0.33975">
        <ele>59.2459</ele>
        <time>2010-12-12T12:50:24Z</time>
      </trkpt>
      <trkpt lat="46.30315" lon="-0.33974">
        <ele>59.2466</ele>
        <time>2010-12-12T12:50:25Z</time>
      </trkpt>
      <trkpt lat="46.30314" lon="-0.33973">
        <ele>59.2477</ele>
        <time>2010-12-12T12:50:25Z</time>
      </trkpt>
      <trkpt lat="46.30313" lon="-0.33972">
        <ele>59.2559</ele>
        <time>2010-12-12T12:50:27Z</time>
      </trkpt>
      <trkpt lat="46.30312" lon="-0.33971">
        <ele>59.2664</ele>
        <time>2010-12-12T12:50:28Z</time>
      </trkpt>
      <trkpt lat="46.30311" lon="-0.33971">
        <ele>59.2781</ele>
        <time>2010-12-12T12:50:29Z</time>
      </trkpt>
      <trkpt lat="46.3031" lon="-0.3397">
        <ele>59.2898</ele>
        <time>2010-12-12T12:50:30Z</time>
      </trkpt>
      <trkpt lat="46.30309" lon="-0.3397">
        <ele>59.3021</ele>
        <time>2010-12-12T12:50:31Z</time>
      </trkpt>
      <trkpt lat="46.30309" lon="-0.3397">
        <ele>59.315</ele>
        <time>2010-12-12T12:50:32Z</time>
      </trkpt>
      <trkpt lat="46.30307" lon="-0.33969">
        <ele>59.3281</ele>
        <time>2010-12-12T12:50:33Z</time>
      </trkpt>
      <trkpt lat="46.30306" lon="-0.33969">
        <ele>59.3398</ele>
        <time>2010-12-12T12:50:34Z</time>
      </trkpt>
      <trkpt lat="46.30305" lon="-0.33969">
        <ele>59.3514</ele>
        <time>2010-12-12T12:50:35Z</time>
      </trkpt>
      <trkpt lat="46.30304" lon="-0.33968">
        <ele>59.3593</ele>
        <time>2010-12-12T12:50:36Z</time>
      </trkpt>
      <trkpt lat="46.30303" lon="-0.33968">
        <ele>59.3671</ele>
        <time>2010-12-12T12:50:37Z</time>
      </trkpt>
      <trkpt lat="46.30302" lon="-0.33967">
        <ele>59.3759</ele>
        <time>2010-12-12T12:50:38Z</time>
      </trkpt>
      <trkpt lat="46.30301" lon="-0.33966">
        <ele>59.3797</ele>
        <time>2010-12-12T12:50:39Z</time>
      </trkpt>
      <trkpt lat="46.303" lon="-0.33966">
        <ele>59.3846</ele>
        <time>2010-12-12T12:50:40Z</time>
      </trkpt>
      <trkpt lat="46.30299" lon="-0.33966">
        <ele>59.3915</ele>
        <time>2010-12-12T12:50:41Z</time>
      </trkpt>
      <trkpt lat="46.30299" lon="-0.33965">
        <ele>59.3978</ele>
        <time>2010-12-12T12:50:42Z</time>
      </trkpt>
      <trkpt lat="46.30298" lon="-0.33964">
        <ele>59.4046</ele>
        <time>2010-12-12T12:50:43Z</time>
      </trkpt>
      <trkpt lat="46.30297" lon="-0.33963">
        <ele>59.412</ele>
        <time>2010-12-12T12:50:44Z</time>
      </trkpt>
      <trkpt lat="46.30296" lon="-0.33963">
        <ele>59.4209</ele>
        <time>2010-12-12T12:50:45Z</time>
      </trkpt>
      <trkpt lat="46.30295" lon="-0.33962">
        <ele>59.4329</ele>
        <time>2010-12-12T12:50:46Z</time>
      </trkpt>
      <trkpt lat="46.30294" lon="-0.33962">
        <ele>59.4479</ele>
        <time>2010-12-12T12:50:47Z</time>
      </trkpt>
      <trkpt lat="46.30293" lon="-0.33961">
        <ele>59.4645</ele>
        <time>2010-12-12T12:50:48Z</time>
      </trkpt>
      <trkpt lat="46.30293" lon="-0.33961">
        <ele>59.4798</ele>
        <time>2010-12-12T12:50:49Z</time>
      </trkpt>
      <trkpt lat="46.30292" lon="-0.3396">
        <ele>59.4979</ele>
        <time>2010-12-12T12:50:50Z</time>
      </trkpt>
      <trkpt lat="46.30291" lon="-0.3396">
        <ele>59.5184</ele>
        <time>2010-12-12T12:50:51Z</time>
      </trkpt>
      <trkpt lat="46.3029" lon="-0.3396">
        <ele>59.5422</ele>
        <time>2010-12-12T12:50:52Z</time>
      </trkpt>
      <trkpt lat="46.30289" lon="-0.3396">
        <ele>59.5673</ele>
        <time>2010-12-12T12:50:53Z</time>
      </trkpt>
      <trkpt lat="46.30288" lon="-0.33959">
        <ele>59.5931</ele>
        <time>2010-12-12T12:50:54Z</time>
      </trkpt>
      <trkpt lat="46.30286" lon="-0.33959">
        <ele>59.6184</ele>
        <time>2010-12-12T12:50:55Z</time>
      </trkpt>
      <trkpt lat="46.30285" lon="-0.33959">
        <ele>59.6447</ele>
        <time>2010-12-12T12:50:56Z</time>
      </trkpt>
      <trkpt lat="46.30283" lon="-0.33958">
        <ele>59.6687</ele>
        <time>2010-12-12T12:50:57Z</time>
      </trkpt>
      <trkpt lat="46.30282" lon="-0.33958">
        <ele>59.6919</ele>
        <time>2010-12-12T12:50:58Z</time>
      </trkpt>
      <trkpt lat="46.30281" lon="-0.33957">
        <ele>59.709</ele>
        <time>2010-12-12T12:50:59Z</time>
      </trkpt>
      <trkpt lat="46.3028" lon="-0.33957">
        <ele>59.7232</ele>
        <time>2010-12-12T12:51:00Z</time>
      </trkpt>
      <trkpt lat="46.30278" lon="-0.33956">
        <ele>59.737</ele>
        <time>2010-12-12T12:51:01Z</time>
      </trkpt>
      <trkpt lat="46.30277" lon="-0.33955">
        <ele>59.7486</ele>
        <time>2010-12-12T12:51:02Z</time>
      </trkpt>
      <trkpt lat="46.30275" lon="-0.33955">
        <ele>59.7599</ele>
        <time>2010-12-12T12:51:03Z</time>
      </trkpt>
      <trkpt lat="46.30274" lon="-0.33954">
        <ele>59.7693</ele>
        <time>2010-12-12T12:51:04Z</time>
      </trkpt>
      <trkpt lat="46.30273" lon="-0.33954">
        <ele>59.7765</ele>
        <time>2010-12-12T12:51:05Z</time>
      </trkpt>
      <trkpt lat="46.30272" lon="-0.33953">
        <ele>59.7838</ele>
        <time>2010-12-12T12:51:06Z</time>
      </trkpt>
      <trkpt lat="46.30271" lon="-0.33953">
        <ele>59.7928</ele>
        <time>2010-12-12T12:51:06Z</time>
      </trkpt>
      <trkpt lat="46.3027" lon="-0.33953">
        <ele>59.8046</ele>
        <time>2010-12-12T12:51:07Z</time>
      </trkpt>
      <trkpt lat="46.30269" lon="-0.33952">
        <ele>59.8212</ele>
        <time>2010-12-12T12:51:08Z</time>
      </trkpt>
      <trkpt lat="46.30267" lon="-0.33951">
        <ele>59.8427</ele>
        <time>2010-12-12T12:51:09Z</time>
      </trkpt>
      <trkpt lat="46.30266" lon="-0.3395">
        <ele>59.871</ele>
        <time>2010-12-12T12:51:10Z</time>
      </trkpt>
      <trkpt lat="46.30265" lon="-0.33949">
        <ele>59.9056</ele>
        <time>2010-12-12T12:51:11Z</time>
      </trkpt>
      <trkpt lat="46.30264" lon="-0.33947">
        <ele>59.9383</ele>
        <time>2010-12-12T12:51:12Z</time>
      </trkpt>
      <trkpt lat="46.30263" lon="-0.33946">
        <ele>59.977</ele>
        <time>2010-12-12T12:51:13Z</time>
      </trkpt>
      <trkpt lat="46.30262" lon="-0.33945">
        <ele>60.0211</ele>
        <time>2010-12-12T12:51:14Z</time>
      </trkpt>
      <trkpt lat="46.30261" lon="-0.33944">
        <ele>60.0684</ele>
        <time>2010-12-12T12:51:15Z</time>
      </trkpt>
      <trkpt lat="46.3026" lon="-0.33943">
        <ele>60.1195</ele>
        <time>2010-12-12T12:51:16Z</time>
      </trkpt>
      <trkpt lat="46.30259" lon="-0.33942">
        <ele>60.1727</ele>
        <time>2010-12-12T12:51:17Z</time>
      </trkpt>
      <trkpt lat="46.30259" lon="-0.33941">
        <ele>60.2266</ele>
        <time>2010-12-12T12:51:18Z</time>
      </trkpt>
      <trkpt lat="46.30258" lon="-0.33939">
        <ele>60.2806</ele>
        <time>2010-12-12T12:51:19Z</time>
      </trkpt>
      <trkpt lat="46.30257" lon="-0.33938">
        <ele>60.3359</ele>
        <time>2010-12-12T12:51:20Z</time>
      </trkpt>
      <trkpt lat="46.30256" lon="-0.33938">
        <ele>60.3909</ele>
        <time>2010-12-12T12:51:21Z</time>
      </trkpt>
      <trkpt lat="46.30256" lon="-0.33937">
        <ele>60.4452</ele>
        <time>2010-12-12T12:51:22Z</time>
      </trkpt>
      <trkpt lat="46.30255" lon="-0.33936">
        <ele>60.4983</ele>
        <time>2010-12-12T12:51:23Z</time>
      </trkpt>
      <trkpt lat="46.30254" lon="-0.33935">
        <ele>60.5517</ele>
        <time>2010-12-12T12:51:24Z</time>
      </trkpt>
      <trkpt lat="46.30253" lon="-0.33934">
        <ele>60.6048</ele>
        <time>2010-12-12T12:51:25Z</time>
      </trkpt>
      <trkpt lat="46.30253" lon="-0.33934">
        <ele>60.6587</ele>
        <time>2010-12-12T12:51:26Z</time>
      </trkpt>
      <trkpt lat="46.30252" lon="-0.33934">
        <ele>60.7746</ele>
        <time>2010-12-12T12:51:30Z</time>
      </trkpt>
      <trkpt lat="46.30251" lon="-0.33934">
        <ele>60.8267</ele>
        <time>2010-12-12T12:51:31Z</time>
      </trkpt>
      <trkpt lat="46.3025" lon="-0.33935">
        <ele>60.8785</ele>
        <time>2010-12-12T12:51:32Z</time>
      </trkpt>
      <trkpt lat="46.30249" lon="-0.33936">
        <ele>60.93</ele>
        <time>2010-12-12T12:51:33Z</time>
      </trkpt>
      <trkpt lat="46.30248" lon="-0.33936">
        <ele>60.9808</ele>
        <time>2010-12-12T12:51:34Z</time>
      </trkpt>
      <trkpt lat="46.30246" lon="-0.33936">
        <ele>61.0283</ele>
        <time>2010-12-12T12:51:35Z</time>
      </trkpt>
      <trkpt lat="46.30244" lon="-0.33935">
        <ele>61.0734</ele>
        <time>2010-12-12T12:51:36Z</time>
      </trkpt>
      <trkpt lat="46.30243" lon="-0.33935">
        <ele>61.1164</ele>
        <time>2010-12-12T12:51:37Z</time>
      </trkpt>
      <trkpt lat="46.30241" lon="-0.33934">
        <ele>61.1587</ele>
        <time>2010-12-12T12:51:38Z</time>
      </trkpt>
      <trkpt lat="46.3024" lon="-0.33934">
        <ele>61.2005</ele>
        <time>2010-12-12T12:51:39Z</time>
      </trkpt>
      <trkpt lat="46.30239" lon="-0.33934">
        <ele>61.2413</ele>
        <time>2010-12-12T12:51:40Z</time>
      </trkpt>
      <trkpt lat="46.30238" lon="-0.33934">
        <ele>61.2814</ele>
        <time>2010-12-12T12:51:41Z</time>
      </trkpt>
      <trkpt lat="46.30237" lon="-0.33934">
        <ele>61.321</ele>
        <time>2010-12-12T12:51:42Z</time>
      </trkpt>
      <trkpt lat="46.30236" lon="-0.33934">
        <ele>61.3599</ele>
        <time>2010-12-12T12:51:43Z</time>
      </trkpt>
      <trkpt lat="46.30235" lon="-0.33934">
        <ele>61.398</ele>
        <time>2010-12-12T12:51:44Z</time>
      </trkpt>
      <trkpt lat="46.30233" lon="-0.33934">
        <ele>61.4344</ele>
        <time>2010-12-12T12:51:45Z</time>
      </trkpt>
      <trkpt lat="46.30233" lon="-0.33934">
        <ele>61.4705</ele>
        <time>2010-12-12T12:51:46Z</time>
      </trkpt>
      <trkpt lat="46.30232" lon="-0.33934">
        <ele>61.5089</ele>
        <time>2010-12-12T12:51:47Z</time>
      </trkpt>
      <trkpt lat="46.30231" lon="-0.33933">
        <ele>61.5479</ele>
        <time>2010-12-12T12:51:48Z</time>
      </trkpt>
      <trkpt lat="46.3023" lon="-0.33934">
        <ele>61.5851</ele>
        <time>2010-12-12T12:51:49Z</time>
      </trkpt>
      <trkpt lat="46.30228" lon="-0.33934">
        <ele>61.6204</ele>
        <time>2010-12-12T12:51:50Z</time>
      </trkpt>
      <trkpt lat="46.30227" lon="-0.33935">
        <ele>61.6558</ele>
        <time>2010-12-12T12:51:52Z</time>
      </trkpt>
      <trkpt lat="46.30226" lon="-0.33935">
        <ele>61.6894</ele>
        <time>2010-12-12T12:51:52Z</time>
      </trkpt>
      <trkpt lat="46.30225" lon="-0.33935">
        <ele>61.7211</ele>
        <time>2010-12-12T12:51:53Z</time>
      </trkpt>
      <trkpt lat="46.30224" lon="-0.33936">
        <ele>61.752</ele>
        <time>2010-12-12T12:51:54Z</time>
      </trkpt>
      <trkpt lat="46.30223" lon="-0.33936">
        <ele>61.7823</ele>
        <time>2010-12-12T12:51:55Z</time>
      </trkpt>
      <trkpt lat="46.30222" lon="-0.33936">
        <ele>61.8108</ele>
        <time>2010-12-12T12:51:56Z</time>
      </trkpt>
      <trkpt lat="46.30221" lon="-0.33936">
        <ele>61.835</ele>
        <time>2010-12-12T12:51:57Z</time>
      </trkpt>
      <trkpt lat="46.3022" lon="-0.33936">
        <ele>61.8544</ele>
        <time>2010-12-12T12:51:58Z</time>
      </trkpt>
      <trkpt lat="46.30219" lon="-0.33936">
        <ele>61.8696</ele>
        <time>2010-12-12T12:51:59Z</time>
      </trkpt>
      <trkpt lat="46.30217" lon="-0.33936">
        <ele>61.8816</ele>
        <time>2010-12-12T12:52:00Z</time>
      </trkpt>
      <trkpt lat="46.30216" lon="-0.33935">
        <ele>61.8908</ele>
        <time>2010-12-12T12:52:01Z</time>
      </trkpt>
      <trkpt lat="46.30215" lon="-0.33935">
        <ele>61.8993</ele>
        <time>2010-12-12T12:52:02Z</time>
      </trkpt>
      <trkpt lat="46.30214" lon="-0.33935">
        <ele>61.9064</ele>
        <time>2010-12-12T12:52:03Z</time>
      </trkpt>
      <trkpt lat="46.30213" lon="-0.33934">
        <ele>61.913</ele>
        <time>2010-12-12T12:52:04Z</time>
      </trkpt>
      <trkpt lat="46.30211" lon="-0.33934">
        <ele>61.9191</ele>
        <time>2010-12-12T12:52:05Z</time>
      </trkpt>
      <trkpt lat="46.3021" lon="-0.33934">
        <ele>61.9248</ele>
        <time>2010-12-12T12:52:06Z</time>
      </trkpt>
      <trkpt lat="46.30209" lon="-0.33934">
        <ele>61.9308</ele>
        <time>2010-12-12T12:52:07Z</time>
      </trkpt>
      <trkpt lat="46.30208" lon="-0.33934">
        <ele>61.9374</ele>
        <time>2010-12-12T12:52:08Z</time>
      </trkpt>
      <trkpt lat="46.30207" lon="-0.33934">
        <ele>61.9437</ele>
        <time>2010-12-12T12:52:09Z</time>
      </trkpt>
      <trkpt lat="46.30206" lon="-0.33934">
        <ele>61.951</ele>
        <time>2010-12-12T12:52:10Z</time>
      </trkpt>
      <trkpt lat="46.30205" lon="-0.33935">
        <ele>61.9577</ele>
        <time>2010-12-12T12:52:11Z</time>
      </trkpt>
      <trkpt lat="46.30204" lon="-0.33935">
        <ele>61.9646</ele>
        <time>2010-12-12T12:52:12Z</time>
      </trkpt>
      <trkpt lat="46.30203" lon="-0.33935">
        <ele>61.971</ele>
        <time>2010-12-12T12:52:13Z</time>
      </trkpt>
      <trkpt lat="46.30202" lon="-0.33935">
        <ele>61.9761</ele>
        <time>2010-12-12T12:52:14Z</time>
      </trkpt>
      <trkpt lat="46.30201" lon="-0.33935">
        <ele>61.98</ele>
        <time>2010-12-12T12:52:15Z</time>
      </trkpt>
      <trkpt lat="46.302" lon="-0.33934">
        <ele>61.9835</ele>
        <time>2010-12-12T12:52:16Z</time>
      </trkpt>
      <trkpt lat="46.30199" lon="-0.33934">
        <ele>61.9873</ele>
        <time>2010-12-12T12:52:17Z</time>
      </trkpt>
      <trkpt lat="46.30198" lon="-0.33934">
        <ele>61.9906</ele>
        <time>2010-12-12T12:52:18Z</time>
      </trkpt>
      <trkpt lat="46.30197" lon="-0.33934">
        <ele>61.9951</ele>
        <time>2010-12-12T12:52:19Z</time>
      </trkpt>
      <trkpt lat="46.30196" lon="-0.33934">
        <ele>62.0015</ele>
        <time>2010-12-12T12:52:20Z</time>
      </trkpt>
      <trkpt lat="46.30195" lon="-0.33934">
        <ele>62.0081</ele>
        <time>2010-12-12T12:52:21Z</time>
      </trkpt>
      <trkpt lat="46.30193" lon="-0.33934">
        <ele>62.0144</ele>
        <time>2010-12-12T12:52:22Z</time>
      </trkpt>
      <trkpt lat="46.30192" lon="-0.33934">
        <ele>62.0202</ele>
        <time>2010-12-12T12:52:23Z</time>
      </trkpt>
      <trkpt lat="46.30191" lon="-0.33934">
        <ele>62.026</ele>
        <time>2010-12-12T12:52:24Z</time>
      </trkpt>
      <trkpt lat="46.3019" lon="-0.33933">
        <ele>62.0313</ele>
        <time>2010-12-12T12:52:25Z</time>
      </trkpt>
      <trkpt lat="46.30189" lon="-0.33934">
        <ele>62.0357</ele>
        <time>2010-12-12T12:52:26Z</time>
      </trkpt>
      <trkpt lat="46.30188" lon="-0.33934">
        <ele>62.0403</ele>
        <time>2010-12-12T12:52:27Z</time>
      </trkpt>
      <trkpt lat="46.30187" lon="-0.33934">
        <ele>62.0453</ele>
        <time>2010-12-12T12:52:28Z</time>
      </trkpt>
      <trkpt lat="46.30186" lon="-0.33934">
        <ele>62.0493</ele>
        <time>2010-12-12T12:52:29Z</time>
      </trkpt>
      <trkpt lat="46.30185" lon="-0.33934">
        <ele>62.0533</ele>
        <time>2010-12-12T12:52:30Z</time>
      </trkpt>
      <trkpt lat="46.30183" lon="-0.33934">
        <ele>62.0561</ele>
        <time>2010-12-12T12:52:31Z</time>
      </trkpt>
      <trkpt lat="46.30182" lon="-0.33934">
        <ele>62.0576</ele>
        <time>2010-12-12T12:52:33Z</time>
      </trkpt>
      <trkpt lat="46.30181" lon="-0.33935">
        <ele>62.0572</ele>
        <time>2010-12-12T12:52:33Z</time>
      </trkpt>
      <trkpt lat="46.3018" lon="-0.33935">
        <ele>62.0563</ele>
        <time>2010-12-12T12:52:34Z</time>
      </trkpt>
      <trkpt lat="46.30179" lon="-0.33935">
        <ele>62.0549</ele>
        <time>2010-12-12T12:52:35Z</time>
      </trkpt>
      <trkpt lat="46.30177" lon="-0.33935">
        <ele>62.051</ele>
        <time>2010-12-12T12:52:36Z</time>
      </trkpt>
      <trkpt lat="46.30176" lon="-0.33935">
        <ele>62.0467</ele>
        <time>2010-12-12T12:52:37Z</time>
      </trkpt>
      <trkpt lat="46.30175" lon="-0.33935">
        <ele>62.0409</ele>
        <time>2010-12-12T12:52:38Z</time>
      </trkpt>
      <trkpt lat="46.30174" lon="-0.33935">
        <ele>62.0339</ele>
        <time>2010-12-12T12:52:39Z</time>
      </trkpt>
      <trkpt lat="46.30172" lon="-0.33935">
        <ele>62.0277</ele>
        <time>2010-12-12T12:52:40Z</time>
      </trkpt>
      <trkpt lat="46.30171" lon="-0.33935">
        <ele>62.0213</ele>
        <time>2010-12-12T12:52:41Z</time>
      </trkpt>
      <trkpt lat="46.3017" lon="-0.33935">
        <ele>62.0156</ele>
        <time>2010-12-12T12:52:42Z</time>
      </trkpt>
      <trkpt lat="46.30169" lon="-0.33935">
        <ele>62.0099</ele>
        <time>2010-12-12T12:52:43Z</time>
      </trkpt>
      <trkpt lat="46.30168" lon="-0.33935">
        <ele>62.0043</ele>
        <time>2010-12-12T12:52:44Z</time>
      </trkpt>
      <trkpt lat="46.30167" lon="-0.33935">
        <ele>61.9968</ele>
        <time>2010-12-12T12:52:45Z</time>
      </trkpt>
      <trkpt lat="46.30166" lon="-0.33935">
        <ele>61.987</ele>
        <time>2010-12-12T12:52:46Z</time>
      </trkpt>
      <trkpt lat="46.30164" lon="-0.33935">
        <ele>61.9755</ele>
        <time>2010-12-12T12:52:47Z</time>
      </trkpt>
      <trkpt lat="46.30163" lon="-0.33935">
        <ele>61.9619</ele>
        <time>2010-12-12T12:52:48Z</time>
      </trkpt>
      <trkpt lat="46.30162" lon="-0.33935">
        <ele>61.9471</ele>
        <time>2010-12-12T12:52:49Z</time>
      </trkpt>
      <trkpt lat="46.3016" lon="-0.33935">
        <ele>61.9297</ele>
        <time>2010-12-12T12:52:50Z</time>
      </trkpt>
      <trkpt lat="46.30159" lon="-0.33935">
        <ele>61.9111</ele>
        <time>2010-12-12T12:52:51Z</time>
      </trkpt>
      <trkpt lat="46.30158" lon="-0.33934">
        <ele>61.8927</ele>
        <time>2010-12-12T12:52:52Z</time>
      </trkpt>
      <trkpt lat="46.30156" lon="-0.33934">
        <ele>61.8724</ele>
        <time>2010-12-12T12:52:54Z</time>
      </trkpt>
      <trkpt lat="46.30155" lon="-0.33934">
        <ele>61.8512</ele>
        <time>2010-12-12T12:52:54Z</time>
      </trkpt>
      <trkpt lat="46.30153" lon="-0.33934">
        <ele>61.8303</ele>
        <time>2010-12-12T12:52:55Z</time>
      </trkpt>
      <trkpt lat="46.30153" lon="-0.33934">
        <ele>61.8087</ele>
        <time>2010-12-12T12:52:56Z</time>
      </trkpt>
      <trkpt lat="46.30151" lon="-0.33934">
        <ele>61.7877</ele>
        <time>2010-12-12T12:52:57Z</time>
      </trkpt>
      <trkpt lat="46.3015" lon="-0.33934">
        <ele>61.766</ele>
        <time>2010-12-12T12:52:58Z</time>
      </trkpt>
      <trkpt lat="46.30149" lon="-0.33935">
        <ele>61.7445</ele>
        <time>2010-12-12T12:52:59Z</time>
      </trkpt>
      <trkpt lat="46.30148" lon="-0.33934">
        <ele>61.7219</ele>
        <time>2010-12-12T12:53:00Z</time>
      </trkpt>
      <trkpt lat="46.30147" lon="-0.33934">
        <ele>61.6982</ele>
        <time>2010-12-12T12:53:01Z</time>
      </trkpt>
      <trkpt lat="46.30145" lon="-0.33934">
        <ele>61.6734</ele>
        <time>2010-12-12T12:53:02Z</time>
      </trkpt>
      <trkpt lat="46.30144" lon="-0.33934">
        <ele>61.6476</ele>
        <time>2010-12-12T12:53:03Z</time>
      </trkpt>
      <trkpt lat="46.30143" lon="-0.33934">
        <ele>61.6217</ele>
        <time>2010-12-12T12:53:04Z</time>
      </trkpt>
      <trkpt lat="46.30142" lon="-0.33934">
        <ele>61.5964</ele>
        <time>2010-12-12T12:53:05Z</time>
      </trkpt>
      <trkpt lat="46.30141" lon="-0.33933">
        <ele>61.5709</ele>
        <time>2010-12-12T12:53:06Z</time>
      </trkpt>
      <trkpt lat="46.3014" lon="-0.33933">
        <ele>61.5453</ele>
        <time>2010-12-12T12:53:07Z</time>
      </trkpt>
      <trkpt lat="46.30139" lon="-0.33934">
        <ele>61.52</ele>
        <time>2010-12-12T12:53:08Z</time>
      </trkpt>
      <trkpt lat="46.30138" lon="-0.33934">
        <ele>61.4952</ele>
        <time>2010-12-12T12:53:09Z</time>
      </trkpt>
      <trkpt lat="46.30137" lon="-0.33934">
        <ele>61.4711</ele>
        <time>2010-12-12T12:53:10Z</time>
      </trkpt>
      <trkpt lat="46.30136" lon="-0.33934">
        <ele>61.4475</ele>
        <time>2010-12-12T12:53:11Z</time>
      </trkpt>
      <trkpt lat="46.30135" lon="-0.33934">
        <ele>61.4244</ele>
        <time>2010-12-12T12:53:12Z</time>
      </trkpt>
      <trkpt lat="46.30134" lon="-0.33933">
        <ele>61.4013</ele>
        <time>2010-12-12T12:53:13Z</time>
      </trkpt>
      <trkpt lat="46.30133" lon="-0.33933">
        <ele>61.3782</ele>
        <time>2010-12-12T12:53:14Z</time>
      </trkpt>
      <trkpt lat="46.30132" lon="-0.33933">
        <ele>61.3556</ele>
        <time>2010-12-12T12:53:15Z</time>
      </trkpt>
      <trkpt lat="46.30131" lon="-0.33932">
        <ele>61.3328</ele>
        <time>2010-12-12T12:53:16Z</time>
      </trkpt>
      <trkpt lat="46.3013" lon="-0.33931">
        <ele>61.3088</ele>
        <time>2010-12-12T12:53:17Z</time>
      </trkpt>
      <trkpt lat="46.30129" lon="-0.3393">
        <ele>61.283</ele>
        <time>2010-12-12T12:53:18Z</time>
      </trkpt>
      <trkpt lat="46.30128" lon="-0.3393">
        <ele>61.2557</ele>
        <time>2010-12-12T12:53:19Z</time>
      </trkpt>
      <trkpt lat="46.30127" lon="-0.33929">
        <ele>61.2287</ele>
        <time>2010-12-12T12:53:20Z</time>
      </trkpt>
      <trkpt lat="46.30126" lon="-0.33929">
        <ele>61.2026</ele>
        <time>2010-12-12T12:53:21Z</time>
      </trkpt>
      <trkpt lat="46.30125" lon="-0.33928">
        <ele>61.1765</ele>
        <time>2010-12-12T12:53:22Z</time>
      </trkpt>
      <trkpt lat="46.30124" lon="-0.33927">
        <ele>61.1505</ele>
        <time>2010-12-12T12:53:23Z</time>
      </trkpt>
      <trkpt lat="46.30123" lon="-0.33926">
        <ele>61.1186</ele>
        <time>2010-12-12T12:53:24Z</time>
      </trkpt>
      <trkpt lat="46.30122" lon="-0.33925">
        <ele>61.0817</ele>
        <time>2010-12-12T12:53:25Z</time>
      </trkpt>
      <trkpt lat="46.30121" lon="-0.33924">
        <ele>61.0401</ele>
        <time>2010-12-12T12:53:26Z</time>
      </trkpt>
      <trkpt lat="46.30121" lon="-0.33922">
        <ele>60.9928</ele>
        <time>2010-12-12T12:53:27Z</time>
      </trkpt>
      <trkpt lat="46.3012" lon="-0.3392">
        <ele>60.9419</ele>
        <time>2010-12-12T12:53:28Z</time>
      </trkpt>
      <trkpt lat="46.3012" lon="-0.33919">
        <ele>60.8913</ele>
        <time>2010-12-12T12:53:29Z</time>
      </trkpt>
      <trkpt lat="46.30119" lon="-0.33917">
        <ele>60.8384</ele>
        <time>2010-12-12T12:53:30Z</time>
      </trkpt>
      <trkpt lat="46.30119" lon="-0.33916">
        <ele>60.7864</ele>
        <time>2010-12-12T12:53:31Z</time>
      </trkpt>
      <trkpt lat="46.30119" lon="-0.33915">
        <ele>60.736</ele>
        <time>2010-12-12T12:53:32Z</time>
      </trkpt>
      <trkpt lat="46.30118" lon="-0.33914">
        <ele>60.6874</ele>
        <time>2010-12-12T12:53:33Z</time>
      </trkpt>
      <trkpt lat="46.30117" lon="-0.33912">
        <ele>60.6398</ele>
        <time>2010-12-12T12:53:34Z</time>
      </trkpt>
      <trkpt lat="46.30117" lon="-0.33911">
        <ele>60.5938</ele>
        <time>2010-12-12T12:53:35Z</time>
      </trkpt>
      <trkpt lat="46.30116" lon="-0.3391">
        <ele>60.5462</ele>
        <time>2010-12-12T12:53:36Z</time>
      </trkpt>
      <trkpt lat="46.30116" lon="-0.3391">
        <ele>60.493</ele>
        <time>2010-12-12T12:53:37Z</time>
      </trkpt>
      <trkpt lat="46.30116" lon="-0.33909">
        <ele>60.4376</ele>
        <time>2010-12-12T12:53:38Z</time>
      </trkpt>
      <trkpt lat="46.30115" lon="-0.33908">
        <ele>60.3839</ele>
        <time>2010-12-12T12:53:39Z</time>
      </trkpt>
      <trkpt lat="46.30114" lon="-0.33907">
        <ele>60.3334</ele>
        <time>2010-12-12T12:53:40Z</time>
      </trkpt>
      <trkpt lat="46.30114" lon="-0.33906">
        <ele>60.2837</ele>
        <time>2010-12-12T12:53:41Z</time>
      </trkpt>
      <trkpt lat="46.30113" lon="-0.33905">
        <ele>60.2352</ele>
        <time>2010-12-12T12:53:42Z</time>
      </trkpt>
      <trkpt lat="46.30112" lon="-0.33904">
        <ele>60.1873</ele>
        <time>2010-12-12T12:53:43Z</time>
      </trkpt>
      <trkpt lat="46.30111" lon="-0.33903">
        <ele>60.1397</ele>
        <time>2010-12-12T12:53:44Z</time>
      </trkpt>
      <trkpt lat="46.30111" lon="-0.33901">
        <ele>60.0915</ele>
        <time>2010-12-12T12:53:45Z</time>
      </trkpt>
      <trkpt lat="46.3011" lon="-0.339">
        <ele>60.0439</ele>
        <time>2010-12-12T12:53:46Z</time>
      </trkpt>
      <trkpt lat="46.30109" lon="-0.33899">
        <ele>59.9976</ele>
        <time>2010-12-12T12:53:47Z</time>
      </trkpt>
      <trkpt lat="46.30108" lon="-0.33897">
        <ele>59.9522</ele>
        <time>2010-12-12T12:53:48Z</time>
      </trkpt>
      <trkpt lat="46.30108" lon="-0.33896">
        <ele>59.9051</ele>
        <time>2010-12-12T12:53:49Z</time>
      </trkpt>
      <trkpt lat="46.30107" lon="-0.33894">
        <ele>59.8591</ele>
        <time>2010-12-12T12:53:50Z</time>
      </trkpt>
      <trkpt lat="46.30106" lon="-0.33893">
        <ele>59.8152</ele>
        <time>2010-12-12T12:53:51Z</time>
      </trkpt>
      <trkpt lat="46.30106" lon="-0.33892">
        <ele>59.7724</ele>
        <time>2010-12-12T12:53:52Z</time>
      </trkpt>
      <trkpt lat="46.30106" lon="-0.33891">
        <ele>59.732</ele>
        <time>2010-12-12T12:53:53Z</time>
      </trkpt>
      <trkpt lat="46.30105" lon="-0.3389">
        <ele>59.694</ele>
        <time>2010-12-12T12:53:54Z</time>
      </trkpt>
      <trkpt lat="46.30104" lon="-0.33889">
        <ele>59.6571</ele>
        <time>2010-12-12T12:53:55Z</time>
      </trkpt>
      <trkpt lat="46.30104" lon="-0.33888">
        <ele>59.6212</ele>
        <time>2010-12-12T12:53:56Z</time>
      </trkpt>
      <trkpt lat="46.30103" lon="-0.33887">
        <ele>59.5854</ele>
        <time>2010-12-12T12:53:57Z</time>
      </trkpt>
      <trkpt lat="46.30103" lon="-0.33885">
        <ele>59.5516</ele>
        <time>2010-12-12T12:53:58Z</time>
      </trkpt>
      <trkpt lat="46.30102" lon="-0.33884">
        <ele>59.5175</ele>
        <time>2010-12-12T12:53:59Z</time>
      </trkpt>
      <trkpt lat="46.30102" lon="-0.33883">
        <ele>59.4829</ele>
        <time>2010-12-12T12:54:00Z</time>
      </trkpt>
      <trkpt lat="46.30101" lon="-0.33881">
        <ele>59.449</ele>
        <time>2010-12-12T12:54:01Z</time>
      </trkpt>
      <trkpt lat="46.30101" lon="-0.3388">
        <ele>59.4171</ele>
        <time>2010-12-12T12:54:02Z</time>
      </trkpt>
      <trkpt lat="46.301" lon="-0.33879">
        <ele>59.3849</ele>
        <time>2010-12-12T12:54:03Z</time>
      </trkpt>
      <trkpt lat="46.301" lon="-0.33877">
        <ele>59.3536</ele>
        <time>2010-12-12T12:54:04Z</time>
      </trkpt>
      <trkpt lat="46.30099" lon="-0.33876">
        <ele>59.323</ele>
        <time>2010-12-12T12:54:05Z</time>
      </trkpt>
      <trkpt lat="46.30098" lon="-0.33874">
        <ele>59.2939</ele>
        <time>2010-12-12T12:54:06Z</time>
      </trkpt>
      <trkpt lat="46.30098" lon="-0.33873">
        <ele>59.2683</ele>
        <time>2010-12-12T12:54:07Z</time>
      </trkpt>
      <trkpt lat="46.30097" lon="-0.33872">
        <ele>59.2447</ele>
        <time>2010-12-12T12:54:08Z</time>
      </trkpt>
      <trkpt lat="46.30096" lon="-0.33871">
        <ele>59.2219</ele>
        <time>2010-12-12T12:54:09Z</time>
      </trkpt>
      <trkpt lat="46.30096" lon="-0.33869">
        <ele>59.2</ele>
        <time>2010-12-12T12:54:10Z</time>
      </trkpt>
      <trkpt lat="46.30095" lon="-0.33868">
        <ele>59.1789</ele>
        <time>2010-12-12T12:54:11Z</time>
      </trkpt>
      <trkpt lat="46.30094" lon="-0.33867">
        <ele>59.1615</ele>
        <time>2010-12-12T12:54:13Z</time>
      </trkpt>
      <trkpt lat="46.30094" lon="-0.33866">
        <ele>59.1314</ele>
        <time>2010-12-12T12:54:13Z</time>
      </trkpt>
      <trkpt lat="46.30093" lon="-0.33865">
        <ele>59.0913</ele>
        <time>2010-12-12T12:54:14Z</time>
      </trkpt>
      <trkpt lat="46.30093" lon="-0.33864">
        <ele>59.0496</ele>
        <time>2010-12-12T12:54:15Z</time>
      </trkpt>
      <trkpt lat="46.30093" lon="-0.33862">
        <ele>59.0084</ele>
        <time>2010-12-12T12:54:16Z</time>
      </trkpt>
      <trkpt lat="46.30092" lon="-0.33861">
        <ele>58.9712</ele>
        <time>2010-12-12T12:54:17Z</time>
      </trkpt>
      <trkpt lat="46.30092" lon="-0.3386">
        <ele>58.9363</ele>
        <time>2010-12-12T12:54:18Z</time>
      </trkpt>
      <trkpt lat="46.30092" lon="-0.33858">
        <ele>58.8985</ele>
        <time>2010-12-12T12:54:19Z</time>
      </trkpt>
      <trkpt lat="46.30091" lon="-0.33857">
        <ele>58.8526</ele>
        <time>2010-12-12T12:54:20Z</time>
      </trkpt>
      <trkpt lat="46.3009" lon="-0.33855">
        <ele>58.8063</ele>
        <time>2010-12-12T12:54:21Z</time>
      </trkpt>
      <trkpt lat="46.3009" lon="-0.33854">
        <ele>58.7579</ele>
        <time>2010-12-12T12:54:22Z</time>
      </trkpt>
      <trkpt lat="46.30089" lon="-0.33852">
        <ele>58.711</ele>
        <time>2010-12-12T12:54:23Z</time>
      </trkpt>
      <trkpt lat="46.30089" lon="-0.33851">
        <ele>58.6715</ele>
        <time>2010-12-12T12:54:24Z</time>
      </trkpt>
      <trkpt lat="46.30088" lon="-0.3385">
        <ele>58.6331</ele>
        <time>2010-12-12T12:54:25Z</time>
      </trkpt>
      <trkpt lat="46.30088" lon="-0.33848">
        <ele>58.5983</ele>
        <time>2010-12-12T12:54:26Z</time>
      </trkpt>
      <trkpt lat="46.30087" lon="-0.33846">
        <ele>58.5651</ele>
        <time>2010-12-12T12:54:27Z</time>
      </trkpt>
      <trkpt lat="46.30087" lon="-0.33845">
        <ele>58.5362</ele>
        <time>2010-12-12T12:54:29Z</time>
      </trkpt>
      <trkpt lat="46.30087" lon="-0.33843">
        <ele>58.513</ele>
        <time>2010-12-12T12:54:30Z</time>
      </trkpt>
      <trkpt lat="46.30087" lon="-0.33841">
        <ele>58.4936</ele>
        <time>2010-12-12T12:54:31Z</time>
      </trkpt>
      <trkpt lat="46.30086" lon="-0.3384">
        <ele>58.4779</ele>
        <time>2010-12-12T12:54:32Z</time>
      </trkpt>
      <trkpt lat="46.30086" lon="-0.33838">
        <ele>58.4652</ele>
        <time>2010-12-12T12:54:33Z</time>
      </trkpt>
      <trkpt lat="46.30085" lon="-0.33837">
        <ele>58.4515</ele>
        <time>2010-12-12T12:54:34Z</time>
      </trkpt>
      <trkpt lat="46.30085" lon="-0.33836">
        <ele>58.4383</ele>
        <time>2010-12-12T12:54:35Z</time>
      </trkpt>
      <trkpt lat="46.30084" lon="-0.33834">
        <ele>58.4266</ele>
        <time>2010-12-12T12:54:36Z</time>
      </trkpt>
      <trkpt lat="46.30084" lon="-0.33833">
        <ele>58.4148</ele>
        <time>2010-12-12T12:54:37Z</time>
      </trkpt>
      <trkpt lat="46.30084" lon="-0.33831">
        <ele>58.4034</ele>
        <time>2010-12-12T12:54:38Z</time>
      </trkpt>
      <trkpt lat="46.30083" lon="-0.3383">
        <ele>58.3934</ele>
        <time>2010-12-12T12:54:39Z</time>
      </trkpt>
      <trkpt lat="46.30083" lon="-0.33828">
        <ele>58.3836</ele>
        <time>2010-12-12T12:54:40Z</time>
      </trkpt>
      <trkpt lat="46.30082" lon="-0.33826">
        <ele>58.3725</ele>
        <time>2010-12-12T12:54:40Z</time>
      </trkpt>
      <trkpt lat="46.30082" lon="-0.33825">
        <ele>58.3619</ele>
        <time>2010-12-12T12:54:42Z</time>
      </trkpt>
      <trkpt lat="46.30082" lon="-0.33823">
        <ele>58.3513</ele>
        <time>2010-12-12T12:54:43Z</time>
      </trkpt>
      <trkpt lat="46.30081" lon="-0.33822">
        <ele>58.3424</ele>
        <time>2010-12-12T12:54:43Z</time>
      </trkpt>
      <trkpt lat="46.30081" lon="-0.33821">
        <ele>58.3354</ele>
        <time>2010-12-12T12:54:45Z</time>
      </trkpt>
      <trkpt lat="46.3008" lon="-0.33819">
        <ele>58.3287</ele>
        <time>2010-12-12T12:54:46Z</time>
      </trkpt>
      <trkpt lat="46.3008" lon="-0.33818">
        <ele>58.3226</ele>
        <time>2010-12-12T12:54:47Z</time>
      </trkpt>
      <trkpt lat="46.3008" lon="-0.33816">
        <ele>58.3179</ele>
        <time>2010-12-12T12:54:48Z</time>
      </trkpt>
      <trkpt lat="46.30079" lon="-0.33815">
        <ele>58.3136</ele>
        <time>2010-12-12T12:54:49Z</time>
      </trkpt>
      <trkpt lat="46.30079" lon="-0.33813">
        <ele>58.3097</ele>
        <time>2010-12-12T12:54:50Z</time>
      </trkpt>
      <trkpt lat="46.30079" lon="-0.33812">
        <ele>58.3049</ele>
        <time>2010-12-12T12:54:51Z</time>
      </trkpt>
      <trkpt lat="46.30078" lon="-0.33811">
        <ele>58.2986</ele>
        <time>2010-12-12T12:54:52Z</time>
      </trkpt>
      <trkpt lat="46.30078" lon="-0.33809">
        <ele>58.2942</ele>
        <time>2010-12-12T12:54:53Z</time>
      </trkpt>
      <trkpt lat="46.30078" lon="-0.33808">
        <ele>58.2936</ele>
        <time>2010-12-12T12:54:54Z</time>
      </trkpt>
      <trkpt lat="46.30077" lon="-0.33806">
        <ele>58.295</ele>
        <time>2010-12-12T12:54:55Z</time>
      </trkpt>
      <trkpt lat="46.30077" lon="-0.33805">
        <ele>58.2969</ele>
        <time>2010-12-12T12:54:56Z</time>
      </trkpt>
      <trkpt lat="46.30077" lon="-0.33803">
        <ele>58.2952</ele>
        <time>2010-12-12T12:54:57Z</time>
      </trkpt>
      <trkpt lat="46.30076" lon="-0.33802">
        <ele>58.2939</ele>
        <time>2010-12-12T12:54:58Z</time>
      </trkpt>
      <trkpt lat="46.30076" lon="-0.338">
        <ele>58.2922</ele>
        <time>2010-12-12T12:54:59Z</time>
      </trkpt>
      <trkpt lat="46.30076" lon="-0.33799">
        <ele>58.2898</ele>
        <time>2010-12-12T12:55:00Z</time>
      </trkpt>
      <trkpt lat="46.30075" lon="-0.33798">
        <ele>58.2871</ele>
        <time>2010-12-12T12:55:01Z</time>
      </trkpt>
      <trkpt lat="46.30074" lon="-0.33796">
        <ele>58.2838</ele>
        <time>2010-12-12T12:55:02Z</time>
      </trkpt>
      <trkpt lat="46.30074" lon="-0.33795">
        <ele>58.2805</ele>
        <time>2010-12-12T12:55:03Z</time>
      </trkpt>
      <trkpt lat="46.30074" lon="-0.33793">
        <ele>58.2775</ele>
        <time>2010-12-12T12:55:04Z</time>
      </trkpt>
      <trkpt lat="46.30073" lon="-0.33791">
        <ele>58.2736</ele>
        <time>2010-12-12T12:55:05Z</time>
      </trkpt>
      <trkpt lat="46.30073" lon="-0.33789">
        <ele>58.2703</ele>
        <time>2010-12-12T12:55:06Z</time>
      </trkpt>
      <trkpt lat="46.30072" lon="-0.33788">
        <ele>58.2667</ele>
        <time>2010-12-12T12:55:07Z</time>
      </trkpt>
      <trkpt lat="46.30072" lon="-0.33786">
        <ele>58.2625</ele>
        <time>2010-12-12T12:55:08Z</time>
      </trkpt>
      <trkpt lat="46.30072" lon="-0.33784">
        <ele>58.2599</ele>
        <time>2010-12-12T12:55:09Z</time>
      </trkpt>
      <trkpt lat="46.30071" lon="-0.33783">
        <ele>58.2573</ele>
        <time>2010-12-12T12:55:10Z</time>
      </trkpt>
      <trkpt lat="46.30071" lon="-0.33782">
        <ele>58.2538</ele>
        <time>2010-12-12T12:55:11Z</time>
      </trkpt>
      <trkpt lat="46.3007" lon="-0.3378">
        <ele>58.2497</ele>
        <time>2010-12-12T12:55:12Z</time>
      </trkpt>
      <trkpt lat="46.3007" lon="-0.33778">
        <ele>58.2448</ele>
        <time>2010-12-12T12:55:13Z</time>
      </trkpt>
      <trkpt lat="46.30069" lon="-0.33777">
        <ele>58.2412</ele>
        <time>2010-12-12T12:55:14Z</time>
      </trkpt>
      <trkpt lat="46.30069" lon="-0.33775">
        <ele>58.2407</ele>
        <time>2010-12-12T12:55:15Z</time>
      </trkpt>
      <trkpt lat="46.30069" lon="-0.33774">
        <ele>58.2432</ele>
        <time>2010-12-12T12:55:16Z</time>
      </trkpt>
      <trkpt lat="46.30069" lon="-0.33772">
        <ele>58.2491</ele>
        <time>2010-12-12T12:55:17Z</time>
      </trkpt>
      <trkpt lat="46.30069" lon="-0.33771">
        <ele>58.2544</ele>
        <time>2010-12-12T12:55:18Z</time>
      </trkpt>
      <trkpt lat="46.30068" lon="-0.3377">
        <ele>58.2657</ele>
        <time>2010-12-12T12:55:19Z</time>
      </trkpt>
      <trkpt lat="46.30068" lon="-0.33769">
        <ele>58.2803</ele>
        <time>2010-12-12T12:55:20Z</time>
      </trkpt>
      <trkpt lat="46.30067" lon="-0.33768">
        <ele>58.2968</ele>
        <time>2010-12-12T12:55:21Z</time>
      </trkpt>
      <trkpt lat="46.30067" lon="-0.33766">
        <ele>58.3138</ele>
        <time>2010-12-12T12:55:22Z</time>
      </trkpt>
      <trkpt lat="46.30067" lon="-0.33765">
        <ele>58.3312</ele>
        <time>2010-12-12T12:55:23Z</time>
      </trkpt>
      <trkpt lat="46.30066" lon="-0.33763">
        <ele>58.3487</ele>
        <time>2010-12-12T12:55:24Z</time>
      </trkpt>
      <trkpt lat="46.30066" lon="-0.33762">
        <ele>58.3664</ele>
        <time>2010-12-12T12:55:25Z</time>
      </trkpt>
      <trkpt lat="46.30066" lon="-0.3376">
        <ele>58.3847</ele>
        <time>2010-12-12T12:55:26Z</time>
      </trkpt>
      <trkpt lat="46.30065" lon="-0.33758">
        <ele>58.4029</ele>
        <time>2010-12-12T12:55:27Z</time>
      </trkpt>
      <trkpt lat="46.30065" lon="-0.33757">
        <ele>58.4213</ele>
        <time>2010-12-12T12:55:28Z</time>
      </trkpt>
      <trkpt lat="46.30064" lon="-0.33756">
        <ele>58.4395</ele>
        <time>2010-12-12T12:55:29Z</time>
      </trkpt>
      <trkpt lat="46.30064" lon="-0.33754">
        <ele>58.458</ele>
        <time>2010-12-12T12:55:30Z</time>
      </trkpt>
      <trkpt lat="46.30064" lon="-0.33753">
        <ele>58.4751</ele>
        <time>2010-12-12T12:55:31Z</time>
      </trkpt>
      <trkpt lat="46.30064" lon="-0.33751">
        <ele>58.4918</ele>
        <time>2010-12-12T12:55:32Z</time>
      </trkpt>
      <trkpt lat="46.30063" lon="-0.3375">
        <ele>58.5068</ele>
        <time>2010-12-12T12:55:33Z</time>
      </trkpt>
      <trkpt lat="46.30063" lon="-0.33748">
        <ele>58.5223</ele>
        <time>2010-12-12T12:55:34Z</time>
      </trkpt>
      <trkpt lat="46.30063" lon="-0.33747">
        <ele>58.5363</ele>
        <time>2010-12-12T12:55:35Z</time>
      </trkpt>
      <trkpt lat="46.30063" lon="-0.33745">
        <ele>58.5485</ele>
        <time>2010-12-12T12:55:36Z</time>
      </trkpt>
      <trkpt lat="46.30062" lon="-0.33744">
        <ele>58.5616</ele>
        <time>2010-12-12T12:55:37Z</time>
      </trkpt>
      <trkpt lat="46.30062" lon="-0.33743">
        <ele>58.5771</ele>
        <time>2010-12-12T12:55:38Z</time>
      </trkpt>
      <trkpt lat="46.30061" lon="-0.33742">
        <ele>58.5943</ele>
        <time>2010-12-12T12:55:39Z</time>
      </trkpt>
      <trkpt lat="46.30061" lon="-0.3374">
        <ele>58.6084</ele>
        <time>2010-12-12T12:55:40Z</time>
      </trkpt>
      <trkpt lat="46.30061" lon="-0.33738">
        <ele>58.6201</ele>
        <time>2010-12-12T12:55:41Z</time>
      </trkpt>
      <trkpt lat="46.3006" lon="-0.33737">
        <ele>58.6324</ele>
        <time>2010-12-12T12:55:42Z</time>
      </trkpt>
      <trkpt lat="46.3006" lon="-0.33735">
        <ele>58.6425</ele>
        <time>2010-12-12T12:55:43Z</time>
      </trkpt>
      <trkpt lat="46.30059" lon="-0.33733">
        <ele>58.6507</ele>
        <time>2010-12-12T12:55:44Z</time>
      </trkpt>
      <trkpt lat="46.30059" lon="-0.33732">
        <ele>58.6576</ele>
        <time>2010-12-12T12:55:45Z</time>
      </trkpt>
      <trkpt lat="46.30058" lon="-0.3373">
        <ele>58.6643</ele>
        <time>2010-12-12T12:55:46Z</time>
      </trkpt>
      <trkpt lat="46.30058" lon="-0.33728">
        <ele>58.6728</ele>
        <time>2010-12-12T12:55:47Z</time>
      </trkpt>
      <trkpt lat="46.30058" lon="-0.33727">
        <ele>58.6815</ele>
        <time>2010-12-12T12:55:48Z</time>
      </trkpt>
      <trkpt lat="46.30058" lon="-0.33725">
        <ele>58.6893</ele>
        <time>2010-12-12T12:55:49Z</time>
      </trkpt>
      <trkpt lat="46.30057" lon="-0.33724">
        <ele>58.6952</ele>
        <time>2010-12-12T12:55:50Z</time>
      </trkpt>
      <trkpt lat="46.30056" lon="-0.33722">
        <ele>58.699</ele>
        <time>2010-12-12T12:55:51Z</time>
      </trkpt>
      <trkpt lat="46.30056" lon="-0.33721">
        <ele>58.7014</ele>
        <time>2010-12-12T12:55:52Z</time>
      </trkpt>
      <trkpt lat="46.30055" lon="-0.33719">
        <ele>58.7022</ele>
        <time>2010-12-12T12:55:53Z</time>
      </trkpt>
      <trkpt lat="46.30055" lon="-0.33718">
        <ele>58.7014</ele>
        <time>2010-12-12T12:55:54Z</time>
      </trkpt>
      <trkpt lat="46.30055" lon="-0.33716">
        <ele>58.7011</ele>
        <time>2010-12-12T12:55:55Z</time>
      </trkpt>
      <trkpt lat="46.30055" lon="-0.33715">
        <ele>58.6997</ele>
        <time>2010-12-12T12:55:56Z</time>
      </trkpt>
      <trkpt lat="46.30054" lon="-0.33714">
        <ele>58.6973</ele>
        <time>2010-12-12T12:55:57Z</time>
      </trkpt>
      <trkpt lat="46.30054" lon="-0.33712">
        <ele>58.6948</ele>
        <time>2010-12-12T12:55:58Z</time>
      </trkpt>
      <trkpt lat="46.30053" lon="-0.33711">
        <ele>58.6916</ele>
        <time>2010-12-12T12:55:59Z</time>
      </trkpt>
      <trkpt lat="46.30052" lon="-0.3371">
        <ele>58.6896</ele>
        <time>2010-12-12T12:56:00Z</time>
      </trkpt>
      <trkpt lat="46.30052" lon="-0.33708">
        <ele>58.6865</ele>
        <time>2010-12-12T12:56:01Z</time>
      </trkpt>
      <trkpt lat="46.30051" lon="-0.33707">
        <ele>58.6826</ele>
        <time>2010-12-12T12:56:02Z</time>
      </trkpt>
      <trkpt lat="46.30051" lon="-0.33706">
        <ele>58.6783</ele>
        <time>2010-12-12T12:56:03Z</time>
      </trkpt>
      <trkpt lat="46.30051" lon="-0.33704">
        <ele>58.6739</ele>
        <time>2010-12-12T12:56:04Z</time>
      </trkpt>
      <trkpt lat="46.3005" lon="-0.33703">
        <ele>58.6694</ele>
        <time>2010-12-12T12:56:05Z</time>
      </trkpt>
      <trkpt lat="46.3005" lon="-0.33701">
        <ele>58.6651</ele>
        <time>2010-12-12T12:56:06Z</time>
      </trkpt>
      <trkpt lat="46.3005" lon="-0.337">
        <ele>58.6615</ele>
        <time>2010-12-12T12:56:07Z</time>
      </trkpt>
      <trkpt lat="46.3005" lon="-0.33698">
        <ele>58.657</ele>
        <time>2010-12-12T12:56:08Z</time>
      </trkpt>
      <trkpt lat="46.3005" lon="-0.33696">
        <ele>58.6527</ele>
        <time>2010-12-12T12:56:09Z</time>
      </trkpt>
      <trkpt lat="46.30049" lon="-0.33694">
        <ele>58.6489</ele>
        <time>2010-12-12T12:56:10Z</time>
      </trkpt>
      <trkpt lat="46.30049" lon="-0.33693">
        <ele>58.6455</ele>
        <time>2010-12-12T12:56:11Z</time>
      </trkpt>
      <trkpt lat="46.30048" lon="-0.33691">
        <ele>58.6415</ele>
        <time>2010-12-12T12:56:12Z</time>
      </trkpt>
      <trkpt lat="46.30048" lon="-0.3369">
        <ele>58.6374</ele>
        <time>2010-12-12T12:56:13Z</time>
      </trkpt>
      <trkpt lat="46.30047" lon="-0.33688">
        <ele>58.6331</ele>
        <time>2010-12-12T12:56:14Z</time>
      </trkpt>
      <trkpt lat="46.30047" lon="-0.33686">
        <ele>58.6287</ele>
        <time>2010-12-12T12:56:15Z</time>
      </trkpt>
      <trkpt lat="46.30047" lon="-0.33685">
        <ele>58.6245</ele>
        <time>2010-12-12T12:56:16Z</time>
      </trkpt>
      <trkpt lat="46.30046" lon="-0.33683">
        <ele>58.6231</ele>
        <time>2010-12-12T12:56:16Z</time>
      </trkpt>
      <trkpt lat="46.30045" lon="-0.33682">
        <ele>58.6251</ele>
        <time>2010-12-12T12:56:18Z</time>
      </trkpt>
      <trkpt lat="46.30045" lon="-0.3368">
        <ele>58.6328</ele>
        <time>2010-12-12T12:56:19Z</time>
      </trkpt>
      <trkpt lat="46.30045" lon="-0.33679">
        <ele>58.6408</ele>
        <time>2010-12-12T12:56:20Z</time>
      </trkpt>
      <trkpt lat="46.30045" lon="-0.33677">
        <ele>58.6495</ele>
        <time>2010-12-12T12:56:21Z</time>
      </trkpt>
      <trkpt lat="46.30044" lon="-0.33676">
        <ele>58.6596</ele>
        <time>2010-12-12T12:56:22Z</time>
      </trkpt>
      <trkpt lat="46.30044" lon="-0.33675">
        <ele>58.6727</ele>
        <time>2010-12-12T12:56:23Z</time>
      </trkpt>
      <trkpt lat="46.30044" lon="-0.33673">
        <ele>58.6875</ele>
        <time>2010-12-12T12:56:24Z</time>
      </trkpt>
      <trkpt lat="46.30044" lon="-0.33672">
        <ele>58.7055</ele>
        <time>2010-12-12T12:56:24Z</time>
      </trkpt>
      <trkpt lat="46.30044" lon="-0.3367">
        <ele>58.7266</ele>
        <time>2010-12-12T12:56:26Z</time>
      </trkpt>
      <trkpt lat="46.30044" lon="-0.33669">
        <ele>58.7512</ele>
        <time>2010-12-12T12:56:27Z</time>
      </trkpt>
      <trkpt lat="46.30044" lon="-0.33667">
        <ele>58.7756</ele>
        <time>2010-12-12T12:56:28Z</time>
      </trkpt>
      <trkpt lat="46.30044" lon="-0.33666">
        <ele>58.7986</ele>
        <time>2010-12-12T12:56:29Z</time>
      </trkpt>
      <trkpt lat="46.30044" lon="-0.33664">
        <ele>58.8205</ele>
        <time>2010-12-12T12:56:30Z</time>
      </trkpt>
      <trkpt lat="46.30043" lon="-0.33662">
        <ele>58.8402</ele>
        <time>2010-12-12T12:56:31Z</time>
      </trkpt>
      <trkpt lat="46.30043" lon="-0.33661">
        <ele>58.8583</ele>
        <time>2010-12-12T12:56:32Z</time>
      </trkpt>
      <trkpt lat="46.30043" lon="-0.33659">
        <ele>58.8747</ele>
        <time>2010-12-12T12:56:33Z</time>
      </trkpt>
      <trkpt lat="46.30042" lon="-0.33657">
        <ele>58.8897</ele>
        <time>2010-12-12T12:56:34Z</time>
      </trkpt>
      <trkpt lat="46.30042" lon="-0.33655">
        <ele>58.9021</ele>
        <time>2010-12-12T12:56:35Z</time>
      </trkpt>
      <trkpt lat="46.30042" lon="-0.33654">
        <ele>58.9114</ele>
        <time>2010-12-12T12:56:36Z</time>
      </trkpt>
      <trkpt lat="46.30042" lon="-0.33652">
        <ele>58.9193</ele>
        <time>2010-12-12T12:56:37Z</time>
      </trkpt>
      <trkpt lat="46.30042" lon="-0.3365">
        <ele>58.9249</ele>
        <time>2010-12-12T12:56:38Z</time>
      </trkpt>
      <trkpt lat="46.30042" lon="-0.33649">
        <ele>58.9289</ele>
        <time>2010-12-12T12:56:39Z</time>
      </trkpt>
      <trkpt lat="46.30042" lon="-0.33648">
        <ele>58.9309</ele>
        <time>2010-12-12T12:56:40Z</time>
      </trkpt>
      <trkpt lat="46.30042" lon="-0.33647">
        <ele>58.9312</ele>
        <time>2010-12-12T12:56:41Z</time>
      </trkpt>
      <trkpt lat="46.30042" lon="-0.33645">
        <ele>58.9293</ele>
        <time>2010-12-12T12:56:42Z</time>
      </trkpt>
      <trkpt lat="46.30042" lon="-0.33643">
        <ele>58.929</ele>
        <time>2010-12-12T12:56:43Z</time>
      </trkpt>
      <trkpt lat="46.30042" lon="-0.33642">
        <ele>58.926</ele>
        <time>2010-12-12T12:56:44Z</time>
      </trkpt>
      <trkpt lat="46.30041" lon="-0.3364">
        <ele>58.9221</ele>
        <time>2010-12-12T12:56:45Z</time>
      </trkpt>
      <trkpt lat="46.30041" lon="-0.33638">
        <ele>58.9179</ele>
        <time>2010-12-12T12:56:46Z</time>
      </trkpt>
      <trkpt lat="46.30041" lon="-0.33637">
        <ele>58.912</ele>
        <time>2010-12-12T12:56:47Z</time>
      </trkpt>
      <trkpt lat="46.30041" lon="-0.33635">
        <ele>58.905</ele>
        <time>2010-12-12T12:56:48Z</time>
      </trkpt>
      <trkpt lat="46.30041" lon="-0.33634">
        <ele>58.8978</ele>
        <time>2010-12-12T12:56:49Z</time>
      </trkpt>
      <trkpt lat="46.3004" lon="-0.33632">
        <ele>58.8917</ele>
        <time>2010-12-12T12:56:50Z</time>
      </trkpt>
      <trkpt lat="46.3004" lon="-0.33631">
        <ele>58.8851</ele>
        <time>2010-12-12T12:56:51Z</time>
      </trkpt>
      <trkpt lat="46.3004" lon="-0.3363">
        <ele>58.8769</ele>
        <time>2010-12-12T12:56:52Z</time>
      </trkpt>
      <trkpt lat="46.3004" lon="-0.33628">
        <ele>58.8679</ele>
        <time>2010-12-12T12:56:53Z</time>
      </trkpt>
      <trkpt lat="46.3004" lon="-0.33627">
        <ele>58.8576</ele>
        <time>2010-12-12T12:56:54Z</time>
      </trkpt>
      <trkpt lat="46.3004" lon="-0.33626">
        <ele>58.8478</ele>
        <time>2010-12-12T12:56:55Z</time>
      </trkpt>
      <trkpt lat="46.3004" lon="-0.33624">
        <ele>58.8376</ele>
        <time>2010-12-12T12:56:56Z</time>
      </trkpt>
      <trkpt lat="46.3004" lon="-0.33622">
        <ele>58.8262</ele>
        <time>2010-12-12T12:56:57Z</time>
      </trkpt>
      <trkpt lat="46.3004" lon="-0.3362">
        <ele>58.8145</ele>
        <time>2010-12-12T12:56:58Z</time>
      </trkpt>
      <trkpt lat="46.3004" lon="-0.33619">
        <ele>58.8029</ele>
        <time>2010-12-12T12:56:59Z</time>
      </trkpt>
      <trkpt lat="46.3004" lon="-0.33617">
        <ele>58.79</ele>
        <time>2010-12-12T12:57:00Z</time>
      </trkpt>
      <trkpt lat="46.3004" lon="-0.33615">
        <ele>58.7759</ele>
        <time>2010-12-12T12:57:01Z</time>
      </trkpt>
      <trkpt lat="46.3004" lon="-0.33613">
        <ele>58.7635</ele>
        <time>2010-12-12T12:57:02Z</time>
      </trkpt>
      <trkpt lat="46.30041" lon="-0.33612">
        <ele>58.7516</ele>
        <time>2010-12-12T12:57:03Z</time>
      </trkpt>
      <trkpt lat="46.30041" lon="-0.33611">
        <ele>58.7414</ele>
        <time>2010-12-12T12:57:04Z</time>
      </trkpt>
      <trkpt lat="46.30041" lon="-0.33609">
        <ele>58.7305</ele>
        <time>2010-12-12T12:57:05Z</time>
      </trkpt>
      <trkpt lat="46.30041" lon="-0.33607">
        <ele>58.7182</ele>
        <time>2010-12-12T12:57:06Z</time>
      </trkpt>
      <trkpt lat="46.30042" lon="-0.33605">
        <ele>58.702</ele>
        <time>2010-12-12T12:57:07Z</time>
      </trkpt>
      <trkpt lat="46.30042" lon="-0.33603">
        <ele>58.6843</ele>
        <time>2010-12-12T12:57:08Z</time>
      </trkpt>
      <trkpt lat="46.30042" lon="-0.33601">
        <ele>58.6641</ele>
        <time>2010-12-12T12:57:09Z</time>
      </trkpt>
      <trkpt lat="46.30043" lon="-0.33599">
        <ele>58.6423</ele>
        <time>2010-12-12T12:57:10Z</time>
      </trkpt>
      <trkpt lat="46.30043" lon="-0.33598">
        <ele>58.6224</ele>
        <time>2010-12-12T12:57:11Z</time>
      </trkpt>
      <trkpt lat="46.30043" lon="-0.33597">
        <ele>58.6043</ele>
        <time>2010-12-12T12:57:12Z</time>
      </trkpt>
      <trkpt lat="46.30044" lon="-0.33596">
        <ele>58.5866</ele>
        <time>2010-12-12T12:57:13Z</time>
      </trkpt>
      <trkpt lat="46.30045" lon="-0.33595">
        <ele>58.5725</ele>
        <time>2010-12-12T12:57:14Z</time>
      </trkpt>
      <trkpt lat="46.30045" lon="-0.33594">
        <ele>58.5608</ele>
        <time>2010-12-12T12:57:15Z</time>
      </trkpt>
      <trkpt lat="46.30046" lon="-0.33593">
        <ele>58.5503</ele>
        <time>2010-12-12T12:57:16Z</time>
      </trkpt>
      <trkpt lat="46.30047" lon="-0.33592">
        <ele>58.539</ele>
        <time>2010-12-12T12:57:17Z</time>
      </trkpt>
      <trkpt lat="46.30047" lon="-0.33591">
        <ele>58.5302</ele>
        <time>2010-12-12T12:57:18Z</time>
      </trkpt>
      <trkpt lat="46.30048" lon="-0.33589">
        <ele>58.5223</ele>
        <time>2010-12-12T12:57:19Z</time>
      </trkpt>
      <trkpt lat="46.30049" lon="-0.33588">
        <ele>58.5166</ele>
        <time>2010-12-12T12:57:20Z</time>
      </trkpt>
      <trkpt lat="46.3005" lon="-0.33587">
        <ele>58.5131</ele>
        <time>2010-12-12T12:57:21Z</time>
      </trkpt>
      <trkpt lat="46.3005" lon="-0.33586">
        <ele>58.5093</ele>
        <time>2010-12-12T12:57:22Z</time>
      </trkpt>
      <trkpt lat="46.30051" lon="-0.33585">
        <ele>58.5047</ele>
        <time>2010-12-12T12:57:23Z</time>
      </trkpt>
      <trkpt lat="46.30052" lon="-0.33584">
        <ele>58.5012</ele>
        <time>2010-12-12T12:57:24Z</time>
      </trkpt>
      <trkpt lat="46.30052" lon="-0.33583">
        <ele>58.5</ele>
        <time>2010-12-12T12:57:25Z</time>
      </trkpt>
      <trkpt lat="46.30053" lon="-0.33582">
        <ele>58.4982</ele>
        <time>2010-12-12T12:57:26Z</time>
      </trkpt>
      <trkpt lat="46.30054" lon="-0.33581">
        <ele>58.4961</ele>
        <time>2010-12-12T12:57:27Z</time>
      </trkpt>
      <trkpt lat="46.30054" lon="-0.3358">
        <ele>58.4943</ele>
        <time>2010-12-12T12:57:28Z</time>
      </trkpt>
      <trkpt lat="46.30055" lon="-0.33579">
        <ele>58.492</ele>
        <time>2010-12-12T12:57:29Z</time>
      </trkpt>
      <trkpt lat="46.30056" lon="-0.33578">
        <ele>58.4885</ele>
        <time>2010-12-12T12:57:30Z</time>
      </trkpt>
      <trkpt lat="46.30057" lon="-0.33577">
        <ele>58.4844</ele>
        <time>2010-12-12T12:57:31Z</time>
      </trkpt>
      <trkpt lat="46.30058" lon="-0.33577">
        <ele>58.4787</ele>
        <time>2010-12-12T12:57:32Z</time>
      </trkpt>
      <trkpt lat="46.30059" lon="-0.33576">
        <ele>58.4726</ele>
        <time>2010-12-12T12:57:33Z</time>
      </trkpt>
      <trkpt lat="46.30061" lon="-0.33575">
        <ele>58.4646</ele>
        <time>2010-12-12T12:57:34Z</time>
      </trkpt>
      <trkpt lat="46.30062" lon="-0.33575">
        <ele>58.4546</ele>
        <time>2010-12-12T12:57:35Z</time>
      </trkpt>
      <trkpt lat="46.30063" lon="-0.33574">
        <ele>58.4423</ele>
        <time>2010-12-12T12:57:36Z</time>
      </trkpt>
      <trkpt lat="46.30064" lon="-0.33574">
        <ele>58.4279</ele>
        <time>2010-12-12T12:57:37Z</time>
      </trkpt>
      <trkpt lat="46.30065" lon="-0.33573">
        <ele>58.4137</ele>
        <time>2010-12-12T12:57:38Z</time>
      </trkpt>
      <trkpt lat="46.30066" lon="-0.33573">
        <ele>58.3989</ele>
        <time>2010-12-12T12:57:39Z</time>
      </trkpt>
      <trkpt lat="46.30067" lon="-0.33573">
        <ele>58.382</ele>
        <time>2010-12-12T12:57:40Z</time>
      </trkpt>
      <trkpt lat="46.30069" lon="-0.33572">
        <ele>58.3624</ele>
        <time>2010-12-12T12:57:41Z</time>
      </trkpt>
      <trkpt lat="46.3007" lon="-0.33572">
        <ele>58.3421</ele>
        <time>2010-12-12T12:57:42Z</time>
      </trkpt>
      <trkpt lat="46.30071" lon="-0.33571">
        <ele>58.321</ele>
        <time>2010-12-12T12:57:43Z</time>
      </trkpt>
      <trkpt lat="46.30072" lon="-0.33571">
        <ele>58.2982</ele>
        <time>2010-12-12T12:57:44Z</time>
      </trkpt>
      <trkpt lat="46.30073" lon="-0.3357">
        <ele>58.2736</ele>
        <time>2010-12-12T12:57:45Z</time>
      </trkpt>
      <trkpt lat="46.30074" lon="-0.3357">
        <ele>58.2464</ele>
        <time>2010-12-12T12:57:46Z</time>
      </trkpt>
      <trkpt lat="46.30076" lon="-0.33569">
        <ele>58.2167</ele>
        <time>2010-12-12T12:57:47Z</time>
      </trkpt>
      <trkpt lat="46.30077" lon="-0.33568">
        <ele>58.1856</ele>
        <time>2010-12-12T12:57:48Z</time>
      </trkpt>
      <trkpt lat="46.30078" lon="-0.33568">
        <ele>58.1521</ele>
        <time>2010-12-12T12:57:49Z</time>
      </trkpt>
      <trkpt lat="46.30079" lon="-0.33567">
        <ele>58.1188</ele>
        <time>2010-12-12T12:57:50Z</time>
      </trkpt>
      <trkpt lat="46.3008" lon="-0.33567">
        <ele>58.0847</ele>
        <time>2010-12-12T12:57:51Z</time>
      </trkpt>
      <trkpt lat="46.30081" lon="-0.33567">
        <ele>58.052</ele>
        <time>2010-12-12T12:57:52Z</time>
      </trkpt>
      <trkpt lat="46.30082" lon="-0.33566">
        <ele>58.0167</ele>
        <time>2010-12-12T12:57:53Z</time>
      </trkpt>
      <trkpt lat="46.30083" lon="-0.33566">
        <ele>57.9799</ele>
        <time>2010-12-12T12:57:54Z</time>
      </trkpt>
      <trkpt lat="46.30084" lon="-0.33565">
        <ele>57.9434</ele>
        <time>2010-12-12T12:57:55Z</time>
      </trkpt>
      <trkpt lat="46.30085" lon="-0.33564">
        <ele>57.9062</ele>
        <time>2010-12-12T12:57:56Z</time>
      </trkpt>
      <trkpt lat="46.30085" lon="-0.33564">
        <ele>57.8681</ele>
        <time>2010-12-12T12:57:57Z</time>
      </trkpt>
      <trkpt lat="46.30087" lon="-0.33563">
        <ele>57.8307</ele>
        <time>2010-12-12T12:57:58Z</time>
      </trkpt>
      <trkpt lat="46.30088" lon="-0.33563">
        <ele>57.7927</ele>
        <time>2010-12-12T12:57:59Z</time>
      </trkpt>
      <trkpt lat="46.30089" lon="-0.33563">
        <ele>57.7553</ele>
        <time>2010-12-12T12:58:00Z</time>
      </trkpt>
      <trkpt lat="46.3009" lon="-0.33562">
        <ele>57.7179</ele>
        <time>2010-12-12T12:58:01Z</time>
      </trkpt>
      <trkpt lat="46.30091" lon="-0.33563">
        <ele>57.6787</ele>
        <time>2010-12-12T12:58:02Z</time>
      </trkpt>
      <trkpt lat="46.30092" lon="-0.33563">
        <ele>57.6383</ele>
        <time>2010-12-12T12:58:02Z</time>
      </trkpt>
      <trkpt lat="46.30093" lon="-0.33563">
        <ele>57.5969</ele>
        <time>2010-12-12T12:58:04Z</time>
      </trkpt>
      <trkpt lat="46.30095" lon="-0.33562">
        <ele>57.553</ele>
        <time>2010-12-12T12:58:05Z</time>
      </trkpt>
      <trkpt lat="46.30096" lon="-0.33562">
        <ele>57.5069</ele>
        <time>2010-12-12T12:58:06Z</time>
      </trkpt>
      <trkpt lat="46.30097" lon="-0.33561">
        <ele>57.4581</ele>
        <time>2010-12-12T12:58:07Z</time>
      </trkpt>
      <trkpt lat="46.30098" lon="-0.3356">
        <ele>57.4057</ele>
        <time>2010-12-12T12:58:08Z</time>
      </trkpt>
      <trkpt lat="46.30099" lon="-0.33559">
        <ele>57.3416</ele>
        <time>2010-12-12T12:58:09Z</time>
      </trkpt>
      <trkpt lat="46.301" lon="-0.33559">
        <ele>57.2723</ele>
        <time>2010-12-12T12:58:10Z</time>
      </trkpt>
      <trkpt lat="46.30101" lon="-0.33558">
        <ele>57.2011</ele>
        <time>2010-12-12T12:58:11Z</time>
      </trkpt>
      <trkpt lat="46.30102" lon="-0.33557">
        <ele>57.128</ele>
        <time>2010-12-12T12:58:12Z</time>
      </trkpt>
      <trkpt lat="46.30103" lon="-0.33557">
        <ele>57.0542</ele>
        <time>2010-12-12T12:58:13Z</time>
      </trkpt>
      <trkpt lat="46.30104" lon="-0.33556">
        <ele>56.9788</ele>
        <time>2010-12-12T12:58:14Z</time>
      </trkpt>
      <trkpt lat="46.30104" lon="-0.33556">
        <ele>56.9038</ele>
        <time>2010-12-12T12:58:15Z</time>
      </trkpt>
      <trkpt lat="46.30106" lon="-0.33555">
        <ele>56.8294</ele>
        <time>2010-12-12T12:58:16Z</time>
      </trkpt>
      <trkpt lat="46.30106" lon="-0.33554">
        <ele>56.7559</ele>
        <time>2010-12-12T12:58:17Z</time>
      </trkpt>
      <trkpt lat="46.30107" lon="-0.33553">
        <ele>56.6813</ele>
        <time>2010-12-12T12:58:18Z</time>
      </trkpt>
      <trkpt lat="46.30108" lon="-0.33552">
        <ele>56.6035</ele>
        <time>2010-12-12T12:58:19Z</time>
      </trkpt>
      <trkpt lat="46.30109" lon="-0.33551">
        <ele>56.5253</ele>
        <time>2010-12-12T12:58:20Z</time>
      </trkpt>
      <trkpt lat="46.3011" lon="-0.3355">
        <ele>56.4448</ele>
        <time>2010-12-12T12:58:20Z</time>
      </trkpt>
      <trkpt lat="46.30111" lon="-0.3355">
        <ele>56.3616</ele>
        <time>2010-12-12T12:58:22Z</time>
      </trkpt>
      <trkpt lat="46.30113" lon="-0.33549">
        <ele>56.2787</ele>
        <time>2010-12-12T12:58:23Z</time>
      </trkpt>
      <trkpt lat="46.30114" lon="-0.33548">
        <ele>56.1957</ele>
        <time>2010-12-12T12:58:24Z</time>
      </trkpt>
      <trkpt lat="46.30115" lon="-0.33548">
        <ele>56.1125</ele>
        <time>2010-12-12T12:58:25Z</time>
      </trkpt>
      <trkpt lat="46.30116" lon="-0.33547">
        <ele>56.0303</ele>
        <time>2010-12-12T12:58:26Z</time>
      </trkpt>
      <trkpt lat="46.30117" lon="-0.33547">
        <ele>55.9479</ele>
        <time>2010-12-12T12:58:27Z</time>
      </trkpt>
      <trkpt lat="46.30118" lon="-0.33547">
        <ele>55.8639</ele>
        <time>2010-12-12T12:58:28Z</time>
      </trkpt>
      <trkpt lat="46.30119" lon="-0.33547">
        <ele>55.7789</ele>
        <time>2010-12-12T12:58:29Z</time>
      </trkpt>
      <trkpt lat="46.3012" lon="-0.33546">
        <ele>55.6928</ele>
        <time>2010-12-12T12:58:30Z</time>
      </trkpt>
      <trkpt lat="46.30121" lon="-0.33546">
        <ele>55.604</ele>
        <time>2010-12-12T12:58:31Z</time>
      </trkpt>
      <trkpt lat="46.30122" lon="-0.33546">
        <ele>55.5149</ele>
        <time>2010-12-12T12:58:32Z</time>
      </trkpt>
      <trkpt lat="46.30124" lon="-0.33545">
        <ele>55.4238</ele>
        <time>2010-12-12T12:58:33Z</time>
      </trkpt>
      <trkpt lat="46.30125" lon="-0.33545">
        <ele>55.3337</ele>
        <time>2010-12-12T12:58:34Z</time>
      </trkpt>
      <trkpt lat="46.30126" lon="-0.33544">
        <ele>55.2466</ele>
        <time>2010-12-12T12:58:35Z</time>
      </trkpt>
      <trkpt lat="46.30127" lon="-0.33543">
        <ele>55.162</ele>
        <time>2010-12-12T12:58:36Z</time>
      </trkpt>
      <trkpt lat="46.30128" lon="-0.33543">
        <ele>55.0803</ele>
        <time>2010-12-12T12:58:37Z</time>
      </trkpt>
      <trkpt lat="46.30129" lon="-0.33542">
        <ele>54.9986</ele>
        <time>2010-12-12T12:58:38Z</time>
      </trkpt>
      <trkpt lat="46.3013" lon="-0.33542">
        <ele>54.9169</ele>
        <time>2010-12-12T12:58:39Z</time>
      </trkpt>
      <trkpt lat="46.3013" lon="-0.33542">
        <ele>54.8356</ele>
        <time>2010-12-12T12:58:40Z</time>
      </trkpt>
      <trkpt lat="46.30131" lon="-0.33541">
        <ele>54.7553</ele>
        <time>2010-12-12T12:58:41Z</time>
      </trkpt>
      <trkpt lat="46.30132" lon="-0.33541">
        <ele>54.6739</ele>
        <time>2010-12-12T12:58:42Z</time>
      </trkpt>
      <trkpt lat="46.30133" lon="-0.33541">
        <ele>54.5915</ele>
        <time>2010-12-12T12:58:43Z</time>
      </trkpt>
      <trkpt lat="46.30133" lon="-0.3354">
        <ele>54.5098</ele>
        <time>2010-12-12T12:58:44Z</time>
      </trkpt>
      <trkpt lat="46.30134" lon="-0.3354">
        <ele>54.4298</ele>
        <time>2010-12-12T12:58:45Z</time>
      </trkpt>
      <trkpt lat="46.30138" lon="-0.33541">
        <ele>53.8845</ele>
        <time>2010-12-12T12:58:53Z</time>
      </trkpt>
      <trkpt lat="46.30139" lon="-0.33541">
        <ele>53.8066</ele>
        <time>2010-12-12T12:58:54Z</time>
      </trkpt>
      <trkpt lat="46.30141" lon="-0.3354">
        <ele>53.7188</ele>
        <time>2010-12-12T12:58:54Z</time>
      </trkpt>
      <trkpt lat="46.30142" lon="-0.3354">
        <ele>53.6183</ele>
        <time>2010-12-12T12:58:56Z</time>
      </trkpt>
      <trkpt lat="46.30143" lon="-0.3354">
        <ele>53.5174</ele>
        <time>2010-12-12T12:58:57Z</time>
      </trkpt>
      <trkpt lat="46.30144" lon="-0.33539">
        <ele>53.413</ele>
        <time>2010-12-12T12:58:58Z</time>
      </trkpt>
      <trkpt lat="46.30145" lon="-0.33539">
        <ele>53.3064</ele>
        <time>2010-12-12T12:58:59Z</time>
      </trkpt>
      <trkpt lat="46.30146" lon="-0.33539">
        <ele>53.1948</ele>
        <time>2010-12-12T12:59:00Z</time>
      </trkpt>
      <trkpt lat="46.30147" lon="-0.33538">
        <ele>53.0776</ele>
        <time>2010-12-12T12:59:01Z</time>
      </trkpt>
      <trkpt lat="46.30148" lon="-0.33538">
        <ele>52.9618</ele>
        <time>2010-12-12T12:59:02Z</time>
      </trkpt>
      <trkpt lat="46.30149" lon="-0.33537">
        <ele>52.8363</ele>
        <time>2010-12-12T12:59:03Z</time>
      </trkpt>
      <trkpt lat="46.3015" lon="-0.33537">
        <ele>52.7113</ele>
        <time>2010-12-12T12:59:04Z</time>
      </trkpt>
      <trkpt lat="46.3015" lon="-0.33536">
        <ele>52.5852</ele>
        <time>2010-12-12T12:59:05Z</time>
      </trkpt>
      <trkpt lat="46.30151" lon="-0.33535">
        <ele>52.4563</ele>
        <time>2010-12-12T12:59:06Z</time>
      </trkpt>
      <trkpt lat="46.30151" lon="-0.33534">
        <ele>52.3303</ele>
        <time>2010-12-12T12:59:07Z</time>
      </trkpt>
      <trkpt lat="46.30152" lon="-0.33534">
        <ele>52.2066</ele>
        <time>2010-12-12T12:59:08Z</time>
      </trkpt>
      <trkpt lat="46.30153" lon="-0.33534">
        <ele>52.0877</ele>
        <time>2010-12-12T12:59:09Z</time>
      </trkpt>
      <trkpt lat="46.30153" lon="-0.33533">
        <ele>51.9752</ele>
        <time>2010-12-12T12:59:10Z</time>
      </trkpt>
      <trkpt lat="46.30154" lon="-0.33532">
        <ele>51.8678</ele>
        <time>2010-12-12T12:59:11Z</time>
      </trkpt>
      <trkpt lat="46.30155" lon="-0.33531">
        <ele>51.7598</ele>
        <time>2010-12-12T12:59:12Z</time>
      </trkpt>
      <trkpt lat="46.30156" lon="-0.33531">
        <ele>51.6512</ele>
        <time>2010-12-12T12:59:13Z</time>
      </trkpt>
      <trkpt lat="46.30156" lon="-0.3353">
        <ele>51.5406</ele>
        <time>2010-12-12T12:59:14Z</time>
      </trkpt>
      <trkpt lat="46.30158" lon="-0.33529">
        <ele>51.4372</ele>
        <time>2010-12-12T12:59:15Z</time>
      </trkpt>
      <trkpt lat="46.30159" lon="-0.33529">
        <ele>51.3322</ele>
        <time>2010-12-12T12:59:16Z</time>
      </trkpt>
      <trkpt lat="46.3016" lon="-0.33528">
        <ele>51.2399</ele>
        <time>2010-12-12T12:59:17Z</time>
      </trkpt>
      <trkpt lat="46.30161" lon="-0.33527">
        <ele>51.1483</ele>
        <time>2010-12-12T12:59:18Z</time>
      </trkpt>
      <trkpt lat="46.30161" lon="-0.33527">
        <ele>51.0758</ele>
        <time>2010-12-12T12:59:19Z</time>
      </trkpt>
      <trkpt lat="46.30162" lon="-0.33526">
        <ele>51.005</ele>
        <time>2010-12-12T12:59:20Z</time>
      </trkpt>
      <trkpt lat="46.30163" lon="-0.33525">
        <ele>50.9495</ele>
        <time>2010-12-12T12:59:20Z</time>
      </trkpt>
      <trkpt lat="46.30164" lon="-0.33524">
        <ele>50.8929</ele>
        <time>2010-12-12T12:59:22Z</time>
      </trkpt>
      <trkpt lat="46.30165" lon="-0.33524">
        <ele>50.8348</ele>
        <time>2010-12-12T12:59:23Z</time>
      </trkpt>
      <trkpt lat="46.30166" lon="-0.33524">
        <ele>50.7781</ele>
        <time>2010-12-12T12:59:24Z</time>
      </trkpt>
      <trkpt lat="46.30167" lon="-0.33523">
        <ele>50.7227</ele>
        <time>2010-12-12T12:59:25Z</time>
      </trkpt>
      <trkpt lat="46.30168" lon="-0.33523">
        <ele>50.6666</ele>
        <time>2010-12-12T12:59:26Z</time>
      </trkpt>
      <trkpt lat="46.30169" lon="-0.33522">
        <ele>50.6128</ele>
        <time>2010-12-12T12:59:27Z</time>
      </trkpt>
      <trkpt lat="46.30169" lon="-0.33522">
        <ele>50.5607</ele>
        <time>2010-12-12T12:59:28Z</time>
      </trkpt>
      <trkpt lat="46.3017" lon="-0.33522">
        <ele>50.5093</ele>
        <time>2010-12-12T12:59:29Z</time>
      </trkpt>
      <trkpt lat="46.30172" lon="-0.33522">
        <ele>50.4583</ele>
        <time>2010-12-12T12:59:30Z</time>
      </trkpt>
      <trkpt lat="46.30173" lon="-0.33521">
        <ele>50.4115</ele>
        <time>2010-12-12T12:59:31Z</time>
      </trkpt>
      <trkpt lat="46.30174" lon="-0.33521">
        <ele>50.3678</ele>
        <time>2010-12-12T12:59:32Z</time>
      </trkpt>
      <trkpt lat="46.30175" lon="-0.3352">
        <ele>50.3276</ele>
        <time>2010-12-12T12:59:33Z</time>
      </trkpt>
      <trkpt lat="46.30177" lon="-0.3352">
        <ele>50.2873</ele>
        <time>2010-12-12T12:59:34Z</time>
      </trkpt>
      <trkpt lat="46.30178" lon="-0.33519">
        <ele>50.2482</ele>
        <time>2010-12-12T12:59:35Z</time>
      </trkpt>
      <trkpt lat="46.30179" lon="-0.33518">
        <ele>50.2078</ele>
        <time>2010-12-12T12:59:36Z</time>
      </trkpt>
      <trkpt lat="46.3018" lon="-0.33517">
        <ele>50.1665</ele>
        <time>2010-12-12T12:59:37Z</time>
      </trkpt>
      <trkpt lat="46.30181" lon="-0.33517">
        <ele>50.1235</ele>
        <time>2010-12-12T12:59:38Z</time>
      </trkpt>
      <trkpt lat="46.30182" lon="-0.33516">
        <ele>50.0812</ele>
        <time>2010-12-12T12:59:38Z</time>
      </trkpt>
      <trkpt lat="46.30183" lon="-0.33515">
        <ele>50.0416</ele>
        <time>2010-12-12T12:59:40Z</time>
      </trkpt>
      <trkpt lat="46.30184" lon="-0.33514">
        <ele>50.0059</ele>
        <time>2010-12-12T12:59:41Z</time>
      </trkpt>
      <trkpt lat="46.30185" lon="-0.33514">
        <ele>49.974</ele>
        <time>2010-12-12T12:59:42Z</time>
      </trkpt>
      <trkpt lat="46.30186" lon="-0.33514">
        <ele>49.944</ele>
        <time>2010-12-12T12:59:43Z</time>
      </trkpt>
      <trkpt lat="46.30187" lon="-0.33514">
        <ele>49.9147</ele>
        <time>2010-12-12T12:59:44Z</time>
      </trkpt>
      <trkpt lat="46.30188" lon="-0.33513">
        <ele>49.8881</ele>
        <time>2010-12-12T12:59:45Z</time>
      </trkpt>
      <trkpt lat="46.30188" lon="-0.33513">
        <ele>49.8641</ele>
        <time>2010-12-12T12:59:46Z</time>
      </trkpt>
      <trkpt lat="46.3019" lon="-0.33512">
        <ele>49.8451</ele>
        <time>2010-12-12T12:59:47Z</time>
      </trkpt>
      <trkpt lat="46.3019" lon="-0.33512">
        <ele>49.8312</ele>
        <time>2010-12-12T12:59:48Z</time>
      </trkpt>
      <trkpt lat="46.30191" lon="-0.33511">
        <ele>49.818</ele>
        <time>2010-12-12T12:59:49Z</time>
      </trkpt>
      <trkpt lat="46.30192" lon="-0.33511">
        <ele>49.8023</ele>
        <time>2010-12-12T12:59:50Z</time>
      </trkpt>
      <trkpt lat="46.30193" lon="-0.3351">
        <ele>49.7878</ele>
        <time>2010-12-12T12:59:50Z</time>
      </trkpt>
      <trkpt lat="46.30193" lon="-0.3351">
        <ele>49.7761</ele>
        <time>2010-12-12T12:59:52Z</time>
      </trkpt>
      <trkpt lat="46.30194" lon="-0.33509">
        <ele>49.7688</ele>
        <time>2010-12-12T12:59:54Z</time>
      </trkpt>
      <trkpt lat="46.30195" lon="-0.33508">
        <ele>49.7784</ele>
        <time>2010-12-12T12:59:55Z</time>
      </trkpt>
      <trkpt lat="46.30196" lon="-0.33508">
        <ele>49.7863</ele>
        <time>2010-12-12T12:59:56Z</time>
      </trkpt>
      <trkpt lat="46.30196" lon="-0.33507">
        <ele>49.7958</ele>
        <time>2010-12-12T12:59:57Z</time>
      </trkpt>
      <trkpt lat="46.30197" lon="-0.33506">
        <ele>49.8073</ele>
        <time>2010-12-12T12:59:58Z</time>
      </trkpt>
      <trkpt lat="46.30198" lon="-0.33506">
        <ele>49.8186</ele>
        <time>2010-12-12T12:59:59Z</time>
      </trkpt>
      <trkpt lat="46.30198" lon="-0.33505">
        <ele>49.8269</ele>
        <time>2010-12-12T13:00:00Z</time>
      </trkpt>
      <trkpt lat="46.30199" lon="-0.33505">
        <ele>49.8323</ele>
        <time>2010-12-12T13:00:01Z</time>
      </trkpt>
      <trkpt lat="46.302" lon="-0.33504">
        <ele>49.8355</ele>
        <time>2010-12-12T13:00:02Z</time>
      </trkpt>
      <trkpt lat="46.30201" lon="-0.33504">
        <ele>49.8334</ele>
        <time>2010-12-12T13:00:03Z</time>
      </trkpt>
      <trkpt lat="46.30202" lon="-0.33503">
        <ele>49.8256</ele>
        <time>2010-12-12T13:00:04Z</time>
      </trkpt>
      <trkpt lat="46.30203" lon="-0.33503">
        <ele>49.829</ele>
        <time>2010-12-12T13:00:05Z</time>
      </trkpt>
      <trkpt lat="46.30204" lon="-0.33502">
        <ele>49.8449</ele>
        <time>2010-12-12T13:00:06Z</time>
      </trkpt>
      <trkpt lat="46.30206" lon="-0.33502">
        <ele>49.8628</ele>
        <time>2010-12-12T13:00:07Z</time>
      </trkpt>
      <trkpt lat="46.30207" lon="-0.33501">
        <ele>49.8809</ele>
        <time>2010-12-12T13:00:08Z</time>
      </trkpt>
      <trkpt lat="46.30208" lon="-0.33501">
        <ele>49.9008</ele>
        <time>2010-12-12T13:00:09Z</time>
      </trkpt>
      <trkpt lat="46.30209" lon="-0.33501">
        <ele>49.9198</ele>
        <time>2010-12-12T13:00:10Z</time>
      </trkpt>
      <trkpt lat="46.30209" lon="-0.335">
        <ele>49.9492</ele>
        <time>2010-12-12T13:00:11Z</time>
      </trkpt>
      <trkpt lat="46.3021" lon="-0.33499">
        <ele>49.9792</ele>
        <time>2010-12-12T13:00:12Z</time>
      </trkpt>
      <trkpt lat="46.30211" lon="-0.33499">
        <ele>50.0103</ele>
        <time>2010-12-12T13:00:13Z</time>
      </trkpt>
      <trkpt lat="46.30211" lon="-0.33498">
        <ele>50.0405</ele>
        <time>2010-12-12T13:00:14Z</time>
      </trkpt>
      <trkpt lat="46.30212" lon="-0.33497">
        <ele>50.0729</ele>
        <time>2010-12-12T13:00:15Z</time>
      </trkpt>
      <trkpt lat="46.30213" lon="-0.33497">
        <ele>50.109</ele>
        <time>2010-12-12T13:00:16Z</time>
      </trkpt>
      <trkpt lat="46.30214" lon="-0.33496">
        <ele>50.1547</ele>
        <time>2010-12-12T13:00:17Z</time>
      </trkpt>
      <trkpt lat="46.30214" lon="-0.33495">
        <ele>50.211</ele>
        <time>2010-12-12T13:00:18Z</time>
      </trkpt>
      <trkpt lat="46.30215" lon="-0.33495">
        <ele>50.2758</ele>
        <time>2010-12-12T13:00:19Z</time>
      </trkpt>
      <trkpt lat="46.30216" lon="-0.33494">
        <ele>50.3397</ele>
        <time>2010-12-12T13:00:20Z</time>
      </trkpt>
      <trkpt lat="46.30217" lon="-0.33493">
        <ele>50.4064</ele>
        <time>2010-12-12T13:00:20Z</time>
      </trkpt>
      <trkpt lat="46.30217" lon="-0.33492">
        <ele>50.4702</ele>
        <time>2010-12-12T13:00:22Z</time>
      </trkpt>
      <trkpt lat="46.30219" lon="-0.33489">
        <ele>50.685</ele>
        <time>2010-12-12T13:00:26Z</time>
      </trkpt>
      <trkpt lat="46.3022" lon="-0.33487">
        <ele>50.7552</ele>
        <time>2010-12-12T13:00:27Z</time>
      </trkpt>
      <trkpt lat="46.30221" lon="-0.33486">
        <ele>50.8209</ele>
        <time>2010-12-12T13:00:28Z</time>
      </trkpt>
      <trkpt lat="46.30221" lon="-0.33486">
        <ele>50.8891</ele>
        <time>2010-12-12T13:00:29Z</time>
      </trkpt>
      <trkpt lat="46.30222" lon="-0.33485">
        <ele>50.9525</ele>
        <time>2010-12-12T13:00:30Z</time>
      </trkpt>
      <trkpt lat="46.30224" lon="-0.33484">
        <ele>51.1836</ele>
        <time>2010-12-12T13:00:33Z</time>
      </trkpt>
      <trkpt lat="46.30225" lon="-0.33483">
        <ele>51.2646</ele>
        <time>2010-12-12T13:00:34Z</time>
      </trkpt>
      <trkpt lat="46.30225" lon="-0.33483">
        <ele>51.3513</ele>
        <time>2010-12-12T13:00:35Z</time>
      </trkpt>
      <trkpt lat="46.30231" lon="-0.33481">
        <ele>51.9189</ele>
        <time>2010-12-12T13:00:41Z</time>
      </trkpt>
      <trkpt lat="46.30236" lon="-0.33479">
        <ele>52.4082</ele>
        <time>2010-12-12T13:00:47Z</time>
      </trkpt>
      <trkpt lat="46.3024" lon="-0.33479">
        <ele>52.5592</ele>
        <time>2010-12-12T13:00:52Z</time>
      </trkpt>
      <trkpt lat="46.30244" lon="-0.33478">
        <ele>52.8506</ele>
        <time>2010-12-12T13:00:57Z</time>
      </trkpt>
      <trkpt lat="46.30248" lon="-0.33477">
        <ele>53.3206</ele>
        <time>2010-12-12T13:01:01Z</time>
      </trkpt>
      <trkpt lat="46.30253" lon="-0.33475">
        <ele>53.9211</ele>
        <time>2010-12-12T13:01:05Z</time>
      </trkpt>
      <trkpt lat="46.30254" lon="-0.33475">
        <ele>54.0645</ele>
        <time>2010-12-12T13:01:06Z</time>
      </trkpt>
      <trkpt lat="46.30256" lon="-0.33474">
        <ele>54.2177</ele>
        <time>2010-12-12T13:01:07Z</time>
      </trkpt>
      <trkpt lat="46.30257" lon="-0.33474">
        <ele>54.353</ele>
        <time>2010-12-12T13:01:08Z</time>
      </trkpt>
      <trkpt lat="46.30258" lon="-0.33474">
        <ele>54.4774</ele>
        <time>2010-12-12T13:01:09Z</time>
      </trkpt>
      <trkpt lat="46.3026" lon="-0.33474">
        <ele>54.6041</ele>
        <time>2010-12-12T13:01:10Z</time>
      </trkpt>
      <trkpt lat="46.30261" lon="-0.33473">
        <ele>54.7314</ele>
        <time>2010-12-12T13:01:11Z</time>
      </trkpt>
      <trkpt lat="46.30262" lon="-0.33473">
        <ele>54.8698</ele>
        <time>2010-12-12T13:01:12Z</time>
      </trkpt>
      <trkpt lat="46.30268" lon="-0.33471">
        <ele>55.5982</ele>
        <time>2010-12-12T13:01:17Z</time>
      </trkpt>
      <trkpt lat="46.30271" lon="-0.33469">
        <ele>55.9389</ele>
        <time>2010-12-12T13:01:19Z</time>
      </trkpt>
      <trkpt lat="46.30272" lon="-0.33469">
        <ele>56.1056</ele>
        <time>2010-12-12T13:01:20Z</time>
      </trkpt>
      <trkpt lat="46.30273" lon="-0.33468">
        <ele>56.2744</ele>
        <time>2010-12-12T13:01:20Z</time>
      </trkpt>
      <trkpt lat="46.30275" lon="-0.33467">
        <ele>56.4417</ele>
        <time>2010-12-12T13:01:22Z</time>
      </trkpt>
      <trkpt lat="46.30276" lon="-0.33467">
        <ele>56.5939</ele>
        <time>2010-12-12T13:01:23Z</time>
      </trkpt>
      <trkpt lat="46.30277" lon="-0.33466">
        <ele>56.7455</ele>
        <time>2010-12-12T13:01:24Z</time>
      </trkpt>
      <trkpt lat="46.30279" lon="-0.33466">
        <ele>56.902</ele>
        <time>2010-12-12T13:01:25Z</time>
      </trkpt>
      <trkpt lat="46.30283" lon="-0.33465">
        <ele>57.3273</ele>
        <time>2010-12-12T13:01:28Z</time>
      </trkpt>
      <trkpt lat="46.30286" lon="-0.33465">
        <ele>57.5868</ele>
        <time>2010-12-12T13:01:30Z</time>
      </trkpt>
      <trkpt lat="46.30288" lon="-0.33464">
        <ele>57.8313</ele>
        <time>2010-12-12T13:01:32Z</time>
      </trkpt>
      <trkpt lat="46.30289" lon="-0.33464">
        <ele>57.9496</ele>
        <time>2010-12-12T13:01:33Z</time>
      </trkpt>
      <trkpt lat="46.3029" lon="-0.33463">
        <ele>58.0648</ele>
        <time>2010-12-12T13:01:34Z</time>
      </trkpt>
      <trkpt lat="46.30291" lon="-0.33463">
        <ele>58.1731</ele>
        <time>2010-12-12T13:01:35Z</time>
      </trkpt>
      <trkpt lat="46.30292" lon="-0.33463">
        <ele>58.2652</ele>
        <time>2010-12-12T13:01:36Z</time>
      </trkpt>
      <trkpt lat="46.30293" lon="-0.33462">
        <ele>58.3535</ele>
        <time>2010-12-12T13:01:37Z</time>
      </trkpt>
      <trkpt lat="46.30293" lon="-0.33462">
        <ele>58.4385</ele>
        <time>2010-12-12T13:01:38Z</time>
      </trkpt>
      <trkpt lat="46.30294" lon="-0.33462">
        <ele>58.515</ele>
        <time>2010-12-12T13:01:39Z</time>
      </trkpt>
      <trkpt lat="46.30294" lon="-0.33461">
        <ele>58.5915</ele>
        <time>2010-12-12T13:01:40Z</time>
      </trkpt>
      <trkpt lat="46.30296" lon="-0.3346">
        <ele>58.7757</ele>
        <time>2010-12-12T13:01:43Z</time>
      </trkpt>
      <trkpt lat="46.30297" lon="-0.3346">
        <ele>58.824</ele>
        <time>2010-12-12T13:01:44Z</time>
      </trkpt>
      <trkpt lat="46.30297" lon="-0.33461">
        <ele>58.8654</ele>
        <time>2010-12-12T13:01:45Z</time>
      </trkpt>
      <trkpt lat="46.30298" lon="-0.33461">
        <ele>58.9063</ele>
        <time>2010-12-12T13:01:46Z</time>
      </trkpt>
      <trkpt lat="46.30298" lon="-0.33461">
        <ele>58.9372</ele>
        <time>2010-12-12T13:01:47Z</time>
      </trkpt>
      <trkpt lat="46.30299" lon="-0.33459">
        <ele>58.946</ele>
        <time>2010-12-12T13:01:48Z</time>
      </trkpt>
      <trkpt lat="46.303" lon="-0.33459">
        <ele>58.9496</ele>
        <time>2010-12-12T13:01:49Z</time>
      </trkpt>
      <trkpt lat="46.303" lon="-0.33458">
        <ele>58.9352</ele>
        <time>2010-12-12T13:01:50Z</time>
      </trkpt>
      <trkpt lat="46.30301" lon="-0.33457">
        <ele>58.9108</ele>
        <time>2010-12-12T13:01:51Z</time>
      </trkpt>
      <trkpt lat="46.30302" lon="-0.33457">
        <ele>58.8858</ele>
        <time>2010-12-12T13:01:52Z</time>
      </trkpt>
      <trkpt lat="46.30302" lon="-0.33456">
        <ele>58.8614</ele>
        <time>2010-12-12T13:01:53Z</time>
      </trkpt>
      <trkpt lat="46.30303" lon="-0.33455">
        <ele>58.8365</ele>
        <time>2010-12-12T13:01:54Z</time>
      </trkpt>
      <trkpt lat="46.30304" lon="-0.33455">
        <ele>58.8201</ele>
        <time>2010-12-12T13:01:55Z</time>
      </trkpt>
      <trkpt lat="46.30305" lon="-0.33455">
        <ele>58.8114</ele>
        <time>2010-12-12T13:01:56Z</time>
      </trkpt>
      <trkpt lat="46.30306" lon="-0.33454">
        <ele>58.8057</ele>
        <time>2010-12-12T13:01:57Z</time>
      </trkpt>
      <trkpt lat="46.30307" lon="-0.33454">
        <ele>58.7972</ele>
        <time>2010-12-12T13:01:58Z</time>
      </trkpt>
      <trkpt lat="46.30308" lon="-0.33454">
        <ele>58.7767</ele>
        <time>2010-12-12T13:01:59Z</time>
      </trkpt>
      <trkpt lat="46.30309" lon="-0.33454">
        <ele>58.7573</ele>
        <time>2010-12-12T13:02:00Z</time>
      </trkpt>
      <trkpt lat="46.3031" lon="-0.33454">
        <ele>58.7344</ele>
        <time>2010-12-12T13:02:01Z</time>
      </trkpt>
      <trkpt lat="46.30312" lon="-0.33454">
        <ele>58.7148</ele>
        <time>2010-12-12T13:02:02Z</time>
      </trkpt>
      <trkpt lat="46.30313" lon="-0.33454">
        <ele>58.7018</ele>
        <time>2010-12-12T13:02:03Z</time>
      </trkpt>
      <trkpt lat="46.30314" lon="-0.33453">
        <ele>58.6939</ele>
        <time>2010-12-12T13:02:04Z</time>
      </trkpt>
      <trkpt lat="46.30315" lon="-0.33452">
        <ele>58.6867</ele>
        <time>2010-12-12T13:02:05Z</time>
      </trkpt>
      <trkpt lat="46.30316" lon="-0.33451">
        <ele>58.6756</ele>
        <time>2010-12-12T13:02:06Z</time>
      </trkpt>
      <trkpt lat="46.30317" lon="-0.33451">
        <ele>58.665</ele>
        <time>2010-12-12T13:02:07Z</time>
      </trkpt>
      <trkpt lat="46.30319" lon="-0.3345">
        <ele>58.6516</ele>
        <time>2010-12-12T13:02:08Z</time>
      </trkpt>
      <trkpt lat="46.30319" lon="-0.33449">
        <ele>58.6383</ele>
        <time>2010-12-12T13:02:09Z</time>
      </trkpt>
      <trkpt lat="46.3032" lon="-0.33449">
        <ele>58.6274</ele>
        <time>2010-12-12T13:02:10Z</time>
      </trkpt>
      <trkpt lat="46.30321" lon="-0.33448">
        <ele>58.6155</ele>
        <time>2010-12-12T13:02:11Z</time>
      </trkpt>
      <trkpt lat="46.30322" lon="-0.33448">
        <ele>58.6011</ele>
        <time>2010-12-12T13:02:12Z</time>
      </trkpt>
      <trkpt lat="46.30323" lon="-0.33447">
        <ele>58.5877</ele>
        <time>2010-12-12T13:02:13Z</time>
      </trkpt>
      <trkpt lat="46.30323" lon="-0.33446">
        <ele>58.5666</ele>
        <time>2010-12-12T13:02:14Z</time>
      </trkpt>
      <trkpt lat="46.30325" lon="-0.33445">
        <ele>58.5363</ele>
        <time>2010-12-12T13:02:15Z</time>
      </trkpt>
      <trkpt lat="46.30326" lon="-0.33444">
        <ele>58.5066</ele>
        <time>2010-12-12T13:02:16Z</time>
      </trkpt>
      <trkpt lat="46.30327" lon="-0.33444">
        <ele>58.4711</ele>
        <time>2010-12-12T13:02:17Z</time>
      </trkpt>
      <trkpt lat="46.30328" lon="-0.33444">
        <ele>58.4367</ele>
        <time>2010-12-12T13:02:18Z</time>
      </trkpt>
      <trkpt lat="46.30329" lon="-0.33443">
        <ele>58.4012</ele>
        <time>2010-12-12T13:02:19Z</time>
      </trkpt>
      <trkpt lat="46.3033" lon="-0.33443">
        <ele>58.3636</ele>
        <time>2010-12-12T13:02:20Z</time>
      </trkpt>
      <trkpt lat="46.30331" lon="-0.33442">
        <ele>58.3251</ele>
        <time>2010-12-12T13:02:21Z</time>
      </trkpt>
      <trkpt lat="46.30331" lon="-0.33442">
        <ele>58.2787</ele>
        <time>2010-12-12T13:02:22Z</time>
      </trkpt>
      <trkpt lat="46.30333" lon="-0.33442">
        <ele>58.2342</ele>
        <time>2010-12-12T13:02:23Z</time>
      </trkpt>
      <trkpt lat="46.30333" lon="-0.33441">
        <ele>58.1889</ele>
        <time>2010-12-12T13:02:24Z</time>
      </trkpt>
      <trkpt lat="46.30334" lon="-0.33441">
        <ele>58.0992</ele>
        <time>2010-12-12T13:02:27Z</time>
      </trkpt>
      <trkpt lat="46.30335" lon="-0.33441">
        <ele>58.0223</ele>
        <time>2010-12-12T13:02:28Z</time>
      </trkpt>
      <trkpt lat="46.30336" lon="-0.33441">
        <ele>57.9439</ele>
        <time>2010-12-12T13:02:29Z</time>
      </trkpt>
      <trkpt lat="46.30337" lon="-0.3344">
        <ele>57.8678</ele>
        <time>2010-12-12T13:02:30Z</time>
      </trkpt>
      <trkpt lat="46.30338" lon="-0.3344">
        <ele>57.7926</ele>
        <time>2010-12-12T13:02:31Z</time>
      </trkpt>
      <trkpt lat="46.30339" lon="-0.3344">
        <ele>57.7233</ele>
        <time>2010-12-12T13:02:32Z</time>
      </trkpt>
      <trkpt lat="46.3034" lon="-0.3344">
        <ele>57.6503</ele>
        <time>2010-12-12T13:02:33Z</time>
      </trkpt>
      <trkpt lat="46.30341" lon="-0.33439">
        <ele>57.5764</ele>
        <time>2010-12-12T13:02:34Z</time>
      </trkpt>
      <trkpt lat="46.30342" lon="-0.33439">
        <ele>57.5065</ele>
        <time>2010-12-12T13:02:35Z</time>
      </trkpt>
      <trkpt lat="46.30343" lon="-0.33438">
        <ele>57.4393</ele>
        <time>2010-12-12T13:02:36Z</time>
      </trkpt>
      <trkpt lat="46.30344" lon="-0.33438">
        <ele>57.3735</ele>
        <time>2010-12-12T13:02:37Z</time>
      </trkpt>
      <trkpt lat="46.30346" lon="-0.33437">
        <ele>57.3084</ele>
        <time>2010-12-12T13:02:38Z</time>
      </trkpt>
      <trkpt lat="46.30347" lon="-0.33437">
        <ele>57.2476</ele>
        <time>2010-12-12T13:02:38Z</time>
      </trkpt>
      <trkpt lat="46.30347" lon="-0.33436">
        <ele>57.1898</ele>
        <time>2010-12-12T13:02:40Z</time>
      </trkpt>
      <trkpt lat="46.30349" lon="-0.33436">
        <ele>57.1465</ele>
        <time>2010-12-12T13:02:40Z</time>
      </trkpt>
      <trkpt lat="46.30349" lon="-0.33435">
        <ele>57.1214</ele>
        <time>2010-12-12T13:02:41Z</time>
      </trkpt>
      <trkpt lat="46.30351" lon="-0.33434">
        <ele>57.1119</ele>
        <time>2010-12-12T13:02:42Z</time>
      </trkpt>
      <trkpt lat="46.30351" lon="-0.33434">
        <ele>57.1212</ele>
        <time>2010-12-12T13:02:43Z</time>
      </trkpt>
      <trkpt lat="46.30352" lon="-0.33433">
        <ele>57.1479</ele>
        <time>2010-12-12T13:02:44Z</time>
      </trkpt>
      <trkpt lat="46.30354" lon="-0.33433">
        <ele>57.1923</ele>
        <time>2010-12-12T13:02:45Z</time>
      </trkpt>
      <trkpt lat="46.30355" lon="-0.33433">
        <ele>57.2376</ele>
        <time>2010-12-12T13:02:46Z</time>
      </trkpt>
      <trkpt lat="46.30356" lon="-0.33432">
        <ele>57.283</ele>
        <time>2010-12-12T13:02:47Z</time>
      </trkpt>
      <trkpt lat="46.30357" lon="-0.33432">
        <ele>57.3287</ele>
        <time>2010-12-12T13:02:48Z</time>
      </trkpt>
      <trkpt lat="46.30359" lon="-0.33432">
        <ele>57.3764</ele>
        <time>2010-12-12T13:02:49Z</time>
      </trkpt>
      <trkpt lat="46.3036" lon="-0.33431">
        <ele>57.424</ele>
        <time>2010-12-12T13:02:50Z</time>
      </trkpt>
      <trkpt lat="46.3036" lon="-0.33431">
        <ele>57.4699</ele>
        <time>2010-12-12T13:02:51Z</time>
      </trkpt>
      <trkpt lat="46.30362" lon="-0.3343">
        <ele>57.5207</ele>
        <time>2010-12-12T13:02:52Z</time>
      </trkpt>
      <trkpt lat="46.30363" lon="-0.33429">
        <ele>57.5741</ele>
        <time>2010-12-12T13:02:53Z</time>
      </trkpt>
      <trkpt lat="46.30364" lon="-0.33428">
        <ele>57.6301</ele>
        <time>2010-12-12T13:02:54Z</time>
      </trkpt>
      <trkpt lat="46.30365" lon="-0.33427">
        <ele>57.6918</ele>
        <time>2010-12-12T13:02:55Z</time>
      </trkpt>
      <trkpt lat="46.30366" lon="-0.33426">
        <ele>57.7536</ele>
        <time>2010-12-12T13:02:56Z</time>
      </trkpt>
      <trkpt lat="46.30367" lon="-0.33426">
        <ele>57.8197</ele>
        <time>2010-12-12T13:02:57Z</time>
      </trkpt>
      <trkpt lat="46.30368" lon="-0.33426">
        <ele>57.8892</ele>
        <time>2010-12-12T13:02:58Z</time>
      </trkpt>
      <trkpt lat="46.3037" lon="-0.33426">
        <ele>57.9567</ele>
        <time>2010-12-12T13:02:59Z</time>
      </trkpt>
      <trkpt lat="46.30371" lon="-0.33426">
        <ele>58.0233</ele>
        <time>2010-12-12T13:03:01Z</time>
      </trkpt>
      <trkpt lat="46.30372" lon="-0.33427">
        <ele>58.0878</ele>
        <time>2010-12-12T13:03:01Z</time>
      </trkpt>
      <trkpt lat="46.30373" lon="-0.33427">
        <ele>58.1516</ele>
        <time>2010-12-12T13:03:02Z</time>
      </trkpt>
      <trkpt lat="46.30374" lon="-0.33427">
        <ele>58.212</ele>
        <time>2010-12-12T13:03:03Z</time>
      </trkpt>
      <trkpt lat="46.30375" lon="-0.33427">
        <ele>58.2711</ele>
        <time>2010-12-12T13:03:04Z</time>
      </trkpt>
      <trkpt lat="46.30376" lon="-0.33427">
        <ele>58.3281</ele>
        <time>2010-12-12T13:03:05Z</time>
      </trkpt>
      <trkpt lat="46.30377" lon="-0.33427">
        <ele>58.3821</ele>
        <time>2010-12-12T13:03:06Z</time>
      </trkpt>
      <trkpt lat="46.30378" lon="-0.33428">
        <ele>58.4358</ele>
        <time>2010-12-12T13:03:07Z</time>
      </trkpt>
      <trkpt lat="46.30379" lon="-0.33428">
        <ele>58.4897</ele>
        <time>2010-12-12T13:03:08Z</time>
      </trkpt>
      <trkpt lat="46.3038" lon="-0.33429">
        <ele>58.5408</ele>
        <time>2010-12-12T13:03:09Z</time>
      </trkpt>
      <trkpt lat="46.30381" lon="-0.33429">
        <ele>58.5902</ele>
        <time>2010-12-12T13:03:10Z</time>
      </trkpt>
      <trkpt lat="46.30381" lon="-0.3343">
        <ele>58.6424</ele>
        <time>2010-12-12T13:03:11Z</time>
      </trkpt>
      <trkpt lat="46.30382" lon="-0.33431">
        <ele>58.6994</ele>
        <time>2010-12-12T13:03:12Z</time>
      </trkpt>
      <trkpt lat="46.30383" lon="-0.33432">
        <ele>58.7522</ele>
        <time>2010-12-12T13:03:13Z</time>
      </trkpt>
      <trkpt lat="46.30384" lon="-0.33433">
        <ele>58.8037</ele>
        <time>2010-12-12T13:03:14Z</time>
      </trkpt>
      <trkpt lat="46.30384" lon="-0.33434">
        <ele>58.8519</ele>
        <time>2010-12-12T13:03:15Z</time>
      </trkpt>
      <trkpt lat="46.30386" lon="-0.33435">
        <ele>58.8976</ele>
        <time>2010-12-12T13:03:16Z</time>
      </trkpt>
      <trkpt lat="46.30386" lon="-0.33436">
        <ele>58.9426</ele>
        <time>2010-12-12T13:03:17Z</time>
      </trkpt>
      <trkpt lat="46.30387" lon="-0.33438">
        <ele>58.9827</ele>
        <time>2010-12-12T13:03:18Z</time>
      </trkpt>
      <trkpt lat="46.30388" lon="-0.33439">
        <ele>59.0208</ele>
        <time>2010-12-12T13:03:19Z</time>
      </trkpt>
      <trkpt lat="46.30388" lon="-0.33441">
        <ele>59.0573</ele>
        <time>2010-12-12T13:03:20Z</time>
      </trkpt>
      <trkpt lat="46.30388" lon="-0.33442">
        <ele>59.0882</ele>
        <time>2010-12-12T13:03:21Z</time>
      </trkpt>
      <trkpt lat="46.30389" lon="-0.33443">
        <ele>59.1168</ele>
        <time>2010-12-12T13:03:22Z</time>
      </trkpt>
      <trkpt lat="46.30389" lon="-0.33445">
        <ele>59.1471</ele>
        <time>2010-12-12T13:03:23Z</time>
      </trkpt>
      <trkpt lat="46.30389" lon="-0.33448">
        <ele>59.1969</ele>
        <time>2010-12-12T13:03:26Z</time>
      </trkpt>
      <trkpt lat="46.30389" lon="-0.3345">
        <ele>59.2247</ele>
        <time>2010-12-12T13:03:27Z</time>
      </trkpt>
      <trkpt lat="46.30389" lon="-0.33452">
        <ele>59.2518</ele>
        <time>2010-12-12T13:03:28Z</time>
      </trkpt>
      <trkpt lat="46.30389" lon="-0.33454">
        <ele>59.2816</ele>
        <time>2010-12-12T13:03:29Z</time>
      </trkpt>
      <trkpt lat="46.3039" lon="-0.33456">
        <ele>59.3039</ele>
        <time>2010-12-12T13:03:30Z</time>
      </trkpt>
      <trkpt lat="46.30391" lon="-0.33457">
        <ele>59.3264</ele>
        <time>2010-12-12T13:03:31Z</time>
      </trkpt>
      <trkpt lat="46.30392" lon="-0.33459">
        <ele>59.3528</ele>
        <time>2010-12-12T13:03:32Z</time>
      </trkpt>
      <trkpt lat="46.30393" lon="-0.3346">
        <ele>59.3752</ele>
        <time>2010-12-12T13:03:33Z</time>
      </trkpt>
      <trkpt lat="46.30394" lon="-0.33461">
        <ele>59.3905</ele>
        <time>2010-12-12T13:03:34Z</time>
      </trkpt>
      <trkpt lat="46.30394" lon="-0.33463">
        <ele>59.407</ele>
        <time>2010-12-12T13:03:35Z</time>
      </trkpt>
      <trkpt lat="46.30396" lon="-0.33464">
        <ele>59.4263</ele>
        <time>2010-12-12T13:03:36Z</time>
      </trkpt>
      <trkpt lat="46.30396" lon="-0.33466">
        <ele>59.4495</ele>
        <time>2010-12-12T13:03:37Z</time>
      </trkpt>
      <trkpt lat="46.30397" lon="-0.33468">
        <ele>59.4706</ele>
        <time>2010-12-12T13:03:38Z</time>
      </trkpt>
      <trkpt lat="46.30398" lon="-0.33469">
        <ele>59.4907</ele>
        <time>2010-12-12T13:03:39Z</time>
      </trkpt>
      <trkpt lat="46.30399" lon="-0.33471">
        <ele>59.5095</ele>
        <time>2010-12-12T13:03:40Z</time>
      </trkpt>
      <trkpt lat="46.30399" lon="-0.33472">
        <ele>59.5276</ele>
        <time>2010-12-12T13:03:41Z</time>
      </trkpt>
      <trkpt lat="46.304" lon="-0.33474">
        <ele>59.5457</ele>
        <time>2010-12-12T13:03:42Z</time>
      </trkpt>
      <trkpt lat="46.304" lon="-0.33476">
        <ele>59.5653</ele>
        <time>2010-12-12T13:03:43Z</time>
      </trkpt>
      <trkpt lat="46.30401" lon="-0.33477">
        <ele>59.5861</ele>
        <time>2010-12-12T13:03:44Z</time>
      </trkpt>
      <trkpt lat="46.30401" lon="-0.33478">
        <ele>59.6089</ele>
        <time>2010-12-12T13:03:45Z</time>
      </trkpt>
      <trkpt lat="46.30401" lon="-0.3348">
        <ele>59.6315</ele>
        <time>2010-12-12T13:03:46Z</time>
      </trkpt>
      <trkpt lat="46.30401" lon="-0.33481">
        <ele>59.6567</ele>
        <time>2010-12-12T13:03:47Z</time>
      </trkpt>
      <trkpt lat="46.30401" lon="-0.33482">
        <ele>59.6813</ele>
        <time>2010-12-12T13:03:48Z</time>
      </trkpt>
      <trkpt lat="46.30401" lon="-0.33484">
        <ele>59.7056</ele>
        <time>2010-12-12T13:03:49Z</time>
      </trkpt>
      <trkpt lat="46.30402" lon="-0.33485">
        <ele>59.7268</ele>
        <time>2010-12-12T13:03:50Z</time>
      </trkpt>
      <trkpt lat="46.30402" lon="-0.33487">
        <ele>59.7454</ele>
        <time>2010-12-12T13:03:51Z</time>
      </trkpt>
      <trkpt lat="46.30403" lon="-0.33488">
        <ele>59.7651</ele>
        <time>2010-12-12T13:03:52Z</time>
      </trkpt>
      <trkpt lat="46.30403" lon="-0.3349">
        <ele>59.7902</ele>
        <time>2010-12-12T13:03:53Z</time>
      </trkpt>
      <trkpt lat="46.30403" lon="-0.33491">
        <ele>59.8235</ele>
        <time>2010-12-12T13:03:54Z</time>
      </trkpt>
      <trkpt lat="46.30404" lon="-0.33493">
        <ele>59.8551</ele>
        <time>2010-12-12T13:03:55Z</time>
      </trkpt>
      <trkpt lat="46.30404" lon="-0.33494">
        <ele>59.8871</ele>
        <time>2010-12-12T13:03:56Z</time>
      </trkpt>
      <trkpt lat="46.30404" lon="-0.33496">
        <ele>59.9198</ele>
        <time>2010-12-12T13:03:57Z</time>
      </trkpt>
      <trkpt lat="46.30404" lon="-0.33498">
        <ele>59.9529</ele>
        <time>2010-12-12T13:03:58Z</time>
      </trkpt>
      <trkpt lat="46.30405" lon="-0.33499">
        <ele>59.9848</ele>
        <time>2010-12-12T13:03:59Z</time>
      </trkpt>
      <trkpt lat="46.30405" lon="-0.33501">
        <ele>60.016</ele>
        <time>2010-12-12T13:04:00Z</time>
      </trkpt>
      <trkpt lat="46.30405" lon="-0.33503">
        <ele>60.0462</ele>
        <time>2010-12-12T13:04:01Z</time>
      </trkpt>
      <trkpt lat="46.30405" lon="-0.33505">
        <ele>60.0759</ele>
        <time>2010-12-12T13:04:02Z</time>
      </trkpt>
      <trkpt lat="46.30405" lon="-0.33507">
        <ele>60.1057</ele>
        <time>2010-12-12T13:04:03Z</time>
      </trkpt>
      <trkpt lat="46.30405" lon="-0.33508">
        <ele>60.1397</ele>
        <time>2010-12-12T13:04:04Z</time>
      </trkpt>
      <trkpt lat="46.30405" lon="-0.3351">
        <ele>60.1695</ele>
        <time>2010-12-12T13:04:05Z</time>
      </trkpt>
      <trkpt lat="46.30405" lon="-0.33511">
        <ele>60.1964</ele>
        <time>2010-12-12T13:04:06Z</time>
      </trkpt>
      <trkpt lat="46.30406" lon="-0.33512">
        <ele>60.22</ele>
        <time>2010-12-12T13:04:07Z</time>
      </trkpt>
      <trkpt lat="46.30406" lon="-0.33513">
        <ele>60.2502</ele>
        <time>2010-12-12T13:04:08Z</time>
      </trkpt>
      <trkpt lat="46.30407" lon="-0.33514">
        <ele>60.2799</ele>
        <time>2010-12-12T13:04:09Z</time>
      </trkpt>
      <trkpt lat="46.30408" lon="-0.33515">
        <ele>60.3181</ele>
        <time>2010-12-12T13:04:10Z</time>
      </trkpt>
      <trkpt lat="46.30409" lon="-0.33516">
        <ele>60.3642</ele>
        <time>2010-12-12T13:04:11Z</time>
      </trkpt>
      <trkpt lat="46.3041" lon="-0.33516">
        <ele>60.4128</ele>
        <time>2010-12-12T13:04:12Z</time>
      </trkpt>
      <trkpt lat="46.30411" lon="-0.33517">
        <ele>60.4602</ele>
        <time>2010-12-12T13:04:13Z</time>
      </trkpt>
      <trkpt lat="46.30412" lon="-0.33517">
        <ele>60.5023</ele>
        <time>2010-12-12T13:04:14Z</time>
      </trkpt>
      <trkpt lat="46.30412" lon="-0.33515">
        <ele>60.5723</ele>
        <time>2010-12-12T13:04:17Z</time>
      </trkpt>
      <trkpt lat="46.30412" lon="-0.33515">
        <ele>60.6052</ele>
        <time>2010-12-12T13:04:18Z</time>
      </trkpt>
      <trkpt lat="46.30413" lon="-0.33515">
        <ele>60.6399</ele>
        <time>2010-12-12T13:04:19Z</time>
      </trkpt>
      <trkpt lat="46.30413" lon="-0.33515">
        <ele>60.6686</ele>
        <time>2010-12-12T13:04:20Z</time>
      </trkpt>
      <trkpt lat="46.30414" lon="-0.33514">
        <ele>60.6923</ele>
        <time>2010-12-12T13:04:21Z</time>
      </trkpt>
      <trkpt lat="46.30415" lon="-0.33514">
        <ele>60.7162</ele>
        <time>2010-12-12T13:04:22Z</time>
      </trkpt>
      <trkpt lat="46.30416" lon="-0.33513">
        <ele>60.739</ele>
        <time>2010-12-12T13:04:23Z</time>
      </trkpt>
      <trkpt lat="46.30417" lon="-0.33513">
        <ele>60.7552</ele>
        <time>2010-12-12T13:04:24Z</time>
      </trkpt>
      <trkpt lat="46.30419" lon="-0.33513">
        <ele>60.7706</ele>
        <time>2010-12-12T13:04:25Z</time>
      </trkpt>
      <trkpt lat="46.3042" lon="-0.33513">
        <ele>60.7854</ele>
        <time>2010-12-12T13:04:26Z</time>
      </trkpt>
      <trkpt lat="46.30421" lon="-0.33513">
        <ele>60.7999</ele>
        <time>2010-12-12T13:04:27Z</time>
      </trkpt>
      <trkpt lat="46.30421" lon="-0.33512">
        <ele>60.8205</ele>
        <time>2010-12-12T13:04:28Z</time>
      </trkpt>
      <trkpt lat="46.30422" lon="-0.33511">
        <ele>60.8464</ele>
        <time>2010-12-12T13:04:29Z</time>
      </trkpt>
      <trkpt lat="46.30423" lon="-0.33511">
        <ele>60.8719</ele>
        <time>2010-12-12T13:04:30Z</time>
      </trkpt>
      <trkpt lat="46.30424" lon="-0.3351">
        <ele>60.9066</ele>
        <time>2010-12-12T13:04:31Z</time>
      </trkpt>
      <trkpt lat="46.30425" lon="-0.3351">
        <ele>60.9408</ele>
        <time>2010-12-12T13:04:32Z</time>
      </trkpt>
      <trkpt lat="46.30426" lon="-0.33509">
        <ele>60.9737</ele>
        <time>2010-12-12T13:04:33Z</time>
      </trkpt>
      <trkpt lat="46.30427" lon="-0.33509">
        <ele>61.0052</ele>
        <time>2010-12-12T13:04:34Z</time>
      </trkpt>
      <trkpt lat="46.30428" lon="-0.33508">
        <ele>61.0309</ele>
        <time>2010-12-12T13:04:35Z</time>
      </trkpt>
      <trkpt lat="46.3043" lon="-0.33508">
        <ele>61.0543</ele>
        <time>2010-12-12T13:04:36Z</time>
      </trkpt>
      <trkpt lat="46.30431" lon="-0.33508">
        <ele>61.0792</ele>
        <time>2010-12-12T13:04:37Z</time>
      </trkpt>
      <trkpt lat="46.30431" lon="-0.33507">
        <ele>61.1036</ele>
        <time>2010-12-12T13:04:38Z</time>
      </trkpt>
      <trkpt lat="46.30433" lon="-0.33507">
        <ele>61.1264</ele>
        <time>2010-12-12T13:04:39Z</time>
      </trkpt>
      <trkpt lat="46.30433" lon="-0.33506">
        <ele>61.146</ele>
        <time>2010-12-12T13:04:40Z</time>
      </trkpt>
      <trkpt lat="46.30434" lon="-0.33505">
        <ele>61.1642</ele>
        <time>2010-12-12T13:04:41Z</time>
      </trkpt>
      <trkpt lat="46.30436" lon="-0.33505">
        <ele>61.1823</ele>
        <time>2010-12-12T13:04:42Z</time>
      </trkpt>
      <trkpt lat="46.30436" lon="-0.33504">
        <ele>61.1996</ele>
        <time>2010-12-12T13:04:43Z</time>
      </trkpt>
      <trkpt lat="46.30438" lon="-0.33504">
        <ele>61.2154</ele>
        <time>2010-12-12T13:04:44Z</time>
      </trkpt>
      <trkpt lat="46.30439" lon="-0.33503">
        <ele>61.2276</ele>
        <time>2010-12-12T13:04:45Z</time>
      </trkpt>
      <trkpt lat="46.30439" lon="-0.33503">
        <ele>61.2372</ele>
        <time>2010-12-12T13:04:46Z</time>
      </trkpt>
      <trkpt lat="46.3044" lon="-0.33502">
        <ele>61.2456</ele>
        <time>2010-12-12T13:04:47Z</time>
      </trkpt>
      <trkpt lat="46.30441" lon="-0.33502">
        <ele>61.2512</ele>
        <time>2010-12-12T13:04:48Z</time>
      </trkpt>
      <trkpt lat="46.30442" lon="-0.33502">
        <ele>61.2566</ele>
        <time>2010-12-12T13:04:49Z</time>
      </trkpt>
      <trkpt lat="46.30442" lon="-0.33501">
        <ele>61.2627</ele>
        <time>2010-12-12T13:04:50Z</time>
      </trkpt>
      <trkpt lat="46.30443" lon="-0.33501">
        <ele>61.2673</ele>
        <time>2010-12-12T13:04:51Z</time>
      </trkpt>
      <trkpt lat="46.30444" lon="-0.335">
        <ele>61.2716</ele>
        <time>2010-12-12T13:04:52Z</time>
      </trkpt>
      <trkpt lat="46.30444" lon="-0.335">
        <ele>61.275</ele>
        <time>2010-12-12T13:04:53Z</time>
      </trkpt>
      <trkpt lat="46.30445" lon="-0.33499">
        <ele>61.2784</ele>
        <time>2010-12-12T13:04:54Z</time>
      </trkpt>
      <trkpt lat="46.30446" lon="-0.33498">
        <ele>61.2808</ele>
        <time>2010-12-12T13:04:55Z</time>
      </trkpt>
      <trkpt lat="46.30447" lon="-0.33498">
        <ele>61.2847</ele>
        <time>2010-12-12T13:04:56Z</time>
      </trkpt>
      <trkpt lat="46.30447" lon="-0.33496">
        <ele>61.2854</ele>
        <time>2010-12-12T13:04:57Z</time>
      </trkpt>
      <trkpt lat="46.30447" lon="-0.33495">
        <ele>61.283</ele>
        <time>2010-12-12T13:04:58Z</time>
      </trkpt>
      <trkpt lat="46.30446" lon="-0.33495">
        <ele>61.2778</ele>
        <time>2010-12-12T13:04:59Z</time>
      </trkpt>
      <trkpt lat="46.30447" lon="-0.33495">
        <ele>61.2701</ele>
        <time>2010-12-12T13:05:00Z</time>
      </trkpt>
      <trkpt lat="46.30451" lon="-0.33495">
        <ele>61.2739</ele>
        <time>2010-12-12T13:05:06Z</time>
      </trkpt>
      <trkpt lat="46.30451" lon="-0.33494">
        <ele>61.2719</ele>
        <time>2010-12-12T13:05:07Z</time>
      </trkpt>
      <trkpt lat="46.30452" lon="-0.33493">
        <ele>61.268</ele>
        <time>2010-12-12T13:05:08Z</time>
      </trkpt>
      <trkpt lat="46.30453" lon="-0.33493">
        <ele>61.2619</ele>
        <time>2010-12-12T13:05:09Z</time>
      </trkpt>
      <trkpt lat="46.30454" lon="-0.33493">
        <ele>61.26</ele>
        <time>2010-12-12T13:05:10Z</time>
      </trkpt>
      <trkpt lat="46.30454" lon="-0.33492">
        <ele>61.2624</ele>
        <time>2010-12-12T13:05:11Z</time>
      </trkpt>
      <trkpt lat="46.30455" lon="-0.33492">
        <ele>61.2694</ele>
        <time>2010-12-12T13:05:12Z</time>
      </trkpt>
      <trkpt lat="46.30457" lon="-0.33492">
        <ele>61.2779</ele>
        <time>2010-12-12T13:05:13Z</time>
      </trkpt>
      <trkpt lat="46.30458" lon="-0.33492">
        <ele>61.2976</ele>
        <time>2010-12-12T13:05:14Z</time>
      </trkpt>
      <trkpt lat="46.3046" lon="-0.33492">
        <ele>61.3156</ele>
        <time>2010-12-12T13:05:15Z</time>
      </trkpt>
      <trkpt lat="46.30461" lon="-0.33492">
        <ele>61.3488</ele>
        <time>2010-12-12T13:05:16Z</time>
      </trkpt>
      <trkpt lat="46.30463" lon="-0.33491">
        <ele>61.3923</ele>
        <time>2010-12-12T13:05:18Z</time>
      </trkpt>
      <trkpt lat="46.30465" lon="-0.33491">
        <ele>61.4349</ele>
        <time>2010-12-12T13:05:19Z</time>
      </trkpt>
      <trkpt lat="46.30467" lon="-0.33491">
        <ele>61.4759</ele>
        <time>2010-12-12T13:05:20Z</time>
      </trkpt>
      <trkpt lat="46.30468" lon="-0.3349">
        <ele>61.5132</ele>
        <time>2010-12-12T13:05:21Z</time>
      </trkpt>
      <trkpt lat="46.30469" lon="-0.3349">
        <ele>61.5459</ele>
        <time>2010-12-12T13:05:21Z</time>
      </trkpt>
      <trkpt lat="46.3047" lon="-0.33489">
        <ele>61.5756</ele>
        <time>2010-12-12T13:05:22Z</time>
      </trkpt>
      <trkpt lat="46.30471" lon="-0.33488">
        <ele>61.6053</ele>
        <time>2010-12-12T13:05:23Z</time>
      </trkpt>
      <trkpt lat="46.30472" lon="-0.33488">
        <ele>61.6393</ele>
        <time>2010-12-12T13:05:24Z</time>
      </trkpt>
      <trkpt lat="46.30473" lon="-0.33487">
        <ele>61.6717</ele>
        <time>2010-12-12T13:05:25Z</time>
      </trkpt>
      <trkpt lat="46.30474" lon="-0.33486">
        <ele>61.6978</ele>
        <time>2010-12-12T13:05:26Z</time>
      </trkpt>
      <trkpt lat="46.30475" lon="-0.33485">
        <ele>61.7216</ele>
        <time>2010-12-12T13:05:27Z</time>
      </trkpt>
      <trkpt lat="46.30475" lon="-0.33485">
        <ele>61.7427</ele>
        <time>2010-12-12T13:05:28Z</time>
      </trkpt>
      <trkpt lat="46.30475" lon="-0.33485">
        <ele>61.7666</ele>
        <time>2010-12-12T13:05:29Z</time>
      </trkpt>
      <trkpt lat="46.30475" lon="-0.33486">
        <ele>61.7958</ele>
        <time>2010-12-12T13:05:30Z</time>
      </trkpt>
      <trkpt lat="46.30479" lon="-0.33486">
        <ele>61.9954</ele>
        <time>2010-12-12T13:05:44Z</time>
      </trkpt>
      <trkpt lat="46.3048" lon="-0.33486">
        <ele>62.0578</ele>
        <time>2010-12-12T13:05:45Z</time>
      </trkpt>
      <trkpt lat="46.30481" lon="-0.33485">
        <ele>62.1187</ele>
        <time>2010-12-12T13:05:46Z</time>
      </trkpt>
      <trkpt lat="46.30482" lon="-0.33485">
        <ele>62.1781</ele>
        <time>2010-12-12T13:05:47Z</time>
      </trkpt>
      <trkpt lat="46.30483" lon="-0.33484">
        <ele>62.2343</ele>
        <time>2010-12-12T13:05:48Z</time>
      </trkpt>
      <trkpt lat="46.30484" lon="-0.33483">
        <ele>62.2925</ele>
        <time>2010-12-12T13:05:49Z</time>
      </trkpt>
      <trkpt lat="46.30484" lon="-0.33482">
        <ele>62.3534</ele>
        <time>2010-12-12T13:05:50Z</time>
      </trkpt>
      <trkpt lat="46.30486" lon="-0.33481">
        <ele>62.4174</ele>
        <time>2010-12-12T13:05:51Z</time>
      </trkpt>
      <trkpt lat="46.30486" lon="-0.33481">
        <ele>62.4791</ele>
        <time>2010-12-12T13:05:52Z</time>
      </trkpt>
      <trkpt lat="46.30487" lon="-0.3348">
        <ele>62.5397</ele>
        <time>2010-12-12T13:05:53Z</time>
      </trkpt>
      <trkpt lat="46.30488" lon="-0.3348">
        <ele>62.6007</ele>
        <time>2010-12-12T13:05:54Z</time>
      </trkpt>
      <trkpt lat="46.30489" lon="-0.33479">
        <ele>62.6584</ele>
        <time>2010-12-12T13:05:55Z</time>
      </trkpt>
      <trkpt lat="46.3049" lon="-0.33479">
        <ele>62.7161</ele>
        <time>2010-12-12T13:05:56Z</time>
      </trkpt>
      <trkpt lat="46.3049" lon="-0.33478">
        <ele>62.7603</ele>
        <time>2010-12-12T13:05:57Z</time>
      </trkpt>
      <trkpt lat="46.30491" lon="-0.33479">
        <ele>62.7898</ele>
        <time>2010-12-12T13:05:58Z</time>
      </trkpt>
      <trkpt lat="46.30491" lon="-0.33479">
        <ele>62.8234</ele>
        <time>2010-12-12T13:05:59Z</time>
      </trkpt>
      <trkpt lat="46.30492" lon="-0.33479">
        <ele>62.8601</ele>
        <time>2010-12-12T13:06:00Z</time>
      </trkpt>
      <trkpt lat="46.30492" lon="-0.33479">
        <ele>62.8916</ele>
        <time>2010-12-12T13:06:01Z</time>
      </trkpt>
      <trkpt lat="46.30494" lon="-0.33478">
        <ele>62.9232</ele>
        <time>2010-12-12T13:06:02Z</time>
      </trkpt>
      <trkpt lat="46.30494" lon="-0.33477">
        <ele>62.9454</ele>
        <time>2010-12-12T13:06:03Z</time>
      </trkpt>
      <trkpt lat="46.30496" lon="-0.33477">
        <ele>62.9617</ele>
        <time>2010-12-12T13:06:04Z</time>
      </trkpt>
      <trkpt lat="46.30496" lon="-0.33476">
        <ele>62.9753</ele>
        <time>2010-12-12T13:06:05Z</time>
      </trkpt>
      <trkpt lat="46.30497" lon="-0.33475">
        <ele>62.9843</ele>
        <time>2010-12-12T13:06:06Z</time>
      </trkpt>
      <trkpt lat="46.30497" lon="-0.33474">
        <ele>62.9906</ele>
        <time>2010-12-12T13:06:07Z</time>
      </trkpt>
      <trkpt lat="46.30498" lon="-0.33473">
        <ele>62.9939</ele>
        <time>2010-12-12T13:06:08Z</time>
      </trkpt>
      <trkpt lat="46.30498" lon="-0.33472">
        <ele>62.9928</ele>
        <time>2010-12-12T13:06:09Z</time>
      </trkpt>
      <trkpt lat="46.30499" lon="-0.33471">
        <ele>62.9896</ele>
        <time>2010-12-12T13:06:10Z</time>
      </trkpt>
      <trkpt lat="46.305" lon="-0.3347">
        <ele>62.9833</ele>
        <time>2010-12-12T13:06:11Z</time>
      </trkpt>
      <trkpt lat="46.305" lon="-0.3347">
        <ele>62.9734</ele>
        <time>2010-12-12T13:06:12Z</time>
      </trkpt>
      <trkpt lat="46.30502" lon="-0.3347">
        <ele>62.9641</ele>
        <time>2010-12-12T13:06:13Z</time>
      </trkpt>
      <trkpt lat="46.30502" lon="-0.33469">
        <ele>62.9561</ele>
        <time>2010-12-12T13:06:14Z</time>
      </trkpt>
      <trkpt lat="46.30504" lon="-0.3347">
        <ele>62.943</ele>
        <time>2010-12-12T13:06:15Z</time>
      </trkpt>
      <trkpt lat="46.30505" lon="-0.33469">
        <ele>62.9248</ele>
        <time>2010-12-12T13:06:16Z</time>
      </trkpt>
      <trkpt lat="46.30509" lon="-0.33472">
        <ele>62.8574</ele>
        <time>2010-12-12T13:06:22Z</time>
      </trkpt>
      <trkpt lat="46.30511" lon="-0.33473">
        <ele>62.7309</ele>
        <time>2010-12-12T13:06:30Z</time>
      </trkpt>
      <trkpt lat="46.30512" lon="-0.33473">
        <ele>62.6815</ele>
        <time>2010-12-12T13:06:31Z</time>
      </trkpt>
      <trkpt lat="46.30513" lon="-0.33473">
        <ele>62.6322</ele>
        <time>2010-12-12T13:06:32Z</time>
      </trkpt>
      <trkpt lat="46.30514" lon="-0.33472">
        <ele>62.5905</ele>
        <time>2010-12-12T13:06:33Z</time>
      </trkpt>
      <trkpt lat="46.30515" lon="-0.33471">
        <ele>62.5487</ele>
        <time>2010-12-12T13:06:34Z</time>
      </trkpt>
      <trkpt lat="46.30515" lon="-0.3347">
        <ele>62.5073</ele>
        <time>2010-12-12T13:06:35Z</time>
      </trkpt>
      <trkpt lat="46.30516" lon="-0.33469">
        <ele>62.4687</ele>
        <time>2010-12-12T13:06:36Z</time>
      </trkpt>
      <trkpt lat="46.30517" lon="-0.33469">
        <ele>62.4274</ele>
        <time>2010-12-12T13:06:37Z</time>
      </trkpt>
      <trkpt lat="46.30518" lon="-0.33468">
        <ele>62.3794</ele>
        <time>2010-12-12T13:06:38Z</time>
      </trkpt>
      <trkpt lat="46.30518" lon="-0.33467">
        <ele>62.3337</ele>
        <time>2010-12-12T13:06:39Z</time>
      </trkpt>
      <trkpt lat="46.30519" lon="-0.33466">
        <ele>62.2897</ele>
        <time>2010-12-12T13:06:40Z</time>
      </trkpt>
      <trkpt lat="46.3052" lon="-0.33466">
        <ele>62.2475</ele>
        <time>2010-12-12T13:06:41Z</time>
      </trkpt>
      <trkpt lat="46.30521" lon="-0.33465">
        <ele>62.2094</ele>
        <time>2010-12-12T13:06:42Z</time>
      </trkpt>
      <trkpt lat="46.30521" lon="-0.33464">
        <ele>62.1748</ele>
        <time>2010-12-12T13:06:43Z</time>
      </trkpt>
      <trkpt lat="46.30522" lon="-0.33464">
        <ele>62.1405</ele>
        <time>2010-12-12T13:06:44Z</time>
      </trkpt>
      <trkpt lat="46.30523" lon="-0.33463">
        <ele>62.113</ele>
        <time>2010-12-12T13:06:45Z</time>
      </trkpt>
      <trkpt lat="46.30524" lon="-0.33463">
        <ele>62.0916</ele>
        <time>2010-12-12T13:06:46Z</time>
      </trkpt>
      <trkpt lat="46.30525" lon="-0.33462">
        <ele>62.0718</ele>
        <time>2010-12-12T13:06:47Z</time>
      </trkpt>
      <trkpt lat="46.30526" lon="-0.33461">
        <ele>62.0565</ele>
        <time>2010-12-12T13:06:48Z</time>
      </trkpt>
      <trkpt lat="46.30527" lon="-0.33461">
        <ele>62.0392</ele>
        <time>2010-12-12T13:06:49Z</time>
      </trkpt>
      <trkpt lat="46.30528" lon="-0.3346">
        <ele>62.0294</ele>
        <time>2010-12-12T13:06:50Z</time>
      </trkpt>
      <trkpt lat="46.30528" lon="-0.33459">
        <ele>62.0132</ele>
        <time>2010-12-12T13:06:51Z</time>
      </trkpt>
      <trkpt lat="46.30529" lon="-0.33459">
        <ele>61.9999</ele>
        <time>2010-12-12T13:06:52Z</time>
      </trkpt>
      <trkpt lat="46.3053" lon="-0.33458">
        <ele>61.9877</ele>
        <time>2010-12-12T13:06:53Z</time>
      </trkpt>
      <trkpt lat="46.30531" lon="-0.33458">
        <ele>61.9819</ele>
        <time>2010-12-12T13:06:54Z</time>
      </trkpt>
      <trkpt lat="46.30533" lon="-0.33457">
        <ele>61.9709</ele>
        <time>2010-12-12T13:06:55Z</time>
      </trkpt>
      <trkpt lat="46.30534" lon="-0.33456">
        <ele>61.9568</ele>
        <time>2010-12-12T13:06:56Z</time>
      </trkpt>
      <trkpt lat="46.30534" lon="-0.33455">
        <ele>61.9409</ele>
        <time>2010-12-12T13:06:57Z</time>
      </trkpt>
      <trkpt lat="46.30536" lon="-0.33455">
        <ele>61.9247</ele>
        <time>2010-12-12T13:06:58Z</time>
      </trkpt>
      <trkpt lat="46.30537" lon="-0.33454">
        <ele>61.9078</ele>
        <time>2010-12-12T13:06:59Z</time>
      </trkpt>
      <trkpt lat="46.30537" lon="-0.33453">
        <ele>61.8899</ele>
        <time>2010-12-12T13:07:00Z</time>
      </trkpt>
      <trkpt lat="46.30539" lon="-0.33453">
        <ele>61.8731</ele>
        <time>2010-12-12T13:07:01Z</time>
      </trkpt>
      <trkpt lat="46.30539" lon="-0.33453">
        <ele>61.8542</ele>
        <time>2010-12-12T13:07:02Z</time>
      </trkpt>
      <trkpt lat="46.30539" lon="-0.33453">
        <ele>61.8369</ele>
        <time>2010-12-12T13:07:03Z</time>
      </trkpt>
      <trkpt lat="46.3054" lon="-0.33453">
        <ele>61.8208</ele>
        <time>2010-12-12T13:07:04Z</time>
      </trkpt>
      <trkpt lat="46.30541" lon="-0.33452">
        <ele>61.8049</ele>
        <time>2010-12-12T13:07:05Z</time>
      </trkpt>
      <trkpt lat="46.30542" lon="-0.33451">
        <ele>61.7877</ele>
        <time>2010-12-12T13:07:06Z</time>
      </trkpt>
      <trkpt lat="46.30543" lon="-0.33451">
        <ele>61.7796</ele>
        <time>2010-12-12T13:07:07Z</time>
      </trkpt>
      <trkpt lat="46.30544" lon="-0.3345">
        <ele>61.7711</ele>
        <time>2010-12-12T13:07:08Z</time>
      </trkpt>
      <trkpt lat="46.30545" lon="-0.33449">
        <ele>61.7609</ele>
        <time>2010-12-12T13:07:09Z</time>
      </trkpt>
      <trkpt lat="46.30547" lon="-0.33448">
        <ele>61.7558</ele>
        <time>2010-12-12T13:07:10Z</time>
      </trkpt>
      <trkpt lat="46.30548" lon="-0.33448">
        <ele>61.7516</ele>
        <time>2010-12-12T13:07:11Z</time>
      </trkpt>
      <trkpt lat="46.30549" lon="-0.33447">
        <ele>61.7485</ele>
        <time>2010-12-12T13:07:12Z</time>
      </trkpt>
      <trkpt lat="46.3055" lon="-0.33447">
        <ele>61.7418</ele>
        <time>2010-12-12T13:07:13Z</time>
      </trkpt>
      <trkpt lat="46.30551" lon="-0.33446">
        <ele>61.7351</ele>
        <time>2010-12-12T13:07:14Z</time>
      </trkpt>
      <trkpt lat="46.30552" lon="-0.33445">
        <ele>61.7271</ele>
        <time>2010-12-12T13:07:15Z</time>
      </trkpt>
      <trkpt lat="46.30552" lon="-0.33444">
        <ele>61.7205</ele>
        <time>2010-12-12T13:07:16Z</time>
      </trkpt>
      <trkpt lat="46.30553" lon="-0.33444">
        <ele>61.7158</ele>
        <time>2010-12-12T13:07:17Z</time>
      </trkpt>
      <trkpt lat="46.30554" lon="-0.33443">
        <ele>61.7129</ele>
        <time>2010-12-12T13:07:18Z</time>
      </trkpt>
      <trkpt lat="46.30555" lon="-0.33443">
        <ele>61.7104</ele>
        <time>2010-12-12T13:07:19Z</time>
      </trkpt>
      <trkpt lat="46.30555" lon="-0.33442">
        <ele>61.7084</ele>
        <time>2010-12-12T13:07:20Z</time>
      </trkpt>
      <trkpt lat="46.30556" lon="-0.33442">
        <ele>61.6989</ele>
        <time>2010-12-12T13:07:21Z</time>
      </trkpt>
      <trkpt lat="46.30557" lon="-0.33441">
        <ele>61.6857</ele>
        <time>2010-12-12T13:07:22Z</time>
      </trkpt>
      <trkpt lat="46.30558" lon="-0.33441">
        <ele>61.6725</ele>
        <time>2010-12-12T13:07:23Z</time>
      </trkpt>
      <trkpt lat="46.30558" lon="-0.33441">
        <ele>61.661</ele>
        <time>2010-12-12T13:07:24Z</time>
      </trkpt>
      <trkpt lat="46.3056" lon="-0.33441">
        <ele>61.6499</ele>
        <time>2010-12-12T13:07:25Z</time>
      </trkpt>
      <trkpt lat="46.30561" lon="-0.33441">
        <ele>61.6428</ele>
        <time>2010-12-12T13:07:26Z</time>
      </trkpt>
      <trkpt lat="46.30562" lon="-0.33441">
        <ele>61.6351</ele>
        <time>2010-12-12T13:07:27Z</time>
      </trkpt>
      <trkpt lat="46.30563" lon="-0.3344">
        <ele>61.6326</ele>
        <time>2010-12-12T13:07:28Z</time>
      </trkpt>
      <trkpt lat="46.30564" lon="-0.3344">
        <ele>61.6292</ele>
        <time>2010-12-12T13:07:29Z</time>
      </trkpt>
      <trkpt lat="46.30565" lon="-0.33439">
        <ele>61.6288</ele>
        <time>2010-12-12T13:07:30Z</time>
      </trkpt>
      <trkpt lat="46.30566" lon="-0.33439">
        <ele>61.6354</ele>
        <time>2010-12-12T13:07:31Z</time>
      </trkpt>
      <trkpt lat="46.30568" lon="-0.33438">
        <ele>61.6495</ele>
        <time>2010-12-12T13:07:32Z</time>
      </trkpt>
      <trkpt lat="46.30568" lon="-0.33437">
        <ele>61.6663</ele>
        <time>2010-12-12T13:07:33Z</time>
      </trkpt>
      <trkpt lat="46.3057" lon="-0.33436">
        <ele>61.6872</ele>
        <time>2010-12-12T13:07:34Z</time>
      </trkpt>
      <trkpt lat="46.30571" lon="-0.33435">
        <ele>61.7088</ele>
        <time>2010-12-12T13:07:35Z</time>
      </trkpt>
      <trkpt lat="46.30571" lon="-0.33435">
        <ele>61.7315</ele>
        <time>2010-12-12T13:07:36Z</time>
      </trkpt>
      <trkpt lat="46.30572" lon="-0.33435">
        <ele>61.7553</ele>
        <time>2010-12-12T13:07:37Z</time>
      </trkpt>
      <trkpt lat="46.30573" lon="-0.33434">
        <ele>61.778</ele>
        <time>2010-12-12T13:07:38Z</time>
      </trkpt>
      <trkpt lat="46.30574" lon="-0.33434">
        <ele>61.797</ele>
        <time>2010-12-12T13:07:39Z</time>
      </trkpt>
      <trkpt lat="46.30575" lon="-0.33433">
        <ele>61.8124</ele>
        <time>2010-12-12T13:07:40Z</time>
      </trkpt>
      <trkpt lat="46.30576" lon="-0.33433">
        <ele>61.8293</ele>
        <time>2010-12-12T13:07:41Z</time>
      </trkpt>
      <trkpt lat="46.30577" lon="-0.33432">
        <ele>61.8434</ele>
        <time>2010-12-12T13:07:42Z</time>
      </trkpt>
      <trkpt lat="46.30579" lon="-0.33432">
        <ele>61.8624</ele>
        <time>2010-12-12T13:07:43Z</time>
      </trkpt>
      <trkpt lat="46.3058" lon="-0.33431">
        <ele>61.8882</ele>
        <time>2010-12-12T13:07:44Z</time>
      </trkpt>
      <trkpt lat="46.30581" lon="-0.3343">
        <ele>61.915</ele>
        <time>2010-12-12T13:07:45Z</time>
      </trkpt>
      <trkpt lat="46.30582" lon="-0.3343">
        <ele>61.9412</ele>
        <time>2010-12-12T13:07:46Z</time>
      </trkpt>
      <trkpt lat="46.30582" lon="-0.3343">
        <ele>61.9661</ele>
        <time>2010-12-12T13:07:47Z</time>
      </trkpt>
      <trkpt lat="46.30583" lon="-0.3343">
        <ele>61.99</ele>
        <time>2010-12-12T13:07:48Z</time>
      </trkpt>
      <trkpt lat="46.30584" lon="-0.33429">
        <ele>62.0133</ele>
        <time>2010-12-12T13:07:49Z</time>
      </trkpt>
      <trkpt lat="46.30585" lon="-0.33429">
        <ele>62.0358</ele>
        <time>2010-12-12T13:07:50Z</time>
      </trkpt>
      <trkpt lat="46.30586" lon="-0.33428">
        <ele>62.0573</ele>
        <time>2010-12-12T13:07:51Z</time>
      </trkpt>
      <trkpt lat="46.30587" lon="-0.33428">
        <ele>62.0744</ele>
        <time>2010-12-12T13:07:52Z</time>
      </trkpt>
      <trkpt lat="46.30588" lon="-0.33428">
        <ele>62.09</ele>
        <time>2010-12-12T13:07:53Z</time>
      </trkpt>
      <trkpt lat="46.30589" lon="-0.33428">
        <ele>62.1027</ele>
        <time>2010-12-12T13:07:54Z</time>
      </trkpt>
      <trkpt lat="46.3059" lon="-0.33427">
        <ele>62.1124</ele>
        <time>2010-12-12T13:07:55Z</time>
      </trkpt>
      <trkpt lat="46.3059" lon="-0.33427">
        <ele>62.1207</ele>
        <time>2010-12-12T13:07:56Z</time>
      </trkpt>
      <trkpt lat="46.30591" lon="-0.33427">
        <ele>62.1275</ele>
        <time>2010-12-12T13:07:57Z</time>
      </trkpt>
      <trkpt lat="46.30591" lon="-0.33427">
        <ele>62.1294</ele>
        <time>2010-12-12T13:07:58Z</time>
      </trkpt>
      <trkpt lat="46.30592" lon="-0.33426">
        <ele>62.1283</ele>
        <time>2010-12-12T13:07:59Z</time>
      </trkpt>
      <trkpt lat="46.30593" lon="-0.33426">
        <ele>62.1302</ele>
        <time>2010-12-12T13:08:00Z</time>
      </trkpt>
      <trkpt lat="46.30594" lon="-0.33426">
        <ele>62.1325</ele>
        <time>2010-12-12T13:08:01Z</time>
      </trkpt>
      <trkpt lat="46.30595" lon="-0.33426">
        <ele>62.1355</ele>
        <time>2010-12-12T13:08:02Z</time>
      </trkpt>
      <trkpt lat="46.30596" lon="-0.33426">
        <ele>62.1396</ele>
        <time>2010-12-12T13:08:03Z</time>
      </trkpt>
      <trkpt lat="46.30597" lon="-0.33426">
        <ele>62.1447</ele>
        <time>2010-12-12T13:08:04Z</time>
      </trkpt>
      <trkpt lat="46.30598" lon="-0.33426">
        <ele>62.1497</ele>
        <time>2010-12-12T13:08:04Z</time>
      </trkpt>
      <trkpt lat="46.30599" lon="-0.33426">
        <ele>62.1545</ele>
        <time>2010-12-12T13:08:06Z</time>
      </trkpt>
      <trkpt lat="46.306" lon="-0.33426">
        <ele>62.1564</ele>
        <time>2010-12-12T13:08:07Z</time>
      </trkpt>
      <trkpt lat="46.30601" lon="-0.33425">
        <ele>62.1584</ele>
        <time>2010-12-12T13:08:08Z</time>
      </trkpt>
      <trkpt lat="46.30602" lon="-0.33425">
        <ele>62.1607</ele>
        <time>2010-12-12T13:08:09Z</time>
      </trkpt>
      <trkpt lat="46.30603" lon="-0.33425">
        <ele>62.157</ele>
        <time>2010-12-12T13:08:10Z</time>
      </trkpt>
      <trkpt lat="46.30604" lon="-0.33424">
        <ele>62.152</ele>
        <time>2010-12-12T13:08:11Z</time>
      </trkpt>
      <trkpt lat="46.30606" lon="-0.33424">
        <ele>62.1338</ele>
        <time>2010-12-12T13:08:12Z</time>
      </trkpt>
      <trkpt lat="46.30607" lon="-0.33424">
        <ele>62.1045</ele>
        <time>2010-12-12T13:08:13Z</time>
      </trkpt>
      <trkpt lat="46.30608" lon="-0.33424">
        <ele>62.0715</ele>
        <time>2010-12-12T13:08:14Z</time>
      </trkpt>
      <trkpt lat="46.30609" lon="-0.33424">
        <ele>62.0345</ele>
        <time>2010-12-12T13:08:15Z</time>
      </trkpt>
      <trkpt lat="46.3061" lon="-0.33423">
        <ele>61.9978</ele>
        <time>2010-12-12T13:08:16Z</time>
      </trkpt>
      <trkpt lat="46.30611" lon="-0.33423">
        <ele>61.9616</ele>
        <time>2010-12-12T13:08:17Z</time>
      </trkpt>
      <trkpt lat="46.30612" lon="-0.33423">
        <ele>61.9193</ele>
        <time>2010-12-12T13:08:18Z</time>
      </trkpt>
      <trkpt lat="46.30613" lon="-0.33423">
        <ele>61.8778</ele>
        <time>2010-12-12T13:08:19Z</time>
      </trkpt>
      <trkpt lat="46.30614" lon="-0.33422">
        <ele>61.8356</ele>
        <time>2010-12-12T13:08:20Z</time>
      </trkpt>
      <trkpt lat="46.30615" lon="-0.33421">
        <ele>61.7937</ele>
        <time>2010-12-12T13:08:21Z</time>
      </trkpt>
      <trkpt lat="46.30617" lon="-0.33421">
        <ele>61.7038</ele>
        <time>2010-12-12T13:08:24Z</time>
      </trkpt>
      <trkpt lat="46.30618" lon="-0.33421">
        <ele>61.6641</ele>
        <time>2010-12-12T13:08:25Z</time>
      </trkpt>
      <trkpt lat="46.30619" lon="-0.3342">
        <ele>61.6241</ele>
        <time>2010-12-12T13:08:26Z</time>
      </trkpt>
      <trkpt lat="46.3062" lon="-0.3342">
        <ele>61.5853</ele>
        <time>2010-12-12T13:08:27Z</time>
      </trkpt>
      <trkpt lat="46.30621" lon="-0.33419">
        <ele>61.5436</ele>
        <time>2010-12-12T13:08:28Z</time>
      </trkpt>
      <trkpt lat="46.30623" lon="-0.33418">
        <ele>61.5032</ele>
        <time>2010-12-12T13:08:29Z</time>
      </trkpt>
      <trkpt lat="46.30623" lon="-0.33417">
        <ele>61.4643</ele>
        <time>2010-12-12T13:08:30Z</time>
      </trkpt>
      <trkpt lat="46.30624" lon="-0.33416">
        <ele>61.425</ele>
        <time>2010-12-12T13:08:31Z</time>
      </trkpt>
      <trkpt lat="46.30625" lon="-0.33416">
        <ele>61.3869</ele>
        <time>2010-12-12T13:08:31Z</time>
      </trkpt>
      <trkpt lat="46.30626" lon="-0.33415">
        <ele>61.3574</ele>
        <time>2010-12-12T13:08:33Z</time>
      </trkpt>
      <trkpt lat="46.30627" lon="-0.33414">
        <ele>61.334</ele>
        <time>2010-12-12T13:08:33Z</time>
      </trkpt>
      <trkpt lat="46.30628" lon="-0.33414">
        <ele>61.3117</ele>
        <time>2010-12-12T13:08:34Z</time>
      </trkpt>
      <trkpt lat="46.30629" lon="-0.33413">
        <ele>61.3001</ele>
        <time>2010-12-12T13:08:35Z</time>
      </trkpt>
      <trkpt lat="46.3063" lon="-0.33412">
        <ele>61.3002</ele>
        <time>2010-12-12T13:08:36Z</time>
      </trkpt>
      <trkpt lat="46.3063" lon="-0.33412">
        <ele>61.3121</ele>
        <time>2010-12-12T13:08:37Z</time>
      </trkpt>
      <trkpt lat="46.30631" lon="-0.33411">
        <ele>61.3353</ele>
        <time>2010-12-12T13:08:38Z</time>
      </trkpt>
      <trkpt lat="46.30632" lon="-0.33411">
        <ele>61.363</ele>
        <time>2010-12-12T13:08:39Z</time>
      </trkpt>
      <trkpt lat="46.30633" lon="-0.3341">
        <ele>61.4007</ele>
        <time>2010-12-12T13:08:40Z</time>
      </trkpt>
      <trkpt lat="46.30634" lon="-0.3341">
        <ele>61.4417</ele>
        <time>2010-12-12T13:08:41Z</time>
      </trkpt>
      <trkpt lat="46.30636" lon="-0.3341">
        <ele>61.4822</ele>
        <time>2010-12-12T13:08:42Z</time>
      </trkpt>
      <trkpt lat="46.30638" lon="-0.33408">
        <ele>61.5978</ele>
        <time>2010-12-12T13:08:45Z</time>
      </trkpt>
      <trkpt lat="46.30639" lon="-0.33408">
        <ele>61.6314</ele>
        <time>2010-12-12T13:08:46Z</time>
      </trkpt>
      <trkpt lat="46.3064" lon="-0.33407">
        <ele>61.6658</ele>
        <time>2010-12-12T13:08:47Z</time>
      </trkpt>
      <trkpt lat="46.30641" lon="-0.33406">
        <ele>61.6977</ele>
        <time>2010-12-12T13:08:48Z</time>
      </trkpt>
      <trkpt lat="46.30642" lon="-0.33405">
        <ele>61.7252</ele>
        <time>2010-12-12T13:08:49Z</time>
      </trkpt>
      <trkpt lat="46.30643" lon="-0.33404">
        <ele>61.7513</ele>
        <time>2010-12-12T13:08:50Z</time>
      </trkpt>
      <trkpt lat="46.30645" lon="-0.33404">
        <ele>61.7753</ele>
        <time>2010-12-12T13:08:51Z</time>
      </trkpt>
      <trkpt lat="46.30646" lon="-0.33403">
        <ele>61.7978</ele>
        <time>2010-12-12T13:08:52Z</time>
      </trkpt>
      <trkpt lat="46.30647" lon="-0.33402">
        <ele>61.8146</ele>
        <time>2010-12-12T13:08:53Z</time>
      </trkpt>
      <trkpt lat="46.30648" lon="-0.33402">
        <ele>61.8235</ele>
        <time>2010-12-12T13:08:54Z</time>
      </trkpt>
      <trkpt lat="46.30652" lon="-0.33397">
        <ele>61.9188</ele>
        <time>2010-12-12T13:09:03Z</time>
      </trkpt>
      <trkpt lat="46.30653" lon="-0.33396">
        <ele>61.9319</ele>
        <time>2010-12-12T13:09:04Z</time>
      </trkpt>
      <trkpt lat="46.30653" lon="-0.33396">
        <ele>61.9573</ele>
        <time>2010-12-12T13:09:04Z</time>
      </trkpt>
      <trkpt lat="46.30657" lon="-0.33393">
        <ele>62.1078</ele>
        <time>2010-12-12T13:09:08Z</time>
      </trkpt>
      <trkpt lat="46.30661" lon="-0.33391">
        <ele>62.2788</ele>
        <time>2010-12-12T13:09:12Z</time>
      </trkpt>
      <trkpt lat="46.30662" lon="-0.3339">
        <ele>62.3182</ele>
        <time>2010-12-12T13:09:13Z</time>
      </trkpt>
      <trkpt lat="46.30663" lon="-0.33389">
        <ele>62.3566</ele>
        <time>2010-12-12T13:09:14Z</time>
      </trkpt>
      <trkpt lat="46.30664" lon="-0.33388">
        <ele>62.393</ele>
        <time>2010-12-12T13:09:15Z</time>
      </trkpt>
      <trkpt lat="46.30665" lon="-0.33388">
        <ele>62.4294</ele>
        <time>2010-12-12T13:09:16Z</time>
      </trkpt>
      <trkpt lat="46.30666" lon="-0.33387">
        <ele>62.4647</ele>
        <time>2010-12-12T13:09:17Z</time>
      </trkpt>
      <trkpt lat="46.30669" lon="-0.33384">
        <ele>62.5789</ele>
        <time>2010-12-12T13:09:22Z</time>
      </trkpt>
      <trkpt lat="46.30669" lon="-0.33383">
        <ele>62.58</ele>
        <time>2010-12-12T13:09:23Z</time>
      </trkpt>
      <trkpt lat="46.30671" lon="-0.33383">
        <ele>62.5685</ele>
        <time>2010-12-12T13:09:25Z</time>
      </trkpt>
      <trkpt lat="46.30672" lon="-0.33382">
        <ele>62.5625</ele>
        <time>2010-12-12T13:09:25Z</time>
      </trkpt>
      <trkpt lat="46.30673" lon="-0.33382">
        <ele>62.5552</ele>
        <time>2010-12-12T13:09:26Z</time>
      </trkpt>
      <trkpt lat="46.30674" lon="-0.33382">
        <ele>62.5557</ele>
        <time>2010-12-12T13:09:27Z</time>
      </trkpt>
      <trkpt lat="46.30676" lon="-0.33381">
        <ele>62.5553</ele>
        <time>2010-12-12T13:09:28Z</time>
      </trkpt>
      <trkpt lat="46.30677" lon="-0.3338">
        <ele>62.5519</ele>
        <time>2010-12-12T13:09:29Z</time>
      </trkpt>
      <trkpt lat="46.30678" lon="-0.33379">
        <ele>62.5476</ele>
        <time>2010-12-12T13:09:30Z</time>
      </trkpt>
      <trkpt lat="46.30679" lon="-0.33378">
        <ele>62.5468</ele>
        <time>2010-12-12T13:09:31Z</time>
      </trkpt>
      <trkpt lat="46.30681" lon="-0.33377">
        <ele>62.5457</ele>
        <time>2010-12-12T13:09:32Z</time>
      </trkpt>
      <trkpt lat="46.30682" lon="-0.33376">
        <ele>62.5449</ele>
        <time>2010-12-12T13:09:33Z</time>
      </trkpt>
      <trkpt lat="46.30683" lon="-0.33376">
        <ele>62.5442</ele>
        <time>2010-12-12T13:09:34Z</time>
      </trkpt>
      <trkpt lat="46.30684" lon="-0.33375">
        <ele>62.5412</ele>
        <time>2010-12-12T13:09:35Z</time>
      </trkpt>
      <trkpt lat="46.30685" lon="-0.33374">
        <ele>62.5395</ele>
        <time>2010-12-12T13:09:36Z</time>
      </trkpt>
      <trkpt lat="46.30686" lon="-0.33374">
        <ele>62.5451</ele>
        <time>2010-12-12T13:09:38Z</time>
      </trkpt>
      <trkpt lat="46.30687" lon="-0.33373">
        <ele>62.5555</ele>
        <time>2010-12-12T13:09:38Z</time>
      </trkpt>
      <trkpt lat="46.30689" lon="-0.33373">
        <ele>62.5697</ele>
        <time>2010-12-12T13:09:40Z</time>
      </trkpt>
      <trkpt lat="46.3069" lon="-0.33373">
        <ele>62.5873</ele>
        <time>2010-12-12T13:09:40Z</time>
      </trkpt>
      <trkpt lat="46.30691" lon="-0.33372">
        <ele>62.6023</ele>
        <time>2010-12-12T13:09:41Z</time>
      </trkpt>
      <trkpt lat="46.30692" lon="-0.33372">
        <ele>62.6211</ele>
        <time>2010-12-12T13:09:42Z</time>
      </trkpt>
      <trkpt lat="46.30693" lon="-0.33371">
        <ele>62.6399</ele>
        <time>2010-12-12T13:09:43Z</time>
      </trkpt>
      <trkpt lat="46.30695" lon="-0.33371">
        <ele>62.6614</ele>
        <time>2010-12-12T13:09:44Z</time>
      </trkpt>
      <trkpt lat="46.30696" lon="-0.3337">
        <ele>62.6839</ele>
        <time>2010-12-12T13:09:45Z</time>
      </trkpt>
      <trkpt lat="46.30697" lon="-0.3337">
        <ele>62.7057</ele>
        <time>2010-12-12T13:09:46Z</time>
      </trkpt>
      <trkpt lat="46.30698" lon="-0.33369">
        <ele>62.7228</ele>
        <time>2010-12-12T13:09:47Z</time>
      </trkpt>
      <trkpt lat="46.307" lon="-0.33368">
        <ele>62.7432</ele>
        <time>2010-12-12T13:09:48Z</time>
      </trkpt>
      <trkpt lat="46.30701" lon="-0.33368">
        <ele>62.7656</ele>
        <time>2010-12-12T13:09:49Z</time>
      </trkpt>
      <trkpt lat="46.30702" lon="-0.33367">
        <ele>62.7898</ele>
        <time>2010-12-12T13:09:50Z</time>
      </trkpt>
      <trkpt lat="46.30703" lon="-0.33366">
        <ele>62.8131</ele>
        <time>2010-12-12T13:09:51Z</time>
      </trkpt>
      <trkpt lat="46.30704" lon="-0.33366">
        <ele>62.836</ele>
        <time>2010-12-12T13:09:52Z</time>
      </trkpt>
      <trkpt lat="46.30705" lon="-0.33365">
        <ele>62.8587</ele>
        <time>2010-12-12T13:09:53Z</time>
      </trkpt>
      <trkpt lat="46.30706" lon="-0.33365">
        <ele>62.8797</ele>
        <time>2010-12-12T13:09:54Z</time>
      </trkpt>
      <trkpt lat="46.30707" lon="-0.33365">
        <ele>62.9006</ele>
        <time>2010-12-12T13:09:55Z</time>
      </trkpt>
      <trkpt lat="46.30708" lon="-0.33364">
        <ele>62.9175</ele>
        <time>2010-12-12T13:09:56Z</time>
      </trkpt>
      <trkpt lat="46.30709" lon="-0.33364">
        <ele>62.936</ele>
        <time>2010-12-12T13:09:57Z</time>
      </trkpt>
      <trkpt lat="46.3071" lon="-0.33364">
        <ele>62.9547</ele>
        <time>2010-12-12T13:09:58Z</time>
      </trkpt>
      <trkpt lat="46.30711" lon="-0.33363">
        <ele>62.9736</ele>
        <time>2010-12-12T13:10:00Z</time>
      </trkpt>
      <trkpt lat="46.30713" lon="-0.33363">
        <ele>62.9928</ele>
        <time>2010-12-12T13:10:00Z</time>
      </trkpt>
      <trkpt lat="46.30714" lon="-0.33363">
        <ele>63.0092</ele>
        <time>2010-12-12T13:10:01Z</time>
      </trkpt>
      <trkpt lat="46.30717" lon="-0.33362">
        <ele>63.0402</ele>
        <time>2010-12-12T13:10:05Z</time>
      </trkpt>
      <trkpt lat="46.30718" lon="-0.33361">
        <ele>63.058</ele>
        <time>2010-12-12T13:10:06Z</time>
      </trkpt>
      <trkpt lat="46.30719" lon="-0.3336">
        <ele>63.0759</ele>
        <time>2010-12-12T13:10:07Z</time>
      </trkpt>
      <trkpt lat="46.3072" lon="-0.3336">
        <ele>63.0944</ele>
        <time>2010-12-12T13:10:08Z</time>
      </trkpt>
      <trkpt lat="46.30721" lon="-0.33359">
        <ele>63.1094</ele>
        <time>2010-12-12T13:10:09Z</time>
      </trkpt>
      <trkpt lat="46.30722" lon="-0.33359">
        <ele>63.1228</ele>
        <time>2010-12-12T13:10:10Z</time>
      </trkpt>
      <trkpt lat="46.30723" lon="-0.33359">
        <ele>63.1343</ele>
        <time>2010-12-12T13:10:11Z</time>
      </trkpt>
      <trkpt lat="46.30724" lon="-0.33358">
        <ele>63.1467</ele>
        <time>2010-12-12T13:10:12Z</time>
      </trkpt>
      <trkpt lat="46.30725" lon="-0.33358">
        <ele>63.159</ele>
        <time>2010-12-12T13:10:13Z</time>
      </trkpt>
      <trkpt lat="46.30726" lon="-0.33357">
        <ele>63.1684</ele>
        <time>2010-12-12T13:10:14Z</time>
      </trkpt>
      <trkpt lat="46.30727" lon="-0.33357">
        <ele>63.178</ele>
        <time>2010-12-12T13:10:15Z</time>
      </trkpt>
      <trkpt lat="46.30727" lon="-0.33356">
        <ele>63.1851</ele>
        <time>2010-12-12T13:10:17Z</time>
      </trkpt>
      <trkpt lat="46.30729" lon="-0.33356">
        <ele>63.1885</ele>
        <time>2010-12-12T13:10:17Z</time>
      </trkpt>
      <trkpt lat="46.3073" lon="-0.33355">
        <ele>63.1911</ele>
        <time>2010-12-12T13:10:18Z</time>
      </trkpt>
      <trkpt lat="46.30731" lon="-0.33355">
        <ele>63.1917</ele>
        <time>2010-12-12T13:10:19Z</time>
      </trkpt>
      <trkpt lat="46.30732" lon="-0.33355">
        <ele>63.1875</ele>
        <time>2010-12-12T13:10:20Z</time>
      </trkpt>
      <trkpt lat="46.30734" lon="-0.33355">
        <ele>63.1807</ele>
        <time>2010-12-12T13:10:21Z</time>
      </trkpt>
      <trkpt lat="46.30735" lon="-0.33354">
        <ele>63.1735</ele>
        <time>2010-12-12T13:10:23Z</time>
      </trkpt>
      <trkpt lat="46.30735" lon="-0.33354">
        <ele>63.1667</ele>
        <time>2010-12-12T13:10:23Z</time>
      </trkpt>
      <trkpt lat="46.30737" lon="-0.33353">
        <ele>63.159</ele>
        <time>2010-12-12T13:10:24Z</time>
      </trkpt>
      <trkpt lat="46.30737" lon="-0.33353">
        <ele>63.1487</ele>
        <time>2010-12-12T13:10:25Z</time>
      </trkpt>
      <trkpt lat="46.30738" lon="-0.33353">
        <ele>63.1348</ele>
        <time>2010-12-12T13:10:26Z</time>
      </trkpt>
      <trkpt lat="46.30739" lon="-0.33352">
        <ele>63.1199</ele>
        <time>2010-12-12T13:10:27Z</time>
      </trkpt>
      <trkpt lat="46.3074" lon="-0.33352">
        <ele>63.0986</ele>
        <time>2010-12-12T13:10:28Z</time>
      </trkpt>
      <trkpt lat="46.30741" lon="-0.33352">
        <ele>63.0772</ele>
        <time>2010-12-12T13:10:29Z</time>
      </trkpt>
      <trkpt lat="46.30742" lon="-0.33351">
        <ele>63.0553</ele>
        <time>2010-12-12T13:10:31Z</time>
      </trkpt>
      <trkpt lat="46.30743" lon="-0.33351">
        <ele>63.0334</ele>
        <time>2010-12-12T13:10:31Z</time>
      </trkpt>
      <trkpt lat="46.30743" lon="-0.3335">
        <ele>63.0097</ele>
        <time>2010-12-12T13:10:32Z</time>
      </trkpt>
      <trkpt lat="46.30744" lon="-0.3335">
        <ele>62.9853</ele>
        <time>2010-12-12T13:10:33Z</time>
      </trkpt>
      <trkpt lat="46.30745" lon="-0.33349">
        <ele>62.9577</ele>
        <time>2010-12-12T13:10:34Z</time>
      </trkpt>
      <trkpt lat="46.30746" lon="-0.33349">
        <ele>62.9259</ele>
        <time>2010-12-12T13:10:35Z</time>
      </trkpt>
      <trkpt lat="46.30747" lon="-0.33348">
        <ele>62.8927</ele>
        <time>2010-12-12T13:10:36Z</time>
      </trkpt>
      <trkpt lat="46.30748" lon="-0.33348">
        <ele>62.859</ele>
        <time>2010-12-12T13:10:37Z</time>
      </trkpt>
      <trkpt lat="46.30749" lon="-0.33348">
        <ele>62.828</ele>
        <time>2010-12-12T13:10:38Z</time>
      </trkpt>
      <trkpt lat="46.3075" lon="-0.33347">
        <ele>62.7998</ele>
        <time>2010-12-12T13:10:39Z</time>
      </trkpt>
      <trkpt lat="46.30751" lon="-0.33347">
        <ele>62.7693</ele>
        <time>2010-12-12T13:10:40Z</time>
      </trkpt>
      <trkpt lat="46.30752" lon="-0.33347">
        <ele>62.7371</ele>
        <time>2010-12-12T13:10:41Z</time>
      </trkpt>
      <trkpt lat="46.30753" lon="-0.33347">
        <ele>62.7039</ele>
        <time>2010-12-12T13:10:42Z</time>
      </trkpt>
      <trkpt lat="46.30754" lon="-0.33347">
        <ele>62.6651</ele>
        <time>2010-12-12T13:10:43Z</time>
      </trkpt>
      <trkpt lat="46.30755" lon="-0.33347">
        <ele>62.6211</ele>
        <time>2010-12-12T13:10:44Z</time>
      </trkpt>
      <trkpt lat="46.30756" lon="-0.33346">
        <ele>62.5783</ele>
        <time>2010-12-12T13:10:45Z</time>
      </trkpt>
      <trkpt lat="46.30758" lon="-0.33346">
        <ele>62.5376</ele>
        <time>2010-12-12T13:10:46Z</time>
      </trkpt>
      <trkpt lat="46.30759" lon="-0.33346">
        <ele>62.4972</ele>
        <time>2010-12-12T13:10:47Z</time>
      </trkpt>
      <trkpt lat="46.3076" lon="-0.33345">
        <ele>62.4565</ele>
        <time>2010-12-12T13:10:48Z</time>
      </trkpt>
      <trkpt lat="46.30761" lon="-0.33345">
        <ele>62.4163</ele>
        <time>2010-12-12T13:10:49Z</time>
      </trkpt>
      <trkpt lat="46.30762" lon="-0.33344">
        <ele>62.377</ele>
        <time>2010-12-12T13:10:50Z</time>
      </trkpt>
      <trkpt lat="46.30763" lon="-0.33343">
        <ele>62.338</ele>
        <time>2010-12-12T13:10:51Z</time>
      </trkpt>
      <trkpt lat="46.30764" lon="-0.33343">
        <ele>62.2998</ele>
        <time>2010-12-12T13:10:52Z</time>
      </trkpt>
      <trkpt lat="46.30764" lon="-0.33342">
        <ele>62.2622</ele>
        <time>2010-12-12T13:10:53Z</time>
      </trkpt>
      <trkpt lat="46.30765" lon="-0.33342">
        <ele>62.2243</ele>
        <time>2010-12-12T13:10:54Z</time>
      </trkpt>
      <trkpt lat="46.30766" lon="-0.33341">
        <ele>62.1867</ele>
        <time>2010-12-12T13:10:55Z</time>
      </trkpt>
      <trkpt lat="46.30767" lon="-0.33341">
        <ele>62.1445</ele>
        <time>2010-12-12T13:10:56Z</time>
      </trkpt>
      <trkpt lat="46.30768" lon="-0.33341">
        <ele>62.1001</ele>
        <time>2010-12-12T13:10:57Z</time>
      </trkpt>
      <trkpt lat="46.30769" lon="-0.33341">
        <ele>62.0554</ele>
        <time>2010-12-12T13:10:58Z</time>
      </trkpt>
      <trkpt lat="46.30771" lon="-0.3334">
        <ele>62.0116</ele>
        <time>2010-12-12T13:11:00Z</time>
      </trkpt>
      <trkpt lat="46.30772" lon="-0.3334">
        <ele>61.9687</ele>
        <time>2010-12-12T13:11:00Z</time>
      </trkpt>
      <trkpt lat="46.30773" lon="-0.3334">
        <ele>61.9245</ele>
        <time>2010-12-12T13:11:01Z</time>
      </trkpt>
      <trkpt lat="46.30774" lon="-0.33339">
        <ele>61.8801</ele>
        <time>2010-12-12T13:11:02Z</time>
      </trkpt>
      <trkpt lat="46.30775" lon="-0.33339">
        <ele>61.837</ele>
        <time>2010-12-12T13:11:03Z</time>
      </trkpt>
      <trkpt lat="46.30776" lon="-0.33338">
        <ele>61.7946</ele>
        <time>2010-12-12T13:11:04Z</time>
      </trkpt>
      <trkpt lat="46.30777" lon="-0.33337">
        <ele>61.7534</ele>
        <time>2010-12-12T13:11:05Z</time>
      </trkpt>
      <trkpt lat="46.30778" lon="-0.33337">
        <ele>61.7116</ele>
        <time>2010-12-12T13:11:06Z</time>
      </trkpt>
      <trkpt lat="46.30779" lon="-0.33336">
        <ele>61.6704</ele>
        <time>2010-12-12T13:11:07Z</time>
      </trkpt>
      <trkpt lat="46.3078" lon="-0.33335">
        <ele>61.6292</ele>
        <time>2010-12-12T13:11:08Z</time>
      </trkpt>
      <trkpt lat="46.30781" lon="-0.33335">
        <ele>61.5852</ele>
        <time>2010-12-12T13:11:09Z</time>
      </trkpt>
      <trkpt lat="46.30783" lon="-0.33334">
        <ele>61.5421</ele>
        <time>2010-12-12T13:11:10Z</time>
      </trkpt>
      <trkpt lat="46.30784" lon="-0.33334">
        <ele>61.4995</ele>
        <time>2010-12-12T13:11:11Z</time>
      </trkpt>
      <trkpt lat="46.30785" lon="-0.33333">
        <ele>61.4543</ele>
        <time>2010-12-12T13:11:12Z</time>
      </trkpt>
      <trkpt lat="46.30786" lon="-0.33333">
        <ele>61.4108</ele>
        <time>2010-12-12T13:11:13Z</time>
      </trkpt>
      <trkpt lat="46.30787" lon="-0.33332">
        <ele>61.3692</ele>
        <time>2010-12-12T13:11:14Z</time>
      </trkpt>
      <trkpt lat="46.30788" lon="-0.33332">
        <ele>61.3242</ele>
        <time>2010-12-12T13:11:15Z</time>
      </trkpt>
      <trkpt lat="46.30789" lon="-0.33331">
        <ele>61.2783</ele>
        <time>2010-12-12T13:11:16Z</time>
      </trkpt>
      <trkpt lat="46.3079" lon="-0.33331">
        <ele>61.2313</ele>
        <time>2010-12-12T13:11:17Z</time>
      </trkpt>
      <trkpt lat="46.30791" lon="-0.3333">
        <ele>61.1862</ele>
        <time>2010-12-12T13:11:18Z</time>
      </trkpt>
      <trkpt lat="46.30792" lon="-0.33329">
        <ele>61.1391</ele>
        <time>2010-12-12T13:11:19Z</time>
      </trkpt>
      <trkpt lat="46.30793" lon="-0.33328">
        <ele>61.0925</ele>
        <time>2010-12-12T13:11:20Z</time>
      </trkpt>
      <trkpt lat="46.30795" lon="-0.33328">
        <ele>61.0468</ele>
        <time>2010-12-12T13:11:21Z</time>
      </trkpt>
      <trkpt lat="46.30796" lon="-0.33327">
        <ele>61.0016</ele>
        <time>2010-12-12T13:11:22Z</time>
      </trkpt>
      <trkpt lat="46.30798" lon="-0.33327">
        <ele>60.9538</ele>
        <time>2010-12-12T13:11:23Z</time>
      </trkpt>
      <trkpt lat="46.30799" lon="-0.33326">
        <ele>60.9071</ele>
        <time>2010-12-12T13:11:24Z</time>
      </trkpt>
      <trkpt lat="46.308" lon="-0.33326">
        <ele>60.861</ele>
        <time>2010-12-12T13:11:25Z</time>
      </trkpt>
      <trkpt lat="46.30801" lon="-0.33326">
        <ele>60.8131</ele>
        <time>2010-12-12T13:11:26Z</time>
      </trkpt>
      <trkpt lat="46.30802" lon="-0.33325">
        <ele>60.7678</ele>
        <time>2010-12-12T13:11:27Z</time>
      </trkpt>
      <trkpt lat="46.30803" lon="-0.33325">
        <ele>60.7241</ele>
        <time>2010-12-12T13:11:29Z</time>
      </trkpt>
      <trkpt lat="46.30804" lon="-0.33325">
        <ele>60.6797</ele>
        <time>2010-12-12T13:11:29Z</time>
      </trkpt>
      <trkpt lat="46.30805" lon="-0.33324">
        <ele>60.6347</ele>
        <time>2010-12-12T13:11:30Z</time>
      </trkpt>
      <trkpt lat="46.30806" lon="-0.33324">
        <ele>60.5878</ele>
        <time>2010-12-12T13:11:31Z</time>
      </trkpt>
      <trkpt lat="46.30808" lon="-0.33324">
        <ele>60.5416</ele>
        <time>2010-12-12T13:11:32Z</time>
      </trkpt>
      <trkpt lat="46.30809" lon="-0.33323">
        <ele>60.4927</ele>
        <time>2010-12-12T13:11:33Z</time>
      </trkpt>
      <trkpt lat="46.3081" lon="-0.33323">
        <ele>60.4412</ele>
        <time>2010-12-12T13:11:35Z</time>
      </trkpt>
      <trkpt lat="46.30812" lon="-0.33323">
        <ele>60.3953</ele>
        <time>2010-12-12T13:11:36Z</time>
      </trkpt>
      <trkpt lat="46.30813" lon="-0.33322">
        <ele>60.3525</ele>
        <time>2010-12-12T13:11:37Z</time>
      </trkpt>
      <trkpt lat="46.30814" lon="-0.33321">
        <ele>60.3131</ele>
        <time>2010-12-12T13:11:38Z</time>
      </trkpt>
      <trkpt lat="46.30816" lon="-0.3332">
        <ele>60.2776</ele>
        <time>2010-12-12T13:11:39Z</time>
      </trkpt>
      <trkpt lat="46.30817" lon="-0.33319">
        <ele>60.2474</ele>
        <time>2010-12-12T13:11:40Z</time>
      </trkpt>
      <trkpt lat="46.30817" lon="-0.33318">
        <ele>60.2225</ele>
        <time>2010-12-12T13:11:41Z</time>
      </trkpt>
      <trkpt lat="46.30819" lon="-0.33317">
        <ele>60.1977</ele>
        <time>2010-12-12T13:11:42Z</time>
      </trkpt>
      <trkpt lat="46.30819" lon="-0.33317">
        <ele>60.1718</ele>
        <time>2010-12-12T13:11:43Z</time>
      </trkpt>
      <trkpt lat="46.30821" lon="-0.33316">
        <ele>60.1466</ele>
        <time>2010-12-12T13:11:44Z</time>
      </trkpt>
      <trkpt lat="46.30822" lon="-0.33315">
        <ele>60.1227</ele>
        <time>2010-12-12T13:11:45Z</time>
      </trkpt>
      <trkpt lat="46.30822" lon="-0.33314">
        <ele>60.1022</ele>
        <time>2010-12-12T13:11:46Z</time>
      </trkpt>
      <trkpt lat="46.30824" lon="-0.33314">
        <ele>60.0851</ele>
        <time>2010-12-12T13:11:47Z</time>
      </trkpt>
      <trkpt lat="46.30824" lon="-0.33313">
        <ele>60.0699</ele>
        <time>2010-12-12T13:11:48Z</time>
      </trkpt>
      <trkpt lat="46.30825" lon="-0.33312">
        <ele>60.0565</ele>
        <time>2010-12-12T13:11:49Z</time>
      </trkpt>
      <trkpt lat="46.30827" lon="-0.33312">
        <ele>60.0429</ele>
        <time>2010-12-12T13:11:50Z</time>
      </trkpt>
      <trkpt lat="46.30828" lon="-0.33311">
        <ele>60.0298</ele>
        <time>2010-12-12T13:11:51Z</time>
      </trkpt>
      <trkpt lat="46.30829" lon="-0.3331">
        <ele>60.0171</ele>
        <time>2010-12-12T13:11:52Z</time>
      </trkpt>
      <trkpt lat="46.3083" lon="-0.3331">
        <ele>60.0051</ele>
        <time>2010-12-12T13:11:53Z</time>
      </trkpt>
      <trkpt lat="46.30832" lon="-0.33309">
        <ele>59.9935</ele>
        <time>2010-12-12T13:11:54Z</time>
      </trkpt>
      <trkpt lat="46.30833" lon="-0.33309">
        <ele>59.9802</ele>
        <time>2010-12-12T13:11:55Z</time>
      </trkpt>
      <trkpt lat="46.30833" lon="-0.33308">
        <ele>59.9679</ele>
        <time>2010-12-12T13:11:56Z</time>
      </trkpt>
      <trkpt lat="46.30833" lon="-0.33308">
        <ele>59.9529</ele>
        <time>2010-12-12T13:11:57Z</time>
      </trkpt>
      <trkpt lat="46.30834" lon="-0.33307">
        <ele>59.9362</ele>
        <time>2010-12-12T13:11:58Z</time>
      </trkpt>
      <trkpt lat="46.30835" lon="-0.33305">
        <ele>59.9203</ele>
        <time>2010-12-12T13:11:59Z</time>
      </trkpt>
      <trkpt lat="46.30836" lon="-0.33304">
        <ele>59.8947</ele>
        <time>2010-12-12T13:12:00Z</time>
      </trkpt>
      <trkpt lat="46.30837" lon="-0.33302">
        <ele>59.8673</ele>
        <time>2010-12-12T13:12:01Z</time>
      </trkpt>
      <trkpt lat="46.30838" lon="-0.33301">
        <ele>59.8372</ele>
        <time>2010-12-12T13:12:02Z</time>
      </trkpt>
      <trkpt lat="46.30839" lon="-0.333">
        <ele>59.81</ele>
        <time>2010-12-12T13:12:03Z</time>
      </trkpt>
      <trkpt lat="46.3084" lon="-0.333">
        <ele>59.7847</ele>
        <time>2010-12-12T13:12:04Z</time>
      </trkpt>
      <trkpt lat="46.30841" lon="-0.33299">
        <ele>59.7622</ele>
        <time>2010-12-12T13:12:05Z</time>
      </trkpt>
      <trkpt lat="46.30842" lon="-0.33298">
        <ele>59.7407</ele>
        <time>2010-12-12T13:12:06Z</time>
      </trkpt>
      <trkpt lat="46.30843" lon="-0.33297">
        <ele>59.7192</ele>
        <time>2010-12-12T13:12:07Z</time>
      </trkpt>
      <trkpt lat="46.30845" lon="-0.33296">
        <ele>59.6982</ele>
        <time>2010-12-12T13:12:08Z</time>
      </trkpt>
      <trkpt lat="46.30846" lon="-0.33295">
        <ele>59.6786</ele>
        <time>2010-12-12T13:12:09Z</time>
      </trkpt>
      <trkpt lat="46.30847" lon="-0.33294">
        <ele>59.6595</ele>
        <time>2010-12-12T13:12:10Z</time>
      </trkpt>
      <trkpt lat="46.30848" lon="-0.33293">
        <ele>59.6388</ele>
        <time>2010-12-12T13:12:11Z</time>
      </trkpt>
      <trkpt lat="46.30848" lon="-0.33292">
        <ele>59.6163</ele>
        <time>2010-12-12T13:12:12Z</time>
      </trkpt>
      <trkpt lat="46.30849" lon="-0.33291">
        <ele>59.5904</ele>
        <time>2010-12-12T13:12:13Z</time>
      </trkpt>
      <trkpt lat="46.3085" lon="-0.3329">
        <ele>59.5624</ele>
        <time>2010-12-12T13:12:14Z</time>
      </trkpt>
      <trkpt lat="46.30851" lon="-0.33289">
        <ele>59.5333</ele>
        <time>2010-12-12T13:12:15Z</time>
      </trkpt>
      <trkpt lat="46.30852" lon="-0.33288">
        <ele>59.5047</ele>
        <time>2010-12-12T13:12:16Z</time>
      </trkpt>
      <trkpt lat="46.30853" lon="-0.33287">
        <ele>59.4745</ele>
        <time>2010-12-12T13:12:17Z</time>
      </trkpt>
      <trkpt lat="46.30853" lon="-0.33286">
        <ele>59.4429</ele>
        <time>2010-12-12T13:12:18Z</time>
      </trkpt>
      <trkpt lat="46.30854" lon="-0.33285">
        <ele>59.4107</ele>
        <time>2010-12-12T13:12:19Z</time>
      </trkpt>
      <trkpt lat="46.30854" lon="-0.33284">
        <ele>59.3777</ele>
        <time>2010-12-12T13:12:20Z</time>
      </trkpt>
      <trkpt lat="46.30855" lon="-0.33283">
        <ele>59.3437</ele>
        <time>2010-12-12T13:12:21Z</time>
      </trkpt>
      <trkpt lat="46.30856" lon="-0.33282">
        <ele>59.31</ele>
        <time>2010-12-12T13:12:22Z</time>
      </trkpt>
      <trkpt lat="46.30857" lon="-0.33281">
        <ele>59.277</ele>
        <time>2010-12-12T13:12:22Z</time>
      </trkpt>
      <trkpt lat="46.30858" lon="-0.33279">
        <ele>59.2437</ele>
        <time>2010-12-12T13:12:24Z</time>
      </trkpt>
      <trkpt lat="46.30858" lon="-0.33278">
        <ele>59.2105</ele>
        <time>2010-12-12T13:12:25Z</time>
      </trkpt>
      <trkpt lat="46.30859" lon="-0.33277">
        <ele>59.1763</ele>
        <time>2010-12-12T13:12:26Z</time>
      </trkpt>
      <trkpt lat="46.3086" lon="-0.33276">
        <ele>59.1408</ele>
        <time>2010-12-12T13:12:27Z</time>
      </trkpt>
      <trkpt lat="46.30861" lon="-0.33275">
        <ele>59.1064</ele>
        <time>2010-12-12T13:12:28Z</time>
      </trkpt>
      <trkpt lat="46.30862" lon="-0.33274">
        <ele>59.0713</ele>
        <time>2010-12-12T13:12:29Z</time>
      </trkpt>
      <trkpt lat="46.30863" lon="-0.33273">
        <ele>59.0386</ele>
        <time>2010-12-12T13:12:30Z</time>
      </trkpt>
      <trkpt lat="46.30864" lon="-0.33271">
        <ele>59.0076</ele>
        <time>2010-12-12T13:12:31Z</time>
      </trkpt>
      <trkpt lat="46.30864" lon="-0.3327">
        <ele>58.977</ele>
        <time>2010-12-12T13:12:32Z</time>
      </trkpt>
      <trkpt lat="46.30865" lon="-0.33269">
        <ele>58.9467</ele>
        <time>2010-12-12T13:12:33Z</time>
      </trkpt>
      <trkpt lat="46.30866" lon="-0.33268">
        <ele>58.9174</ele>
        <time>2010-12-12T13:12:34Z</time>
      </trkpt>
      <trkpt lat="46.30867" lon="-0.33267">
        <ele>58.889</ele>
        <time>2010-12-12T13:12:35Z</time>
      </trkpt>
      <trkpt lat="46.30868" lon="-0.33266">
        <ele>58.8599</ele>
        <time>2010-12-12T13:12:36Z</time>
      </trkpt>
      <trkpt lat="46.30869" lon="-0.33265">
        <ele>58.8265</ele>
        <time>2010-12-12T13:12:37Z</time>
      </trkpt>
      <trkpt lat="46.3087" lon="-0.33264">
        <ele>58.794</ele>
        <time>2010-12-12T13:12:38Z</time>
      </trkpt>
      <trkpt lat="46.30872" lon="-0.33264">
        <ele>58.7619</ele>
        <time>2010-12-12T13:12:39Z</time>
      </trkpt>
      <trkpt lat="46.30872" lon="-0.33263">
        <ele>58.7305</ele>
        <time>2010-12-12T13:12:40Z</time>
      </trkpt>
      <trkpt lat="46.30874" lon="-0.33262">
        <ele>58.7008</ele>
        <time>2010-12-12T13:12:41Z</time>
      </trkpt>
      <trkpt lat="46.30874" lon="-0.33262">
        <ele>58.6719</ele>
        <time>2010-12-12T13:12:42Z</time>
      </trkpt>
      <trkpt lat="46.30875" lon="-0.33262">
        <ele>58.6439</ele>
        <time>2010-12-12T13:12:43Z</time>
      </trkpt>
      <trkpt lat="46.30876" lon="-0.33262">
        <ele>58.6159</ele>
        <time>2010-12-12T13:12:44Z</time>
      </trkpt>
      <trkpt lat="46.30877" lon="-0.33262">
        <ele>58.5888</ele>
        <time>2010-12-12T13:12:45Z</time>
      </trkpt>
      <trkpt lat="46.30878" lon="-0.33262">
        <ele>58.5622</ele>
        <time>2010-12-12T13:12:46Z</time>
      </trkpt>
      <trkpt lat="46.30879" lon="-0.33262">
        <ele>58.5364</ele>
        <time>2010-12-12T13:12:47Z</time>
      </trkpt>
      <trkpt lat="46.3088" lon="-0.33263">
        <ele>58.5116</ele>
        <time>2010-12-12T13:12:48Z</time>
      </trkpt>
      <trkpt lat="46.30881" lon="-0.33263">
        <ele>58.4872</ele>
        <time>2010-12-12T13:12:49Z</time>
      </trkpt>
      <trkpt lat="46.30882" lon="-0.33264">
        <ele>58.4627</ele>
        <time>2010-12-12T13:12:50Z</time>
      </trkpt>
      <trkpt lat="46.30883" lon="-0.33265">
        <ele>58.4365</ele>
        <time>2010-12-12T13:12:51Z</time>
      </trkpt>
      <trkpt lat="46.30883" lon="-0.33266">
        <ele>58.4105</ele>
        <time>2010-12-12T13:12:52Z</time>
      </trkpt>
      <trkpt lat="46.30884" lon="-0.33267">
        <ele>58.3836</ele>
        <time>2010-12-12T13:12:53Z</time>
      </trkpt>
      <trkpt lat="46.30885" lon="-0.33267">
        <ele>58.3576</ele>
        <time>2010-12-12T13:12:54Z</time>
      </trkpt>
      <trkpt lat="46.30886" lon="-0.33268">
        <ele>58.3294</ele>
        <time>2010-12-12T13:12:55Z</time>
      </trkpt>
      <trkpt lat="46.30887" lon="-0.33269">
        <ele>58.2986</ele>
        <time>2010-12-12T13:12:56Z</time>
      </trkpt>
      <trkpt lat="46.30888" lon="-0.3327">
        <ele>58.2666</ele>
        <time>2010-12-12T13:12:57Z</time>
      </trkpt>
      <trkpt lat="46.30888" lon="-0.33271">
        <ele>58.2371</ele>
        <time>2010-12-12T13:12:58Z</time>
      </trkpt>
      <trkpt lat="46.30889" lon="-0.33273">
        <ele>58.2095</ele>
        <time>2010-12-12T13:12:59Z</time>
      </trkpt>
      <trkpt lat="46.30889" lon="-0.33275">
        <ele>58.1834</ele>
        <time>2010-12-12T13:13:00Z</time>
      </trkpt>
      <trkpt lat="46.3089" lon="-0.33276">
        <ele>58.1583</ele>
        <time>2010-12-12T13:13:01Z</time>
      </trkpt>
      <trkpt lat="46.3089" lon="-0.33278">
        <ele>58.1338</ele>
        <time>2010-12-12T13:13:02Z</time>
      </trkpt>
      <trkpt lat="46.3089" lon="-0.33279">
        <ele>58.1097</ele>
        <time>2010-12-12T13:13:03Z</time>
      </trkpt>
      <trkpt lat="46.30891" lon="-0.33279">
        <ele>58.0826</ele>
        <time>2010-12-12T13:13:04Z</time>
      </trkpt>
      <trkpt lat="46.30893" lon="-0.33279">
        <ele>58.0538</ele>
        <time>2010-12-12T13:13:05Z</time>
      </trkpt>
      <trkpt lat="46.30894" lon="-0.3328">
        <ele>58.0266</ele>
        <time>2010-12-12T13:13:06Z</time>
      </trkpt>
      <trkpt lat="46.30895" lon="-0.33281">
        <ele>58.0009</ele>
        <time>2010-12-12T13:13:07Z</time>
      </trkpt>
      <trkpt lat="46.30896" lon="-0.33282">
        <ele>57.9687</ele>
        <time>2010-12-12T13:13:08Z</time>
      </trkpt>
      <trkpt lat="46.30897" lon="-0.33283">
        <ele>57.9327</ele>
        <time>2010-12-12T13:13:08Z</time>
      </trkpt>
      <trkpt lat="46.30898" lon="-0.33284">
        <ele>57.8932</ele>
        <time>2010-12-12T13:13:10Z</time>
      </trkpt>
      <trkpt lat="46.30898" lon="-0.33286">
        <ele>57.8509</ele>
        <time>2010-12-12T13:13:11Z</time>
      </trkpt>
      <trkpt lat="46.30899" lon="-0.33287">
        <ele>57.8069</ele>
        <time>2010-12-12T13:13:12Z</time>
      </trkpt>
      <trkpt lat="46.30899" lon="-0.33288">
        <ele>57.7629</ele>
        <time>2010-12-12T13:13:13Z</time>
      </trkpt>
      <trkpt lat="46.309" lon="-0.33289">
        <ele>57.7223</ele>
        <time>2010-12-12T13:13:14Z</time>
      </trkpt>
      <trkpt lat="46.30901" lon="-0.3329">
        <ele>57.6761</ele>
        <time>2010-12-12T13:13:15Z</time>
      </trkpt>
      <trkpt lat="46.30901" lon="-0.33293">
        <ele>57.6458</ele>
        <time>2010-12-12T13:13:16Z</time>
      </trkpt>
      <trkpt lat="46.30902" lon="-0.33295">
        <ele>57.6174</ele>
        <time>2010-12-12T13:13:16Z</time>
      </trkpt>
      <trkpt lat="46.30902" lon="-0.33296">
        <ele>57.5895</ele>
        <time>2010-12-12T13:13:18Z</time>
      </trkpt>
      <trkpt lat="46.30902" lon="-0.33298">
        <ele>57.5601</ele>
        <time>2010-12-12T13:13:19Z</time>
      </trkpt>
      <trkpt lat="46.30903" lon="-0.333">
        <ele>57.5373</ele>
        <time>2010-12-12T13:13:20Z</time>
      </trkpt>
      <trkpt lat="46.30903" lon="-0.33302">
        <ele>57.5143</ele>
        <time>2010-12-12T13:13:21Z</time>
      </trkpt>
      <trkpt lat="46.30903" lon="-0.33304">
        <ele>57.4971</ele>
        <time>2010-12-12T13:13:22Z</time>
      </trkpt>
      <trkpt lat="46.30903" lon="-0.33306">
        <ele>57.4903</ele>
        <time>2010-12-12T13:13:23Z</time>
      </trkpt>
      <trkpt lat="46.30903" lon="-0.33308">
        <ele>57.492</ele>
        <time>2010-12-12T13:13:24Z</time>
      </trkpt>
      <trkpt lat="46.30903" lon="-0.3331">
        <ele>57.4951</ele>
        <time>2010-12-12T13:13:25Z</time>
      </trkpt>
      <trkpt lat="46.30903" lon="-0.33313">
        <ele>57.5122</ele>
        <time>2010-12-12T13:13:26Z</time>
      </trkpt>
      <trkpt lat="46.30903" lon="-0.33314">
        <ele>57.534</ele>
        <time>2010-12-12T13:13:27Z</time>
      </trkpt>
      <trkpt lat="46.30904" lon="-0.33316">
        <ele>57.5602</ele>
        <time>2010-12-12T13:13:28Z</time>
      </trkpt>
      <trkpt lat="46.30904" lon="-0.33317">
        <ele>57.5953</ele>
        <time>2010-12-12T13:13:29Z</time>
      </trkpt>
      <trkpt lat="46.30904" lon="-0.33318">
        <ele>57.629</ele>
        <time>2010-12-12T13:13:30Z</time>
      </trkpt>
      <trkpt lat="46.30904" lon="-0.33319">
        <ele>57.6664</ele>
        <time>2010-12-12T13:13:31Z</time>
      </trkpt>
      <trkpt lat="46.30905" lon="-0.33321">
        <ele>57.7003</ele>
        <time>2010-12-12T13:13:32Z</time>
      </trkpt>
      <trkpt lat="46.30905" lon="-0.33322">
        <ele>57.7325</ele>
        <time>2010-12-12T13:13:33Z</time>
      </trkpt>
      <trkpt lat="46.30905" lon="-0.33323">
        <ele>57.7648</ele>
        <time>2010-12-12T13:13:34Z</time>
      </trkpt>
      <trkpt lat="46.30906" lon="-0.33324">
        <ele>57.7995</ele>
        <time>2010-12-12T13:13:35Z</time>
      </trkpt>
      <trkpt lat="46.30907" lon="-0.33326">
        <ele>57.8348</ele>
        <time>2010-12-12T13:13:36Z</time>
      </trkpt>
      <trkpt lat="46.30907" lon="-0.33327">
        <ele>57.8721</ele>
        <time>2010-12-12T13:13:37Z</time>
      </trkpt>
      <trkpt lat="46.30907" lon="-0.33329">
        <ele>57.9086</ele>
        <time>2010-12-12T13:13:38Z</time>
      </trkpt>
      <trkpt lat="46.30907" lon="-0.33331">
        <ele>57.9453</ele>
        <time>2010-12-12T13:13:39Z</time>
      </trkpt>
      <trkpt lat="46.30908" lon="-0.33332">
        <ele>57.9836</ele>
        <time>2010-12-12T13:13:40Z</time>
      </trkpt>
      <trkpt lat="46.30909" lon="-0.33334">
        <ele>58.0209</ele>
        <time>2010-12-12T13:13:41Z</time>
      </trkpt>
      <trkpt lat="46.30909" lon="-0.33335">
        <ele>58.0609</ele>
        <time>2010-12-12T13:13:42Z</time>
      </trkpt>
      <trkpt lat="46.30909" lon="-0.33337">
        <ele>58.0973</ele>
        <time>2010-12-12T13:13:43Z</time>
      </trkpt>
      <trkpt lat="46.3091" lon="-0.33338">
        <ele>58.1287</ele>
        <time>2010-12-12T13:13:44Z</time>
      </trkpt>
      <trkpt lat="46.30911" lon="-0.3334">
        <ele>58.1548</ele>
        <time>2010-12-12T13:13:45Z</time>
      </trkpt>
      <trkpt lat="46.30911" lon="-0.33341">
        <ele>58.1729</ele>
        <time>2010-12-12T13:13:46Z</time>
      </trkpt>
      <trkpt lat="46.30911" lon="-0.33342">
        <ele>58.1875</ele>
        <time>2010-12-12T13:13:47Z</time>
      </trkpt>
      <trkpt lat="46.30911" lon="-0.33343">
        <ele>58.2006</ele>
        <time>2010-12-12T13:13:48Z</time>
      </trkpt>
      <trkpt lat="46.30911" lon="-0.33344">
        <ele>58.2118</ele>
        <time>2010-12-12T13:13:48Z</time>
      </trkpt>
      <trkpt lat="46.30911" lon="-0.33346">
        <ele>58.2225</ele>
        <time>2010-12-12T13:13:50Z</time>
      </trkpt>
      <trkpt lat="46.30911" lon="-0.33347">
        <ele>58.2321</ele>
        <time>2010-12-12T13:13:51Z</time>
      </trkpt>
      <trkpt lat="46.30912" lon="-0.33348">
        <ele>58.2387</ele>
        <time>2010-12-12T13:13:52Z</time>
      </trkpt>
      <trkpt lat="46.30912" lon="-0.33349">
        <ele>58.2442</ele>
        <time>2010-12-12T13:13:53Z</time>
      </trkpt>
      <trkpt lat="46.30913" lon="-0.33351">
        <ele>58.2418</ele>
        <time>2010-12-12T13:13:54Z</time>
      </trkpt>
      <trkpt lat="46.30913" lon="-0.33352">
        <ele>58.2309</ele>
        <time>2010-12-12T13:13:55Z</time>
      </trkpt>
      <trkpt lat="46.30914" lon="-0.33353">
        <ele>58.2148</ele>
        <time>2010-12-12T13:13:56Z</time>
      </trkpt>
      <trkpt lat="46.30914" lon="-0.33355">
        <ele>58.2001</ele>
        <time>2010-12-12T13:13:57Z</time>
      </trkpt>
      <trkpt lat="46.30914" lon="-0.33356">
        <ele>58.184</ele>
        <time>2010-12-12T13:13:58Z</time>
      </trkpt>
      <trkpt lat="46.30915" lon="-0.33357">
        <ele>58.168</ele>
        <time>2010-12-12T13:13:59Z</time>
      </trkpt>
      <trkpt lat="46.30915" lon="-0.33359">
        <ele>58.1521</ele>
        <time>2010-12-12T13:14:00Z</time>
      </trkpt>
      <trkpt lat="46.30915" lon="-0.3336">
        <ele>58.1374</ele>
        <time>2010-12-12T13:14:01Z</time>
      </trkpt>
      <trkpt lat="46.30916" lon="-0.33362">
        <ele>58.1269</ele>
        <time>2010-12-12T13:14:02Z</time>
      </trkpt>
      <trkpt lat="46.30916" lon="-0.33364">
        <ele>58.1182</ele>
        <time>2010-12-12T13:14:03Z</time>
      </trkpt>
      <trkpt lat="46.30916" lon="-0.33366">
        <ele>58.1115</ele>
        <time>2010-12-12T13:14:04Z</time>
      </trkpt>
      <trkpt lat="46.30916" lon="-0.33367">
        <ele>58.1083</ele>
        <time>2010-12-12T13:14:05Z</time>
      </trkpt>
      <trkpt lat="46.30916" lon="-0.33369">
        <ele>58.1076</ele>
        <time>2010-12-12T13:14:06Z</time>
      </trkpt>
      <trkpt lat="46.30916" lon="-0.3337">
        <ele>58.1098</ele>
        <time>2010-12-12T13:14:07Z</time>
      </trkpt>
      <trkpt lat="46.30916" lon="-0.33372">
        <ele>58.1115</ele>
        <time>2010-12-12T13:14:08Z</time>
      </trkpt>
      <trkpt lat="46.30917" lon="-0.33373">
        <ele>58.1143</ele>
        <time>2010-12-12T13:14:09Z</time>
      </trkpt>
      <trkpt lat="46.30917" lon="-0.33374">
        <ele>58.1169</ele>
        <time>2010-12-12T13:14:10Z</time>
      </trkpt>
      <trkpt lat="46.30917" lon="-0.33375">
        <ele>58.1195</ele>
        <time>2010-12-12T13:14:11Z</time>
      </trkpt>
      <trkpt lat="46.30918" lon="-0.33376">
        <ele>58.1254</ele>
        <time>2010-12-12T13:14:12Z</time>
      </trkpt>
      <trkpt lat="46.30918" lon="-0.33377">
        <ele>58.1311</ele>
        <time>2010-12-12T13:14:13Z</time>
      </trkpt>
      <trkpt lat="46.30919" lon="-0.33378">
        <ele>58.1327</ele>
        <time>2010-12-12T13:14:14Z</time>
      </trkpt>
      <trkpt lat="46.30919" lon="-0.33379">
        <ele>58.1346</ele>
        <time>2010-12-12T13:14:15Z</time>
      </trkpt>
      <trkpt lat="46.30919" lon="-0.3338">
        <ele>58.1371</ele>
        <time>2010-12-12T13:14:16Z</time>
      </trkpt>
      <trkpt lat="46.3092" lon="-0.33381">
        <ele>58.1371</ele>
        <time>2010-12-12T13:14:16Z</time>
      </trkpt>
      <trkpt lat="46.3092" lon="-0.33382">
        <ele>58.1371</ele>
        <time>2010-12-12T13:14:18Z</time>
      </trkpt>
      <trkpt lat="46.3092" lon="-0.33383">
        <ele>58.1363</ele>
        <time>2010-12-12T13:14:19Z</time>
      </trkpt>
      <trkpt lat="46.3092" lon="-0.33385">
        <ele>58.1366</ele>
        <time>2010-12-12T13:14:20Z</time>
      </trkpt>
      <trkpt lat="46.30921" lon="-0.33387">
        <ele>58.1406</ele>
        <time>2010-12-12T13:14:21Z</time>
      </trkpt>
      <trkpt lat="46.30921" lon="-0.33388">
        <ele>58.1448</ele>
        <time>2010-12-12T13:14:21Z</time>
      </trkpt>
      <trkpt lat="46.30922" lon="-0.3339">
        <ele>58.1491</ele>
        <time>2010-12-12T13:14:23Z</time>
      </trkpt>
      <trkpt lat="46.30922" lon="-0.33391">
        <ele>58.1487</ele>
        <time>2010-12-12T13:14:24Z</time>
      </trkpt>
      <trkpt lat="46.30922" lon="-0.33392">
        <ele>58.1439</ele>
        <time>2010-12-12T13:14:25Z</time>
      </trkpt>
      <trkpt lat="46.30923" lon="-0.33394">
        <ele>58.133</ele>
        <time>2010-12-12T13:14:26Z</time>
      </trkpt>
      <trkpt lat="46.30924" lon="-0.33395">
        <ele>58.1174</ele>
        <time>2010-12-12T13:14:27Z</time>
      </trkpt>
      <trkpt lat="46.30924" lon="-0.33396">
        <ele>58.1012</ele>
        <time>2010-12-12T13:14:28Z</time>
      </trkpt>
      <trkpt lat="46.30925" lon="-0.33397">
        <ele>58.0838</ele>
        <time>2010-12-12T13:14:29Z</time>
      </trkpt>
      <trkpt lat="46.30925" lon="-0.33398">
        <ele>58.0678</ele>
        <time>2010-12-12T13:14:30Z</time>
      </trkpt>
      <trkpt lat="46.30925" lon="-0.33399">
        <ele>58.0522</ele>
        <time>2010-12-12T13:14:31Z</time>
      </trkpt>
      <trkpt lat="46.30926" lon="-0.334">
        <ele>58.0385</ele>
        <time>2010-12-12T13:14:32Z</time>
      </trkpt>
      <trkpt lat="46.30926" lon="-0.33402">
        <ele>58.0264</ele>
        <time>2010-12-12T13:14:33Z</time>
      </trkpt>
      <trkpt lat="46.30927" lon="-0.33403">
        <ele>58.0126</ele>
        <time>2010-12-12T13:14:34Z</time>
      </trkpt>
      <trkpt lat="46.30927" lon="-0.33404">
        <ele>57.9992</ele>
        <time>2010-12-12T13:14:35Z</time>
      </trkpt>
      <trkpt lat="46.30928" lon="-0.33404">
        <ele>57.9842</ele>
        <time>2010-12-12T13:14:36Z</time>
      </trkpt>
      <trkpt lat="46.30928" lon="-0.33405">
        <ele>57.9698</ele>
        <time>2010-12-12T13:14:37Z</time>
      </trkpt>
      <trkpt lat="46.30929" lon="-0.33406">
        <ele>57.9519</ele>
        <time>2010-12-12T13:14:38Z</time>
      </trkpt>
      <trkpt lat="46.3093" lon="-0.33407">
        <ele>57.9295</ele>
        <time>2010-12-12T13:14:39Z</time>
      </trkpt>
      <trkpt lat="46.30931" lon="-0.33408">
        <ele>57.9022</ele>
        <time>2010-12-12T13:14:40Z</time>
      </trkpt>
      <trkpt lat="46.30932" lon="-0.33409">
        <ele>57.8714</ele>
        <time>2010-12-12T13:14:41Z</time>
      </trkpt>
      <trkpt lat="46.30932" lon="-0.33411">
        <ele>57.8381</ele>
        <time>2010-12-12T13:14:42Z</time>
      </trkpt>
      <trkpt lat="46.30932" lon="-0.33412">
        <ele>57.8054</ele>
        <time>2010-12-12T13:14:43Z</time>
      </trkpt>
      <trkpt lat="46.30933" lon="-0.33413">
        <ele>57.7741</ele>
        <time>2010-12-12T13:14:43Z</time>
      </trkpt>
      <trkpt lat="46.30933" lon="-0.33414">
        <ele>57.7428</ele>
        <time>2010-12-12T13:14:45Z</time>
      </trkpt>
      <trkpt lat="46.30933" lon="-0.33415">
        <ele>57.7132</ele>
        <time>2010-12-12T13:14:46Z</time>
      </trkpt>
      <trkpt lat="46.30934" lon="-0.33417">
        <ele>57.6832</ele>
        <time>2010-12-12T13:14:47Z</time>
      </trkpt>
      <trkpt lat="46.30935" lon="-0.33418">
        <ele>57.6547</ele>
        <time>2010-12-12T13:14:48Z</time>
      </trkpt>
      <trkpt lat="46.30935" lon="-0.33419">
        <ele>57.6289</ele>
        <time>2010-12-12T13:14:49Z</time>
      </trkpt>
      <trkpt lat="46.30935" lon="-0.3342">
        <ele>57.6033</ele>
        <time>2010-12-12T13:14:50Z</time>
      </trkpt>
      <trkpt lat="46.30936" lon="-0.33422">
        <ele>57.5796</ele>
        <time>2010-12-12T13:14:51Z</time>
      </trkpt>
      <trkpt lat="46.30936" lon="-0.33424">
        <ele>57.5528</ele>
        <time>2010-12-12T13:14:51Z</time>
      </trkpt>
      <trkpt lat="46.30936" lon="-0.33425">
        <ele>57.5265</ele>
        <time>2010-12-12T13:14:52Z</time>
      </trkpt>
      <trkpt lat="46.30936" lon="-0.33428">
        <ele>57.5001</ele>
        <time>2010-12-12T13:14:54Z</time>
      </trkpt>
      <trkpt lat="46.30936" lon="-0.33429">
        <ele>57.4743</ele>
        <time>2010-12-12T13:14:55Z</time>
      </trkpt>
      <trkpt lat="46.30936" lon="-0.33431">
        <ele>57.4494</ele>
        <time>2010-12-12T13:14:56Z</time>
      </trkpt>
      <trkpt lat="46.30937" lon="-0.33433">
        <ele>57.4272</ele>
        <time>2010-12-12T13:14:57Z</time>
      </trkpt>
      <trkpt lat="46.30937" lon="-0.33434">
        <ele>57.4065</ele>
        <time>2010-12-12T13:14:58Z</time>
      </trkpt>
      <trkpt lat="46.30938" lon="-0.33435">
        <ele>57.3849</ele>
        <time>2010-12-12T13:14:59Z</time>
      </trkpt>
      <trkpt lat="46.30939" lon="-0.33436">
        <ele>57.364</ele>
        <time>2010-12-12T13:15:00Z</time>
      </trkpt>
      <trkpt lat="46.3094" lon="-0.33438">
        <ele>57.3434</ele>
        <time>2010-12-12T13:15:01Z</time>
      </trkpt>
      <trkpt lat="46.3094" lon="-0.33439">
        <ele>57.3203</ele>
        <time>2010-12-12T13:15:02Z</time>
      </trkpt>
      <trkpt lat="46.30941" lon="-0.3344">
        <ele>57.2953</ele>
        <time>2010-12-12T13:15:03Z</time>
      </trkpt>
      <trkpt lat="46.30941" lon="-0.33442">
        <ele>57.2693</ele>
        <time>2010-12-12T13:15:04Z</time>
      </trkpt>
      <trkpt lat="46.30941" lon="-0.33444">
        <ele>57.2445</ele>
        <time>2010-12-12T13:15:05Z</time>
      </trkpt>
      <trkpt lat="46.30941" lon="-0.33446">
        <ele>57.2211</ele>
        <time>2010-12-12T13:15:06Z</time>
      </trkpt>
      <trkpt lat="46.30942" lon="-0.33448">
        <ele>57.2027</ele>
        <time>2010-12-12T13:15:07Z</time>
      </trkpt>
      <trkpt lat="46.30942" lon="-0.33449">
        <ele>57.185</ele>
        <time>2010-12-12T13:15:08Z</time>
      </trkpt>
      <trkpt lat="46.30942" lon="-0.3345">
        <ele>57.1678</ele>
        <time>2010-12-12T13:15:09Z</time>
      </trkpt>
      <trkpt lat="46.30943" lon="-0.33452">
        <ele>57.1518</ele>
        <time>2010-12-12T13:15:10Z</time>
      </trkpt>
      <trkpt lat="46.30943" lon="-0.33453">
        <ele>57.1359</ele>
        <time>2010-12-12T13:15:11Z</time>
      </trkpt>
      <trkpt lat="46.30943" lon="-0.33454">
        <ele>57.1232</ele>
        <time>2010-12-12T13:15:12Z</time>
      </trkpt>
      <trkpt lat="46.30943" lon="-0.33455">
        <ele>57.1108</ele>
        <time>2010-12-12T13:15:13Z</time>
      </trkpt>
      <trkpt lat="46.30944" lon="-0.33456">
        <ele>57.0999</ele>
        <time>2010-12-12T13:15:14Z</time>
      </trkpt>
      <trkpt lat="46.30944" lon="-0.33458">
        <ele>57.0884</ele>
        <time>2010-12-12T13:15:15Z</time>
      </trkpt>
      <trkpt lat="46.30945" lon="-0.33459">
        <ele>57.0765</ele>
        <time>2010-12-12T13:15:16Z</time>
      </trkpt>
      <trkpt lat="46.30945" lon="-0.3346">
        <ele>57.0608</ele>
        <time>2010-12-12T13:15:17Z</time>
      </trkpt>
      <trkpt lat="46.30945" lon="-0.33461">
        <ele>57.0463</ele>
        <time>2010-12-12T13:15:18Z</time>
      </trkpt>
      <trkpt lat="46.30946" lon="-0.33462">
        <ele>57.0334</ele>
        <time>2010-12-12T13:15:19Z</time>
      </trkpt>
      <trkpt lat="46.30946" lon="-0.33464">
        <ele>57.0225</ele>
        <time>2010-12-12T13:15:20Z</time>
      </trkpt>
      <trkpt lat="46.30946" lon="-0.33465">
        <ele>57.0075</ele>
        <time>2010-12-12T13:15:21Z</time>
      </trkpt>
      <trkpt lat="46.30946" lon="-0.33466">
        <ele>56.9935</ele>
        <time>2010-12-12T13:15:21Z</time>
      </trkpt>
      <trkpt lat="46.30947" lon="-0.33468">
        <ele>56.9832</ele>
        <time>2010-12-12T13:15:23Z</time>
      </trkpt>
      <trkpt lat="46.30947" lon="-0.3347">
        <ele>56.9747</ele>
        <time>2010-12-12T13:15:24Z</time>
      </trkpt>
      <trkpt lat="46.30947" lon="-0.33471">
        <ele>56.9699</ele>
        <time>2010-12-12T13:15:25Z</time>
      </trkpt>
      <trkpt lat="46.30948" lon="-0.33472">
        <ele>56.9686</ele>
        <time>2010-12-12T13:15:26Z</time>
      </trkpt>
      <trkpt lat="46.30948" lon="-0.33474">
        <ele>56.9719</ele>
        <time>2010-12-12T13:15:27Z</time>
      </trkpt>
      <trkpt lat="46.30948" lon="-0.33475">
        <ele>56.9798</ele>
        <time>2010-12-12T13:15:28Z</time>
      </trkpt>
      <trkpt lat="46.30948" lon="-0.33476">
        <ele>56.9877</ele>
        <time>2010-12-12T13:15:29Z</time>
      </trkpt>
      <trkpt lat="46.30948" lon="-0.33478">
        <ele>56.9988</ele>
        <time>2010-12-12T13:15:30Z</time>
      </trkpt>
      <trkpt lat="46.30948" lon="-0.33479">
        <ele>57.0117</ele>
        <time>2010-12-12T13:15:31Z</time>
      </trkpt>
      <trkpt lat="46.30949" lon="-0.33481">
        <ele>57.0279</ele>
        <time>2010-12-12T13:15:32Z</time>
      </trkpt>
      <trkpt lat="46.30949" lon="-0.33481">
        <ele>57.0444</ele>
        <time>2010-12-12T13:15:33Z</time>
      </trkpt>
      <trkpt lat="46.3095" lon="-0.33482">
        <ele>57.0624</ele>
        <time>2010-12-12T13:15:34Z</time>
      </trkpt>
      <trkpt lat="46.3095" lon="-0.33484">
        <ele>57.1214</ele>
        <time>2010-12-12T13:15:39Z</time>
      </trkpt>
      <trkpt lat="46.30951" lon="-0.33485">
        <ele>57.1439</ele>
        <time>2010-12-12T13:15:40Z</time>
      </trkpt>
      <trkpt lat="46.30951" lon="-0.33485">
        <ele>57.1656</ele>
        <time>2010-12-12T13:15:41Z</time>
      </trkpt>
      <trkpt lat="46.30951" lon="-0.33486">
        <ele>57.1856</ele>
        <time>2010-12-12T13:15:42Z</time>
      </trkpt>
      <trkpt lat="46.30951" lon="-0.33488">
        <ele>57.2064</ele>
        <time>2010-12-12T13:15:43Z</time>
      </trkpt>
      <trkpt lat="46.30952" lon="-0.33489">
        <ele>57.2271</ele>
        <time>2010-12-12T13:15:44Z</time>
      </trkpt>
      <trkpt lat="46.30952" lon="-0.3349">
        <ele>57.2453</ele>
        <time>2010-12-12T13:15:45Z</time>
      </trkpt>
      <trkpt lat="46.30953" lon="-0.33492">
        <ele>57.2612</ele>
        <time>2010-12-12T13:15:46Z</time>
      </trkpt>
      <trkpt lat="46.30953" lon="-0.33493">
        <ele>57.2771</ele>
        <time>2010-12-12T13:15:47Z</time>
      </trkpt>
      <trkpt lat="46.30954" lon="-0.33494">
        <ele>57.2947</ele>
        <time>2010-12-12T13:15:48Z</time>
      </trkpt>
      <trkpt lat="46.30954" lon="-0.33495">
        <ele>57.3119</ele>
        <time>2010-12-12T13:15:49Z</time>
      </trkpt>
      <trkpt lat="46.30955" lon="-0.33497">
        <ele>57.3254</ele>
        <time>2010-12-12T13:15:50Z</time>
      </trkpt>
      <trkpt lat="46.30956" lon="-0.33498">
        <ele>57.3365</ele>
        <time>2010-12-12T13:15:51Z</time>
      </trkpt>
      <trkpt lat="46.30956" lon="-0.335">
        <ele>57.3456</ele>
        <time>2010-12-12T13:15:51Z</time>
      </trkpt>
      <trkpt lat="46.30956" lon="-0.33502">
        <ele>57.3497</ele>
        <time>2010-12-12T13:15:53Z</time>
      </trkpt>
      <trkpt lat="46.30957" lon="-0.33503">
        <ele>57.3499</ele>
        <time>2010-12-12T13:15:54Z</time>
      </trkpt>
      <trkpt lat="46.30957" lon="-0.33505">
        <ele>57.3459</ele>
        <time>2010-12-12T13:15:55Z</time>
      </trkpt>
      <trkpt lat="46.30957" lon="-0.33506">
        <ele>57.3405</ele>
        <time>2010-12-12T13:15:56Z</time>
      </trkpt>
      <trkpt lat="46.30956" lon="-0.33509">
        <ele>57.3346</ele>
        <time>2010-12-12T13:15:57Z</time>
      </trkpt>
      <trkpt lat="46.30956" lon="-0.33511">
        <ele>57.3273</ele>
        <time>2010-12-12T13:15:58Z</time>
      </trkpt>
      <trkpt lat="46.30956" lon="-0.33513">
        <ele>57.3212</ele>
        <time>2010-12-12T13:15:59Z</time>
      </trkpt>
      <trkpt lat="46.30956" lon="-0.33514">
        <ele>57.3172</ele>
        <time>2010-12-12T13:16:00Z</time>
      </trkpt>
      <trkpt lat="46.30956" lon="-0.33516">
        <ele>57.317</ele>
        <time>2010-12-12T13:16:01Z</time>
      </trkpt>
      <trkpt lat="46.30956" lon="-0.33518">
        <ele>57.3218</ele>
        <time>2010-12-12T13:16:02Z</time>
      </trkpt>
      <trkpt lat="46.30956" lon="-0.33519">
        <ele>57.3283</ele>
        <time>2010-12-12T13:16:03Z</time>
      </trkpt>
      <trkpt lat="46.30957" lon="-0.33521">
        <ele>57.3413</ele>
        <time>2010-12-12T13:16:04Z</time>
      </trkpt>
      <trkpt lat="46.30957" lon="-0.33522">
        <ele>57.3602</ele>
        <time>2010-12-12T13:16:04Z</time>
      </trkpt>
      <trkpt lat="46.30957" lon="-0.33523">
        <ele>57.3851</ele>
        <time>2010-12-12T13:16:05Z</time>
      </trkpt>
      <trkpt lat="46.30958" lon="-0.33525">
        <ele>57.4122</ele>
        <time>2010-12-12T13:16:06Z</time>
      </trkpt>
      <trkpt lat="46.30958" lon="-0.33526">
        <ele>57.441</ele>
        <time>2010-12-12T13:16:07Z</time>
      </trkpt>
      <trkpt lat="46.30958" lon="-0.33528">
        <ele>57.4728</ele>
        <time>2010-12-12T13:16:08Z</time>
      </trkpt>
      <trkpt lat="46.30959" lon="-0.33529">
        <ele>57.5052</ele>
        <time>2010-12-12T13:16:09Z</time>
      </trkpt>
      <trkpt lat="46.30959" lon="-0.33531">
        <ele>57.5381</ele>
        <time>2010-12-12T13:16:11Z</time>
      </trkpt>
      <trkpt lat="46.30959" lon="-0.33532">
        <ele>57.5695</ele>
        <time>2010-12-12T13:16:12Z</time>
      </trkpt>
      <trkpt lat="46.30959" lon="-0.33533">
        <ele>57.601</ele>
        <time>2010-12-12T13:16:13Z</time>
      </trkpt>
      <trkpt lat="46.3096" lon="-0.33534">
        <ele>57.6329</ele>
        <time>2010-12-12T13:16:14Z</time>
      </trkpt>
      <trkpt lat="46.3096" lon="-0.33535">
        <ele>57.6634</ele>
        <time>2010-12-12T13:16:14Z</time>
      </trkpt>
      <trkpt lat="46.30961" lon="-0.33536">
        <ele>57.693</ele>
        <time>2010-12-12T13:16:16Z</time>
      </trkpt>
      <trkpt lat="46.30961" lon="-0.33537">
        <ele>57.721</ele>
        <time>2010-12-12T13:16:16Z</time>
      </trkpt>
      <trkpt lat="46.30962" lon="-0.33539">
        <ele>57.7484</ele>
        <time>2010-12-12T13:16:18Z</time>
      </trkpt>
      <trkpt lat="46.30962" lon="-0.3354">
        <ele>57.7766</ele>
        <time>2010-12-12T13:16:19Z</time>
      </trkpt>
      <trkpt lat="46.30962" lon="-0.33541">
        <ele>57.8067</ele>
        <time>2010-12-12T13:16:20Z</time>
      </trkpt>
      <trkpt lat="46.30962" lon="-0.33543">
        <ele>57.8377</ele>
        <time>2010-12-12T13:16:20Z</time>
      </trkpt>
      <trkpt lat="46.30962" lon="-0.33544">
        <ele>57.8694</ele>
        <time>2010-12-12T13:16:21Z</time>
      </trkpt>
      <trkpt lat="46.30962" lon="-0.33545">
        <ele>57.901</ele>
        <time>2010-12-12T13:16:23Z</time>
      </trkpt>
      <trkpt lat="46.30963" lon="-0.33547">
        <ele>57.9334</ele>
        <time>2010-12-12T13:16:24Z</time>
      </trkpt>
      <trkpt lat="46.30964" lon="-0.33548">
        <ele>57.9664</ele>
        <time>2010-12-12T13:16:25Z</time>
      </trkpt>
      <trkpt lat="46.30964" lon="-0.33549">
        <ele>58.0006</ele>
        <time>2010-12-12T13:16:26Z</time>
      </trkpt>
      <trkpt lat="46.30965" lon="-0.33551">
        <ele>58.0353</ele>
        <time>2010-12-12T13:16:27Z</time>
      </trkpt>
      <trkpt lat="46.30965" lon="-0.33552">
        <ele>58.0693</ele>
        <time>2010-12-12T13:16:28Z</time>
      </trkpt>
      <trkpt lat="46.30965" lon="-0.33554">
        <ele>58.103</ele>
        <time>2010-12-12T13:16:29Z</time>
      </trkpt>
      <trkpt lat="46.30966" lon="-0.33555">
        <ele>58.1374</ele>
        <time>2010-12-12T13:16:30Z</time>
      </trkpt>
      <trkpt lat="46.30967" lon="-0.33556">
        <ele>58.1719</ele>
        <time>2010-12-12T13:16:31Z</time>
      </trkpt>
      <trkpt lat="46.30967" lon="-0.33557">
        <ele>58.2042</ele>
        <time>2010-12-12T13:16:32Z</time>
      </trkpt>
      <trkpt lat="46.30968" lon="-0.33558">
        <ele>58.2349</ele>
        <time>2010-12-12T13:16:32Z</time>
      </trkpt>
      <trkpt lat="46.30968" lon="-0.3356">
        <ele>58.2656</ele>
        <time>2010-12-12T13:16:33Z</time>
      </trkpt>
      <trkpt lat="46.30968" lon="-0.33561">
        <ele>58.293</ele>
        <time>2010-12-12T13:16:34Z</time>
      </trkpt>
      <trkpt lat="46.30969" lon="-0.33563">
        <ele>58.32</ele>
        <time>2010-12-12T13:16:36Z</time>
      </trkpt>
      <trkpt lat="46.30969" lon="-0.33564">
        <ele>58.3419</ele>
        <time>2010-12-12T13:16:36Z</time>
      </trkpt>
      <trkpt lat="46.30969" lon="-0.33566">
        <ele>58.3599</ele>
        <time>2010-12-12T13:16:38Z</time>
      </trkpt>
      <trkpt lat="46.30969" lon="-0.33567">
        <ele>58.3744</ele>
        <time>2010-12-12T13:16:39Z</time>
      </trkpt>
      <trkpt lat="46.30969" lon="-0.33569">
        <ele>58.3859</ele>
        <time>2010-12-12T13:16:40Z</time>
      </trkpt>
      <trkpt lat="46.30969" lon="-0.33571">
        <ele>58.3955</ele>
        <time>2010-12-12T13:16:41Z</time>
      </trkpt>
      <trkpt lat="46.3097" lon="-0.33572">
        <ele>58.4051</ele>
        <time>2010-12-12T13:16:41Z</time>
      </trkpt>
      <trkpt lat="46.3097" lon="-0.33574">
        <ele>58.4147</ele>
        <time>2010-12-12T13:16:42Z</time>
      </trkpt>
      <trkpt lat="46.3097" lon="-0.33575">
        <ele>58.4222</ele>
        <time>2010-12-12T13:16:44Z</time>
      </trkpt>
      <trkpt lat="46.30971" lon="-0.33577">
        <ele>58.43</ele>
        <time>2010-12-12T13:16:44Z</time>
      </trkpt>
      <trkpt lat="46.30971" lon="-0.33578">
        <ele>58.4366</ele>
        <time>2010-12-12T13:16:45Z</time>
      </trkpt>
      <trkpt lat="46.30971" lon="-0.33578">
        <ele>58.4413</ele>
        <time>2010-12-12T13:16:47Z</time>
      </trkpt>
      <trkpt lat="46.30971" lon="-0.33579">
        <ele>58.4435</ele>
        <time>2010-12-12T13:16:47Z</time>
      </trkpt>
      <trkpt lat="46.30971" lon="-0.3358">
        <ele>58.4441</ele>
        <time>2010-12-12T13:16:48Z</time>
      </trkpt>
      <trkpt lat="46.30972" lon="-0.33581">
        <ele>58.4393</ele>
        <time>2010-12-12T13:16:50Z</time>
      </trkpt>
      <trkpt lat="46.30972" lon="-0.33583">
        <ele>58.4323</ele>
        <time>2010-12-12T13:16:51Z</time>
      </trkpt>
      <trkpt lat="46.30972" lon="-0.33584">
        <ele>58.4236</ele>
        <time>2010-12-12T13:16:51Z</time>
      </trkpt>
      <trkpt lat="46.30972" lon="-0.33587">
        <ele>58.4071</ele>
        <time>2010-12-12T13:16:56Z</time>
      </trkpt>
      <trkpt lat="46.30973" lon="-0.33589">
        <ele>58.3943</ele>
        <time>2010-12-12T13:16:58Z</time>
      </trkpt>
      <trkpt lat="46.30973" lon="-0.3359">
        <ele>58.3804</ele>
        <time>2010-12-12T13:16:59Z</time>
      </trkpt>
      <trkpt lat="46.30973" lon="-0.33591">
        <ele>58.3655</ele>
        <time>2010-12-12T13:17:00Z</time>
      </trkpt>
      <trkpt lat="46.30973" lon="-0.33593">
        <ele>58.3505</ele>
        <time>2010-12-12T13:17:01Z</time>
      </trkpt>
      <trkpt lat="46.30974" lon="-0.33595">
        <ele>58.3364</ele>
        <time>2010-12-12T13:17:01Z</time>
      </trkpt>
      <trkpt lat="46.30975" lon="-0.33596">
        <ele>58.3897</ele>
        <time>2010-12-12T13:17:02Z</time>
      </trkpt>
      <trkpt lat="46.30977" lon="-0.33595">
        <ele>58.7151</ele>
        <time>2010-12-12T13:17:04Z</time>
      </trkpt>
      <trkpt lat="46.3098" lon="-0.33593">
        <ele>59.48</ele>
        <time>2010-12-12T13:17:04Z</time>
      </trkpt>
      <trkpt lat="46.30983" lon="-0.33592">
        <ele>60.3003</ele>
        <time>2010-12-12T13:17:05Z</time>
      </trkpt>
      <trkpt lat="46.30987" lon="-0.33592">
        <ele>61.0975</ele>
        <time>2010-12-12T13:17:07Z</time>
      </trkpt>
      <trkpt lat="46.3099" lon="-0.33592">
        <ele>61.8419</ele>
        <time>2010-12-12T13:17:07Z</time>
      </trkpt>
      <trkpt lat="46.30992" lon="-0.33592">
        <ele>62.5858</ele>
        <time>2010-12-12T13:17:09Z</time>
      </trkpt>
      <trkpt lat="46.30994" lon="-0.33593">
        <ele>63.3842</ele>
        <time>2010-12-12T13:17:10Z</time>
      </trkpt>
      <trkpt lat="46.30994" lon="-0.33594">
        <ele>64.1597</ele>
        <time>2010-12-12T13:17:11Z</time>
      </trkpt>
      <trkpt lat="46.30995" lon="-0.33596">
        <ele>64.9294</ele>
        <time>2010-12-12T13:17:12Z</time>
      </trkpt>
      <trkpt lat="46.30994" lon="-0.33598">
        <ele>65.6721</ele>
        <time>2010-12-12T13:17:13Z</time>
      </trkpt>
      <trkpt lat="46.30993" lon="-0.33601">
        <ele>66.3677</ele>
        <time>2010-12-12T13:17:14Z</time>
      </trkpt>
      <trkpt lat="46.30991" lon="-0.33604">
        <ele>67.0149</ele>
        <time>2010-12-12T13:17:15Z</time>
      </trkpt>
      <trkpt lat="46.30989" lon="-0.33606">
        <ele>67.6541</ele>
        <time>2010-12-12T13:17:16Z</time>
      </trkpt>
      <trkpt lat="46.30987" lon="-0.33609">
        <ele>68.2057</ele>
        <time>2010-12-12T13:17:17Z</time>
      </trkpt>
      <trkpt lat="46.30985" lon="-0.33612">
        <ele>68.6796</ele>
        <time>2010-12-12T13:17:18Z</time>
      </trkpt>
      <trkpt lat="46.30984" lon="-0.33615">
        <ele>69.0823</ele>
        <time>2010-12-12T13:17:19Z</time>
      </trkpt>
      <trkpt lat="46.30983" lon="-0.33617">
        <ele>69.4304</ele>
        <time>2010-12-12T13:17:20Z</time>
      </trkpt>
      <trkpt lat="46.30981" lon="-0.3362">
        <ele>69.7321</ele>
        <time>2010-12-12T13:17:21Z</time>
      </trkpt>
      <trkpt lat="46.30981" lon="-0.33622">
        <ele>70.0211</ele>
        <time>2010-12-12T13:17:22Z</time>
      </trkpt>
      <trkpt lat="46.3098" lon="-0.33624">
        <ele>70.2672</ele>
        <time>2010-12-12T13:17:23Z</time>
      </trkpt>
      <trkpt lat="46.3098" lon="-0.33626">
        <ele>70.483</ele>
        <time>2010-12-12T13:17:24Z</time>
      </trkpt>
      <trkpt lat="46.3098" lon="-0.33628">
        <ele>70.6721</ele>
        <time>2010-12-12T13:17:25Z</time>
      </trkpt>
      <trkpt lat="46.3098" lon="-0.3363">
        <ele>70.8399</ele>
        <time>2010-12-12T13:17:26Z</time>
      </trkpt>
      <trkpt lat="46.3098" lon="-0.33632">
        <ele>70.9887</ele>
        <time>2010-12-12T13:17:27Z</time>
      </trkpt>
      <trkpt lat="46.30979" lon="-0.33634">
        <ele>71.1264</ele>
        <time>2010-12-12T13:17:28Z</time>
      </trkpt>
      <trkpt lat="46.30979" lon="-0.33636">
        <ele>71.2495</ele>
        <time>2010-12-12T13:17:29Z</time>
      </trkpt>
      <trkpt lat="46.30979" lon="-0.33638">
        <ele>71.3836</ele>
        <time>2010-12-12T13:17:30Z</time>
      </trkpt>
      <trkpt lat="46.3098" lon="-0.33637">
        <ele>71.5499</ele>
        <time>2010-12-12T13:17:33Z</time>
      </trkpt>
      <trkpt lat="46.30982" lon="-0.33638">
        <ele>71.6509</ele>
        <time>2010-12-12T13:17:34Z</time>
      </trkpt>
      <trkpt lat="46.30984" lon="-0.3364">
        <ele>71.73</ele>
        <time>2010-12-12T13:17:35Z</time>
      </trkpt>
      <trkpt lat="46.30985" lon="-0.33641">
        <ele>71.7962</ele>
        <time>2010-12-12T13:17:36Z</time>
      </trkpt>
      <trkpt lat="46.30986" lon="-0.33643">
        <ele>71.858</ele>
        <time>2010-12-12T13:17:37Z</time>
      </trkpt>
      <trkpt lat="46.30987" lon="-0.33644">
        <ele>71.9102</ele>
        <time>2010-12-12T13:17:38Z</time>
      </trkpt>
      <trkpt lat="46.30988" lon="-0.33646">
        <ele>71.9619</ele>
        <time>2010-12-12T13:17:39Z</time>
      </trkpt>
      <trkpt lat="46.30988" lon="-0.33647">
        <ele>72.007</ele>
        <time>2010-12-12T13:17:40Z</time>
      </trkpt>
      <trkpt lat="46.30987" lon="-0.33649">
        <ele>72.0527</ele>
        <time>2010-12-12T13:17:41Z</time>
      </trkpt>
      <trkpt lat="46.30987" lon="-0.3365">
        <ele>72.0858</ele>
        <time>2010-12-12T13:17:42Z</time>
      </trkpt>
      <trkpt lat="46.30987" lon="-0.33652">
        <ele>72.1082</ele>
        <time>2010-12-12T13:17:43Z</time>
      </trkpt>
      <trkpt lat="46.30988" lon="-0.33653">
        <ele>72.1107</ele>
        <time>2010-12-12T13:17:44Z</time>
      </trkpt>
      <trkpt lat="46.30988" lon="-0.33654">
        <ele>72.093</ele>
        <time>2010-12-12T13:17:45Z</time>
      </trkpt>
      <trkpt lat="46.30989" lon="-0.33656">
        <ele>72.0712</ele>
        <time>2010-12-12T13:17:46Z</time>
      </trkpt>
      <trkpt lat="46.3099" lon="-0.33658">
        <ele>72.0417</ele>
        <time>2010-12-12T13:17:47Z</time>
      </trkpt>
      <trkpt lat="46.3099" lon="-0.3366">
        <ele>72.0056</ele>
        <time>2010-12-12T13:17:48Z</time>
      </trkpt>
      <trkpt lat="46.3099" lon="-0.33662">
        <ele>71.9615</ele>
        <time>2010-12-12T13:17:49Z</time>
      </trkpt>
      <trkpt lat="46.3099" lon="-0.33664">
        <ele>71.9084</ele>
        <time>2010-12-12T13:17:50Z</time>
      </trkpt>
      <trkpt lat="46.3099" lon="-0.33666">
        <ele>71.8454</ele>
        <time>2010-12-12T13:17:51Z</time>
      </trkpt>
      <trkpt lat="46.30989" lon="-0.33668">
        <ele>71.7711</ele>
        <time>2010-12-12T13:17:52Z</time>
      </trkpt>
      <trkpt lat="46.30988" lon="-0.3367">
        <ele>71.6921</ele>
        <time>2010-12-12T13:17:53Z</time>
      </trkpt>
      <trkpt lat="46.30988" lon="-0.33672">
        <ele>71.6025</ele>
        <time>2010-12-12T13:17:54Z</time>
      </trkpt>
      <trkpt lat="46.30987" lon="-0.33673">
        <ele>71.5109</ele>
        <time>2010-12-12T13:17:55Z</time>
      </trkpt>
      <trkpt lat="46.30986" lon="-0.33675">
        <ele>71.4171</ele>
        <time>2010-12-12T13:17:56Z</time>
      </trkpt>
      <trkpt lat="46.30986" lon="-0.33676">
        <ele>71.3226</ele>
        <time>2010-12-12T13:17:57Z</time>
      </trkpt>
      <trkpt lat="46.30985" lon="-0.33677">
        <ele>71.2276</ele>
        <time>2010-12-12T13:17:58Z</time>
      </trkpt>
      <trkpt lat="46.30986" lon="-0.33678">
        <ele>71.131</ele>
        <time>2010-12-12T13:17:59Z</time>
      </trkpt>
      <trkpt lat="46.30986" lon="-0.33679">
        <ele>71.0321</ele>
        <time>2010-12-12T13:18:00Z</time>
      </trkpt>
      <trkpt lat="46.30986" lon="-0.33681">
        <ele>70.9328</ele>
        <time>2010-12-12T13:18:01Z</time>
      </trkpt>
      <trkpt lat="46.30986" lon="-0.33682">
        <ele>70.835</ele>
        <time>2010-12-12T13:18:02Z</time>
      </trkpt>
      <trkpt lat="46.30986" lon="-0.33683">
        <ele>70.7366</ele>
        <time>2010-12-12T13:18:03Z</time>
      </trkpt>
      <trkpt lat="46.30987" lon="-0.33683">
        <ele>70.6299</ele>
        <time>2010-12-12T13:18:04Z</time>
      </trkpt>
      <trkpt lat="46.30987" lon="-0.33684">
        <ele>70.5172</ele>
        <time>2010-12-12T13:18:05Z</time>
      </trkpt>
      <trkpt lat="46.30987" lon="-0.33686">
        <ele>70.4044</ele>
        <time>2010-12-12T13:18:06Z</time>
      </trkpt>
      <trkpt lat="46.30988" lon="-0.33687">
        <ele>70.2821</ele>
        <time>2010-12-12T13:18:07Z</time>
      </trkpt>
      <trkpt lat="46.30989" lon="-0.33688">
        <ele>70.1563</ele>
        <time>2010-12-12T13:18:08Z</time>
      </trkpt>
      <trkpt lat="46.30989" lon="-0.3369">
        <ele>70.0294</ele>
        <time>2010-12-12T13:18:09Z</time>
      </trkpt>
      <trkpt lat="46.3099" lon="-0.33691">
        <ele>69.903</ele>
        <time>2010-12-12T13:18:10Z</time>
      </trkpt>
      <trkpt lat="46.3099" lon="-0.33692">
        <ele>69.7777</ele>
        <time>2010-12-12T13:18:11Z</time>
      </trkpt>
      <trkpt lat="46.30991" lon="-0.33694">
        <ele>69.6527</ele>
        <time>2010-12-12T13:18:12Z</time>
      </trkpt>
      <trkpt lat="46.30991" lon="-0.33694">
        <ele>69.5289</ele>
        <time>2010-12-12T13:18:13Z</time>
      </trkpt>
      <trkpt lat="46.30991" lon="-0.33695">
        <ele>69.4074</ele>
        <time>2010-12-12T13:18:14Z</time>
      </trkpt>
      <trkpt lat="46.30991" lon="-0.33696">
        <ele>69.2862</ele>
        <time>2010-12-12T13:18:15Z</time>
      </trkpt>
      <trkpt lat="46.3099" lon="-0.33697">
        <ele>69.1649</ele>
        <time>2010-12-12T13:18:16Z</time>
      </trkpt>
      <trkpt lat="46.3099" lon="-0.33698">
        <ele>69.0422</ele>
        <time>2010-12-12T13:18:17Z</time>
      </trkpt>
      <trkpt lat="46.3099" lon="-0.337">
        <ele>68.9157</ele>
        <time>2010-12-12T13:18:18Z</time>
      </trkpt>
      <trkpt lat="46.3099" lon="-0.33701">
        <ele>68.7897</ele>
        <time>2010-12-12T13:18:19Z</time>
      </trkpt>
      <trkpt lat="46.30989" lon="-0.33703">
        <ele>68.6655</ele>
        <time>2010-12-12T13:18:20Z</time>
      </trkpt>
      <trkpt lat="46.30989" lon="-0.33704">
        <ele>68.5412</ele>
        <time>2010-12-12T13:18:21Z</time>
      </trkpt>
      <trkpt lat="46.30989" lon="-0.33706">
        <ele>68.4143</ele>
        <time>2010-12-12T13:18:22Z</time>
      </trkpt>
      <trkpt lat="46.30989" lon="-0.33708">
        <ele>68.2881</ele>
        <time>2010-12-12T13:18:23Z</time>
      </trkpt>
      <trkpt lat="46.30989" lon="-0.33709">
        <ele>68.1619</ele>
        <time>2010-12-12T13:18:24Z</time>
      </trkpt>
      <trkpt lat="46.30989" lon="-0.3371">
        <ele>68.0371</ele>
        <time>2010-12-12T13:18:25Z</time>
      </trkpt>
      <trkpt lat="46.30989" lon="-0.33711">
        <ele>67.9143</ele>
        <time>2010-12-12T13:18:26Z</time>
      </trkpt>
      <trkpt lat="46.3099" lon="-0.33713">
        <ele>67.792</ele>
        <time>2010-12-12T13:18:27Z</time>
      </trkpt>
      <trkpt lat="46.3099" lon="-0.33714">
        <ele>67.6718</ele>
        <time>2010-12-12T13:18:28Z</time>
      </trkpt>
      <trkpt lat="46.3099" lon="-0.33715">
        <ele>67.5516</ele>
        <time>2010-12-12T13:18:29Z</time>
      </trkpt>
      <trkpt lat="46.3099" lon="-0.33717">
        <ele>67.4285</ele>
        <time>2010-12-12T13:18:30Z</time>
      </trkpt>
      <trkpt lat="46.3099" lon="-0.33718">
        <ele>67.3029</ele>
        <time>2010-12-12T13:18:31Z</time>
      </trkpt>
      <trkpt lat="46.30991" lon="-0.3372">
        <ele>67.1749</ele>
        <time>2010-12-12T13:18:32Z</time>
      </trkpt>
      <trkpt lat="46.30991" lon="-0.33722">
        <ele>67.0461</ele>
        <time>2010-12-12T13:18:33Z</time>
      </trkpt>
      <trkpt lat="46.30991" lon="-0.33724">
        <ele>66.9195</ele>
        <time>2010-12-12T13:18:34Z</time>
      </trkpt>
      <trkpt lat="46.30991" lon="-0.33726">
        <ele>66.7926</ele>
        <time>2010-12-12T13:18:35Z</time>
      </trkpt>
      <trkpt lat="46.30991" lon="-0.33727">
        <ele>66.6677</ele>
        <time>2010-12-12T13:18:36Z</time>
      </trkpt>
      <trkpt lat="46.30991" lon="-0.33729">
        <ele>66.5441</ele>
        <time>2010-12-12T13:18:37Z</time>
      </trkpt>
      <trkpt lat="46.30991" lon="-0.33731">
        <ele>66.4248</ele>
        <time>2010-12-12T13:18:38Z</time>
      </trkpt>
      <trkpt lat="46.30991" lon="-0.33733">
        <ele>66.306</ele>
        <time>2010-12-12T13:18:39Z</time>
      </trkpt>
      <trkpt lat="46.30991" lon="-0.33734">
        <ele>66.1892</ele>
        <time>2010-12-12T13:18:40Z</time>
      </trkpt>
      <trkpt lat="46.30991" lon="-0.33736">
        <ele>66.0769</ele>
        <time>2010-12-12T13:18:41Z</time>
      </trkpt>
      <trkpt lat="46.30992" lon="-0.33737">
        <ele>65.9633</ele>
        <time>2010-12-12T13:18:42Z</time>
      </trkpt>
      <trkpt lat="46.30992" lon="-0.33739">
        <ele>65.85</ele>
        <time>2010-12-12T13:18:43Z</time>
      </trkpt>
      <trkpt lat="46.30992" lon="-0.3374">
        <ele>65.7361</ele>
        <time>2010-12-12T13:18:44Z</time>
      </trkpt>
      <trkpt lat="46.30993" lon="-0.33742">
        <ele>65.625</ele>
        <time>2010-12-12T13:18:45Z</time>
      </trkpt>
      <trkpt lat="46.30993" lon="-0.33743">
        <ele>65.514</ele>
        <time>2010-12-12T13:18:46Z</time>
      </trkpt>
      <trkpt lat="46.30993" lon="-0.33745">
        <ele>65.4026</ele>
        <time>2010-12-12T13:18:47Z</time>
      </trkpt>
      <trkpt lat="46.30993" lon="-0.33746">
        <ele>65.2906</ele>
        <time>2010-12-12T13:18:48Z</time>
      </trkpt>
      <trkpt lat="46.30993" lon="-0.33747">
        <ele>65.1784</ele>
        <time>2010-12-12T13:18:49Z</time>
      </trkpt>
      <trkpt lat="46.30993" lon="-0.33748">
        <ele>65.0695</ele>
        <time>2010-12-12T13:18:50Z</time>
      </trkpt>
      <trkpt lat="46.30993" lon="-0.33749">
        <ele>64.9642</ele>
        <time>2010-12-12T13:18:51Z</time>
      </trkpt>
      <trkpt lat="46.30993" lon="-0.3375">
        <ele>64.8629</ele>
        <time>2010-12-12T13:18:52Z</time>
      </trkpt>
      <trkpt lat="46.30994" lon="-0.33751">
        <ele>64.7641</ele>
        <time>2010-12-12T13:18:53Z</time>
      </trkpt>
      <trkpt lat="46.30994" lon="-0.33752">
        <ele>64.6649</ele>
        <time>2010-12-12T13:18:54Z</time>
      </trkpt>
      <trkpt lat="46.30995" lon="-0.33753">
        <ele>64.5643</ele>
        <time>2010-12-12T13:18:55Z</time>
      </trkpt>
      <trkpt lat="46.30995" lon="-0.33753">
        <ele>64.4668</ele>
        <time>2010-12-12T13:18:56Z</time>
      </trkpt>
      <trkpt lat="46.30996" lon="-0.33754">
        <ele>64.3726</ele>
        <time>2010-12-12T13:18:57Z</time>
      </trkpt>
      <trkpt lat="46.30996" lon="-0.33755">
        <ele>64.2805</ele>
        <time>2010-12-12T13:18:58Z</time>
      </trkpt>
      <trkpt lat="46.30996" lon="-0.33756">
        <ele>64.1897</ele>
        <time>2010-12-12T13:18:59Z</time>
      </trkpt>
      <trkpt lat="46.30997" lon="-0.33757">
        <ele>64.1003</ele>
        <time>2010-12-12T13:19:00Z</time>
      </trkpt>
      <trkpt lat="46.30998" lon="-0.33758">
        <ele>64.0074</ele>
        <time>2010-12-12T13:19:01Z</time>
      </trkpt>
      <trkpt lat="46.30998" lon="-0.3376">
        <ele>63.9121</ele>
        <time>2010-12-12T13:19:02Z</time>
      </trkpt>
      <trkpt lat="46.30998" lon="-0.33761">
        <ele>63.8177</ele>
        <time>2010-12-12T13:19:03Z</time>
      </trkpt>
      <trkpt lat="46.30999" lon="-0.33763">
        <ele>63.7225</ele>
        <time>2010-12-12T13:19:04Z</time>
      </trkpt>
      <trkpt lat="46.30999" lon="-0.33765">
        <ele>63.6259</ele>
        <time>2010-12-12T13:19:05Z</time>
      </trkpt>
      <trkpt lat="46.31" lon="-0.33766">
        <ele>63.5308</ele>
        <time>2010-12-12T13:19:06Z</time>
      </trkpt>
      <trkpt lat="46.31" lon="-0.33768">
        <ele>63.4369</ele>
        <time>2010-12-12T13:19:07Z</time>
      </trkpt>
      <trkpt lat="46.31001" lon="-0.33769">
        <ele>63.3435</ele>
        <time>2010-12-12T13:19:08Z</time>
      </trkpt>
      <trkpt lat="46.31001" lon="-0.3377">
        <ele>63.2518</ele>
        <time>2010-12-12T13:19:09Z</time>
      </trkpt>
      <trkpt lat="46.31002" lon="-0.33772">
        <ele>63.1627</ele>
        <time>2010-12-12T13:19:10Z</time>
      </trkpt>
      <trkpt lat="46.31002" lon="-0.33773">
        <ele>63.0737</ele>
        <time>2010-12-12T13:19:11Z</time>
      </trkpt>
      <trkpt lat="46.31003" lon="-0.33775">
        <ele>62.9875</ele>
        <time>2010-12-12T13:19:12Z</time>
      </trkpt>
      <trkpt lat="46.31003" lon="-0.33776">
        <ele>62.8994</ele>
        <time>2010-12-12T13:19:13Z</time>
      </trkpt>
      <trkpt lat="46.31003" lon="-0.33778">
        <ele>62.8127</ele>
        <time>2010-12-12T13:19:14Z</time>
      </trkpt>
      <trkpt lat="46.31003" lon="-0.33779">
        <ele>62.7292</ele>
        <time>2010-12-12T13:19:15Z</time>
      </trkpt>
      <trkpt lat="46.31003" lon="-0.33781">
        <ele>62.6449</ele>
        <time>2010-12-12T13:19:16Z</time>
      </trkpt>
      <trkpt lat="46.31003" lon="-0.33783">
        <ele>62.5647</ele>
        <time>2010-12-12T13:19:17Z</time>
      </trkpt>
      <trkpt lat="46.31003" lon="-0.33785">
        <ele>62.486</ele>
        <time>2010-12-12T13:19:18Z</time>
      </trkpt>
      <trkpt lat="46.31003" lon="-0.33787">
        <ele>62.4123</ele>
        <time>2010-12-12T13:19:19Z</time>
      </trkpt>
      <trkpt lat="46.31003" lon="-0.33789">
        <ele>62.3412</ele>
        <time>2010-12-12T13:19:20Z</time>
      </trkpt>
      <trkpt lat="46.31004" lon="-0.3379">
        <ele>62.2741</ele>
        <time>2010-12-12T13:19:21Z</time>
      </trkpt>
      <trkpt lat="46.31004" lon="-0.33792">
        <ele>62.2098</ele>
        <time>2010-12-12T13:19:22Z</time>
      </trkpt>
      <trkpt lat="46.31004" lon="-0.33793">
        <ele>62.1498</ele>
        <time>2010-12-12T13:19:23Z</time>
      </trkpt>
      <trkpt lat="46.31004" lon="-0.33795">
        <ele>62.0927</ele>
        <time>2010-12-12T13:19:24Z</time>
      </trkpt>
      <trkpt lat="46.31005" lon="-0.33796">
        <ele>62.0362</ele>
        <time>2010-12-12T13:19:25Z</time>
      </trkpt>
      <trkpt lat="46.31006" lon="-0.33797">
        <ele>61.9796</ele>
        <time>2010-12-12T13:19:26Z</time>
      </trkpt>
      <trkpt lat="46.31006" lon="-0.33799">
        <ele>61.9253</ele>
        <time>2010-12-12T13:19:27Z</time>
      </trkpt>
      <trkpt lat="46.31006" lon="-0.338">
        <ele>61.8708</ele>
        <time>2010-12-12T13:19:28Z</time>
      </trkpt>
      <trkpt lat="46.31006" lon="-0.33802">
        <ele>61.817</ele>
        <time>2010-12-12T13:19:29Z</time>
      </trkpt>
      <trkpt lat="46.31007" lon="-0.33803">
        <ele>61.7648</ele>
        <time>2010-12-12T13:19:30Z</time>
      </trkpt>
      <trkpt lat="46.31007" lon="-0.33804">
        <ele>61.7124</ele>
        <time>2010-12-12T13:19:31Z</time>
      </trkpt>
      <trkpt lat="46.31007" lon="-0.33805">
        <ele>61.6623</ele>
        <time>2010-12-12T13:19:32Z</time>
      </trkpt>
      <trkpt lat="46.31007" lon="-0.33806">
        <ele>61.6122</ele>
        <time>2010-12-12T13:19:33Z</time>
      </trkpt>
      <trkpt lat="46.31008" lon="-0.33807">
        <ele>61.5597</ele>
        <time>2010-12-12T13:19:34Z</time>
      </trkpt>
      <trkpt lat="46.31009" lon="-0.33809">
        <ele>61.5093</ele>
        <time>2010-12-12T13:19:35Z</time>
      </trkpt>
      <trkpt lat="46.31009" lon="-0.3381">
        <ele>61.456</ele>
        <time>2010-12-12T13:19:36Z</time>
      </trkpt>
      <trkpt lat="46.31009" lon="-0.33811">
        <ele>61.4035</ele>
        <time>2010-12-12T13:19:37Z</time>
      </trkpt>
      <trkpt lat="46.3101" lon="-0.33813">
        <ele>61.3525</ele>
        <time>2010-12-12T13:19:38Z</time>
      </trkpt>
      <trkpt lat="46.3101" lon="-0.33814">
        <ele>61.3035</ele>
        <time>2010-12-12T13:19:39Z</time>
      </trkpt>
      <trkpt lat="46.31011" lon="-0.33815">
        <ele>61.2552</ele>
        <time>2010-12-12T13:19:40Z</time>
      </trkpt>
      <trkpt lat="46.31012" lon="-0.33816">
        <ele>61.2105</ele>
        <time>2010-12-12T13:19:41Z</time>
      </trkpt>
      <trkpt lat="46.31012" lon="-0.33817">
        <ele>61.1683</ele>
        <time>2010-12-12T13:19:42Z</time>
      </trkpt>
      <trkpt lat="46.31013" lon="-0.33818">
        <ele>61.125</ele>
        <time>2010-12-12T13:19:43Z</time>
      </trkpt>
      <trkpt lat="46.31014" lon="-0.3382">
        <ele>61.0826</ele>
        <time>2010-12-12T13:19:44Z</time>
      </trkpt>
      <trkpt lat="46.31014" lon="-0.33821">
        <ele>61.0375</ele>
        <time>2010-12-12T13:19:45Z</time>
      </trkpt>
      <trkpt lat="46.31015" lon="-0.33822">
        <ele>60.9876</ele>
        <time>2010-12-12T13:19:46Z</time>
      </trkpt>
      <trkpt lat="46.31015" lon="-0.33824">
        <ele>60.9372</ele>
        <time>2010-12-12T13:19:47Z</time>
      </trkpt>
      <trkpt lat="46.31015" lon="-0.33825">
        <ele>60.8897</ele>
        <time>2010-12-12T13:19:48Z</time>
      </trkpt>
      <trkpt lat="46.31015" lon="-0.33827">
        <ele>60.8438</ele>
        <time>2010-12-12T13:19:49Z</time>
      </trkpt>
      <trkpt lat="46.31015" lon="-0.33829">
        <ele>60.7938</ele>
        <time>2010-12-12T13:19:50Z</time>
      </trkpt>
      <trkpt lat="46.31015" lon="-0.3383">
        <ele>60.7392</ele>
        <time>2010-12-12T13:19:51Z</time>
      </trkpt>
      <trkpt lat="46.31016" lon="-0.33832">
        <ele>60.6869</ele>
        <time>2010-12-12T13:19:52Z</time>
      </trkpt>
      <trkpt lat="46.31017" lon="-0.33833">
        <ele>60.6341</ele>
        <time>2010-12-12T13:19:53Z</time>
      </trkpt>
      <trkpt lat="46.31017" lon="-0.33835">
        <ele>60.5713</ele>
        <time>2010-12-12T13:19:54Z</time>
      </trkpt>
      <trkpt lat="46.31017" lon="-0.33837">
        <ele>60.504</ele>
        <time>2010-12-12T13:19:55Z</time>
      </trkpt>
      <trkpt lat="46.31017" lon="-0.33839">
        <ele>60.4358</ele>
        <time>2010-12-12T13:19:56Z</time>
      </trkpt>
      <trkpt lat="46.31017" lon="-0.33841">
        <ele>60.366</ele>
        <time>2010-12-12T13:19:57Z</time>
      </trkpt>
      <trkpt lat="46.31017" lon="-0.33843">
        <ele>60.298</ele>
        <time>2010-12-12T13:19:58Z</time>
      </trkpt>
      <trkpt lat="46.31018" lon="-0.33845">
        <ele>60.2326</ele>
        <time>2010-12-12T13:19:59Z</time>
      </trkpt>
      <trkpt lat="46.31018" lon="-0.33846">
        <ele>60.1672</ele>
        <time>2010-12-12T13:20:00Z</time>
      </trkpt>
      <trkpt lat="46.31019" lon="-0.33848">
        <ele>60.1039</ele>
        <time>2010-12-12T13:20:00Z</time>
      </trkpt>
      <trkpt lat="46.3102" lon="-0.3385">
        <ele>60.0446</ele>
        <time>2010-12-12T13:20:01Z</time>
      </trkpt>
      <trkpt lat="46.3102" lon="-0.33852">
        <ele>59.9908</ele>
        <time>2010-12-12T13:20:02Z</time>
      </trkpt>
      <trkpt lat="46.31021" lon="-0.33853">
        <ele>59.942</ele>
        <time>2010-12-12T13:20:03Z</time>
      </trkpt>
      <trkpt lat="46.31022" lon="-0.33855">
        <ele>59.8965</ele>
        <time>2010-12-12T13:20:04Z</time>
      </trkpt>
      <trkpt lat="46.31023" lon="-0.33857">
        <ele>59.8537</ele>
        <time>2010-12-12T13:20:05Z</time>
      </trkpt>
      <trkpt lat="46.31023" lon="-0.33858">
        <ele>59.8116</ele>
        <time>2010-12-12T13:20:06Z</time>
      </trkpt>
      <trkpt lat="46.31024" lon="-0.3386">
        <ele>59.7705</ele>
        <time>2010-12-12T13:20:07Z</time>
      </trkpt>
      <trkpt lat="46.31025" lon="-0.33862">
        <ele>59.73</ele>
        <time>2010-12-12T13:20:08Z</time>
      </trkpt>
      <trkpt lat="46.31025" lon="-0.33863">
        <ele>59.6929</ele>
        <time>2010-12-12T13:20:09Z</time>
      </trkpt>
      <trkpt lat="46.31026" lon="-0.33864">
        <ele>59.6581</ele>
        <time>2010-12-12T13:20:10Z</time>
      </trkpt>
      <trkpt lat="46.31026" lon="-0.33865">
        <ele>59.6253</ele>
        <time>2010-12-12T13:20:11Z</time>
      </trkpt>
      <trkpt lat="46.31027" lon="-0.33865">
        <ele>59.5952</ele>
        <time>2010-12-12T13:20:13Z</time>
      </trkpt>
      <trkpt lat="46.31026" lon="-0.33866">
        <ele>59.5676</ele>
        <time>2010-12-12T13:20:13Z</time>
      </trkpt>
      <trkpt lat="46.31027" lon="-0.33866">
        <ele>59.5424</ele>
        <time>2010-12-12T13:20:14Z</time>
      </trkpt>
      <trkpt lat="46.31027" lon="-0.33867">
        <ele>59.5202</ele>
        <time>2010-12-12T13:20:15Z</time>
      </trkpt>
      <trkpt lat="46.31027" lon="-0.33868">
        <ele>59.499</ele>
        <time>2010-12-12T13:20:17Z</time>
      </trkpt>
      <trkpt lat="46.31027" lon="-0.33869">
        <ele>59.4782</ele>
        <time>2010-12-12T13:20:18Z</time>
      </trkpt>
      <trkpt lat="46.31028" lon="-0.3387">
        <ele>59.4631</ele>
        <time>2010-12-12T13:20:19Z</time>
      </trkpt>
      <trkpt lat="46.31028" lon="-0.33871">
        <ele>59.447</ele>
        <time>2010-12-12T13:20:20Z</time>
      </trkpt>
      <trkpt lat="46.31028" lon="-0.33872">
        <ele>59.4291</ele>
        <time>2010-12-12T13:20:20Z</time>
      </trkpt>
      <trkpt lat="46.31029" lon="-0.33873">
        <ele>59.4198</ele>
        <time>2010-12-12T13:20:22Z</time>
      </trkpt>
      <trkpt lat="46.3103" lon="-0.33874">
        <ele>59.4053</ele>
        <time>2010-12-12T13:20:23Z</time>
      </trkpt>
      <trkpt lat="46.31031" lon="-0.33875">
        <ele>59.3951</ele>
        <time>2010-12-12T13:20:23Z</time>
      </trkpt>
      <trkpt lat="46.31031" lon="-0.33877">
        <ele>59.3806</ele>
        <time>2010-12-12T13:20:25Z</time>
      </trkpt>
      <trkpt lat="46.31031" lon="-0.33879">
        <ele>59.3699</ele>
        <time>2010-12-12T13:20:25Z</time>
      </trkpt>
      <trkpt lat="46.31032" lon="-0.33881">
        <ele>59.354</ele>
        <time>2010-12-12T13:20:26Z</time>
      </trkpt>
      <trkpt lat="46.31033" lon="-0.33882">
        <ele>59.3426</ele>
        <time>2010-12-12T13:20:27Z</time>
      </trkpt>
      <trkpt lat="46.31033" lon="-0.33882">
        <ele>59.328</ele>
        <time>2010-12-12T13:20:28Z</time>
      </trkpt>
      <trkpt lat="46.31033" lon="-0.33884">
        <ele>59.3035</ele>
        <time>2010-12-12T13:20:29Z</time>
      </trkpt>
      <trkpt lat="46.31033" lon="-0.33885">
        <ele>59.2786</ele>
        <time>2010-12-12T13:20:30Z</time>
      </trkpt>
      <trkpt lat="46.31033" lon="-0.33886">
        <ele>59.2531</ele>
        <time>2010-12-12T13:20:31Z</time>
      </trkpt>
      <trkpt lat="46.31033" lon="-0.33888">
        <ele>59.2271</ele>
        <time>2010-12-12T13:20:32Z</time>
      </trkpt>
      <trkpt lat="46.31033" lon="-0.33889">
        <ele>59.2055</ele>
        <time>2010-12-12T13:20:33Z</time>
      </trkpt>
      <trkpt lat="46.31034" lon="-0.33891">
        <ele>59.1868</ele>
        <time>2010-12-12T13:20:34Z</time>
      </trkpt>
      <trkpt lat="46.31034" lon="-0.33892">
        <ele>59.164</ele>
        <time>2010-12-12T13:20:35Z</time>
      </trkpt>
      <trkpt lat="46.31035" lon="-0.33893">
        <ele>59.1449</ele>
        <time>2010-12-12T13:20:36Z</time>
      </trkpt>
      <trkpt lat="46.31036" lon="-0.33894">
        <ele>59.1283</ele>
        <time>2010-12-12T13:20:37Z</time>
      </trkpt>
      <trkpt lat="46.31036" lon="-0.33896">
        <ele>59.1115</ele>
        <time>2010-12-12T13:20:38Z</time>
      </trkpt>
      <trkpt lat="46.31036" lon="-0.33898">
        <ele>59.1001</ele>
        <time>2010-12-12T13:20:39Z</time>
      </trkpt>
      <trkpt lat="46.31038" lon="-0.33899">
        <ele>59.0908</ele>
        <time>2010-12-12T13:20:40Z</time>
      </trkpt>
      <trkpt lat="46.31038" lon="-0.339">
        <ele>59.0773</ele>
        <time>2010-12-12T13:20:41Z</time>
      </trkpt>
      <trkpt lat="46.31038" lon="-0.33902">
        <ele>59.0644</ele>
        <time>2010-12-12T13:20:42Z</time>
      </trkpt>
      <trkpt lat="46.31039" lon="-0.33904">
        <ele>59.0488</ele>
        <time>2010-12-12T13:20:43Z</time>
      </trkpt>
      <trkpt lat="46.31039" lon="-0.33905">
        <ele>59.0343</ele>
        <time>2010-12-12T13:20:44Z</time>
      </trkpt>
      <trkpt lat="46.3104" lon="-0.33905">
        <ele>59.02</ele>
        <time>2010-12-12T13:20:45Z</time>
      </trkpt>
      <trkpt lat="46.3104" lon="-0.33906">
        <ele>59.0093</ele>
        <time>2010-12-12T13:20:46Z</time>
      </trkpt>
      <trkpt lat="46.31041" lon="-0.33907">
        <ele>58.9858</ele>
        <time>2010-12-12T13:20:47Z</time>
      </trkpt>
      <trkpt lat="46.31041" lon="-0.33909">
        <ele>58.9523</ele>
        <time>2010-12-12T13:20:48Z</time>
      </trkpt>
      <trkpt lat="46.31041" lon="-0.33911">
        <ele>58.9098</ele>
        <time>2010-12-12T13:20:49Z</time>
      </trkpt>
      <trkpt lat="46.31041" lon="-0.33913">
        <ele>58.8597</ele>
        <time>2010-12-12T13:20:50Z</time>
      </trkpt>
      <trkpt lat="46.31041" lon="-0.33914">
        <ele>58.8136</ele>
        <time>2010-12-12T13:20:51Z</time>
      </trkpt>
      <trkpt lat="46.31042" lon="-0.33915">
        <ele>58.7629</ele>
        <time>2010-12-12T13:20:52Z</time>
      </trkpt>
      <trkpt lat="46.31043" lon="-0.33917">
        <ele>58.7206</ele>
        <time>2010-12-12T13:20:53Z</time>
      </trkpt>
      <trkpt lat="46.31043" lon="-0.33918">
        <ele>58.6833</ele>
        <time>2010-12-12T13:20:54Z</time>
      </trkpt>
      <trkpt lat="46.31044" lon="-0.3392">
        <ele>58.6428</ele>
        <time>2010-12-12T13:20:55Z</time>
      </trkpt>
      <trkpt lat="46.31044" lon="-0.33921">
        <ele>58.6087</ele>
        <time>2010-12-12T13:20:56Z</time>
      </trkpt>
      <trkpt lat="46.31045" lon="-0.33922">
        <ele>58.5779</ele>
        <time>2010-12-12T13:20:57Z</time>
      </trkpt>
      <trkpt lat="46.31046" lon="-0.33923">
        <ele>58.553</ele>
        <time>2010-12-12T13:20:58Z</time>
      </trkpt>
      <trkpt lat="46.31046" lon="-0.33924">
        <ele>58.53</ele>
        <time>2010-12-12T13:20:59Z</time>
      </trkpt>
      <trkpt lat="46.31047" lon="-0.33926">
        <ele>58.5073</ele>
        <time>2010-12-12T13:21:01Z</time>
      </trkpt>
      <trkpt lat="46.31047" lon="-0.33927">
        <ele>58.4873</ele>
        <time>2010-12-12T13:21:01Z</time>
      </trkpt>
      <trkpt lat="46.31048" lon="-0.33928">
        <ele>58.4693</ele>
        <time>2010-12-12T13:21:02Z</time>
      </trkpt>
      <trkpt lat="46.31049" lon="-0.33929">
        <ele>58.4541</ele>
        <time>2010-12-12T13:21:03Z</time>
      </trkpt>
      <trkpt lat="46.31049" lon="-0.3393">
        <ele>58.4393</ele>
        <time>2010-12-12T13:21:04Z</time>
      </trkpt>
      <trkpt lat="46.31051" lon="-0.33931">
        <ele>58.4266</ele>
        <time>2010-12-12T13:21:06Z</time>
      </trkpt>
      <trkpt lat="46.31051" lon="-0.33933">
        <ele>58.4124</ele>
        <time>2010-12-12T13:21:06Z</time>
      </trkpt>
      <trkpt lat="46.31051" lon="-0.33935">
        <ele>58.4002</ele>
        <time>2010-12-12T13:21:07Z</time>
      </trkpt>
      <trkpt lat="46.31051" lon="-0.33936">
        <ele>58.3911</ele>
        <time>2010-12-12T13:21:08Z</time>
      </trkpt>
      <trkpt lat="46.31052" lon="-0.33938">
        <ele>58.3814</ele>
        <time>2010-12-12T13:21:09Z</time>
      </trkpt>
      <trkpt lat="46.31052" lon="-0.3394">
        <ele>58.3735</ele>
        <time>2010-12-12T13:21:10Z</time>
      </trkpt>
      <trkpt lat="46.31052" lon="-0.33942">
        <ele>58.3675</ele>
        <time>2010-12-12T13:21:11Z</time>
      </trkpt>
      <trkpt lat="46.31052" lon="-0.33944">
        <ele>58.3649</ele>
        <time>2010-12-12T13:21:12Z</time>
      </trkpt>
      <trkpt lat="46.31053" lon="-0.33946">
        <ele>58.3617</ele>
        <time>2010-12-12T13:21:13Z</time>
      </trkpt>
      <trkpt lat="46.31053" lon="-0.33947">
        <ele>58.3594</ele>
        <time>2010-12-12T13:21:14Z</time>
      </trkpt>
      <trkpt lat="46.31053" lon="-0.33949">
        <ele>58.3556</ele>
        <time>2010-12-12T13:21:15Z</time>
      </trkpt>
      <trkpt lat="46.31053" lon="-0.33951">
        <ele>58.35</ele>
        <time>2010-12-12T13:21:16Z</time>
      </trkpt>
      <trkpt lat="46.31053" lon="-0.33952">
        <ele>58.3427</ele>
        <time>2010-12-12T13:21:17Z</time>
      </trkpt>
      <trkpt lat="46.31054" lon="-0.33954">
        <ele>58.3368</ele>
        <time>2010-12-12T13:21:18Z</time>
      </trkpt>
      <trkpt lat="46.31054" lon="-0.33955">
        <ele>58.3292</ele>
        <time>2010-12-12T13:21:19Z</time>
      </trkpt>
      <trkpt lat="46.31054" lon="-0.33957">
        <ele>58.3208</ele>
        <time>2010-12-12T13:21:20Z</time>
      </trkpt>
      <trkpt lat="46.31054" lon="-0.33958">
        <ele>58.3107</ele>
        <time>2010-12-12T13:21:21Z</time>
      </trkpt>
      <trkpt lat="46.31055" lon="-0.33958">
        <ele>58.2976</ele>
        <time>2010-12-12T13:21:22Z</time>
      </trkpt>
      <trkpt lat="46.31055" lon="-0.33959">
        <ele>58.2852</ele>
        <time>2010-12-12T13:21:23Z</time>
      </trkpt>
      <trkpt lat="46.31055" lon="-0.3396">
        <ele>58.2725</ele>
        <time>2010-12-12T13:21:24Z</time>
      </trkpt>
      <trkpt lat="46.31056" lon="-0.33961">
        <ele>58.259</ele>
        <time>2010-12-12T13:21:25Z</time>
      </trkpt>
      <trkpt lat="46.31057" lon="-0.33962">
        <ele>58.2445</ele>
        <time>2010-12-12T13:21:26Z</time>
      </trkpt>
      <trkpt lat="46.31057" lon="-0.33963">
        <ele>58.2296</ele>
        <time>2010-12-12T13:21:27Z</time>
      </trkpt>
      <trkpt lat="46.31058" lon="-0.33965">
        <ele>58.2159</ele>
        <time>2010-12-12T13:21:28Z</time>
      </trkpt>
      <trkpt lat="46.31058" lon="-0.33966">
        <ele>58.2011</ele>
        <time>2010-12-12T13:21:29Z</time>
      </trkpt>
      <trkpt lat="46.31059" lon="-0.33967">
        <ele>58.1845</ele>
        <time>2010-12-12T13:21:30Z</time>
      </trkpt>
      <trkpt lat="46.31059" lon="-0.33969">
        <ele>58.1677</ele>
        <time>2010-12-12T13:21:31Z</time>
      </trkpt>
      <trkpt lat="46.3106" lon="-0.3397">
        <ele>58.1538</ele>
        <time>2010-12-12T13:21:32Z</time>
      </trkpt>
      <trkpt lat="46.3106" lon="-0.33972">
        <ele>58.1422</ele>
        <time>2010-12-12T13:21:33Z</time>
      </trkpt>
      <trkpt lat="46.3106" lon="-0.33974">
        <ele>58.1312</ele>
        <time>2010-12-12T13:21:34Z</time>
      </trkpt>
      <trkpt lat="46.3106" lon="-0.33975">
        <ele>58.1219</ele>
        <time>2010-12-12T13:21:35Z</time>
      </trkpt>
      <trkpt lat="46.3106" lon="-0.33976">
        <ele>58.1137</ele>
        <time>2010-12-12T13:21:36Z</time>
      </trkpt>
      <trkpt lat="46.3106" lon="-0.33976">
        <ele>58.1061</ele>
        <time>2010-12-12T13:21:37Z</time>
      </trkpt>
      <trkpt lat="46.3106" lon="-0.33977">
        <ele>58.0984</ele>
        <time>2010-12-12T13:21:38Z</time>
      </trkpt>
      <trkpt lat="46.3106" lon="-0.33978">
        <ele>58.0896</ele>
        <time>2010-12-12T13:21:39Z</time>
      </trkpt>
      <trkpt lat="46.3106" lon="-0.3398">
        <ele>58.0838</ele>
        <time>2010-12-12T13:21:40Z</time>
      </trkpt>
      <trkpt lat="46.31059" lon="-0.33981">
        <ele>58.0803</ele>
        <time>2010-12-12T13:21:41Z</time>
      </trkpt>
      <trkpt lat="46.31059" lon="-0.33982">
        <ele>58.0761</ele>
        <time>2010-12-12T13:21:42Z</time>
      </trkpt>
      <trkpt lat="46.31058" lon="-0.33984">
        <ele>58.0711</ele>
        <time>2010-12-12T13:21:44Z</time>
      </trkpt>
      <trkpt lat="46.31057" lon="-0.33985">
        <ele>58.0595</ele>
        <time>2010-12-12T13:21:44Z</time>
      </trkpt>
      <trkpt lat="46.31057" lon="-0.33986">
        <ele>58.0435</ele>
        <time>2010-12-12T13:21:45Z</time>
      </trkpt>
      <trkpt lat="46.31056" lon="-0.33987">
        <ele>58.023</ele>
        <time>2010-12-12T13:21:46Z</time>
      </trkpt>
      <trkpt lat="46.31056" lon="-0.33989">
        <ele>57.9989</ele>
        <time>2010-12-12T13:21:47Z</time>
      </trkpt>
      <trkpt lat="46.31055" lon="-0.33989">
        <ele>57.9731</ele>
        <time>2010-12-12T13:21:48Z</time>
      </trkpt>
      <trkpt lat="46.31054" lon="-0.3399">
        <ele>57.9466</ele>
        <time>2010-12-12T13:21:49Z</time>
      </trkpt>
      <trkpt lat="46.31053" lon="-0.3399">
        <ele>57.9198</ele>
        <time>2010-12-12T13:21:50Z</time>
      </trkpt>
      <trkpt lat="46.31052" lon="-0.33991">
        <ele>57.8934</ele>
        <time>2010-12-12T13:21:51Z</time>
      </trkpt>
      <trkpt lat="46.31051" lon="-0.33992">
        <ele>57.8676</ele>
        <time>2010-12-12T13:21:52Z</time>
      </trkpt>
      <trkpt lat="46.31051" lon="-0.33992">
        <ele>57.842</ele>
        <time>2010-12-12T13:21:53Z</time>
      </trkpt>
      <trkpt lat="46.31049" lon="-0.33993">
        <ele>57.8146</ele>
        <time>2010-12-12T13:21:55Z</time>
      </trkpt>
      <trkpt lat="46.31048" lon="-0.33993">
        <ele>57.7848</ele>
        <time>2010-12-12T13:21:55Z</time>
      </trkpt>
      <trkpt lat="46.31047" lon="-0.33994">
        <ele>57.7451</ele>
        <time>2010-12-12T13:21:58Z</time>
      </trkpt>
      <trkpt lat="46.31047" lon="-0.33995">
        <ele>57.7126</ele>
        <time>2010-12-12T13:21:59Z</time>
      </trkpt>
      <trkpt lat="46.31046" lon="-0.33996">
        <ele>57.6819</ele>
        <time>2010-12-12T13:22:00Z</time>
      </trkpt>
      <trkpt lat="46.31045" lon="-0.33996">
        <ele>57.6493</ele>
        <time>2010-12-12T13:22:01Z</time>
      </trkpt>
      <trkpt lat="46.31044" lon="-0.33996">
        <ele>57.6135</ele>
        <time>2010-12-12T13:22:03Z</time>
      </trkpt>
      <trkpt lat="46.31043" lon="-0.33996">
        <ele>57.5756</ele>
        <time>2010-12-12T13:22:03Z</time>
      </trkpt>
      <trkpt lat="46.31042" lon="-0.33996">
        <ele>57.5346</ele>
        <time>2010-12-12T13:22:04Z</time>
      </trkpt>
      <trkpt lat="46.31041" lon="-0.33996">
        <ele>57.4921</ele>
        <time>2010-12-12T13:22:05Z</time>
      </trkpt>
      <trkpt lat="46.31041" lon="-0.33996">
        <ele>57.4471</ele>
        <time>2010-12-12T13:22:06Z</time>
      </trkpt>
      <trkpt lat="46.31039" lon="-0.33997">
        <ele>57.4038</ele>
        <time>2010-12-12T13:22:07Z</time>
      </trkpt>
      <trkpt lat="46.31038" lon="-0.33997">
        <ele>57.3626</ele>
        <time>2010-12-12T13:22:08Z</time>
      </trkpt>
      <trkpt lat="46.31038" lon="-0.33998">
        <ele>57.323</ele>
        <time>2010-12-12T13:22:09Z</time>
      </trkpt>
      <trkpt lat="46.31036" lon="-0.33999">
        <ele>57.2841</ele>
        <time>2010-12-12T13:22:10Z</time>
      </trkpt>
      <trkpt lat="46.31036" lon="-0.34">
        <ele>57.2475</ele>
        <time>2010-12-12T13:22:11Z</time>
      </trkpt>
      <trkpt lat="46.31035" lon="-0.34001">
        <ele>57.2134</ele>
        <time>2010-12-12T13:22:12Z</time>
      </trkpt>
      <trkpt lat="46.31034" lon="-0.34002">
        <ele>57.181</ele>
        <time>2010-12-12T13:22:13Z</time>
      </trkpt>
      <trkpt lat="46.31033" lon="-0.34002">
        <ele>57.1491</ele>
        <time>2010-12-12T13:22:14Z</time>
      </trkpt>
      <trkpt lat="46.31032" lon="-0.34003">
        <ele>57.1177</ele>
        <time>2010-12-12T13:22:15Z</time>
      </trkpt>
      <trkpt lat="46.31031" lon="-0.34003">
        <ele>57.087</ele>
        <time>2010-12-12T13:22:16Z</time>
      </trkpt>
      <trkpt lat="46.31029" lon="-0.34003">
        <ele>57.0576</ele>
        <time>2010-12-12T13:22:17Z</time>
      </trkpt>
      <trkpt lat="46.31028" lon="-0.34004">
        <ele>57.031</ele>
        <time>2010-12-12T13:22:18Z</time>
      </trkpt>
      <trkpt lat="46.31027" lon="-0.34004">
        <ele>57.0051</ele>
        <time>2010-12-12T13:22:19Z</time>
      </trkpt>
      <trkpt lat="46.31026" lon="-0.34004">
        <ele>56.9788</ele>
        <time>2010-12-12T13:22:20Z</time>
      </trkpt>
      <trkpt lat="46.31025" lon="-0.34004">
        <ele>56.9527</ele>
        <time>2010-12-12T13:22:21Z</time>
      </trkpt>
      <trkpt lat="46.31023" lon="-0.34004">
        <ele>56.9269</ele>
        <time>2010-12-12T13:22:22Z</time>
      </trkpt>
      <trkpt lat="46.31023" lon="-0.34004">
        <ele>56.9028</ele>
        <time>2010-12-12T13:22:23Z</time>
      </trkpt>
      <trkpt lat="46.31022" lon="-0.34004">
        <ele>56.8777</ele>
        <time>2010-12-12T13:22:24Z</time>
      </trkpt>
      <trkpt lat="46.3102" lon="-0.34005">
        <ele>56.8521</ele>
        <time>2010-12-12T13:22:25Z</time>
      </trkpt>
      <trkpt lat="46.31019" lon="-0.34005">
        <ele>56.827</ele>
        <time>2010-12-12T13:22:26Z</time>
      </trkpt>
      <trkpt lat="46.31018" lon="-0.34005">
        <ele>56.7992</ele>
        <time>2010-12-12T13:22:27Z</time>
      </trkpt>
      <trkpt lat="46.31016" lon="-0.34005">
        <ele>56.7699</ele>
        <time>2010-12-12T13:22:28Z</time>
      </trkpt>
      <trkpt lat="46.31015" lon="-0.34005">
        <ele>56.7389</ele>
        <time>2010-12-12T13:22:29Z</time>
      </trkpt>
      <trkpt lat="46.31014" lon="-0.34005">
        <ele>56.7081</ele>
        <time>2010-12-12T13:22:30Z</time>
      </trkpt>
      <trkpt lat="46.31013" lon="-0.34005">
        <ele>56.6759</ele>
        <time>2010-12-12T13:22:31Z</time>
      </trkpt>
      <trkpt lat="46.31011" lon="-0.34005">
        <ele>56.6431</ele>
        <time>2010-12-12T13:22:32Z</time>
      </trkpt>
      <trkpt lat="46.3101" lon="-0.34006">
        <ele>56.6113</ele>
        <time>2010-12-12T13:22:33Z</time>
      </trkpt>
      <trkpt lat="46.31009" lon="-0.34006">
        <ele>56.5815</ele>
        <time>2010-12-12T13:22:34Z</time>
      </trkpt>
      <trkpt lat="46.31009" lon="-0.34006">
        <ele>56.5536</ele>
        <time>2010-12-12T13:22:35Z</time>
      </trkpt>
      <trkpt lat="46.31007" lon="-0.34007">
        <ele>56.5275</ele>
        <time>2010-12-12T13:22:36Z</time>
      </trkpt>
      <trkpt lat="46.31007" lon="-0.34007">
        <ele>56.5034</ele>
        <time>2010-12-12T13:22:37Z</time>
      </trkpt>
      <trkpt lat="46.31006" lon="-0.34007">
        <ele>56.4803</ele>
        <time>2010-12-12T13:22:38Z</time>
      </trkpt>
      <trkpt lat="46.31005" lon="-0.34007">
        <ele>56.4572</ele>
        <time>2010-12-12T13:22:39Z</time>
      </trkpt>
      <trkpt lat="46.31004" lon="-0.34008">
        <ele>56.435</ele>
        <time>2010-12-12T13:22:40Z</time>
      </trkpt>
      <trkpt lat="46.31004" lon="-0.34008">
        <ele>56.4134</ele>
        <time>2010-12-12T13:22:41Z</time>
      </trkpt>
      <trkpt lat="46.31003" lon="-0.34008">
        <ele>56.3919</ele>
        <time>2010-12-12T13:22:42Z</time>
      </trkpt>
      <trkpt lat="46.31002" lon="-0.34008">
        <ele>56.3711</ele>
        <time>2010-12-12T13:22:43Z</time>
      </trkpt>
      <trkpt lat="46.31001" lon="-0.34008">
        <ele>56.3519</ele>
        <time>2010-12-12T13:22:44Z</time>
      </trkpt>
      <trkpt lat="46.31" lon="-0.34008">
        <ele>56.3349</ele>
        <time>2010-12-12T13:22:45Z</time>
      </trkpt>
      <trkpt lat="46.30999" lon="-0.34008">
        <ele>56.3193</ele>
        <time>2010-12-12T13:22:46Z</time>
      </trkpt>
      <trkpt lat="46.30998" lon="-0.34009">
        <ele>56.3067</ele>
        <time>2010-12-12T13:22:47Z</time>
      </trkpt>
      <trkpt lat="46.30997" lon="-0.34009">
        <ele>56.2956</ele>
        <time>2010-12-12T13:22:48Z</time>
      </trkpt>
      <trkpt lat="46.30996" lon="-0.34009">
        <ele>56.2863</ele>
        <time>2010-12-12T13:22:49Z</time>
      </trkpt>
      <trkpt lat="46.30995" lon="-0.3401">
        <ele>56.2793</ele>
        <time>2010-12-12T13:22:50Z</time>
      </trkpt>
      <trkpt lat="46.30994" lon="-0.3401">
        <ele>56.2733</ele>
        <time>2010-12-12T13:22:51Z</time>
      </trkpt>
      <trkpt lat="46.30992" lon="-0.34008">
        <ele>56.2645</ele>
        <time>2010-12-12T13:22:55Z</time>
      </trkpt>
      <trkpt lat="46.30991" lon="-0.34008">
        <ele>56.2603</ele>
        <time>2010-12-12T13:22:56Z</time>
      </trkpt>
      <trkpt lat="46.3099" lon="-0.34008">
        <ele>56.2544</ele>
        <time>2010-12-12T13:22:57Z</time>
      </trkpt>
      <trkpt lat="46.30989" lon="-0.34007">
        <ele>56.2489</ele>
        <time>2010-12-12T13:22:58Z</time>
      </trkpt>
      <trkpt lat="46.30988" lon="-0.34008">
        <ele>56.2426</ele>
        <time>2010-12-12T13:22:59Z</time>
      </trkpt>
      <trkpt lat="46.30987" lon="-0.34008">
        <ele>56.2356</ele>
        <time>2010-12-12T13:23:00Z</time>
      </trkpt>
      <trkpt lat="46.30986" lon="-0.34008">
        <ele>56.2246</ele>
        <time>2010-12-12T13:23:01Z</time>
      </trkpt>
      <trkpt lat="46.30986" lon="-0.34008">
        <ele>56.212</ele>
        <time>2010-12-12T13:23:02Z</time>
      </trkpt>
      <trkpt lat="46.30985" lon="-0.34008">
        <ele>56.1986</ele>
        <time>2010-12-12T13:23:03Z</time>
      </trkpt>
      <trkpt lat="46.30984" lon="-0.34009">
        <ele>56.1887</ele>
        <time>2010-12-12T13:23:04Z</time>
      </trkpt>
      <trkpt lat="46.30983" lon="-0.3401">
        <ele>56.1813</ele>
        <time>2010-12-12T13:23:05Z</time>
      </trkpt>
      <trkpt lat="46.30982" lon="-0.34011">
        <ele>56.1718</ele>
        <time>2010-12-12T13:23:06Z</time>
      </trkpt>
      <trkpt lat="46.30981" lon="-0.34011">
        <ele>56.1618</ele>
        <time>2010-12-12T13:23:07Z</time>
      </trkpt>
      <trkpt lat="46.3098" lon="-0.34012">
        <ele>56.1507</ele>
        <time>2010-12-12T13:23:08Z</time>
      </trkpt>
      <trkpt lat="46.30979" lon="-0.34013">
        <ele>56.1395</ele>
        <time>2010-12-12T13:23:09Z</time>
      </trkpt>
      <trkpt lat="46.30978" lon="-0.34013">
        <ele>56.1278</ele>
        <time>2010-12-12T13:23:10Z</time>
      </trkpt>
      <trkpt lat="46.30977" lon="-0.34014">
        <ele>56.1165</ele>
        <time>2010-12-12T13:23:11Z</time>
      </trkpt>
      <trkpt lat="46.30976" lon="-0.34014">
        <ele>56.1055</ele>
        <time>2010-12-12T13:23:12Z</time>
      </trkpt>
      <trkpt lat="46.30975" lon="-0.34015">
        <ele>56.0954</ele>
        <time>2010-12-12T13:23:13Z</time>
      </trkpt>
      <trkpt lat="46.30974" lon="-0.34015">
        <ele>56.0869</ele>
        <time>2010-12-12T13:23:14Z</time>
      </trkpt>
      <trkpt lat="46.30973" lon="-0.34015">
        <ele>56.0787</ele>
        <time>2010-12-12T13:23:15Z</time>
      </trkpt>
      <trkpt lat="46.30972" lon="-0.34016">
        <ele>56.0715</ele>
        <time>2010-12-12T13:23:16Z</time>
      </trkpt>
      <trkpt lat="46.3097" lon="-0.34016">
        <ele>56.0652</ele>
        <time>2010-12-12T13:23:17Z</time>
      </trkpt>
      <trkpt lat="46.3097" lon="-0.34016">
        <ele>56.0586</ele>
        <time>2010-12-12T13:23:18Z</time>
      </trkpt>
      <trkpt lat="46.30968" lon="-0.34016">
        <ele>56.0519</ele>
        <time>2010-12-12T13:23:20Z</time>
      </trkpt>
      <trkpt lat="46.30967" lon="-0.34016">
        <ele>56.0443</ele>
        <time>2010-12-12T13:23:20Z</time>
      </trkpt>
      <trkpt lat="46.30966" lon="-0.34016">
        <ele>56.034</ele>
        <time>2010-12-12T13:23:21Z</time>
      </trkpt>
      <trkpt lat="46.30964" lon="-0.34017">
        <ele>56.0229</ele>
        <time>2010-12-12T13:23:22Z</time>
      </trkpt>
      <trkpt lat="46.30963" lon="-0.34016">
        <ele>56.0098</ele>
        <time>2010-12-12T13:23:23Z</time>
      </trkpt>
      <trkpt lat="46.30962" lon="-0.34017">
        <ele>55.9956</ele>
        <time>2010-12-12T13:23:24Z</time>
      </trkpt>
      <trkpt lat="46.30961" lon="-0.34017">
        <ele>55.9819</ele>
        <time>2010-12-12T13:23:26Z</time>
      </trkpt>
      <trkpt lat="46.3096" lon="-0.34018">
        <ele>55.9679</ele>
        <time>2010-12-12T13:23:27Z</time>
      </trkpt>
      <trkpt lat="46.30959" lon="-0.34018">
        <ele>55.9543</ele>
        <time>2010-12-12T13:23:27Z</time>
      </trkpt>
      <trkpt lat="46.30958" lon="-0.34018">
        <ele>55.9428</ele>
        <time>2010-12-12T13:23:29Z</time>
      </trkpt>
      <trkpt lat="46.30957" lon="-0.34018">
        <ele>55.9312</ele>
        <time>2010-12-12T13:23:30Z</time>
      </trkpt>
      <trkpt lat="46.30956" lon="-0.34018">
        <ele>55.9195</ele>
        <time>2010-12-12T13:23:31Z</time>
      </trkpt>
      <trkpt lat="46.30954" lon="-0.34019">
        <ele>55.9087</ele>
        <time>2010-12-12T13:23:32Z</time>
      </trkpt>
      <trkpt lat="46.30954" lon="-0.34019">
        <ele>55.8979</ele>
        <time>2010-12-12T13:23:33Z</time>
      </trkpt>
      <trkpt lat="46.30953" lon="-0.34019">
        <ele>55.8877</ele>
        <time>2010-12-12T13:23:34Z</time>
      </trkpt>
      <trkpt lat="46.30952" lon="-0.34019">
        <ele>55.8806</ele>
        <time>2010-12-12T13:23:36Z</time>
      </trkpt>
      <trkpt lat="46.30951" lon="-0.3402">
        <ele>55.8784</ele>
        <time>2010-12-12T13:23:37Z</time>
      </trkpt>
      <trkpt lat="46.3095" lon="-0.3402">
        <ele>55.8775</ele>
        <time>2010-12-12T13:23:38Z</time>
      </trkpt>
      <trkpt lat="46.30949" lon="-0.34019">
        <ele>55.875</ele>
        <time>2010-12-12T13:23:39Z</time>
      </trkpt>
      <trkpt lat="46.30949" lon="-0.34019">
        <ele>55.8739</ele>
        <time>2010-12-12T13:23:41Z</time>
      </trkpt>
      <trkpt lat="46.30948" lon="-0.34019">
        <ele>55.877</ele>
        <time>2010-12-12T13:23:42Z</time>
      </trkpt>
      <trkpt lat="46.30948" lon="-0.34019">
        <ele>55.8873</ele>
        <time>2010-12-12T13:23:43Z</time>
      </trkpt>
      <trkpt lat="46.30947" lon="-0.3402">
        <ele>55.9016</ele>
        <time>2010-12-12T13:23:44Z</time>
      </trkpt>
      <trkpt lat="46.30946" lon="-0.3402">
        <ele>55.9169</ele>
        <time>2010-12-12T13:23:45Z</time>
      </trkpt>
      <trkpt lat="46.30945" lon="-0.34021">
        <ele>55.9297</ele>
        <time>2010-12-12T13:23:46Z</time>
      </trkpt>
      <trkpt lat="46.30944" lon="-0.34021">
        <ele>55.941</ele>
        <time>2010-12-12T13:23:47Z</time>
      </trkpt>
      <trkpt lat="46.30943" lon="-0.34022">
        <ele>55.9538</ele>
        <time>2010-12-12T13:23:48Z</time>
      </trkpt>
      <trkpt lat="46.30942" lon="-0.34022">
        <ele>55.9651</ele>
        <time>2010-12-12T13:23:49Z</time>
      </trkpt>
      <trkpt lat="46.30941" lon="-0.34022">
        <ele>55.9753</ele>
        <time>2010-12-12T13:23:50Z</time>
      </trkpt>
      <trkpt lat="46.3094" lon="-0.34022">
        <ele>55.984</ele>
        <time>2010-12-12T13:23:51Z</time>
      </trkpt>
      <trkpt lat="46.3094" lon="-0.34022">
        <ele>55.9927</ele>
        <time>2010-12-12T13:23:52Z</time>
      </trkpt>
      <trkpt lat="46.30938" lon="-0.34022">
        <ele>56.0011</ele>
        <time>2010-12-12T13:23:53Z</time>
      </trkpt>
      <trkpt lat="46.30937" lon="-0.34022">
        <ele>56.0095</ele>
        <time>2010-12-12T13:23:54Z</time>
      </trkpt>
      <trkpt lat="46.30936" lon="-0.34022">
        <ele>56.017</ele>
        <time>2010-12-12T13:23:55Z</time>
      </trkpt>
      <trkpt lat="46.30935" lon="-0.34022">
        <ele>56.0258</ele>
        <time>2010-12-12T13:23:56Z</time>
      </trkpt>
      <trkpt lat="46.30933" lon="-0.34022">
        <ele>56.0351</ele>
        <time>2010-12-12T13:23:57Z</time>
      </trkpt>
      <trkpt lat="46.30932" lon="-0.34022">
        <ele>56.0455</ele>
        <time>2010-12-12T13:23:58Z</time>
      </trkpt>
      <trkpt lat="46.30931" lon="-0.34022">
        <ele>56.0568</ele>
        <time>2010-12-12T13:23:59Z</time>
      </trkpt>
      <trkpt lat="46.3093" lon="-0.34022">
        <ele>56.0648</ele>
        <time>2010-12-12T13:24:00Z</time>
      </trkpt>
      <trkpt lat="46.3093" lon="-0.34022">
        <ele>56.0699</ele>
        <time>2010-12-12T13:24:01Z</time>
      </trkpt>
      <trkpt lat="46.30929" lon="-0.34023">
        <ele>56.0751</ele>
        <time>2010-12-12T13:24:02Z</time>
      </trkpt>
      <trkpt lat="46.30928" lon="-0.34023">
        <ele>56.08</ele>
        <time>2010-12-12T13:24:03Z</time>
      </trkpt>
      <trkpt lat="46.30927" lon="-0.34024">
        <ele>56.0837</ele>
        <time>2010-12-12T13:24:04Z</time>
      </trkpt>
      <trkpt lat="46.30925" lon="-0.34024">
        <ele>56.0876</ele>
        <time>2010-12-12T13:24:05Z</time>
      </trkpt>
      <trkpt lat="46.30924" lon="-0.34025">
        <ele>56.0924</ele>
        <time>2010-12-12T13:24:06Z</time>
      </trkpt>
      <trkpt lat="46.30923" lon="-0.34025">
        <ele>56.0988</ele>
        <time>2010-12-12T13:24:07Z</time>
      </trkpt>
      <trkpt lat="46.30922" lon="-0.34026">
        <ele>56.1057</ele>
        <time>2010-12-12T13:24:08Z</time>
      </trkpt>
      <trkpt lat="46.30921" lon="-0.34026">
        <ele>56.1145</ele>
        <time>2010-12-12T13:24:09Z</time>
      </trkpt>
      <trkpt lat="46.3092" lon="-0.34026">
        <ele>56.1242</ele>
        <time>2010-12-12T13:24:10Z</time>
      </trkpt>
      <trkpt lat="46.30919" lon="-0.34026">
        <ele>56.1341</ele>
        <time>2010-12-12T13:24:11Z</time>
      </trkpt>
      <trkpt lat="46.30919" lon="-0.34026">
        <ele>56.1436</ele>
        <time>2010-12-12T13:24:12Z</time>
      </trkpt>
      <trkpt lat="46.30917" lon="-0.34026">
        <ele>56.1551</ele>
        <time>2010-12-12T13:24:13Z</time>
      </trkpt>
      <trkpt lat="46.30916" lon="-0.34027">
        <ele>56.165</ele>
        <time>2010-12-12T13:24:14Z</time>
      </trkpt>
      <trkpt lat="46.30916" lon="-0.34028">
        <ele>56.1752</ele>
        <time>2010-12-12T13:24:15Z</time>
      </trkpt>
      <trkpt lat="46.30914" lon="-0.34028">
        <ele>56.1842</ele>
        <time>2010-12-12T13:24:16Z</time>
      </trkpt>
      <trkpt lat="46.30913" lon="-0.34029">
        <ele>56.1965</ele>
        <time>2010-12-12T13:24:17Z</time>
      </trkpt>
      <trkpt lat="46.30912" lon="-0.34029">
        <ele>56.2136</ele>
        <time>2010-12-12T13:24:18Z</time>
      </trkpt>
      <trkpt lat="46.30911" lon="-0.34029">
        <ele>56.234</ele>
        <time>2010-12-12T13:24:19Z</time>
      </trkpt>
      <trkpt lat="46.3091" lon="-0.3403">
        <ele>56.255</ele>
        <time>2010-12-12T13:24:20Z</time>
      </trkpt>
      <trkpt lat="46.30909" lon="-0.3403">
        <ele>56.2757</ele>
        <time>2010-12-12T13:24:21Z</time>
      </trkpt>
      <trkpt lat="46.30907" lon="-0.34031">
        <ele>56.2925</ele>
        <time>2010-12-12T13:24:22Z</time>
      </trkpt>
      <trkpt lat="46.30906" lon="-0.34031">
        <ele>56.3057</ele>
        <time>2010-12-12T13:24:23Z</time>
      </trkpt>
      <trkpt lat="46.30905" lon="-0.34031">
        <ele>56.318</ele>
        <time>2010-12-12T13:24:24Z</time>
      </trkpt>
      <trkpt lat="46.30904" lon="-0.34032">
        <ele>56.3324</ele>
        <time>2010-12-12T13:24:25Z</time>
      </trkpt>
      <trkpt lat="46.30903" lon="-0.34032">
        <ele>56.3488</ele>
        <time>2010-12-12T13:24:26Z</time>
      </trkpt>
      <trkpt lat="46.30901" lon="-0.34032">
        <ele>56.3648</ele>
        <time>2010-12-12T13:24:27Z</time>
      </trkpt>
      <trkpt lat="46.309" lon="-0.34033">
        <ele>56.3809</ele>
        <time>2010-12-12T13:24:28Z</time>
      </trkpt>
      <trkpt lat="46.30899" lon="-0.34033">
        <ele>56.3987</ele>
        <time>2010-12-12T13:24:29Z</time>
      </trkpt>
      <trkpt lat="46.30898" lon="-0.34033">
        <ele>56.4166</ele>
        <time>2010-12-12T13:24:30Z</time>
      </trkpt>
      <trkpt lat="46.30896" lon="-0.34034">
        <ele>56.4344</ele>
        <time>2010-12-12T13:24:31Z</time>
      </trkpt>
      <trkpt lat="46.30895" lon="-0.34034">
        <ele>56.4547</ele>
        <time>2010-12-12T13:24:32Z</time>
      </trkpt>
      <trkpt lat="46.30894" lon="-0.34034">
        <ele>56.4755</ele>
        <time>2010-12-12T13:24:33Z</time>
      </trkpt>
      <trkpt lat="46.30893" lon="-0.34035">
        <ele>56.5029</ele>
        <time>2010-12-12T13:24:34Z</time>
      </trkpt>
      <trkpt lat="46.30892" lon="-0.34035">
        <ele>56.5341</ele>
        <time>2010-12-12T13:24:35Z</time>
      </trkpt>
      <trkpt lat="46.30891" lon="-0.34036">
        <ele>56.5672</ele>
        <time>2010-12-12T13:24:36Z</time>
      </trkpt>
      <trkpt lat="46.30891" lon="-0.34036">
        <ele>56.6013</ele>
        <time>2010-12-12T13:24:37Z</time>
      </trkpt>
      <trkpt lat="46.3089" lon="-0.34037">
        <ele>56.6382</ele>
        <time>2010-12-12T13:24:38Z</time>
      </trkpt>
      <trkpt lat="46.3089" lon="-0.34038">
        <ele>56.6772</ele>
        <time>2010-12-12T13:24:39Z</time>
      </trkpt>
      <trkpt lat="46.30889" lon="-0.34038">
        <ele>56.7166</ele>
        <time>2010-12-12T13:24:40Z</time>
      </trkpt>
      <trkpt lat="46.30888" lon="-0.34039">
        <ele>56.7567</ele>
        <time>2010-12-12T13:24:41Z</time>
      </trkpt>
      <trkpt lat="46.30887" lon="-0.34039">
        <ele>56.797</ele>
        <time>2010-12-12T13:24:42Z</time>
      </trkpt>
      <trkpt lat="46.30886" lon="-0.34039">
        <ele>56.8396</ele>
        <time>2010-12-12T13:24:43Z</time>
      </trkpt>
      <trkpt lat="46.30885" lon="-0.34038">
        <ele>56.8862</ele>
        <time>2010-12-12T13:24:43Z</time>
      </trkpt>
      <trkpt lat="46.30884" lon="-0.34037">
        <ele>56.9425</ele>
        <time>2010-12-12T13:24:46Z</time>
      </trkpt>
      <trkpt lat="46.30883" lon="-0.34037">
        <ele>56.9942</ele>
        <time>2010-12-12T13:24:47Z</time>
      </trkpt>
      <trkpt lat="46.30883" lon="-0.34037">
        <ele>57.0466</ele>
        <time>2010-12-12T13:24:48Z</time>
      </trkpt>
      <trkpt lat="46.30882" lon="-0.34038">
        <ele>57.0988</ele>
        <time>2010-12-12T13:24:49Z</time>
      </trkpt>
      <trkpt lat="46.30881" lon="-0.34038">
        <ele>57.149</ele>
        <time>2010-12-12T13:24:50Z</time>
      </trkpt>
      <trkpt lat="46.3088" lon="-0.34039">
        <ele>57.2011</ele>
        <time>2010-12-12T13:24:51Z</time>
      </trkpt>
      <trkpt lat="46.30879" lon="-0.34039">
        <ele>57.2544</ele>
        <time>2010-12-12T13:24:52Z</time>
      </trkpt>
      <trkpt lat="46.30878" lon="-0.3404">
        <ele>57.3108</ele>
        <time>2010-12-12T13:24:52Z</time>
      </trkpt>
      <trkpt lat="46.30877" lon="-0.34041">
        <ele>57.3679</ele>
        <time>2010-12-12T13:24:54Z</time>
      </trkpt>
      <trkpt lat="46.30875" lon="-0.34042">
        <ele>57.4322</ele>
        <time>2010-12-12T13:24:55Z</time>
      </trkpt>
      <trkpt lat="46.30874" lon="-0.34042">
        <ele>57.498</ele>
        <time>2010-12-12T13:24:56Z</time>
      </trkpt>
      <trkpt lat="46.30873" lon="-0.34043">
        <ele>57.564</ele>
        <time>2010-12-12T13:24:57Z</time>
      </trkpt>
      <trkpt lat="46.30872" lon="-0.34043">
        <ele>57.6325</ele>
        <time>2010-12-12T13:24:58Z</time>
      </trkpt>
      <trkpt lat="46.30871" lon="-0.34044">
        <ele>57.7002</ele>
        <time>2010-12-12T13:24:58Z</time>
      </trkpt>
      <trkpt lat="46.3087" lon="-0.34045">
        <ele>57.7688</ele>
        <time>2010-12-12T13:25:00Z</time>
      </trkpt>
      <trkpt lat="46.30869" lon="-0.34046">
        <ele>57.8382</ele>
        <time>2010-12-12T13:25:01Z</time>
      </trkpt>
      <trkpt lat="46.30867" lon="-0.34047">
        <ele>57.9072</ele>
        <time>2010-12-12T13:25:01Z</time>
      </trkpt>
      <trkpt lat="46.30866" lon="-0.34047">
        <ele>57.9759</ele>
        <time>2010-12-12T13:25:02Z</time>
      </trkpt>
      <trkpt lat="46.30865" lon="-0.34047">
        <ele>58.0438</ele>
        <time>2010-12-12T13:25:04Z</time>
      </trkpt>
      <trkpt lat="46.30864" lon="-0.34048">
        <ele>58.1108</ele>
        <time>2010-12-12T13:25:04Z</time>
      </trkpt>
      <trkpt lat="46.30863" lon="-0.34048">
        <ele>58.1759</ele>
        <time>2010-12-12T13:25:05Z</time>
      </trkpt>
      <trkpt lat="46.30862" lon="-0.34049">
        <ele>58.2403</ele>
        <time>2010-12-12T13:25:06Z</time>
      </trkpt>
      <trkpt lat="46.30861" lon="-0.3405">
        <ele>58.3042</ele>
        <time>2010-12-12T13:25:07Z</time>
      </trkpt>
      <trkpt lat="46.30859" lon="-0.3405">
        <ele>58.3671</ele>
        <time>2010-12-12T13:25:08Z</time>
      </trkpt>
      <trkpt lat="46.30858" lon="-0.34051">
        <ele>58.4321</ele>
        <time>2010-12-12T13:25:09Z</time>
      </trkpt>
      <trkpt lat="46.30857" lon="-0.34052">
        <ele>58.5002</ele>
        <time>2010-12-12T13:25:10Z</time>
      </trkpt>
      <trkpt lat="46.30856" lon="-0.34053">
        <ele>58.5674</ele>
        <time>2010-12-12T13:25:11Z</time>
      </trkpt>
      <trkpt lat="46.30854" lon="-0.34054">
        <ele>58.6344</ele>
        <time>2010-12-12T13:25:12Z</time>
      </trkpt>
      <trkpt lat="46.30853" lon="-0.34054">
        <ele>58.699</ele>
        <time>2010-12-12T13:25:13Z</time>
      </trkpt>
      <trkpt lat="46.30853" lon="-0.34055">
        <ele>58.7629</ele>
        <time>2010-12-12T13:25:14Z</time>
      </trkpt>
      <trkpt lat="46.30852" lon="-0.34056">
        <ele>58.8255</ele>
        <time>2010-12-12T13:25:16Z</time>
      </trkpt>
      <trkpt lat="46.3085" lon="-0.34057">
        <ele>58.8884</ele>
        <time>2010-12-12T13:25:16Z</time>
      </trkpt>
      <trkpt lat="46.30849" lon="-0.34058">
        <ele>58.958</ele>
        <time>2010-12-12T13:25:17Z</time>
      </trkpt>
      <trkpt lat="46.30848" lon="-0.34058">
        <ele>59.0346</ele>
        <time>2010-12-12T13:25:18Z</time>
      </trkpt>
      <trkpt lat="46.30847" lon="-0.34058">
        <ele>59.1181</ele>
        <time>2010-12-12T13:25:19Z</time>
      </trkpt>
      <trkpt lat="46.30847" lon="-0.34059">
        <ele>59.2234</ele>
        <time>2010-12-12T13:25:21Z</time>
      </trkpt>
      <trkpt lat="46.30846" lon="-0.34059">
        <ele>59.3209</ele>
        <time>2010-12-12T13:25:22Z</time>
      </trkpt>
      <trkpt lat="46.30845" lon="-0.34061">
        <ele>59.4184</ele>
        <time>2010-12-12T13:25:23Z</time>
      </trkpt>
      <trkpt lat="46.30844" lon="-0.34062">
        <ele>59.5163</ele>
        <time>2010-12-12T13:25:24Z</time>
      </trkpt>
      <trkpt lat="46.30843" lon="-0.34063">
        <ele>59.613</ele>
        <time>2010-12-12T13:25:25Z</time>
      </trkpt>
      <trkpt lat="46.30843" lon="-0.34064">
        <ele>59.709</ele>
        <time>2010-12-12T13:25:26Z</time>
      </trkpt>
      <trkpt lat="46.30842" lon="-0.34065">
        <ele>59.8034</ele>
        <time>2010-12-12T13:25:27Z</time>
      </trkpt>
      <trkpt lat="46.30841" lon="-0.34066">
        <ele>59.8954</ele>
        <time>2010-12-12T13:25:28Z</time>
      </trkpt>
      <trkpt lat="46.3084" lon="-0.34067">
        <ele>59.9853</ele>
        <time>2010-12-12T13:25:29Z</time>
      </trkpt>
      <trkpt lat="46.3084" lon="-0.34068">
        <ele>60.0719</ele>
        <time>2010-12-12T13:25:30Z</time>
      </trkpt>
      <trkpt lat="46.30839" lon="-0.34069">
        <ele>60.1558</ele>
        <time>2010-12-12T13:25:31Z</time>
      </trkpt>
      <trkpt lat="46.30838" lon="-0.3407">
        <ele>60.2378</ele>
        <time>2010-12-12T13:25:32Z</time>
      </trkpt>
      <trkpt lat="46.30838" lon="-0.34072">
        <ele>60.3195</ele>
        <time>2010-12-12T13:25:33Z</time>
      </trkpt>
      <trkpt lat="46.30838" lon="-0.34074">
        <ele>60.4017</ele>
        <time>2010-12-12T13:25:34Z</time>
      </trkpt>
      <trkpt lat="46.30838" lon="-0.34075">
        <ele>60.4844</ele>
        <time>2010-12-12T13:25:35Z</time>
      </trkpt>
      <trkpt lat="46.30838" lon="-0.34077">
        <ele>60.5657</ele>
        <time>2010-12-12T13:25:36Z</time>
      </trkpt>
      <trkpt lat="46.30838" lon="-0.34078">
        <ele>60.6439</ele>
        <time>2010-12-12T13:25:37Z</time>
      </trkpt>
      <trkpt lat="46.30837" lon="-0.3408">
        <ele>60.7224</ele>
        <time>2010-12-12T13:25:38Z</time>
      </trkpt>
      <trkpt lat="46.30837" lon="-0.34081">
        <ele>60.8001</ele>
        <time>2010-12-12T13:25:39Z</time>
      </trkpt>
      <trkpt lat="46.30837" lon="-0.34083">
        <ele>60.8777</ele>
        <time>2010-12-12T13:25:40Z</time>
      </trkpt>
      <trkpt lat="46.30836" lon="-0.34084">
        <ele>60.9555</ele>
        <time>2010-12-12T13:25:41Z</time>
      </trkpt>
      <trkpt lat="46.30835" lon="-0.34085">
        <ele>61.0314</ele>
        <time>2010-12-12T13:25:42Z</time>
      </trkpt>
      <trkpt lat="46.30834" lon="-0.34085">
        <ele>61.1037</ele>
        <time>2010-12-12T13:25:43Z</time>
      </trkpt>
      <trkpt lat="46.30833" lon="-0.34086">
        <ele>61.1727</ele>
        <time>2010-12-12T13:25:44Z</time>
      </trkpt>
      <trkpt lat="46.30832" lon="-0.34086">
        <ele>61.2373</ele>
        <time>2010-12-12T13:25:45Z</time>
      </trkpt>
      <trkpt lat="46.30831" lon="-0.34086">
        <ele>61.2979</ele>
        <time>2010-12-12T13:25:46Z</time>
      </trkpt>
      <trkpt lat="46.3083" lon="-0.34087">
        <ele>61.3545</ele>
        <time>2010-12-12T13:25:47Z</time>
      </trkpt>
      <trkpt lat="46.30829" lon="-0.34087">
        <ele>61.4079</ele>
        <time>2010-12-12T13:25:49Z</time>
      </trkpt>
      <trkpt lat="46.30828" lon="-0.34088">
        <ele>61.4582</ele>
        <time>2010-12-12T13:25:49Z</time>
      </trkpt>
      <trkpt lat="46.30828" lon="-0.34089">
        <ele>61.5057</ele>
        <time>2010-12-12T13:25:50Z</time>
      </trkpt>
      <trkpt lat="46.30828" lon="-0.34089">
        <ele>61.5521</ele>
        <time>2010-12-12T13:25:52Z</time>
      </trkpt>
      <trkpt lat="46.30828" lon="-0.3409">
        <ele>61.6045</ele>
        <time>2010-12-12T13:25:54Z</time>
      </trkpt>
      <trkpt lat="46.30827" lon="-0.3409">
        <ele>61.6466</ele>
        <time>2010-12-12T13:25:55Z</time>
      </trkpt>
      <trkpt lat="46.30826" lon="-0.3409">
        <ele>61.6888</ele>
        <time>2010-12-12T13:25:56Z</time>
      </trkpt>
      <trkpt lat="46.30825" lon="-0.34091">
        <ele>61.7301</ele>
        <time>2010-12-12T13:25:57Z</time>
      </trkpt>
      <trkpt lat="46.30824" lon="-0.34092">
        <ele>61.7682</ele>
        <time>2010-12-12T13:25:58Z</time>
      </trkpt>
      <trkpt lat="46.30823" lon="-0.34092">
        <ele>61.795</ele>
        <time>2010-12-12T13:26:00Z</time>
      </trkpt>
      <trkpt lat="46.30822" lon="-0.34092">
        <ele>61.8152</ele>
        <time>2010-12-12T13:26:02Z</time>
      </trkpt>
      <trkpt lat="46.30821" lon="-0.34092">
        <ele>61.8338</ele>
        <time>2010-12-12T13:26:02Z</time>
      </trkpt>
      <trkpt lat="46.30821" lon="-0.34092">
        <ele>61.8449</ele>
        <time>2010-12-12T13:26:03Z</time>
      </trkpt>
      <trkpt lat="46.30819" lon="-0.34092">
        <ele>61.8438</ele>
        <time>2010-12-12T13:26:04Z</time>
      </trkpt>
      <trkpt lat="46.30817" lon="-0.34092">
        <ele>61.8478</ele>
        <time>2010-12-12T13:26:05Z</time>
      </trkpt>
      <trkpt lat="46.30816" lon="-0.34092">
        <ele>61.8597</ele>
        <time>2010-12-12T13:26:06Z</time>
      </trkpt>
      <trkpt lat="46.30816" lon="-0.34093">
        <ele>61.8737</ele>
        <time>2010-12-12T13:26:07Z</time>
      </trkpt>
      <trkpt lat="46.30814" lon="-0.34094">
        <ele>61.8883</ele>
        <time>2010-12-12T13:26:08Z</time>
      </trkpt>
      <trkpt lat="46.30814" lon="-0.34095">
        <ele>61.9034</ele>
        <time>2010-12-12T13:26:09Z</time>
      </trkpt>
      <trkpt lat="46.30813" lon="-0.34096">
        <ele>61.9213</ele>
        <time>2010-12-12T13:26:10Z</time>
      </trkpt>
      <trkpt lat="46.30812" lon="-0.34096">
        <ele>61.9398</ele>
        <time>2010-12-12T13:26:11Z</time>
      </trkpt>
      <trkpt lat="46.30811" lon="-0.34097">
        <ele>61.9587</ele>
        <time>2010-12-12T13:26:12Z</time>
      </trkpt>
      <trkpt lat="46.3081" lon="-0.34098">
        <ele>61.9795</ele>
        <time>2010-12-12T13:26:13Z</time>
      </trkpt>
      <trkpt lat="46.30809" lon="-0.34099">
        <ele>62.001</ele>
        <time>2010-12-12T13:26:14Z</time>
      </trkpt>
      <trkpt lat="46.30808" lon="-0.341">
        <ele>62.023</ele>
        <time>2010-12-12T13:26:16Z</time>
      </trkpt>
      <trkpt lat="46.30806" lon="-0.34101">
        <ele>62.0454</ele>
        <time>2010-12-12T13:26:16Z</time>
      </trkpt>
      <trkpt lat="46.30805" lon="-0.34102">
        <ele>62.0683</ele>
        <time>2010-12-12T13:26:17Z</time>
      </trkpt>
      <trkpt lat="46.30804" lon="-0.34103">
        <ele>62.0909</ele>
        <time>2010-12-12T13:26:18Z</time>
      </trkpt>
      <trkpt lat="46.30803" lon="-0.34104">
        <ele>62.114</ele>
        <time>2010-12-12T13:26:19Z</time>
      </trkpt>
      <trkpt lat="46.30802" lon="-0.34105">
        <ele>62.1407</ele>
        <time>2010-12-12T13:26:20Z</time>
      </trkpt>
      <trkpt lat="46.30801" lon="-0.34106">
        <ele>62.169</ele>
        <time>2010-12-12T13:26:21Z</time>
      </trkpt>
      <trkpt lat="46.308" lon="-0.34107">
        <ele>62.1975</ele>
        <time>2010-12-12T13:26:22Z</time>
      </trkpt>
      <trkpt lat="46.30799" lon="-0.34108">
        <ele>62.2261</ele>
        <time>2010-12-12T13:26:23Z</time>
      </trkpt>
      <trkpt lat="46.30798" lon="-0.34109">
        <ele>62.2537</ele>
        <time>2010-12-12T13:26:24Z</time>
      </trkpt>
      <trkpt lat="46.30797" lon="-0.34109">
        <ele>62.2803</ele>
        <time>2010-12-12T13:26:25Z</time>
      </trkpt>
      <trkpt lat="46.30796" lon="-0.3411">
        <ele>62.3057</ele>
        <time>2010-12-12T13:26:26Z</time>
      </trkpt>
      <trkpt lat="46.30795" lon="-0.34111">
        <ele>62.3289</ele>
        <time>2010-12-12T13:26:27Z</time>
      </trkpt>
      <trkpt lat="46.30794" lon="-0.34111">
        <ele>62.3507</ele>
        <time>2010-12-12T13:26:28Z</time>
      </trkpt>
      <trkpt lat="46.30793" lon="-0.34112">
        <ele>62.3715</ele>
        <time>2010-12-12T13:26:29Z</time>
      </trkpt>
      <trkpt lat="46.30792" lon="-0.34112">
        <ele>62.3936</ele>
        <time>2010-12-12T13:26:30Z</time>
      </trkpt>
      <trkpt lat="46.30792" lon="-0.34112">
        <ele>62.4151</ele>
        <time>2010-12-12T13:26:31Z</time>
      </trkpt>
      <trkpt lat="46.30791" lon="-0.34113">
        <ele>62.4355</ele>
        <time>2010-12-12T13:26:32Z</time>
      </trkpt>
      <trkpt lat="46.3079" lon="-0.34113">
        <ele>62.4543</ele>
        <time>2010-12-12T13:26:34Z</time>
      </trkpt>
      <trkpt lat="46.3079" lon="-0.34114">
        <ele>62.4719</ele>
        <time>2010-12-12T13:26:34Z</time>
      </trkpt>
      <trkpt lat="46.30789" lon="-0.34114">
        <ele>62.4884</ele>
        <time>2010-12-12T13:26:35Z</time>
      </trkpt>
      <trkpt lat="46.30788" lon="-0.34115">
        <ele>62.503</ele>
        <time>2010-12-12T13:26:36Z</time>
      </trkpt>
      <trkpt lat="46.30787" lon="-0.34115">
        <ele>62.5164</ele>
        <time>2010-12-12T13:26:37Z</time>
      </trkpt>
      <trkpt lat="46.30786" lon="-0.34115">
        <ele>62.531</ele>
        <time>2010-12-12T13:26:38Z</time>
      </trkpt>
      <trkpt lat="46.30785" lon="-0.34116">
        <ele>62.5452</ele>
        <time>2010-12-12T13:26:39Z</time>
      </trkpt>
      <trkpt lat="46.30784" lon="-0.34116">
        <ele>62.5588</ele>
        <time>2010-12-12T13:26:40Z</time>
      </trkpt>
      <trkpt lat="46.30783" lon="-0.34117">
        <ele>62.5717</ele>
        <time>2010-12-12T13:26:41Z</time>
      </trkpt>
      <trkpt lat="46.30782" lon="-0.34118">
        <ele>62.5834</ele>
        <time>2010-12-12T13:26:42Z</time>
      </trkpt>
      <trkpt lat="46.30781" lon="-0.34118">
        <ele>62.5936</ele>
        <time>2010-12-12T13:26:43Z</time>
      </trkpt>
      <trkpt lat="46.3078" lon="-0.34119">
        <ele>62.6035</ele>
        <time>2010-12-12T13:26:44Z</time>
      </trkpt>
      <trkpt lat="46.30779" lon="-0.34119">
        <ele>62.6139</ele>
        <time>2010-12-12T13:26:45Z</time>
      </trkpt>
      <trkpt lat="46.30777" lon="-0.3412">
        <ele>62.6261</ele>
        <time>2010-12-12T13:26:46Z</time>
      </trkpt>
      <trkpt lat="46.30776" lon="-0.3412">
        <ele>62.6385</ele>
        <time>2010-12-12T13:26:47Z</time>
      </trkpt>
      <trkpt lat="46.30775" lon="-0.34121">
        <ele>62.6509</ele>
        <time>2010-12-12T13:26:48Z</time>
      </trkpt>
      <trkpt lat="46.30774" lon="-0.34121">
        <ele>62.6625</ele>
        <time>2010-12-12T13:26:49Z</time>
      </trkpt>
      <trkpt lat="46.30773" lon="-0.34122">
        <ele>62.6755</ele>
        <time>2010-12-12T13:26:50Z</time>
      </trkpt>
      <trkpt lat="46.30772" lon="-0.34122">
        <ele>62.6906</ele>
        <time>2010-12-12T13:26:51Z</time>
      </trkpt>
      <trkpt lat="46.30771" lon="-0.34122">
        <ele>62.7071</ele>
        <time>2010-12-12T13:26:52Z</time>
      </trkpt>
      <trkpt lat="46.3077" lon="-0.34122">
        <ele>62.7246</ele>
        <time>2010-12-12T13:26:53Z</time>
      </trkpt>
      <trkpt lat="46.30769" lon="-0.34122">
        <ele>62.7436</ele>
        <time>2010-12-12T13:26:54Z</time>
      </trkpt>
      <trkpt lat="46.30768" lon="-0.34122">
        <ele>62.7626</ele>
        <time>2010-12-12T13:26:55Z</time>
      </trkpt>
      <trkpt lat="46.30767" lon="-0.34122">
        <ele>62.7812</ele>
        <time>2010-12-12T13:26:56Z</time>
      </trkpt>
      <trkpt lat="46.30766" lon="-0.34122">
        <ele>62.8008</ele>
        <time>2010-12-12T13:26:57Z</time>
      </trkpt>
      <trkpt lat="46.30765" lon="-0.34122">
        <ele>62.8203</ele>
        <time>2010-12-12T13:26:58Z</time>
      </trkpt>
      <trkpt lat="46.30764" lon="-0.34123">
        <ele>62.8387</ele>
        <time>2010-12-12T13:26:59Z</time>
      </trkpt>
      <trkpt lat="46.30763" lon="-0.34123">
        <ele>62.8584</ele>
        <time>2010-12-12T13:27:01Z</time>
      </trkpt>
      <trkpt lat="46.30762" lon="-0.34123">
        <ele>62.8817</ele>
        <time>2010-12-12T13:27:01Z</time>
      </trkpt>
      <trkpt lat="46.30761" lon="-0.34123">
        <ele>62.9087</ele>
        <time>2010-12-12T13:27:02Z</time>
      </trkpt>
      <trkpt lat="46.30759" lon="-0.34123">
        <ele>62.9348</ele>
        <time>2010-12-12T13:27:03Z</time>
      </trkpt>
      <trkpt lat="46.30758" lon="-0.34124">
        <ele>62.9595</ele>
        <time>2010-12-12T13:27:04Z</time>
      </trkpt>
      <trkpt lat="46.30757" lon="-0.34124">
        <ele>62.9806</ele>
        <time>2010-12-12T13:27:05Z</time>
      </trkpt>
      <trkpt lat="46.30755" lon="-0.34125">
        <ele>63.0039</ele>
        <time>2010-12-12T13:27:06Z</time>
      </trkpt>
      <trkpt lat="46.30754" lon="-0.34125">
        <ele>63.0277</ele>
        <time>2010-12-12T13:27:08Z</time>
      </trkpt>
      <trkpt lat="46.30753" lon="-0.34125">
        <ele>63.0541</ele>
        <time>2010-12-12T13:27:08Z</time>
      </trkpt>
      <trkpt lat="46.30751" lon="-0.34125">
        <ele>63.0794</ele>
        <time>2010-12-12T13:27:09Z</time>
      </trkpt>
      <trkpt lat="46.3075" lon="-0.34125">
        <ele>63.0964</ele>
        <time>2010-12-12T13:27:10Z</time>
      </trkpt>
      <trkpt lat="46.30748" lon="-0.34125">
        <ele>63.1124</ele>
        <time>2010-12-12T13:27:11Z</time>
      </trkpt>
      <trkpt lat="46.30747" lon="-0.34124">
        <ele>63.1218</ele>
        <time>2010-12-12T13:27:12Z</time>
      </trkpt>
      <trkpt lat="46.30746" lon="-0.34124">
        <ele>63.1272</ele>
        <time>2010-12-12T13:27:13Z</time>
      </trkpt>
      <trkpt lat="46.30744" lon="-0.34124">
        <ele>63.135</ele>
        <time>2010-12-12T13:27:14Z</time>
      </trkpt>
      <trkpt lat="46.30743" lon="-0.34124">
        <ele>63.1398</ele>
        <time>2010-12-12T13:27:16Z</time>
      </trkpt>
      <trkpt lat="46.30742" lon="-0.34125">
        <ele>63.1432</ele>
        <time>2010-12-12T13:27:16Z</time>
      </trkpt>
      <trkpt lat="46.30741" lon="-0.34125">
        <ele>63.1489</ele>
        <time>2010-12-12T13:27:17Z</time>
      </trkpt>
      <trkpt lat="46.3074" lon="-0.34126">
        <ele>63.1596</ele>
        <time>2010-12-12T13:27:18Z</time>
      </trkpt>
      <trkpt lat="46.30739" lon="-0.34126">
        <ele>63.1753</ele>
        <time>2010-12-12T13:27:19Z</time>
      </trkpt>
      <trkpt lat="46.30738" lon="-0.34127">
        <ele>63.1994</ele>
        <time>2010-12-12T13:27:21Z</time>
      </trkpt>
      <trkpt lat="46.30737" lon="-0.34127">
        <ele>63.2226</ele>
        <time>2010-12-12T13:27:22Z</time>
      </trkpt>
      <trkpt lat="46.30736" lon="-0.34128">
        <ele>63.2438</ele>
        <time>2010-12-12T13:27:23Z</time>
      </trkpt>
      <trkpt lat="46.30735" lon="-0.34128">
        <ele>63.2676</ele>
        <time>2010-12-12T13:27:24Z</time>
      </trkpt>
      <trkpt lat="46.30734" lon="-0.34128">
        <ele>63.2906</ele>
        <time>2010-12-12T13:27:25Z</time>
      </trkpt>
      <trkpt lat="46.30732" lon="-0.34128">
        <ele>63.3144</ele>
        <time>2010-12-12T13:27:27Z</time>
      </trkpt>
      <trkpt lat="46.30732" lon="-0.34128">
        <ele>63.3376</ele>
        <time>2010-12-12T13:27:27Z</time>
      </trkpt>
      <trkpt lat="46.3073" lon="-0.34129">
        <ele>63.3549</ele>
        <time>2010-12-12T13:27:28Z</time>
      </trkpt>
      <trkpt lat="46.30729" lon="-0.3413">
        <ele>63.3674</ele>
        <time>2010-12-12T13:27:30Z</time>
      </trkpt>
      <trkpt lat="46.30728" lon="-0.34131">
        <ele>63.3766</ele>
        <time>2010-12-12T13:27:30Z</time>
      </trkpt>
      <trkpt lat="46.30727" lon="-0.34133">
        <ele>63.3912</ele>
        <time>2010-12-12T13:27:31Z</time>
      </trkpt>
      <trkpt lat="46.30726" lon="-0.34135">
        <ele>63.4127</ele>
        <time>2010-12-12T13:27:32Z</time>
      </trkpt>
      <trkpt lat="46.30726" lon="-0.34137">
        <ele>63.441</ele>
        <time>2010-12-12T13:27:33Z</time>
      </trkpt>
      <trkpt lat="46.30726" lon="-0.3414">
        <ele>63.4761</ele>
        <time>2010-12-12T13:27:34Z</time>
      </trkpt>
      <trkpt lat="46.30726" lon="-0.34142">
        <ele>63.5107</ele>
        <time>2010-12-12T13:27:35Z</time>
      </trkpt>
      <trkpt lat="46.30727" lon="-0.34146">
        <ele>63.6179</ele>
        <time>2010-12-12T13:27:38Z</time>
      </trkpt>
      <trkpt lat="46.30727" lon="-0.34147">
        <ele>63.6722</ele>
        <time>2010-12-12T13:27:39Z</time>
      </trkpt>
      <trkpt lat="46.30727" lon="-0.34149">
        <ele>63.7301</ele>
        <time>2010-12-12T13:27:40Z</time>
      </trkpt>
      <trkpt lat="46.30727" lon="-0.34151">
        <ele>63.7974</ele>
        <time>2010-12-12T13:27:41Z</time>
      </trkpt>
      <trkpt lat="46.30728" lon="-0.34154">
        <ele>63.869</ele>
        <time>2010-12-12T13:27:42Z</time>
      </trkpt>
      <trkpt lat="46.30728" lon="-0.34156">
        <ele>63.9433</ele>
        <time>2010-12-12T13:27:43Z</time>
      </trkpt>
      <trkpt lat="46.30728" lon="-0.34158">
        <ele>64.019</ele>
        <time>2010-12-12T13:27:44Z</time>
      </trkpt>
      <trkpt lat="46.30728" lon="-0.3416">
        <ele>64.0985</ele>
        <time>2010-12-12T13:27:45Z</time>
      </trkpt>
      <trkpt lat="46.30728" lon="-0.34162">
        <ele>64.1801</ele>
        <time>2010-12-12T13:27:46Z</time>
      </trkpt>
      <trkpt lat="46.30728" lon="-0.34163">
        <ele>64.2649</ele>
        <time>2010-12-12T13:27:47Z</time>
      </trkpt>
      <trkpt lat="46.30728" lon="-0.34165">
        <ele>64.3519</ele>
        <time>2010-12-12T13:27:48Z</time>
      </trkpt>
      <trkpt lat="46.30729" lon="-0.34167">
        <ele>64.441</ele>
        <time>2010-12-12T13:27:49Z</time>
      </trkpt>
      <trkpt lat="46.30729" lon="-0.34168">
        <ele>64.5331</ele>
        <time>2010-12-12T13:27:50Z</time>
      </trkpt>
      <trkpt lat="46.30729" lon="-0.3417">
        <ele>64.6321</ele>
        <time>2010-12-12T13:27:51Z</time>
      </trkpt>
      <trkpt lat="46.30729" lon="-0.34172">
        <ele>64.7314</ele>
        <time>2010-12-12T13:27:52Z</time>
      </trkpt>
      <trkpt lat="46.30729" lon="-0.34174">
        <ele>64.8284</ele>
        <time>2010-12-12T13:27:53Z</time>
      </trkpt>
      <trkpt lat="46.30729" lon="-0.34175">
        <ele>64.9201</ele>
        <time>2010-12-12T13:27:54Z</time>
      </trkpt>
      <trkpt lat="46.30729" lon="-0.34177">
        <ele>65.0115</ele>
        <time>2010-12-12T13:27:55Z</time>
      </trkpt>
      <trkpt lat="46.30729" lon="-0.34179">
        <ele>65.1028</ele>
        <time>2010-12-12T13:27:56Z</time>
      </trkpt>
      <trkpt lat="46.3073" lon="-0.3418">
        <ele>65.1942</ele>
        <time>2010-12-12T13:27:57Z</time>
      </trkpt>
      <trkpt lat="46.3073" lon="-0.34182">
        <ele>65.2834</ele>
        <time>2010-12-12T13:27:58Z</time>
      </trkpt>
      <trkpt lat="46.3073" lon="-0.34183">
        <ele>65.3715</ele>
        <time>2010-12-12T13:27:59Z</time>
      </trkpt>
      <trkpt lat="46.3073" lon="-0.34184">
        <ele>65.458</ele>
        <time>2010-12-12T13:28:00Z</time>
      </trkpt>
      <trkpt lat="46.3073" lon="-0.34186">
        <ele>65.544</ele>
        <time>2010-12-12T13:28:01Z</time>
      </trkpt>
      <trkpt lat="46.3073" lon="-0.34188">
        <ele>65.629</ele>
        <time>2010-12-12T13:28:02Z</time>
      </trkpt>
      <trkpt lat="46.3073" lon="-0.3419">
        <ele>65.7128</ele>
        <time>2010-12-12T13:28:03Z</time>
      </trkpt>
      <trkpt lat="46.30731" lon="-0.34191">
        <ele>65.7953</ele>
        <time>2010-12-12T13:28:05Z</time>
      </trkpt>
      <trkpt lat="46.30731" lon="-0.34193">
        <ele>65.8734</ele>
        <time>2010-12-12T13:28:06Z</time>
      </trkpt>
      <trkpt lat="46.30731" lon="-0.34195">
        <ele>65.95</ele>
        <time>2010-12-12T13:28:07Z</time>
      </trkpt>
      <trkpt lat="46.3073" lon="-0.34196">
        <ele>66.0311</ele>
        <time>2010-12-12T13:28:08Z</time>
      </trkpt>
      <trkpt lat="46.3073" lon="-0.34197">
        <ele>66.1161</ele>
        <time>2010-12-12T13:28:09Z</time>
      </trkpt>
      <trkpt lat="46.30729" lon="-0.34199">
        <ele>66.2014</ele>
        <time>2010-12-12T13:28:10Z</time>
      </trkpt>
      <trkpt lat="46.30729" lon="-0.342">
        <ele>66.2873</ele>
        <time>2010-12-12T13:28:11Z</time>
      </trkpt>
      <trkpt lat="46.30728" lon="-0.34202">
        <ele>66.3707</ele>
        <time>2010-12-12T13:28:12Z</time>
      </trkpt>
      <trkpt lat="46.30728" lon="-0.34204">
        <ele>66.4531</ele>
        <time>2010-12-12T13:28:13Z</time>
      </trkpt>
      <trkpt lat="46.30727" lon="-0.34205">
        <ele>66.528</ele>
        <time>2010-12-12T13:28:14Z</time>
      </trkpt>
      <trkpt lat="46.30727" lon="-0.34207">
        <ele>66.5977</ele>
        <time>2010-12-12T13:28:15Z</time>
      </trkpt>
      <trkpt lat="46.30727" lon="-0.34209">
        <ele>66.668</ele>
        <time>2010-12-12T13:28:16Z</time>
      </trkpt>
      <trkpt lat="46.30726" lon="-0.3421">
        <ele>66.7399</ele>
        <time>2010-12-12T13:28:17Z</time>
      </trkpt>
      <trkpt lat="46.30726" lon="-0.34212">
        <ele>66.8087</ele>
        <time>2010-12-12T13:28:18Z</time>
      </trkpt>
      <trkpt lat="46.30726" lon="-0.34213">
        <ele>66.8723</ele>
        <time>2010-12-12T13:28:19Z</time>
      </trkpt>
      <trkpt lat="46.30726" lon="-0.34215">
        <ele>66.9342</ele>
        <time>2010-12-12T13:28:23Z</time>
      </trkpt>
      <trkpt lat="46.30726" lon="-0.34215">
        <ele>66.9785</ele>
        <time>2010-12-12T13:28:24Z</time>
      </trkpt>
      <trkpt lat="46.30726" lon="-0.34217">
        <ele>67.0228</ele>
        <time>2010-12-12T13:28:25Z</time>
      </trkpt>
      <trkpt lat="46.30727" lon="-0.34218">
        <ele>67.0643</ele>
        <time>2010-12-12T13:28:26Z</time>
      </trkpt>
      <trkpt lat="46.30727" lon="-0.34219">
        <ele>67.1069</ele>
        <time>2010-12-12T13:28:27Z</time>
      </trkpt>
      <trkpt lat="46.30728" lon="-0.34221">
        <ele>67.1584</ele>
        <time>2010-12-12T13:28:31Z</time>
      </trkpt>
      <trkpt lat="46.30728" lon="-0.34222">
        <ele>67.1905</ele>
        <time>2010-12-12T13:28:32Z</time>
      </trkpt>
      <trkpt lat="46.30728" lon="-0.34224">
        <ele>67.2193</ele>
        <time>2010-12-12T13:28:33Z</time>
      </trkpt>
      <trkpt lat="46.30728" lon="-0.34225">
        <ele>67.244</ele>
        <time>2010-12-12T13:28:34Z</time>
      </trkpt>
      <trkpt lat="46.30727" lon="-0.34227">
        <ele>67.2651</ele>
        <time>2010-12-12T13:28:35Z</time>
      </trkpt>
      <trkpt lat="46.30727" lon="-0.34228">
        <ele>67.2875</ele>
        <time>2010-12-12T13:28:36Z</time>
      </trkpt>
      <trkpt lat="46.30726" lon="-0.34229">
        <ele>67.3062</ele>
        <time>2010-12-12T13:28:37Z</time>
      </trkpt>
      <trkpt lat="46.30726" lon="-0.3423">
        <ele>67.3215</ele>
        <time>2010-12-12T13:28:38Z</time>
      </trkpt>
      <trkpt lat="46.30726" lon="-0.34232">
        <ele>67.3332</ele>
        <time>2010-12-12T13:28:39Z</time>
      </trkpt>
      <trkpt lat="46.30725" lon="-0.34233">
        <ele>67.3407</ele>
        <time>2010-12-12T13:28:40Z</time>
      </trkpt>
      <trkpt lat="46.30724" lon="-0.34234">
        <ele>67.3461</ele>
        <time>2010-12-12T13:28:41Z</time>
      </trkpt>
      <trkpt lat="46.30724" lon="-0.34235">
        <ele>67.3513</ele>
        <time>2010-12-12T13:28:42Z</time>
      </trkpt>
      <trkpt lat="46.30724" lon="-0.34236">
        <ele>67.3572</ele>
        <time>2010-12-12T13:28:43Z</time>
      </trkpt>
      <trkpt lat="46.30719" lon="-0.34233">
        <ele>67.2037</ele>
        <time>2010-12-12T13:29:13Z</time>
      </trkpt>
      <trkpt lat="46.30719" lon="-0.34234">
        <ele>67.1819</ele>
        <time>2010-12-12T13:29:14Z</time>
      </trkpt>
      <trkpt lat="46.30719" lon="-0.34234">
        <ele>67.1815</ele>
        <time>2010-12-12T13:29:15Z</time>
      </trkpt>
      <trkpt lat="46.30718" lon="-0.34235">
        <ele>67.1848</ele>
        <time>2010-12-12T13:29:16Z</time>
      </trkpt>
      <trkpt lat="46.30717" lon="-0.34238">
        <ele>67.1958</ele>
        <time>2010-12-12T13:29:17Z</time>
      </trkpt>
      <trkpt lat="46.30717" lon="-0.34241">
        <ele>67.2047</ele>
        <time>2010-12-12T13:29:18Z</time>
      </trkpt>
      <trkpt lat="46.30716" lon="-0.34243">
        <ele>67.2177</ele>
        <time>2010-12-12T13:29:19Z</time>
      </trkpt>
      <trkpt lat="46.30716" lon="-0.34245">
        <ele>67.2344</ele>
        <time>2010-12-12T13:29:20Z</time>
      </trkpt>
      <trkpt lat="46.30716" lon="-0.34248">
        <ele>67.2508</ele>
        <time>2010-12-12T13:29:21Z</time>
      </trkpt>
      <trkpt lat="46.30716" lon="-0.3425">
        <ele>67.2664</ele>
        <time>2010-12-12T13:29:22Z</time>
      </trkpt>
      <trkpt lat="46.30716" lon="-0.34253">
        <ele>67.2826</ele>
        <time>2010-12-12T13:29:23Z</time>
      </trkpt>
      <trkpt lat="46.30716" lon="-0.34255">
        <ele>67.3022</ele>
        <time>2010-12-12T13:29:24Z</time>
      </trkpt>
      <trkpt lat="46.30716" lon="-0.34257">
        <ele>67.3166</ele>
        <time>2010-12-12T13:29:25Z</time>
      </trkpt>
      <trkpt lat="46.30715" lon="-0.34258">
        <ele>67.3279</ele>
        <time>2010-12-12T13:29:25Z</time>
      </trkpt>
      <trkpt lat="46.30715" lon="-0.3426">
        <ele>67.3383</ele>
        <time>2010-12-12T13:29:26Z</time>
      </trkpt>
      <trkpt lat="46.30714" lon="-0.34262">
        <ele>67.3465</ele>
        <time>2010-12-12T13:29:28Z</time>
      </trkpt>
    </trkseg>
  </trk>
</gpx>